<?xml version="1.0" encoding="UTF-8" standalone="no" ?>
<gpx xmlns="http://www.topografix.com/GPX/1/1" xmlns:xsi="http://www.w3.org/2001/XMLSchema-instance" xsi:schemaLocation="http://www.topografix.com/GPX/1/1 http://www.topografix.com/GPX/1/1/gpx.xsd" version="1.1" creator="VisuGPX - https://www.visugpx.com">
  <metadata>
    <name>Chambors - la Vallée du Réveillon</name>
  </metadata>
  <trk>
    <name><![CDATA[Chambors - la Vallée du Réveillon_1]]></name>
    <trkseg>
      <trkpt lat="49.26017" lon="1.81445">
        <ele>163</ele>
        <time>2022-02-20T08:20:15Z</time>
      </trkpt>
      <trkpt lat="49.2602" lon="1.81452">
        <ele>57.8</ele>
        <time>2022-02-20T08:20:26Z</time>
      </trkpt>
      <trkpt lat="49.26023" lon="1.81459">
        <ele>55.2</ele>
        <time>2022-02-20T08:20:30Z</time>
      </trkpt>
      <trkpt lat="49.26026" lon="1.81466">
        <ele>54.4</ele>
        <time>2022-02-20T08:20:33Z</time>
      </trkpt>
      <trkpt lat="49.26031" lon="1.81467">
        <ele>54.7</ele>
        <time>2022-02-20T08:20:38Z</time>
      </trkpt>
      <trkpt lat="49.26035" lon="1.81471">
        <ele>55.3</ele>
        <time>2022-02-20T08:20:42Z</time>
      </trkpt>
      <trkpt lat="49.26038" lon="1.81476">
        <ele>56.1</ele>
        <time>2022-02-20T08:20:46Z</time>
      </trkpt>
      <trkpt lat="49.26043" lon="1.8148">
        <ele>57.3</ele>
        <time>2022-02-20T08:20:51Z</time>
      </trkpt>
      <trkpt lat="49.26048" lon="1.8148">
        <ele>58</ele>
        <time>2022-02-20T08:20:55Z</time>
      </trkpt>
      <trkpt lat="49.26053" lon="1.81476">
        <ele>57.7</ele>
        <time>2022-02-20T08:21:00Z</time>
      </trkpt>
      <trkpt lat="49.26048" lon="1.81472">
        <ele>57.6</ele>
        <time>2022-02-20T08:21:02Z</time>
      </trkpt>
      <trkpt lat="49.26051" lon="1.81463">
        <ele>56.4</ele>
        <time>2022-02-20T08:21:05Z</time>
      </trkpt>
      <trkpt lat="49.26056" lon="1.81465">
        <ele>56.3</ele>
        <time>2022-02-20T08:21:08Z</time>
      </trkpt>
      <trkpt lat="49.26061" lon="1.81469">
        <ele>57.4</ele>
        <time>2022-02-20T08:21:11Z</time>
      </trkpt>
      <trkpt lat="49.26064" lon="1.81463">
        <ele>59.5</ele>
        <time>2022-02-20T08:21:17Z</time>
      </trkpt>
      <trkpt lat="49.26067" lon="1.81458">
        <ele>58.5</ele>
        <time>2022-02-20T08:21:21Z</time>
      </trkpt>
      <trkpt lat="49.26072" lon="1.81453">
        <ele>57.5</ele>
        <time>2022-02-20T08:21:25Z</time>
      </trkpt>
      <trkpt lat="49.26076" lon="1.81448">
        <ele>57.4</ele>
        <time>2022-02-20T08:21:29Z</time>
      </trkpt>
      <trkpt lat="49.26081" lon="1.81444">
        <ele>57</ele>
        <time>2022-02-20T08:21:33Z</time>
      </trkpt>
      <trkpt lat="49.26087" lon="1.81441">
        <ele>57.7</ele>
        <time>2022-02-20T08:21:37Z</time>
      </trkpt>
      <trkpt lat="49.26092" lon="1.81436">
        <ele>59.2</ele>
        <time>2022-02-20T08:21:41Z</time>
      </trkpt>
      <trkpt lat="49.26096" lon="1.81431">
        <ele>60.4</ele>
        <time>2022-02-20T08:21:46Z</time>
      </trkpt>
      <trkpt lat="49.26101" lon="1.81426">
        <ele>60.5</ele>
        <time>2022-02-20T08:21:50Z</time>
      </trkpt>
      <trkpt lat="49.26104" lon="1.8142">
        <ele>58.6</ele>
        <time>2022-02-20T08:21:55Z</time>
      </trkpt>
      <trkpt lat="49.26108" lon="1.81415">
        <ele>57.9</ele>
        <time>2022-02-20T08:22:01Z</time>
      </trkpt>
      <trkpt lat="49.26112" lon="1.81409">
        <ele>58.4</ele>
        <time>2022-02-20T08:22:06Z</time>
      </trkpt>
      <trkpt lat="49.26116" lon="1.81405">
        <ele>58.6</ele>
        <time>2022-02-20T08:22:10Z</time>
      </trkpt>
      <trkpt lat="49.2612" lon="1.814">
        <ele>58.7</ele>
        <time>2022-02-20T08:22:15Z</time>
      </trkpt>
      <trkpt lat="49.26124" lon="1.81395">
        <ele>59.3</ele>
        <time>2022-02-20T08:22:20Z</time>
      </trkpt>
      <trkpt lat="49.26127" lon="1.81389">
        <ele>59.3</ele>
        <time>2022-02-20T08:22:24Z</time>
      </trkpt>
      <trkpt lat="49.26131" lon="1.81383">
        <ele>58.9</ele>
        <time>2022-02-20T08:22:29Z</time>
      </trkpt>
      <trkpt lat="49.26136" lon="1.81381">
        <ele>57.2</ele>
        <time>2022-02-20T08:22:34Z</time>
      </trkpt>
      <trkpt lat="49.26141" lon="1.81382">
        <ele>56</ele>
        <time>2022-02-20T08:22:39Z</time>
      </trkpt>
      <trkpt lat="49.26146" lon="1.8138">
        <ele>55.9</ele>
        <time>2022-02-20T08:22:44Z</time>
      </trkpt>
      <trkpt lat="49.2615" lon="1.81375">
        <ele>56</ele>
        <time>2022-02-20T08:22:48Z</time>
      </trkpt>
      <trkpt lat="49.26153" lon="1.81369">
        <ele>55.8</ele>
        <time>2022-02-20T08:22:53Z</time>
      </trkpt>
      <trkpt lat="49.26156" lon="1.81363">
        <ele>55.7</ele>
        <time>2022-02-20T08:22:57Z</time>
      </trkpt>
      <trkpt lat="49.2616" lon="1.81359">
        <ele>55.6</ele>
        <time>2022-02-20T08:23:01Z</time>
      </trkpt>
      <trkpt lat="49.26164" lon="1.81355">
        <ele>55.7</ele>
        <time>2022-02-20T08:23:06Z</time>
      </trkpt>
      <trkpt lat="49.26168" lon="1.81349">
        <ele>55.6</ele>
        <time>2022-02-20T08:23:11Z</time>
      </trkpt>
      <trkpt lat="49.26172" lon="1.81344">
        <ele>55.5</ele>
        <time>2022-02-20T08:23:15Z</time>
      </trkpt>
      <trkpt lat="49.26176" lon="1.81339">
        <ele>55.9</ele>
        <time>2022-02-20T08:23:19Z</time>
      </trkpt>
      <trkpt lat="49.2618" lon="1.81334">
        <ele>56.8</ele>
        <time>2022-02-20T08:23:24Z</time>
      </trkpt>
      <trkpt lat="49.26183" lon="1.81329">
        <ele>57.7</ele>
        <time>2022-02-20T08:23:28Z</time>
      </trkpt>
      <trkpt lat="49.26186" lon="1.81323">
        <ele>58.6</ele>
        <time>2022-02-20T08:23:32Z</time>
      </trkpt>
      <trkpt lat="49.26189" lon="1.81316">
        <ele>59.8</ele>
        <time>2022-02-20T08:23:36Z</time>
      </trkpt>
      <trkpt lat="49.26194" lon="1.81314">
        <ele>61.2</ele>
        <time>2022-02-20T08:23:41Z</time>
      </trkpt>
      <trkpt lat="49.26196" lon="1.81322">
        <ele>62.1</ele>
        <time>2022-02-20T08:23:45Z</time>
      </trkpt>
      <trkpt lat="49.26196" lon="1.8133">
        <ele>62.5</ele>
        <time>2022-02-20T08:23:48Z</time>
      </trkpt>
      <trkpt lat="49.26197" lon="1.81337">
        <ele>62.6</ele>
        <time>2022-02-20T08:23:51Z</time>
      </trkpt>
      <trkpt lat="49.26197" lon="1.81344">
        <ele>62.6</ele>
        <time>2022-02-20T08:23:54Z</time>
      </trkpt>
      <trkpt lat="49.26198" lon="1.81351">
        <ele>62.3</ele>
        <time>2022-02-20T08:23:58Z</time>
      </trkpt>
      <trkpt lat="49.26199" lon="1.81358">
        <ele>61.9</ele>
        <time>2022-02-20T08:24:01Z</time>
      </trkpt>
      <trkpt lat="49.262" lon="1.81365">
        <ele>61.4</ele>
        <time>2022-02-20T08:24:06Z</time>
      </trkpt>
      <trkpt lat="49.26201" lon="1.81374">
        <ele>60.7</ele>
        <time>2022-02-20T08:24:11Z</time>
      </trkpt>
      <trkpt lat="49.262" lon="1.8138">
        <ele>60.1</ele>
        <time>2022-02-20T08:24:15Z</time>
      </trkpt>
      <trkpt lat="49.26198" lon="1.81388">
        <ele>60.1</ele>
        <time>2022-02-20T08:24:20Z</time>
      </trkpt>
      <trkpt lat="49.26197" lon="1.81397">
        <ele>60.4</ele>
        <time>2022-02-20T08:24:24Z</time>
      </trkpt>
      <trkpt lat="49.26196" lon="1.81403">
        <ele>59.9</ele>
        <time>2022-02-20T08:24:28Z</time>
      </trkpt>
      <trkpt lat="49.26193" lon="1.8141">
        <ele>59.5</ele>
        <time>2022-02-20T08:24:32Z</time>
      </trkpt>
      <trkpt lat="49.2619" lon="1.81417">
        <ele>59</ele>
        <time>2022-02-20T08:24:36Z</time>
      </trkpt>
      <trkpt lat="49.26187" lon="1.81423">
        <ele>58</ele>
        <time>2022-02-20T08:24:41Z</time>
      </trkpt>
      <trkpt lat="49.26184" lon="1.8143">
        <ele>57.4</ele>
        <time>2022-02-20T08:24:45Z</time>
      </trkpt>
      <trkpt lat="49.2618" lon="1.81434">
        <ele>57.1</ele>
        <time>2022-02-20T08:24:49Z</time>
      </trkpt>
      <trkpt lat="49.26175" lon="1.81438">
        <ele>58.1</ele>
        <time>2022-02-20T08:24:53Z</time>
      </trkpt>
      <trkpt lat="49.2617" lon="1.81443">
        <ele>59.4</ele>
        <time>2022-02-20T08:24:57Z</time>
      </trkpt>
      <trkpt lat="49.26167" lon="1.81449">
        <ele>59.7</ele>
        <time>2022-02-20T08:25:01Z</time>
      </trkpt>
      <trkpt lat="49.26164" lon="1.81456">
        <ele>59.7</ele>
        <time>2022-02-20T08:25:05Z</time>
      </trkpt>
      <trkpt lat="49.26159" lon="1.81461">
        <ele>59.3</ele>
        <time>2022-02-20T08:25:09Z</time>
      </trkpt>
      <trkpt lat="49.26155" lon="1.81466">
        <ele>58.6</ele>
        <time>2022-02-20T08:25:13Z</time>
      </trkpt>
      <trkpt lat="49.2615" lon="1.81471">
        <ele>58.7</ele>
        <time>2022-02-20T08:25:17Z</time>
      </trkpt>
      <trkpt lat="49.26147" lon="1.81477">
        <ele>59.5</ele>
        <time>2022-02-20T08:25:20Z</time>
      </trkpt>
      <trkpt lat="49.26144" lon="1.81482">
        <ele>60.6</ele>
        <time>2022-02-20T08:25:24Z</time>
      </trkpt>
      <trkpt lat="49.2614" lon="1.8149">
        <ele>62.2</ele>
        <time>2022-02-20T08:25:29Z</time>
      </trkpt>
      <trkpt lat="49.26137" lon="1.81495">
        <ele>63</ele>
        <time>2022-02-20T08:25:33Z</time>
      </trkpt>
      <trkpt lat="49.26134" lon="1.81501">
        <ele>63</ele>
        <time>2022-02-20T08:25:36Z</time>
      </trkpt>
      <trkpt lat="49.2613" lon="1.81507">
        <ele>62.7</ele>
        <time>2022-02-20T08:25:41Z</time>
      </trkpt>
      <trkpt lat="49.26126" lon="1.81514">
        <ele>61.7</ele>
        <time>2022-02-20T08:25:45Z</time>
      </trkpt>
      <trkpt lat="49.26123" lon="1.81521">
        <ele>60.8</ele>
        <time>2022-02-20T08:25:50Z</time>
      </trkpt>
      <trkpt lat="49.2612" lon="1.81529">
        <ele>61.1</ele>
        <time>2022-02-20T08:25:54Z</time>
      </trkpt>
      <trkpt lat="49.26119" lon="1.81535">
        <ele>61.7</ele>
        <time>2022-02-20T08:25:57Z</time>
      </trkpt>
      <trkpt lat="49.2612" lon="1.81543">
        <ele>62.4</ele>
        <time>2022-02-20T08:26:01Z</time>
      </trkpt>
      <trkpt lat="49.26119" lon="1.81551">
        <ele>61.8</ele>
        <time>2022-02-20T08:26:05Z</time>
      </trkpt>
      <trkpt lat="49.26118" lon="1.81558">
        <ele>61.8</ele>
        <time>2022-02-20T08:26:10Z</time>
      </trkpt>
      <trkpt lat="49.26117" lon="1.81565">
        <ele>63</ele>
        <time>2022-02-20T08:26:14Z</time>
      </trkpt>
      <trkpt lat="49.26116" lon="1.81573">
        <ele>64.5</ele>
        <time>2022-02-20T08:26:18Z</time>
      </trkpt>
      <trkpt lat="49.26115" lon="1.8158">
        <ele>65.5</ele>
        <time>2022-02-20T08:26:22Z</time>
      </trkpt>
      <trkpt lat="49.26114" lon="1.81588">
        <ele>66.3</ele>
        <time>2022-02-20T08:26:25Z</time>
      </trkpt>
      <trkpt lat="49.26113" lon="1.81596">
        <ele>66.5</ele>
        <time>2022-02-20T08:26:29Z</time>
      </trkpt>
      <trkpt lat="49.26113" lon="1.81603">
        <ele>65.7</ele>
        <time>2022-02-20T08:26:33Z</time>
      </trkpt>
      <trkpt lat="49.26113" lon="1.8161">
        <ele>65.2</ele>
        <time>2022-02-20T08:26:37Z</time>
      </trkpt>
      <trkpt lat="49.26114" lon="1.81618">
        <ele>65</ele>
        <time>2022-02-20T08:26:42Z</time>
      </trkpt>
      <trkpt lat="49.26112" lon="1.81627">
        <ele>65</ele>
        <time>2022-02-20T08:26:46Z</time>
      </trkpt>
      <trkpt lat="49.26111" lon="1.81634">
        <ele>64.7</ele>
        <time>2022-02-20T08:26:50Z</time>
      </trkpt>
      <trkpt lat="49.2611" lon="1.81642">
        <ele>63.8</ele>
        <time>2022-02-20T08:26:54Z</time>
      </trkpt>
      <trkpt lat="49.26109" lon="1.81649">
        <ele>63.3</ele>
        <time>2022-02-20T08:26:58Z</time>
      </trkpt>
      <trkpt lat="49.26108" lon="1.81657">
        <ele>62.4</ele>
        <time>2022-02-20T08:27:03Z</time>
      </trkpt>
      <trkpt lat="49.26105" lon="1.81662">
        <ele>61.6</ele>
        <time>2022-02-20T08:27:09Z</time>
      </trkpt>
      <trkpt lat="49.261" lon="1.81656">
        <ele>62.3</ele>
        <time>2022-02-20T08:27:21Z</time>
      </trkpt>
      <trkpt lat="49.26096" lon="1.81652">
        <ele>62.1</ele>
        <time>2022-02-20T08:27:24Z</time>
      </trkpt>
      <trkpt lat="49.26092" lon="1.81648">
        <ele>62</ele>
        <time>2022-02-20T08:27:28Z</time>
      </trkpt>
      <trkpt lat="49.26087" lon="1.81644">
        <ele>60.7</ele>
        <time>2022-02-20T08:27:33Z</time>
      </trkpt>
      <trkpt lat="49.26082" lon="1.81644">
        <ele>58.6</ele>
        <time>2022-02-20T08:27:37Z</time>
      </trkpt>
      <trkpt lat="49.26077" lon="1.8164">
        <ele>57.5</ele>
        <time>2022-02-20T08:27:41Z</time>
      </trkpt>
      <trkpt lat="49.26073" lon="1.81635">
        <ele>56.5</ele>
        <time>2022-02-20T08:27:45Z</time>
      </trkpt>
      <trkpt lat="49.26069" lon="1.81634">
        <ele>55.9</ele>
        <time>2022-02-20T08:27:49Z</time>
      </trkpt>
      <trkpt lat="49.26064" lon="1.81631">
        <ele>55</ele>
        <time>2022-02-20T08:27:53Z</time>
      </trkpt>
      <trkpt lat="49.26059" lon="1.81629">
        <ele>53.1</ele>
        <time>2022-02-20T08:27:58Z</time>
      </trkpt>
      <trkpt lat="49.26054" lon="1.81624">
        <ele>49</ele>
        <time>2022-02-20T08:28:02Z</time>
      </trkpt>
      <trkpt lat="49.26049" lon="1.81622">
        <ele>45.9</ele>
        <time>2022-02-20T08:28:06Z</time>
      </trkpt>
      <trkpt lat="49.26045" lon="1.81617">
        <ele>44.3</ele>
        <time>2022-02-20T08:28:10Z</time>
      </trkpt>
      <trkpt lat="49.26045" lon="1.8161">
        <ele>45.1</ele>
        <time>2022-02-20T08:28:13Z</time>
      </trkpt>
      <trkpt lat="49.26046" lon="1.81603">
        <ele>46</ele>
        <time>2022-02-20T08:28:16Z</time>
      </trkpt>
      <trkpt lat="49.26047" lon="1.81596">
        <ele>48.8</ele>
        <time>2022-02-20T08:28:24Z</time>
      </trkpt>
      <trkpt lat="49.26047" lon="1.81588">
        <ele>52.4</ele>
        <time>2022-02-20T08:28:29Z</time>
      </trkpt>
      <trkpt lat="49.26042" lon="1.81588">
        <ele>54</ele>
        <time>2022-02-20T08:28:33Z</time>
      </trkpt>
      <trkpt lat="49.26037" lon="1.8159">
        <ele>54.8</ele>
        <time>2022-02-20T08:28:37Z</time>
      </trkpt>
      <trkpt lat="49.26033" lon="1.81594">
        <ele>55.5</ele>
        <time>2022-02-20T08:28:42Z</time>
      </trkpt>
      <trkpt lat="49.26029" lon="1.81598">
        <ele>55.8</ele>
        <time>2022-02-20T08:28:46Z</time>
      </trkpt>
      <trkpt lat="49.26026" lon="1.81604">
        <ele>55.8</ele>
        <time>2022-02-20T08:28:50Z</time>
      </trkpt>
      <trkpt lat="49.26022" lon="1.8161">
        <ele>56.2</ele>
        <time>2022-02-20T08:28:55Z</time>
      </trkpt>
      <trkpt lat="49.26019" lon="1.81616">
        <ele>56.3</ele>
        <time>2022-02-20T08:28:59Z</time>
      </trkpt>
      <trkpt lat="49.26015" lon="1.81622">
        <ele>56.5</ele>
        <time>2022-02-20T08:29:03Z</time>
      </trkpt>
      <trkpt lat="49.26012" lon="1.81628">
        <ele>56.6</ele>
        <time>2022-02-20T08:29:07Z</time>
      </trkpt>
      <trkpt lat="49.26011" lon="1.81635">
        <ele>56.5</ele>
        <time>2022-02-20T08:29:11Z</time>
      </trkpt>
      <trkpt lat="49.26009" lon="1.81643">
        <ele>56.5</ele>
        <time>2022-02-20T08:29:16Z</time>
      </trkpt>
      <trkpt lat="49.26007" lon="1.81649">
        <ele>57.1</ele>
        <time>2022-02-20T08:29:20Z</time>
      </trkpt>
      <trkpt lat="49.26005" lon="1.81656">
        <ele>58.7</ele>
        <time>2022-02-20T08:29:24Z</time>
      </trkpt>
      <trkpt lat="49.26002" lon="1.81662">
        <ele>60</ele>
        <time>2022-02-20T08:29:28Z</time>
      </trkpt>
      <trkpt lat="49.25999" lon="1.81671">
        <ele>59.7</ele>
        <time>2022-02-20T08:29:32Z</time>
      </trkpt>
      <trkpt lat="49.25998" lon="1.8168">
        <ele>57.9</ele>
        <time>2022-02-20T08:29:37Z</time>
      </trkpt>
      <trkpt lat="49.25999" lon="1.81687">
        <ele>56.6</ele>
        <time>2022-02-20T08:29:42Z</time>
      </trkpt>
      <trkpt lat="49.26003" lon="1.81683">
        <ele>56.7</ele>
        <time>2022-02-20T08:29:46Z</time>
      </trkpt>
      <trkpt lat="49.26007" lon="1.81689">
        <ele>57.2</ele>
        <time>2022-02-20T08:29:50Z</time>
      </trkpt>
      <trkpt lat="49.2601" lon="1.81695">
        <ele>57.7</ele>
        <time>2022-02-20T08:29:55Z</time>
      </trkpt>
      <trkpt lat="49.26015" lon="1.81697">
        <ele>57.4</ele>
        <time>2022-02-20T08:30:00Z</time>
      </trkpt>
      <trkpt lat="49.26021" lon="1.817">
        <ele>56.7</ele>
        <time>2022-02-20T08:30:05Z</time>
      </trkpt>
      <trkpt lat="49.26025" lon="1.81704">
        <ele>56.5</ele>
        <time>2022-02-20T08:30:09Z</time>
      </trkpt>
      <trkpt lat="49.2603" lon="1.81708">
        <ele>56.6</ele>
        <time>2022-02-20T08:30:12Z</time>
      </trkpt>
      <trkpt lat="49.26086" lon="1.81751">
        <ele>47.2</ele>
        <time>2022-02-20T08:31:00Z</time>
      </trkpt>
      <trkpt lat="49.2609" lon="1.81756">
        <ele>46.1</ele>
        <time>2022-02-20T08:31:04Z</time>
      </trkpt>
      <trkpt lat="49.2609" lon="1.81765">
        <ele>44.9</ele>
        <time>2022-02-20T08:31:23Z</time>
      </trkpt>
      <trkpt lat="49.26088" lon="1.81771">
        <ele>47.3</ele>
        <time>2022-02-20T08:31:26Z</time>
      </trkpt>
      <trkpt lat="49.26086" lon="1.81777">
        <ele>48.9</ele>
        <time>2022-02-20T08:31:29Z</time>
      </trkpt>
      <trkpt lat="49.26084" lon="1.81785">
        <ele>51.2</ele>
        <time>2022-02-20T08:31:33Z</time>
      </trkpt>
      <trkpt lat="49.26083" lon="1.81792">
        <ele>53.2</ele>
        <time>2022-02-20T08:31:39Z</time>
      </trkpt>
      <trkpt lat="49.26081" lon="1.81802">
        <ele>53.9</ele>
        <time>2022-02-20T08:31:43Z</time>
      </trkpt>
      <trkpt lat="49.2608" lon="1.81811">
        <ele>55.2</ele>
        <time>2022-02-20T08:31:48Z</time>
      </trkpt>
      <trkpt lat="49.26081" lon="1.81818">
        <ele>57.1</ele>
        <time>2022-02-20T08:31:51Z</time>
      </trkpt>
      <trkpt lat="49.26082" lon="1.81826">
        <ele>58.8</ele>
        <time>2022-02-20T08:31:55Z</time>
      </trkpt>
      <trkpt lat="49.26083" lon="1.81833">
        <ele>60</ele>
        <time>2022-02-20T08:32:00Z</time>
      </trkpt>
      <trkpt lat="49.26081" lon="1.8184">
        <ele>61.5</ele>
        <time>2022-02-20T08:32:06Z</time>
      </trkpt>
      <trkpt lat="49.26078" lon="1.81845">
        <ele>61.7</ele>
        <time>2022-02-20T08:32:10Z</time>
      </trkpt>
      <trkpt lat="49.26074" lon="1.81852">
        <ele>62</ele>
        <time>2022-02-20T08:32:15Z</time>
      </trkpt>
      <trkpt lat="49.26072" lon="1.8186">
        <ele>62.1</ele>
        <time>2022-02-20T08:32:18Z</time>
      </trkpt>
      <trkpt lat="49.26069" lon="1.81868">
        <ele>61.6</ele>
        <time>2022-02-20T08:32:22Z</time>
      </trkpt>
      <trkpt lat="49.26066" lon="1.81875">
        <ele>61.3</ele>
        <time>2022-02-20T08:32:27Z</time>
      </trkpt>
      <trkpt lat="49.26063" lon="1.81882">
        <ele>62</ele>
        <time>2022-02-20T08:32:30Z</time>
      </trkpt>
      <trkpt lat="49.26059" lon="1.81889">
        <ele>63.9</ele>
        <time>2022-02-20T08:32:36Z</time>
      </trkpt>
      <trkpt lat="49.26057" lon="1.81895">
        <ele>65.1</ele>
        <time>2022-02-20T08:32:40Z</time>
      </trkpt>
      <trkpt lat="49.26054" lon="1.819">
        <ele>65.5</ele>
        <time>2022-02-20T08:32:44Z</time>
      </trkpt>
      <trkpt lat="49.2605" lon="1.81903">
        <ele>66.2</ele>
        <time>2022-02-20T08:32:48Z</time>
      </trkpt>
      <trkpt lat="49.26045" lon="1.81901">
        <ele>67.3</ele>
        <time>2022-02-20T08:32:53Z</time>
      </trkpt>
      <trkpt lat="49.2604" lon="1.81898">
        <ele>67</ele>
        <time>2022-02-20T08:32:58Z</time>
      </trkpt>
      <trkpt lat="49.26034" lon="1.81895">
        <ele>66</ele>
        <time>2022-02-20T08:33:03Z</time>
      </trkpt>
      <trkpt lat="49.26029" lon="1.81892">
        <ele>65.8</ele>
        <time>2022-02-20T08:33:08Z</time>
      </trkpt>
      <trkpt lat="49.26024" lon="1.81891">
        <ele>65.6</ele>
        <time>2022-02-20T08:33:12Z</time>
      </trkpt>
      <trkpt lat="49.26019" lon="1.81889">
        <ele>65.9</ele>
        <time>2022-02-20T08:33:16Z</time>
      </trkpt>
      <trkpt lat="49.26014" lon="1.81886">
        <ele>66</ele>
        <time>2022-02-20T08:33:22Z</time>
      </trkpt>
      <trkpt lat="49.26008" lon="1.81885">
        <ele>66.5</ele>
        <time>2022-02-20T08:33:27Z</time>
      </trkpt>
      <trkpt lat="49.26003" lon="1.81885">
        <ele>68.2</ele>
        <time>2022-02-20T08:33:32Z</time>
      </trkpt>
      <trkpt lat="49.25998" lon="1.81888">
        <ele>71.6</ele>
        <time>2022-02-20T08:33:36Z</time>
      </trkpt>
      <trkpt lat="49.25993" lon="1.81892">
        <ele>75.2</ele>
        <time>2022-02-20T08:33:40Z</time>
      </trkpt>
      <trkpt lat="49.25988" lon="1.81895">
        <ele>75.7</ele>
        <time>2022-02-20T08:33:44Z</time>
      </trkpt>
      <trkpt lat="49.25984" lon="1.81897">
        <ele>74.9</ele>
        <time>2022-02-20T08:33:49Z</time>
      </trkpt>
      <trkpt lat="49.25978" lon="1.81897">
        <ele>73.9</ele>
        <time>2022-02-20T08:33:53Z</time>
      </trkpt>
      <trkpt lat="49.25973" lon="1.81897">
        <ele>72.6</ele>
        <time>2022-02-20T08:33:57Z</time>
      </trkpt>
      <trkpt lat="49.25968" lon="1.81899">
        <ele>71</ele>
        <time>2022-02-20T08:34:02Z</time>
      </trkpt>
      <trkpt lat="49.25963" lon="1.81903">
        <ele>69.7</ele>
        <time>2022-02-20T08:34:09Z</time>
      </trkpt>
      <trkpt lat="49.25958" lon="1.81907">
        <ele>69.3</ele>
        <time>2022-02-20T08:34:13Z</time>
      </trkpt>
      <trkpt lat="49.25955" lon="1.81913">
        <ele>69</ele>
        <time>2022-02-20T08:34:17Z</time>
      </trkpt>
      <trkpt lat="49.25951" lon="1.8192">
        <ele>69</ele>
        <time>2022-02-20T08:34:21Z</time>
      </trkpt>
      <trkpt lat="49.25948" lon="1.81925">
        <ele>69.7</ele>
        <time>2022-02-20T08:34:26Z</time>
      </trkpt>
      <trkpt lat="49.25944" lon="1.81929">
        <ele>70.3</ele>
        <time>2022-02-20T08:34:30Z</time>
      </trkpt>
      <trkpt lat="49.25942" lon="1.81936">
        <ele>70.7</ele>
        <time>2022-02-20T08:34:34Z</time>
      </trkpt>
      <trkpt lat="49.2594" lon="1.81942">
        <ele>71.1</ele>
        <time>2022-02-20T08:34:40Z</time>
      </trkpt>
      <trkpt lat="49.25937" lon="1.81948">
        <ele>71.1</ele>
        <time>2022-02-20T08:34:45Z</time>
      </trkpt>
      <trkpt lat="49.25934" lon="1.81955">
        <ele>70.9</ele>
        <time>2022-02-20T08:34:50Z</time>
      </trkpt>
      <trkpt lat="49.25931" lon="1.81962">
        <ele>70.8</ele>
        <time>2022-02-20T08:34:55Z</time>
      </trkpt>
      <trkpt lat="49.25928" lon="1.8197">
        <ele>71</ele>
        <time>2022-02-20T08:35:00Z</time>
      </trkpt>
      <trkpt lat="49.25926" lon="1.81976">
        <ele>71</ele>
        <time>2022-02-20T08:35:03Z</time>
      </trkpt>
      <trkpt lat="49.25923" lon="1.81983">
        <ele>71.1</ele>
        <time>2022-02-20T08:35:07Z</time>
      </trkpt>
      <trkpt lat="49.25921" lon="1.8199">
        <ele>70.7</ele>
        <time>2022-02-20T08:35:12Z</time>
      </trkpt>
      <trkpt lat="49.25919" lon="1.81997">
        <ele>70</ele>
        <time>2022-02-20T08:35:16Z</time>
      </trkpt>
      <trkpt lat="49.25916" lon="1.82003">
        <ele>70.3</ele>
        <time>2022-02-20T08:35:19Z</time>
      </trkpt>
      <trkpt lat="49.25912" lon="1.8201">
        <ele>71.6</ele>
        <time>2022-02-20T08:35:24Z</time>
      </trkpt>
      <trkpt lat="49.25911" lon="1.82016">
        <ele>71.6</ele>
        <time>2022-02-20T08:35:30Z</time>
      </trkpt>
      <trkpt lat="49.25905" lon="1.82021">
        <ele>71.6</ele>
        <time>2022-02-20T08:35:34Z</time>
      </trkpt>
      <trkpt lat="49.25901" lon="1.82024">
        <ele>72.3</ele>
        <time>2022-02-20T08:35:37Z</time>
      </trkpt>
      <trkpt lat="49.25897" lon="1.8203">
        <ele>72.9</ele>
        <time>2022-02-20T08:35:41Z</time>
      </trkpt>
      <trkpt lat="49.25893" lon="1.82034">
        <ele>73</ele>
        <time>2022-02-20T08:35:46Z</time>
      </trkpt>
      <trkpt lat="49.2589" lon="1.8204">
        <ele>73.2</ele>
        <time>2022-02-20T08:35:50Z</time>
      </trkpt>
      <trkpt lat="49.25888" lon="1.82047">
        <ele>72.9</ele>
        <time>2022-02-20T08:35:54Z</time>
      </trkpt>
      <trkpt lat="49.25884" lon="1.82052">
        <ele>72.3</ele>
        <time>2022-02-20T08:35:58Z</time>
      </trkpt>
      <trkpt lat="49.25879" lon="1.82056">
        <ele>72.2</ele>
        <time>2022-02-20T08:36:02Z</time>
      </trkpt>
      <trkpt lat="49.25874" lon="1.8206">
        <ele>74.6</ele>
        <time>2022-02-20T08:36:06Z</time>
      </trkpt>
      <trkpt lat="49.2587" lon="1.82064">
        <ele>76.4</ele>
        <time>2022-02-20T08:36:10Z</time>
      </trkpt>
      <trkpt lat="49.25866" lon="1.82069">
        <ele>76.6</ele>
        <time>2022-02-20T08:36:14Z</time>
      </trkpt>
      <trkpt lat="49.25861" lon="1.82071">
        <ele>75.3</ele>
        <time>2022-02-20T08:36:20Z</time>
      </trkpt>
      <trkpt lat="49.25857" lon="1.82074">
        <ele>74.8</ele>
        <time>2022-02-20T08:36:24Z</time>
      </trkpt>
      <trkpt lat="49.25852" lon="1.82078">
        <ele>75.8</ele>
        <time>2022-02-20T08:36:28Z</time>
      </trkpt>
      <trkpt lat="49.25848" lon="1.82081">
        <ele>77.6</ele>
        <time>2022-02-20T08:36:31Z</time>
      </trkpt>
      <trkpt lat="49.25843" lon="1.82084">
        <ele>79.3</ele>
        <time>2022-02-20T08:36:34Z</time>
      </trkpt>
      <trkpt lat="49.25839" lon="1.82085">
        <ele>81.3</ele>
        <time>2022-02-20T08:36:37Z</time>
      </trkpt>
      <trkpt lat="49.25834" lon="1.82087">
        <ele>82.8</ele>
        <time>2022-02-20T08:36:41Z</time>
      </trkpt>
      <trkpt lat="49.25829" lon="1.82089">
        <ele>82.9</ele>
        <time>2022-02-20T08:36:45Z</time>
      </trkpt>
      <trkpt lat="49.25824" lon="1.82089">
        <ele>83.2</ele>
        <time>2022-02-20T08:36:50Z</time>
      </trkpt>
      <trkpt lat="49.25819" lon="1.8209">
        <ele>84.1</ele>
        <time>2022-02-20T08:36:54Z</time>
      </trkpt>
      <trkpt lat="49.25813" lon="1.82094">
        <ele>86.7</ele>
        <time>2022-02-20T08:36:58Z</time>
      </trkpt>
      <trkpt lat="49.25808" lon="1.82098">
        <ele>87.9</ele>
        <time>2022-02-20T08:37:02Z</time>
      </trkpt>
      <trkpt lat="49.25804" lon="1.82102">
        <ele>88</ele>
        <time>2022-02-20T08:37:06Z</time>
      </trkpt>
      <trkpt lat="49.25799" lon="1.82105">
        <ele>87.4</ele>
        <time>2022-02-20T08:37:10Z</time>
      </trkpt>
      <trkpt lat="49.25794" lon="1.82109">
        <ele>87.6</ele>
        <time>2022-02-20T08:37:14Z</time>
      </trkpt>
      <trkpt lat="49.25789" lon="1.82111">
        <ele>88.1</ele>
        <time>2022-02-20T08:37:18Z</time>
      </trkpt>
      <trkpt lat="49.25785" lon="1.82114">
        <ele>88.2</ele>
        <time>2022-02-20T08:37:22Z</time>
      </trkpt>
      <trkpt lat="49.2578" lon="1.82117">
        <ele>88.5</ele>
        <time>2022-02-20T08:37:27Z</time>
      </trkpt>
      <trkpt lat="49.25776" lon="1.82121">
        <ele>89.3</ele>
        <time>2022-02-20T08:37:31Z</time>
      </trkpt>
      <trkpt lat="49.25772" lon="1.82126">
        <ele>90.1</ele>
        <time>2022-02-20T08:37:35Z</time>
      </trkpt>
      <trkpt lat="49.25769" lon="1.82131">
        <ele>90.7</ele>
        <time>2022-02-20T08:37:39Z</time>
      </trkpt>
      <trkpt lat="49.25764" lon="1.82137">
        <ele>91.7</ele>
        <time>2022-02-20T08:37:43Z</time>
      </trkpt>
      <trkpt lat="49.2576" lon="1.82142">
        <ele>92.4</ele>
        <time>2022-02-20T08:37:47Z</time>
      </trkpt>
      <trkpt lat="49.25756" lon="1.82147">
        <ele>92.6</ele>
        <time>2022-02-20T08:37:51Z</time>
      </trkpt>
      <trkpt lat="49.25752" lon="1.82152">
        <ele>93.2</ele>
        <time>2022-02-20T08:37:56Z</time>
      </trkpt>
      <trkpt lat="49.25748" lon="1.82157">
        <ele>93.4</ele>
        <time>2022-02-20T08:38:00Z</time>
      </trkpt>
      <trkpt lat="49.25745" lon="1.82163">
        <ele>93.4</ele>
        <time>2022-02-20T08:38:04Z</time>
      </trkpt>
      <trkpt lat="49.2574" lon="1.82167">
        <ele>94</ele>
        <time>2022-02-20T08:38:09Z</time>
      </trkpt>
      <trkpt lat="49.25736" lon="1.82172">
        <ele>95.6</ele>
        <time>2022-02-20T08:38:13Z</time>
      </trkpt>
      <trkpt lat="49.25732" lon="1.82178">
        <ele>96.3</ele>
        <time>2022-02-20T08:38:17Z</time>
      </trkpt>
      <trkpt lat="49.25729" lon="1.82183">
        <ele>96.4</ele>
        <time>2022-02-20T08:38:21Z</time>
      </trkpt>
      <trkpt lat="49.25725" lon="1.82188">
        <ele>96.9</ele>
        <time>2022-02-20T08:38:26Z</time>
      </trkpt>
      <trkpt lat="49.25721" lon="1.82192">
        <ele>97.5</ele>
        <time>2022-02-20T08:38:30Z</time>
      </trkpt>
      <trkpt lat="49.25717" lon="1.82198">
        <ele>97.7</ele>
        <time>2022-02-20T08:38:35Z</time>
      </trkpt>
      <trkpt lat="49.25713" lon="1.82204">
        <ele>97.3</ele>
        <time>2022-02-20T08:38:40Z</time>
      </trkpt>
      <trkpt lat="49.25709" lon="1.82208">
        <ele>96.9</ele>
        <time>2022-02-20T08:38:44Z</time>
      </trkpt>
      <trkpt lat="49.25706" lon="1.82214">
        <ele>97</ele>
        <time>2022-02-20T08:38:48Z</time>
      </trkpt>
      <trkpt lat="49.25703" lon="1.82221">
        <ele>96.9</ele>
        <time>2022-02-20T08:38:52Z</time>
      </trkpt>
      <trkpt lat="49.25699" lon="1.82228">
        <ele>96.9</ele>
        <time>2022-02-20T08:38:57Z</time>
      </trkpt>
      <trkpt lat="49.25696" lon="1.82233">
        <ele>97.1</ele>
        <time>2022-02-20T08:39:02Z</time>
      </trkpt>
      <trkpt lat="49.25692" lon="1.82239">
        <ele>97.4</ele>
        <time>2022-02-20T08:39:07Z</time>
      </trkpt>
      <trkpt lat="49.25689" lon="1.82246">
        <ele>97.9</ele>
        <time>2022-02-20T08:39:11Z</time>
      </trkpt>
      <trkpt lat="49.25687" lon="1.82253">
        <ele>98.3</ele>
        <time>2022-02-20T08:39:16Z</time>
      </trkpt>
      <trkpt lat="49.25685" lon="1.8226">
        <ele>98.1</ele>
        <time>2022-02-20T08:39:20Z</time>
      </trkpt>
      <trkpt lat="49.25682" lon="1.82267">
        <ele>97.9</ele>
        <time>2022-02-20T08:39:25Z</time>
      </trkpt>
      <trkpt lat="49.25683" lon="1.82274">
        <ele>98.3</ele>
        <time>2022-02-20T08:39:32Z</time>
      </trkpt>
      <trkpt lat="49.25683" lon="1.82282">
        <ele>98.7</ele>
        <time>2022-02-20T08:39:35Z</time>
      </trkpt>
      <trkpt lat="49.2568" lon="1.8229">
        <ele>99</ele>
        <time>2022-02-20T08:39:39Z</time>
      </trkpt>
      <trkpt lat="49.25678" lon="1.82298">
        <ele>99.8</ele>
        <time>2022-02-20T08:39:44Z</time>
      </trkpt>
      <trkpt lat="49.25676" lon="1.82305">
        <ele>100.6</ele>
        <time>2022-02-20T08:39:49Z</time>
      </trkpt>
      <trkpt lat="49.25673" lon="1.82314">
        <ele>101.6</ele>
        <time>2022-02-20T08:39:54Z</time>
      </trkpt>
      <trkpt lat="49.25671" lon="1.82321">
        <ele>101.7</ele>
        <time>2022-02-20T08:39:57Z</time>
      </trkpt>
      <trkpt lat="49.25671" lon="1.82329">
        <ele>100.8</ele>
        <time>2022-02-20T08:40:03Z</time>
      </trkpt>
      <trkpt lat="49.25669" lon="1.82336">
        <ele>100.2</ele>
        <time>2022-02-20T08:40:09Z</time>
      </trkpt>
      <trkpt lat="49.25666" lon="1.82342">
        <ele>100.3</ele>
        <time>2022-02-20T08:40:14Z</time>
      </trkpt>
      <trkpt lat="49.25664" lon="1.82349">
        <ele>100.5</ele>
        <time>2022-02-20T08:40:19Z</time>
      </trkpt>
      <trkpt lat="49.25664" lon="1.82358">
        <ele>100.2</ele>
        <time>2022-02-20T08:40:24Z</time>
      </trkpt>
      <trkpt lat="49.25664" lon="1.82366">
        <ele>100</ele>
        <time>2022-02-20T08:40:29Z</time>
      </trkpt>
      <trkpt lat="49.25665" lon="1.82374">
        <ele>101</ele>
        <time>2022-02-20T08:40:34Z</time>
      </trkpt>
      <trkpt lat="49.25667" lon="1.82381">
        <ele>101.4</ele>
        <time>2022-02-20T08:40:38Z</time>
      </trkpt>
      <trkpt lat="49.25669" lon="1.82389">
        <ele>99</ele>
        <time>2022-02-20T08:40:42Z</time>
      </trkpt>
      <trkpt lat="49.25671" lon="1.82395">
        <ele>96.1</ele>
        <time>2022-02-20T08:40:45Z</time>
      </trkpt>
      <trkpt lat="49.25672" lon="1.82403">
        <ele>95.5</ele>
        <time>2022-02-20T08:40:50Z</time>
      </trkpt>
      <trkpt lat="49.25672" lon="1.82411">
        <ele>95</ele>
        <time>2022-02-20T08:40:54Z</time>
      </trkpt>
      <trkpt lat="49.25672" lon="1.82419">
        <ele>95.1</ele>
        <time>2022-02-20T08:40:58Z</time>
      </trkpt>
      <trkpt lat="49.25673" lon="1.82427">
        <ele>95.8</ele>
        <time>2022-02-20T08:41:01Z</time>
      </trkpt>
      <trkpt lat="49.25672" lon="1.82434">
        <ele>97.1</ele>
        <time>2022-02-20T08:41:05Z</time>
      </trkpt>
      <trkpt lat="49.25672" lon="1.82441">
        <ele>99.6</ele>
        <time>2022-02-20T08:41:09Z</time>
      </trkpt>
      <trkpt lat="49.25672" lon="1.82449">
        <ele>101.1</ele>
        <time>2022-02-20T08:41:13Z</time>
      </trkpt>
      <trkpt lat="49.25673" lon="1.82457">
        <ele>101</ele>
        <time>2022-02-20T08:41:17Z</time>
      </trkpt>
      <trkpt lat="49.25674" lon="1.82466">
        <ele>100.1</ele>
        <time>2022-02-20T08:41:22Z</time>
      </trkpt>
      <trkpt lat="49.25675" lon="1.82474">
        <ele>101.1</ele>
        <time>2022-02-20T08:41:27Z</time>
      </trkpt>
      <trkpt lat="49.25675" lon="1.82481">
        <ele>101.8</ele>
        <time>2022-02-20T08:41:33Z</time>
      </trkpt>
      <trkpt lat="49.25675" lon="1.82488">
        <ele>101.7</ele>
        <time>2022-02-20T08:41:38Z</time>
      </trkpt>
      <trkpt lat="49.25675" lon="1.82496">
        <ele>102.8</ele>
        <time>2022-02-20T08:41:43Z</time>
      </trkpt>
      <trkpt lat="49.25675" lon="1.82503">
        <ele>102.9</ele>
        <time>2022-02-20T08:41:47Z</time>
      </trkpt>
      <trkpt lat="49.25674" lon="1.82511">
        <ele>103</ele>
        <time>2022-02-20T08:41:55Z</time>
      </trkpt>
      <trkpt lat="49.25676" lon="1.82519">
        <ele>103.2</ele>
        <time>2022-02-20T08:42:00Z</time>
      </trkpt>
      <trkpt lat="49.25677" lon="1.82527">
        <ele>106.1</ele>
        <time>2022-02-20T08:42:06Z</time>
      </trkpt>
      <trkpt lat="49.25678" lon="1.82534">
        <ele>109.8</ele>
        <time>2022-02-20T08:42:10Z</time>
      </trkpt>
      <trkpt lat="49.25679" lon="1.82542">
        <ele>111</ele>
        <time>2022-02-20T08:42:14Z</time>
      </trkpt>
      <trkpt lat="49.2568" lon="1.82549">
        <ele>110.2</ele>
        <time>2022-02-20T08:42:19Z</time>
      </trkpt>
      <trkpt lat="49.25682" lon="1.82556">
        <ele>110.2</ele>
        <time>2022-02-20T08:42:24Z</time>
      </trkpt>
      <trkpt lat="49.25683" lon="1.82564">
        <ele>111.8</ele>
        <time>2022-02-20T08:42:28Z</time>
      </trkpt>
      <trkpt lat="49.25683" lon="1.82572">
        <ele>114.9</ele>
        <time>2022-02-20T08:42:32Z</time>
      </trkpt>
      <trkpt lat="49.25683" lon="1.82581">
        <ele>118</ele>
        <time>2022-02-20T08:42:36Z</time>
      </trkpt>
      <trkpt lat="49.25685" lon="1.82588">
        <ele>119.5</ele>
        <time>2022-02-20T08:42:40Z</time>
      </trkpt>
      <trkpt lat="49.25686" lon="1.82596">
        <ele>119.4</ele>
        <time>2022-02-20T08:42:44Z</time>
      </trkpt>
      <trkpt lat="49.25687" lon="1.82604">
        <ele>118.3</ele>
        <time>2022-02-20T08:42:49Z</time>
      </trkpt>
      <trkpt lat="49.25688" lon="1.82611">
        <ele>117.8</ele>
        <time>2022-02-20T08:42:53Z</time>
      </trkpt>
      <trkpt lat="49.2569" lon="1.82618">
        <ele>117.5</ele>
        <time>2022-02-20T08:42:58Z</time>
      </trkpt>
      <trkpt lat="49.25692" lon="1.82626">
        <ele>117.2</ele>
        <time>2022-02-20T08:43:03Z</time>
      </trkpt>
      <trkpt lat="49.25694" lon="1.82633">
        <ele>117.3</ele>
        <time>2022-02-20T08:43:07Z</time>
      </trkpt>
      <trkpt lat="49.25695" lon="1.82641">
        <ele>118.3</ele>
        <time>2022-02-20T08:43:11Z</time>
      </trkpt>
      <trkpt lat="49.25696" lon="1.82649">
        <ele>118.9</ele>
        <time>2022-02-20T08:43:15Z</time>
      </trkpt>
      <trkpt lat="49.25697" lon="1.82657">
        <ele>119</ele>
        <time>2022-02-20T08:43:19Z</time>
      </trkpt>
      <trkpt lat="49.25699" lon="1.82664">
        <ele>118.9</ele>
        <time>2022-02-20T08:43:24Z</time>
      </trkpt>
      <trkpt lat="49.257" lon="1.82672">
        <ele>120</ele>
        <time>2022-02-20T08:43:28Z</time>
      </trkpt>
      <trkpt lat="49.257" lon="1.82681">
        <ele>120.5</ele>
        <time>2022-02-20T08:43:32Z</time>
      </trkpt>
      <trkpt lat="49.25701" lon="1.82688">
        <ele>121.1</ele>
        <time>2022-02-20T08:43:36Z</time>
      </trkpt>
      <trkpt lat="49.25702" lon="1.82696">
        <ele>121</ele>
        <time>2022-02-20T08:43:40Z</time>
      </trkpt>
      <trkpt lat="49.25703" lon="1.82704">
        <ele>121.1</ele>
        <time>2022-02-20T08:43:44Z</time>
      </trkpt>
      <trkpt lat="49.25704" lon="1.82713">
        <ele>121.1</ele>
        <time>2022-02-20T08:43:49Z</time>
      </trkpt>
      <trkpt lat="49.25705" lon="1.82721">
        <ele>120.9</ele>
        <time>2022-02-20T08:43:53Z</time>
      </trkpt>
      <trkpt lat="49.25706" lon="1.82728">
        <ele>121.4</ele>
        <time>2022-02-20T08:43:56Z</time>
      </trkpt>
      <trkpt lat="49.25706" lon="1.82737">
        <ele>122.8</ele>
        <time>2022-02-20T08:44:01Z</time>
      </trkpt>
      <trkpt lat="49.25708" lon="1.82744">
        <ele>123.4</ele>
        <time>2022-02-20T08:44:05Z</time>
      </trkpt>
      <trkpt lat="49.2571" lon="1.82752">
        <ele>122.7</ele>
        <time>2022-02-20T08:44:09Z</time>
      </trkpt>
      <trkpt lat="49.25712" lon="1.8276">
        <ele>122.4</ele>
        <time>2022-02-20T08:44:13Z</time>
      </trkpt>
      <trkpt lat="49.25714" lon="1.82767">
        <ele>123.6</ele>
        <time>2022-02-20T08:44:18Z</time>
      </trkpt>
      <trkpt lat="49.25716" lon="1.82774">
        <ele>125.5</ele>
        <time>2022-02-20T08:44:22Z</time>
      </trkpt>
      <trkpt lat="49.25718" lon="1.82781">
        <ele>126.5</ele>
        <time>2022-02-20T08:44:26Z</time>
      </trkpt>
      <trkpt lat="49.25719" lon="1.82788">
        <ele>127.5</ele>
        <time>2022-02-20T08:44:30Z</time>
      </trkpt>
      <trkpt lat="49.2572" lon="1.82796">
        <ele>127.5</ele>
        <time>2022-02-20T08:44:34Z</time>
      </trkpt>
      <trkpt lat="49.2572" lon="1.82804">
        <ele>126.8</ele>
        <time>2022-02-20T08:44:38Z</time>
      </trkpt>
      <trkpt lat="49.2572" lon="1.82811">
        <ele>126.5</ele>
        <time>2022-02-20T08:44:42Z</time>
      </trkpt>
      <trkpt lat="49.25721" lon="1.82818">
        <ele>125.7</ele>
        <time>2022-02-20T08:44:46Z</time>
      </trkpt>
      <trkpt lat="49.25722" lon="1.82825">
        <ele>124.4</ele>
        <time>2022-02-20T08:44:52Z</time>
      </trkpt>
      <trkpt lat="49.25724" lon="1.82832">
        <ele>123.8</ele>
        <time>2022-02-20T08:44:57Z</time>
      </trkpt>
      <trkpt lat="49.25726" lon="1.82839">
        <ele>123.9</ele>
        <time>2022-02-20T08:45:01Z</time>
      </trkpt>
      <trkpt lat="49.25727" lon="1.82846">
        <ele>124.2</ele>
        <time>2022-02-20T08:45:05Z</time>
      </trkpt>
      <trkpt lat="49.25729" lon="1.82854">
        <ele>124.4</ele>
        <time>2022-02-20T08:45:09Z</time>
      </trkpt>
      <trkpt lat="49.2573" lon="1.82861">
        <ele>124</ele>
        <time>2022-02-20T08:45:13Z</time>
      </trkpt>
      <trkpt lat="49.25731" lon="1.82868">
        <ele>123.1</ele>
        <time>2022-02-20T08:45:17Z</time>
      </trkpt>
      <trkpt lat="49.25731" lon="1.82876">
        <ele>122.1</ele>
        <time>2022-02-20T08:45:22Z</time>
      </trkpt>
      <trkpt lat="49.25732" lon="1.82885">
        <ele>121.3</ele>
        <time>2022-02-20T08:45:27Z</time>
      </trkpt>
      <trkpt lat="49.25734" lon="1.82892">
        <ele>121.2</ele>
        <time>2022-02-20T08:45:31Z</time>
      </trkpt>
      <trkpt lat="49.25736" lon="1.82899">
        <ele>121.2</ele>
        <time>2022-02-20T08:45:36Z</time>
      </trkpt>
      <trkpt lat="49.25739" lon="1.82906">
        <ele>120</ele>
        <time>2022-02-20T08:45:41Z</time>
      </trkpt>
      <trkpt lat="49.25741" lon="1.82912">
        <ele>118.9</ele>
        <time>2022-02-20T08:45:46Z</time>
      </trkpt>
      <trkpt lat="49.25742" lon="1.82919">
        <ele>118.5</ele>
        <time>2022-02-20T08:45:50Z</time>
      </trkpt>
      <trkpt lat="49.25743" lon="1.82926">
        <ele>118</ele>
        <time>2022-02-20T08:45:54Z</time>
      </trkpt>
      <trkpt lat="49.25744" lon="1.82934">
        <ele>118</ele>
        <time>2022-02-20T08:45:59Z</time>
      </trkpt>
      <trkpt lat="49.25745" lon="1.8294">
        <ele>118.1</ele>
        <time>2022-02-20T08:46:03Z</time>
      </trkpt>
      <trkpt lat="49.25745" lon="1.82948">
        <ele>117.8</ele>
        <time>2022-02-20T08:46:07Z</time>
      </trkpt>
      <trkpt lat="49.25746" lon="1.82956">
        <ele>117.7</ele>
        <time>2022-02-20T08:46:11Z</time>
      </trkpt>
      <trkpt lat="49.25746" lon="1.82963">
        <ele>118.1</ele>
        <time>2022-02-20T08:46:15Z</time>
      </trkpt>
      <trkpt lat="49.25747" lon="1.82972">
        <ele>118.6</ele>
        <time>2022-02-20T08:46:19Z</time>
      </trkpt>
      <trkpt lat="49.25747" lon="1.8298">
        <ele>118.4</ele>
        <time>2022-02-20T08:46:24Z</time>
      </trkpt>
      <trkpt lat="49.25747" lon="1.82988">
        <ele>118.4</ele>
        <time>2022-02-20T08:46:28Z</time>
      </trkpt>
      <trkpt lat="49.25747" lon="1.82996">
        <ele>118.5</ele>
        <time>2022-02-20T08:46:32Z</time>
      </trkpt>
      <trkpt lat="49.25747" lon="1.83004">
        <ele>118.3</ele>
        <time>2022-02-20T08:46:37Z</time>
      </trkpt>
      <trkpt lat="49.25748" lon="1.83013">
        <ele>117.3</ele>
        <time>2022-02-20T08:46:41Z</time>
      </trkpt>
      <trkpt lat="49.25748" lon="1.83022">
        <ele>117.4</ele>
        <time>2022-02-20T08:46:46Z</time>
      </trkpt>
      <trkpt lat="49.25747" lon="1.83031">
        <ele>117.9</ele>
        <time>2022-02-20T08:46:50Z</time>
      </trkpt>
      <trkpt lat="49.25747" lon="1.83039">
        <ele>117.8</ele>
        <time>2022-02-20T08:46:54Z</time>
      </trkpt>
      <trkpt lat="49.25747" lon="1.83047">
        <ele>117.3</ele>
        <time>2022-02-20T08:46:58Z</time>
      </trkpt>
      <trkpt lat="49.25748" lon="1.83054">
        <ele>117</ele>
        <time>2022-02-20T08:47:02Z</time>
      </trkpt>
      <trkpt lat="49.25747" lon="1.83062">
        <ele>117.1</ele>
        <time>2022-02-20T08:47:06Z</time>
      </trkpt>
      <trkpt lat="49.25746" lon="1.8307">
        <ele>117.3</ele>
        <time>2022-02-20T08:47:11Z</time>
      </trkpt>
      <trkpt lat="49.25745" lon="1.83078">
        <ele>116.9</ele>
        <time>2022-02-20T08:47:15Z</time>
      </trkpt>
      <trkpt lat="49.25744" lon="1.83086">
        <ele>116.7</ele>
        <time>2022-02-20T08:47:18Z</time>
      </trkpt>
      <trkpt lat="49.25742" lon="1.83094">
        <ele>116.8</ele>
        <time>2022-02-20T08:47:23Z</time>
      </trkpt>
      <trkpt lat="49.25741" lon="1.83102">
        <ele>117.2</ele>
        <time>2022-02-20T08:47:27Z</time>
      </trkpt>
      <trkpt lat="49.25739" lon="1.8311">
        <ele>117.7</ele>
        <time>2022-02-20T08:47:30Z</time>
      </trkpt>
      <trkpt lat="49.25738" lon="1.83117">
        <ele>118.4</ele>
        <time>2022-02-20T08:47:34Z</time>
      </trkpt>
      <trkpt lat="49.25737" lon="1.83125">
        <ele>118.8</ele>
        <time>2022-02-20T08:47:38Z</time>
      </trkpt>
      <trkpt lat="49.25735" lon="1.83132">
        <ele>118.9</ele>
        <time>2022-02-20T08:47:42Z</time>
      </trkpt>
      <trkpt lat="49.25734" lon="1.8314">
        <ele>118.8</ele>
        <time>2022-02-20T08:47:46Z</time>
      </trkpt>
      <trkpt lat="49.25734" lon="1.83148">
        <ele>119</ele>
        <time>2022-02-20T08:47:51Z</time>
      </trkpt>
      <trkpt lat="49.25732" lon="1.83155">
        <ele>119.6</ele>
        <time>2022-02-20T08:47:55Z</time>
      </trkpt>
      <trkpt lat="49.2573" lon="1.83162">
        <ele>120.4</ele>
        <time>2022-02-20T08:47:59Z</time>
      </trkpt>
      <trkpt lat="49.25728" lon="1.83171">
        <ele>121.2</ele>
        <time>2022-02-20T08:48:03Z</time>
      </trkpt>
      <trkpt lat="49.25728" lon="1.83181">
        <ele>121.6</ele>
        <time>2022-02-20T08:48:08Z</time>
      </trkpt>
      <trkpt lat="49.25726" lon="1.8319">
        <ele>121.6</ele>
        <time>2022-02-20T08:48:13Z</time>
      </trkpt>
      <trkpt lat="49.25725" lon="1.83197">
        <ele>121.6</ele>
        <time>2022-02-20T08:48:16Z</time>
      </trkpt>
      <trkpt lat="49.25724" lon="1.83205">
        <ele>121.6</ele>
        <time>2022-02-20T08:48:20Z</time>
      </trkpt>
      <trkpt lat="49.25723" lon="1.83212">
        <ele>121.8</ele>
        <time>2022-02-20T08:48:25Z</time>
      </trkpt>
      <trkpt lat="49.25722" lon="1.8322">
        <ele>121.9</ele>
        <time>2022-02-20T08:48:29Z</time>
      </trkpt>
      <trkpt lat="49.25721" lon="1.83228">
        <ele>122.1</ele>
        <time>2022-02-20T08:48:33Z</time>
      </trkpt>
      <trkpt lat="49.25719" lon="1.83235">
        <ele>122.4</ele>
        <time>2022-02-20T08:48:37Z</time>
      </trkpt>
      <trkpt lat="49.25719" lon="1.83244">
        <ele>122.1</ele>
        <time>2022-02-20T08:48:42Z</time>
      </trkpt>
      <trkpt lat="49.25719" lon="1.83251">
        <ele>121</ele>
        <time>2022-02-20T08:48:46Z</time>
      </trkpt>
      <trkpt lat="49.25719" lon="1.83258">
        <ele>120.3</ele>
        <time>2022-02-20T08:48:50Z</time>
      </trkpt>
      <trkpt lat="49.25719" lon="1.83265">
        <ele>120.1</ele>
        <time>2022-02-20T08:48:54Z</time>
      </trkpt>
      <trkpt lat="49.25718" lon="1.83272">
        <ele>119.6</ele>
        <time>2022-02-20T08:48:58Z</time>
      </trkpt>
      <trkpt lat="49.25718" lon="1.83281">
        <ele>118.9</ele>
        <time>2022-02-20T08:49:04Z</time>
      </trkpt>
      <trkpt lat="49.25716" lon="1.83287">
        <ele>118.5</ele>
        <time>2022-02-20T08:49:08Z</time>
      </trkpt>
      <trkpt lat="49.25715" lon="1.83294">
        <ele>118.5</ele>
        <time>2022-02-20T08:49:12Z</time>
      </trkpt>
      <trkpt lat="49.25714" lon="1.83302">
        <ele>119</ele>
        <time>2022-02-20T08:49:15Z</time>
      </trkpt>
      <trkpt lat="49.25713" lon="1.83311">
        <ele>119.4</ele>
        <time>2022-02-20T08:49:19Z</time>
      </trkpt>
      <trkpt lat="49.25711" lon="1.83318">
        <ele>119.8</ele>
        <time>2022-02-20T08:49:23Z</time>
      </trkpt>
      <trkpt lat="49.2571" lon="1.83326">
        <ele>120.5</ele>
        <time>2022-02-20T08:49:27Z</time>
      </trkpt>
      <trkpt lat="49.25709" lon="1.83335">
        <ele>121</ele>
        <time>2022-02-20T08:49:31Z</time>
      </trkpt>
      <trkpt lat="49.25709" lon="1.83343">
        <ele>121.3</ele>
        <time>2022-02-20T08:49:35Z</time>
      </trkpt>
      <trkpt lat="49.25709" lon="1.83349">
        <ele>121.4</ele>
        <time>2022-02-20T08:49:39Z</time>
      </trkpt>
      <trkpt lat="49.25708" lon="1.83357">
        <ele>121.4</ele>
        <time>2022-02-20T08:49:43Z</time>
      </trkpt>
      <trkpt lat="49.25708" lon="1.83365">
        <ele>121.4</ele>
        <time>2022-02-20T08:49:47Z</time>
      </trkpt>
      <trkpt lat="49.25707" lon="1.83372">
        <ele>121.8</ele>
        <time>2022-02-20T08:49:51Z</time>
      </trkpt>
      <trkpt lat="49.25706" lon="1.8338">
        <ele>122.5</ele>
        <time>2022-02-20T08:49:55Z</time>
      </trkpt>
      <trkpt lat="49.25705" lon="1.83387">
        <ele>122.8</ele>
        <time>2022-02-20T08:49:59Z</time>
      </trkpt>
      <trkpt lat="49.25704" lon="1.83395">
        <ele>122.9</ele>
        <time>2022-02-20T08:50:03Z</time>
      </trkpt>
      <trkpt lat="49.25703" lon="1.83403">
        <ele>122.9</ele>
        <time>2022-02-20T08:50:07Z</time>
      </trkpt>
      <trkpt lat="49.25702" lon="1.83411">
        <ele>122.8</ele>
        <time>2022-02-20T08:50:11Z</time>
      </trkpt>
      <trkpt lat="49.25702" lon="1.83419">
        <ele>122.8</ele>
        <time>2022-02-20T08:50:15Z</time>
      </trkpt>
      <trkpt lat="49.25701" lon="1.83427">
        <ele>123.1</ele>
        <time>2022-02-20T08:50:19Z</time>
      </trkpt>
      <trkpt lat="49.25701" lon="1.83435">
        <ele>123.7</ele>
        <time>2022-02-20T08:50:24Z</time>
      </trkpt>
      <trkpt lat="49.25701" lon="1.83442">
        <ele>124</ele>
        <time>2022-02-20T08:50:28Z</time>
      </trkpt>
      <trkpt lat="49.257" lon="1.8345">
        <ele>124.2</ele>
        <time>2022-02-20T08:50:32Z</time>
      </trkpt>
      <trkpt lat="49.25698" lon="1.83458">
        <ele>124.3</ele>
        <time>2022-02-20T08:50:36Z</time>
      </trkpt>
      <trkpt lat="49.25697" lon="1.83467">
        <ele>124.3</ele>
        <time>2022-02-20T08:50:41Z</time>
      </trkpt>
      <trkpt lat="49.25697" lon="1.83475">
        <ele>124.1</ele>
        <time>2022-02-20T08:50:45Z</time>
      </trkpt>
      <trkpt lat="49.25696" lon="1.83483">
        <ele>124.2</ele>
        <time>2022-02-20T08:50:49Z</time>
      </trkpt>
      <trkpt lat="49.25695" lon="1.8349">
        <ele>124.2</ele>
        <time>2022-02-20T08:50:53Z</time>
      </trkpt>
      <trkpt lat="49.25694" lon="1.83497">
        <ele>124.3</ele>
        <time>2022-02-20T08:50:56Z</time>
      </trkpt>
      <trkpt lat="49.25694" lon="1.83504">
        <ele>124.1</ele>
        <time>2022-02-20T08:51:00Z</time>
      </trkpt>
      <trkpt lat="49.25693" lon="1.83511">
        <ele>124</ele>
        <time>2022-02-20T08:51:03Z</time>
      </trkpt>
      <trkpt lat="49.25693" lon="1.83519">
        <ele>123.7</ele>
        <time>2022-02-20T08:51:07Z</time>
      </trkpt>
      <trkpt lat="49.25692" lon="1.83528">
        <ele>123.3</ele>
        <time>2022-02-20T08:51:12Z</time>
      </trkpt>
      <trkpt lat="49.25692" lon="1.83535">
        <ele>123.3</ele>
        <time>2022-02-20T08:51:15Z</time>
      </trkpt>
      <trkpt lat="49.25691" lon="1.83543">
        <ele>123.6</ele>
        <time>2022-02-20T08:51:20Z</time>
      </trkpt>
      <trkpt lat="49.2569" lon="1.83551">
        <ele>123.8</ele>
        <time>2022-02-20T08:51:24Z</time>
      </trkpt>
      <trkpt lat="49.2569" lon="1.83559">
        <ele>123.7</ele>
        <time>2022-02-20T08:51:28Z</time>
      </trkpt>
      <trkpt lat="49.2569" lon="1.83567">
        <ele>123.5</ele>
        <time>2022-02-20T08:51:32Z</time>
      </trkpt>
      <trkpt lat="49.25689" lon="1.83575">
        <ele>123.5</ele>
        <time>2022-02-20T08:51:36Z</time>
      </trkpt>
      <trkpt lat="49.25688" lon="1.83582">
        <ele>123.6</ele>
        <time>2022-02-20T08:51:39Z</time>
      </trkpt>
      <trkpt lat="49.25687" lon="1.83589">
        <ele>123.8</ele>
        <time>2022-02-20T08:51:43Z</time>
      </trkpt>
      <trkpt lat="49.25686" lon="1.83597">
        <ele>124</ele>
        <time>2022-02-20T08:51:47Z</time>
      </trkpt>
      <trkpt lat="49.25686" lon="1.83605">
        <ele>124.1</ele>
        <time>2022-02-20T08:51:51Z</time>
      </trkpt>
      <trkpt lat="49.25685" lon="1.83613">
        <ele>124.2</ele>
        <time>2022-02-20T08:51:55Z</time>
      </trkpt>
      <trkpt lat="49.25685" lon="1.83619">
        <ele>124.1</ele>
        <time>2022-02-20T08:51:58Z</time>
      </trkpt>
      <trkpt lat="49.25685" lon="1.83628">
        <ele>124</ele>
        <time>2022-02-20T08:52:03Z</time>
      </trkpt>
      <trkpt lat="49.25684" lon="1.83636">
        <ele>123.8</ele>
        <time>2022-02-20T08:52:07Z</time>
      </trkpt>
      <trkpt lat="49.25683" lon="1.83644">
        <ele>123.7</ele>
        <time>2022-02-20T08:52:11Z</time>
      </trkpt>
      <trkpt lat="49.25683" lon="1.83651">
        <ele>123.4</ele>
        <time>2022-02-20T08:52:15Z</time>
      </trkpt>
      <trkpt lat="49.25682" lon="1.83658">
        <ele>123.4</ele>
        <time>2022-02-20T08:52:19Z</time>
      </trkpt>
      <trkpt lat="49.25681" lon="1.83666">
        <ele>123.7</ele>
        <time>2022-02-20T08:52:23Z</time>
      </trkpt>
      <trkpt lat="49.2568" lon="1.83674">
        <ele>124.2</ele>
        <time>2022-02-20T08:52:27Z</time>
      </trkpt>
      <trkpt lat="49.25677" lon="1.83682">
        <ele>124.8</ele>
        <time>2022-02-20T08:52:33Z</time>
      </trkpt>
      <trkpt lat="49.25673" lon="1.83678">
        <ele>124.4</ele>
        <time>2022-02-20T08:52:42Z</time>
      </trkpt>
      <trkpt lat="49.25668" lon="1.83679">
        <ele>123.7</ele>
        <time>2022-02-20T08:52:49Z</time>
      </trkpt>
      <trkpt lat="49.25662" lon="1.83677">
        <ele>123.6</ele>
        <time>2022-02-20T08:52:54Z</time>
      </trkpt>
      <trkpt lat="49.25657" lon="1.83674">
        <ele>123.8</ele>
        <time>2022-02-20T08:53:00Z</time>
      </trkpt>
      <trkpt lat="49.25652" lon="1.83671">
        <ele>123.9</ele>
        <time>2022-02-20T08:53:06Z</time>
      </trkpt>
      <trkpt lat="49.25647" lon="1.83669">
        <ele>123.7</ele>
        <time>2022-02-20T08:53:11Z</time>
      </trkpt>
      <trkpt lat="49.25643" lon="1.83667">
        <ele>123.6</ele>
        <time>2022-02-20T08:53:15Z</time>
      </trkpt>
      <trkpt lat="49.25638" lon="1.83663">
        <ele>123.5</ele>
        <time>2022-02-20T08:53:21Z</time>
      </trkpt>
      <trkpt lat="49.25633" lon="1.83661">
        <ele>123.6</ele>
        <time>2022-02-20T08:53:25Z</time>
      </trkpt>
      <trkpt lat="49.25629" lon="1.83657">
        <ele>123.6</ele>
        <time>2022-02-20T08:53:29Z</time>
      </trkpt>
      <trkpt lat="49.25624" lon="1.83654">
        <ele>123.9</ele>
        <time>2022-02-20T08:53:33Z</time>
      </trkpt>
      <trkpt lat="49.2562" lon="1.83652">
        <ele>123.9</ele>
        <time>2022-02-20T08:53:37Z</time>
      </trkpt>
      <trkpt lat="49.25615" lon="1.8365">
        <ele>123.4</ele>
        <time>2022-02-20T08:53:41Z</time>
      </trkpt>
      <trkpt lat="49.25611" lon="1.83648">
        <ele>123.1</ele>
        <time>2022-02-20T08:53:45Z</time>
      </trkpt>
      <trkpt lat="49.25606" lon="1.83645">
        <ele>123</ele>
        <time>2022-02-20T08:53:50Z</time>
      </trkpt>
      <trkpt lat="49.25601" lon="1.83642">
        <ele>122.9</ele>
        <time>2022-02-20T08:53:54Z</time>
      </trkpt>
      <trkpt lat="49.25596" lon="1.83639">
        <ele>122.9</ele>
        <time>2022-02-20T08:53:58Z</time>
      </trkpt>
      <trkpt lat="49.25591" lon="1.83636">
        <ele>122.8</ele>
        <time>2022-02-20T08:54:02Z</time>
      </trkpt>
      <trkpt lat="49.25586" lon="1.83633">
        <ele>122.6</ele>
        <time>2022-02-20T08:54:06Z</time>
      </trkpt>
      <trkpt lat="49.25581" lon="1.83629">
        <ele>122.2</ele>
        <time>2022-02-20T08:54:10Z</time>
      </trkpt>
      <trkpt lat="49.25576" lon="1.83626">
        <ele>121.7</ele>
        <time>2022-02-20T08:54:14Z</time>
      </trkpt>
      <trkpt lat="49.25571" lon="1.83623">
        <ele>121.4</ele>
        <time>2022-02-20T08:54:19Z</time>
      </trkpt>
      <trkpt lat="49.25566" lon="1.8362">
        <ele>121.5</ele>
        <time>2022-02-20T08:54:23Z</time>
      </trkpt>
      <trkpt lat="49.25561" lon="1.83617">
        <ele>121.6</ele>
        <time>2022-02-20T08:54:27Z</time>
      </trkpt>
      <trkpt lat="49.25556" lon="1.83613">
        <ele>121.6</ele>
        <time>2022-02-20T08:54:31Z</time>
      </trkpt>
      <trkpt lat="49.2555" lon="1.83609">
        <ele>121.5</ele>
        <time>2022-02-20T08:54:36Z</time>
      </trkpt>
      <trkpt lat="49.25545" lon="1.83605">
        <ele>121.6</ele>
        <time>2022-02-20T08:54:40Z</time>
      </trkpt>
      <trkpt lat="49.25541" lon="1.83602">
        <ele>121.6</ele>
        <time>2022-02-20T08:54:44Z</time>
      </trkpt>
      <trkpt lat="49.25536" lon="1.836">
        <ele>121.6</ele>
        <time>2022-02-20T08:54:48Z</time>
      </trkpt>
      <trkpt lat="49.25532" lon="1.83597">
        <ele>121.7</ele>
        <time>2022-02-20T08:54:51Z</time>
      </trkpt>
      <trkpt lat="49.25526" lon="1.83595">
        <ele>121.5</ele>
        <time>2022-02-20T08:54:55Z</time>
      </trkpt>
      <trkpt lat="49.25521" lon="1.83591">
        <ele>121</ele>
        <time>2022-02-20T08:55:00Z</time>
      </trkpt>
      <trkpt lat="49.25516" lon="1.83588">
        <ele>120.2</ele>
        <time>2022-02-20T08:55:04Z</time>
      </trkpt>
      <trkpt lat="49.25511" lon="1.83585">
        <ele>119.7</ele>
        <time>2022-02-20T08:55:08Z</time>
      </trkpt>
      <trkpt lat="49.25506" lon="1.83582">
        <ele>119.2</ele>
        <time>2022-02-20T08:55:12Z</time>
      </trkpt>
      <trkpt lat="49.25501" lon="1.83578">
        <ele>119</ele>
        <time>2022-02-20T08:55:17Z</time>
      </trkpt>
      <trkpt lat="49.25496" lon="1.83576">
        <ele>119</ele>
        <time>2022-02-20T08:55:21Z</time>
      </trkpt>
      <trkpt lat="49.25491" lon="1.83574">
        <ele>118.6</ele>
        <time>2022-02-20T08:55:25Z</time>
      </trkpt>
      <trkpt lat="49.25486" lon="1.83571">
        <ele>118.4</ele>
        <time>2022-02-20T08:55:29Z</time>
      </trkpt>
      <trkpt lat="49.25481" lon="1.83566">
        <ele>118.3</ele>
        <time>2022-02-20T08:55:33Z</time>
      </trkpt>
      <trkpt lat="49.25477" lon="1.83563">
        <ele>118.5</ele>
        <time>2022-02-20T08:55:37Z</time>
      </trkpt>
      <trkpt lat="49.25471" lon="1.8356">
        <ele>118.6</ele>
        <time>2022-02-20T08:55:42Z</time>
      </trkpt>
      <trkpt lat="49.25466" lon="1.83558">
        <ele>118.5</ele>
        <time>2022-02-20T08:55:46Z</time>
      </trkpt>
      <trkpt lat="49.25461" lon="1.83555">
        <ele>118.3</ele>
        <time>2022-02-20T08:55:50Z</time>
      </trkpt>
      <trkpt lat="49.25456" lon="1.83553">
        <ele>118.2</ele>
        <time>2022-02-20T08:55:54Z</time>
      </trkpt>
      <trkpt lat="49.25452" lon="1.83551">
        <ele>117.9</ele>
        <time>2022-02-20T08:55:58Z</time>
      </trkpt>
      <trkpt lat="49.25447" lon="1.83548">
        <ele>117.7</ele>
        <time>2022-02-20T08:56:02Z</time>
      </trkpt>
      <trkpt lat="49.25442" lon="1.83545">
        <ele>117.6</ele>
        <time>2022-02-20T08:56:06Z</time>
      </trkpt>
      <trkpt lat="49.25438" lon="1.83542">
        <ele>117.3</ele>
        <time>2022-02-20T08:56:10Z</time>
      </trkpt>
      <trkpt lat="49.25433" lon="1.83539">
        <ele>117.1</ele>
        <time>2022-02-20T08:56:14Z</time>
      </trkpt>
      <trkpt lat="49.25428" lon="1.83536">
        <ele>117</ele>
        <time>2022-02-20T08:56:18Z</time>
      </trkpt>
      <trkpt lat="49.25423" lon="1.83533">
        <ele>117.1</ele>
        <time>2022-02-20T08:56:22Z</time>
      </trkpt>
      <trkpt lat="49.25418" lon="1.8353">
        <ele>117.2</ele>
        <time>2022-02-20T08:56:27Z</time>
      </trkpt>
      <trkpt lat="49.25412" lon="1.83527">
        <ele>117.5</ele>
        <time>2022-02-20T08:56:31Z</time>
      </trkpt>
      <trkpt lat="49.25407" lon="1.83525">
        <ele>117.9</ele>
        <time>2022-02-20T08:56:36Z</time>
      </trkpt>
      <trkpt lat="49.25402" lon="1.83523">
        <ele>118.1</ele>
        <time>2022-02-20T08:56:40Z</time>
      </trkpt>
      <trkpt lat="49.25397" lon="1.8352">
        <ele>118.1</ele>
        <time>2022-02-20T08:56:44Z</time>
      </trkpt>
      <trkpt lat="49.25392" lon="1.83517">
        <ele>118.1</ele>
        <time>2022-02-20T08:56:47Z</time>
      </trkpt>
      <trkpt lat="49.25387" lon="1.83515">
        <ele>118</ele>
        <time>2022-02-20T08:56:52Z</time>
      </trkpt>
      <trkpt lat="49.25382" lon="1.83512">
        <ele>118</ele>
        <time>2022-02-20T08:56:56Z</time>
      </trkpt>
      <trkpt lat="49.25376" lon="1.8351">
        <ele>118.1</ele>
        <time>2022-02-20T08:57:01Z</time>
      </trkpt>
      <trkpt lat="49.25371" lon="1.83507">
        <ele>118.5</ele>
        <time>2022-02-20T08:57:05Z</time>
      </trkpt>
      <trkpt lat="49.25366" lon="1.83505">
        <ele>118.5</ele>
        <time>2022-02-20T08:57:09Z</time>
      </trkpt>
      <trkpt lat="49.25361" lon="1.83503">
        <ele>118.5</ele>
        <time>2022-02-20T08:57:13Z</time>
      </trkpt>
      <trkpt lat="49.25356" lon="1.83501">
        <ele>118.7</ele>
        <time>2022-02-20T08:57:17Z</time>
      </trkpt>
      <trkpt lat="49.2535" lon="1.83498">
        <ele>118.7</ele>
        <time>2022-02-20T08:57:21Z</time>
      </trkpt>
      <trkpt lat="49.25345" lon="1.83496">
        <ele>118.6</ele>
        <time>2022-02-20T08:57:25Z</time>
      </trkpt>
      <trkpt lat="49.2534" lon="1.83493">
        <ele>118.2</ele>
        <time>2022-02-20T08:57:29Z</time>
      </trkpt>
      <trkpt lat="49.25335" lon="1.8349">
        <ele>118.1</ele>
        <time>2022-02-20T08:57:34Z</time>
      </trkpt>
      <trkpt lat="49.25331" lon="1.83487">
        <ele>118.2</ele>
        <time>2022-02-20T08:57:37Z</time>
      </trkpt>
      <trkpt lat="49.25326" lon="1.83487">
        <ele>118.3</ele>
        <time>2022-02-20T08:57:44Z</time>
      </trkpt>
      <trkpt lat="49.25321" lon="1.83483">
        <ele>118.4</ele>
        <time>2022-02-20T08:57:47Z</time>
      </trkpt>
      <trkpt lat="49.25317" lon="1.83479">
        <ele>118.5</ele>
        <time>2022-02-20T08:57:50Z</time>
      </trkpt>
      <trkpt lat="49.25313" lon="1.83473">
        <ele>118.6</ele>
        <time>2022-02-20T08:57:54Z</time>
      </trkpt>
      <trkpt lat="49.25311" lon="1.83466">
        <ele>118.7</ele>
        <time>2022-02-20T08:57:57Z</time>
      </trkpt>
      <trkpt lat="49.25309" lon="1.8346">
        <ele>118.7</ele>
        <time>2022-02-20T08:58:01Z</time>
      </trkpt>
      <trkpt lat="49.25306" lon="1.83454">
        <ele>118.6</ele>
        <time>2022-02-20T08:58:05Z</time>
      </trkpt>
      <trkpt lat="49.25303" lon="1.83448">
        <ele>118.5</ele>
        <time>2022-02-20T08:58:09Z</time>
      </trkpt>
      <trkpt lat="49.25299" lon="1.83443">
        <ele>118.3</ele>
        <time>2022-02-20T08:58:13Z</time>
      </trkpt>
      <trkpt lat="49.25295" lon="1.83437">
        <ele>118</ele>
        <time>2022-02-20T08:58:17Z</time>
      </trkpt>
      <trkpt lat="49.25292" lon="1.8343">
        <ele>118</ele>
        <time>2022-02-20T08:58:21Z</time>
      </trkpt>
      <trkpt lat="49.25288" lon="1.83423">
        <ele>118.2</ele>
        <time>2022-02-20T08:58:26Z</time>
      </trkpt>
      <trkpt lat="49.25286" lon="1.83418">
        <ele>118.3</ele>
        <time>2022-02-20T08:58:30Z</time>
      </trkpt>
      <trkpt lat="49.25282" lon="1.83411">
        <ele>118.4</ele>
        <time>2022-02-20T08:58:34Z</time>
      </trkpt>
      <trkpt lat="49.25279" lon="1.83405">
        <ele>118.8</ele>
        <time>2022-02-20T08:58:38Z</time>
      </trkpt>
      <trkpt lat="49.25275" lon="1.83398">
        <ele>119.5</ele>
        <time>2022-02-20T08:58:42Z</time>
      </trkpt>
      <trkpt lat="49.25271" lon="1.83393">
        <ele>119.8</ele>
        <time>2022-02-20T08:58:46Z</time>
      </trkpt>
      <trkpt lat="49.25267" lon="1.83389">
        <ele>119.9</ele>
        <time>2022-02-20T08:58:50Z</time>
      </trkpt>
      <trkpt lat="49.25263" lon="1.83384">
        <ele>120.5</ele>
        <time>2022-02-20T08:58:54Z</time>
      </trkpt>
      <trkpt lat="49.2526" lon="1.83378">
        <ele>120.6</ele>
        <time>2022-02-20T08:58:58Z</time>
      </trkpt>
      <trkpt lat="49.25257" lon="1.83372">
        <ele>121.4</ele>
        <time>2022-02-20T08:59:02Z</time>
      </trkpt>
      <trkpt lat="49.25254" lon="1.83365">
        <ele>122</ele>
        <time>2022-02-20T08:59:06Z</time>
      </trkpt>
      <trkpt lat="49.25251" lon="1.8336">
        <ele>122.5</ele>
        <time>2022-02-20T08:59:10Z</time>
      </trkpt>
      <trkpt lat="49.25247" lon="1.83354">
        <ele>122.5</ele>
        <time>2022-02-20T08:59:15Z</time>
      </trkpt>
      <trkpt lat="49.25244" lon="1.83348">
        <ele>121.9</ele>
        <time>2022-02-20T08:59:19Z</time>
      </trkpt>
      <trkpt lat="49.25241" lon="1.83342">
        <ele>120.9</ele>
        <time>2022-02-20T08:59:23Z</time>
      </trkpt>
      <trkpt lat="49.25237" lon="1.83336">
        <ele>119.7</ele>
        <time>2022-02-20T08:59:27Z</time>
      </trkpt>
      <trkpt lat="49.25233" lon="1.83331">
        <ele>118.2</ele>
        <time>2022-02-20T08:59:31Z</time>
      </trkpt>
      <trkpt lat="49.25229" lon="1.83327">
        <ele>115.6</ele>
        <time>2022-02-20T08:59:35Z</time>
      </trkpt>
      <trkpt lat="49.25223" lon="1.83322">
        <ele>113.5</ele>
        <time>2022-02-20T08:59:40Z</time>
      </trkpt>
      <trkpt lat="49.25219" lon="1.83318">
        <ele>113.1</ele>
        <time>2022-02-20T08:59:44Z</time>
      </trkpt>
      <trkpt lat="49.25215" lon="1.83315">
        <ele>113.6</ele>
        <time>2022-02-20T08:59:48Z</time>
      </trkpt>
      <trkpt lat="49.25211" lon="1.8331">
        <ele>114.9</ele>
        <time>2022-02-20T08:59:52Z</time>
      </trkpt>
      <trkpt lat="49.25207" lon="1.83305">
        <ele>116.3</ele>
        <time>2022-02-20T08:59:55Z</time>
      </trkpt>
      <trkpt lat="49.25204" lon="1.833">
        <ele>118</ele>
        <time>2022-02-20T08:59:59Z</time>
      </trkpt>
      <trkpt lat="49.252" lon="1.83296">
        <ele>118.8</ele>
        <time>2022-02-20T09:00:02Z</time>
      </trkpt>
      <trkpt lat="49.25195" lon="1.83292">
        <ele>118.3</ele>
        <time>2022-02-20T09:00:06Z</time>
      </trkpt>
      <trkpt lat="49.2519" lon="1.83288">
        <ele>116.5</ele>
        <time>2022-02-20T09:00:10Z</time>
      </trkpt>
      <trkpt lat="49.25185" lon="1.83285">
        <ele>115.6</ele>
        <time>2022-02-20T09:00:14Z</time>
      </trkpt>
      <trkpt lat="49.25181" lon="1.83282">
        <ele>115.2</ele>
        <time>2022-02-20T09:00:19Z</time>
      </trkpt>
      <trkpt lat="49.25177" lon="1.83279">
        <ele>116.4</ele>
        <time>2022-02-20T09:00:23Z</time>
      </trkpt>
      <trkpt lat="49.25175" lon="1.83272">
        <ele>118.8</ele>
        <time>2022-02-20T09:00:28Z</time>
      </trkpt>
      <trkpt lat="49.25171" lon="1.83269">
        <ele>120.6</ele>
        <time>2022-02-20T09:00:32Z</time>
      </trkpt>
      <trkpt lat="49.25166" lon="1.83267">
        <ele>121.5</ele>
        <time>2022-02-20T09:00:36Z</time>
      </trkpt>
      <trkpt lat="49.2516" lon="1.83264">
        <ele>121.6</ele>
        <time>2022-02-20T09:00:39Z</time>
      </trkpt>
      <trkpt lat="49.25157" lon="1.8326">
        <ele>120.7</ele>
        <time>2022-02-20T09:00:42Z</time>
      </trkpt>
      <trkpt lat="49.25152" lon="1.83256">
        <ele>119.2</ele>
        <time>2022-02-20T09:00:46Z</time>
      </trkpt>
      <trkpt lat="49.25148" lon="1.83252">
        <ele>118.4</ele>
        <time>2022-02-20T09:00:50Z</time>
      </trkpt>
      <trkpt lat="49.25143" lon="1.83249">
        <ele>118.4</ele>
        <time>2022-02-20T09:00:55Z</time>
      </trkpt>
      <trkpt lat="49.25139" lon="1.83244">
        <ele>118.5</ele>
        <time>2022-02-20T09:00:59Z</time>
      </trkpt>
      <trkpt lat="49.25135" lon="1.83238">
        <ele>117.8</ele>
        <time>2022-02-20T09:01:03Z</time>
      </trkpt>
      <trkpt lat="49.25132" lon="1.83233">
        <ele>117.1</ele>
        <time>2022-02-20T09:01:07Z</time>
      </trkpt>
      <trkpt lat="49.25128" lon="1.83227">
        <ele>117.2</ele>
        <time>2022-02-20T09:01:11Z</time>
      </trkpt>
      <trkpt lat="49.25125" lon="1.83222">
        <ele>116.7</ele>
        <time>2022-02-20T09:01:14Z</time>
      </trkpt>
      <trkpt lat="49.25122" lon="1.83217">
        <ele>115.8</ele>
        <time>2022-02-20T09:01:18Z</time>
      </trkpt>
      <trkpt lat="49.25119" lon="1.83211">
        <ele>114.6</ele>
        <time>2022-02-20T09:01:21Z</time>
      </trkpt>
      <trkpt lat="49.25116" lon="1.83206">
        <ele>113.3</ele>
        <time>2022-02-20T09:01:24Z</time>
      </trkpt>
      <trkpt lat="49.25113" lon="1.832">
        <ele>112.4</ele>
        <time>2022-02-20T09:01:28Z</time>
      </trkpt>
      <trkpt lat="49.2511" lon="1.83193">
        <ele>111.3</ele>
        <time>2022-02-20T09:01:32Z</time>
      </trkpt>
      <trkpt lat="49.25107" lon="1.83186">
        <ele>110.3</ele>
        <time>2022-02-20T09:01:37Z</time>
      </trkpt>
      <trkpt lat="49.25103" lon="1.8318">
        <ele>108.8</ele>
        <time>2022-02-20T09:01:41Z</time>
      </trkpt>
      <trkpt lat="49.25099" lon="1.83173">
        <ele>107.4</ele>
        <time>2022-02-20T09:01:46Z</time>
      </trkpt>
      <trkpt lat="49.25096" lon="1.83167">
        <ele>106.3</ele>
        <time>2022-02-20T09:01:50Z</time>
      </trkpt>
      <trkpt lat="49.25093" lon="1.83159">
        <ele>105.3</ele>
        <time>2022-02-20T09:01:54Z</time>
      </trkpt>
      <trkpt lat="49.25091" lon="1.83153">
        <ele>104.7</ele>
        <time>2022-02-20T09:01:58Z</time>
      </trkpt>
      <trkpt lat="49.25088" lon="1.83145">
        <ele>104.1</ele>
        <time>2022-02-20T09:02:03Z</time>
      </trkpt>
      <trkpt lat="49.25084" lon="1.83138">
        <ele>103.6</ele>
        <time>2022-02-20T09:02:07Z</time>
      </trkpt>
      <trkpt lat="49.2508" lon="1.83131">
        <ele>102.8</ele>
        <time>2022-02-20T09:02:11Z</time>
      </trkpt>
      <trkpt lat="49.25077" lon="1.83125">
        <ele>101.9</ele>
        <time>2022-02-20T09:02:15Z</time>
      </trkpt>
      <trkpt lat="49.25074" lon="1.83118">
        <ele>100.9</ele>
        <time>2022-02-20T09:02:19Z</time>
      </trkpt>
      <trkpt lat="49.25071" lon="1.83112">
        <ele>99.9</ele>
        <time>2022-02-20T09:02:23Z</time>
      </trkpt>
      <trkpt lat="49.25068" lon="1.83106">
        <ele>99</ele>
        <time>2022-02-20T09:02:27Z</time>
      </trkpt>
      <trkpt lat="49.25065" lon="1.83099">
        <ele>98.3</ele>
        <time>2022-02-20T09:02:31Z</time>
      </trkpt>
      <trkpt lat="49.25062" lon="1.83093">
        <ele>98</ele>
        <time>2022-02-20T09:02:35Z</time>
      </trkpt>
      <trkpt lat="49.25059" lon="1.83086">
        <ele>97.4</ele>
        <time>2022-02-20T09:02:39Z</time>
      </trkpt>
      <trkpt lat="49.25057" lon="1.83079">
        <ele>96.8</ele>
        <time>2022-02-20T09:02:43Z</time>
      </trkpt>
      <trkpt lat="49.25054" lon="1.83073">
        <ele>96.5</ele>
        <time>2022-02-20T09:02:47Z</time>
      </trkpt>
      <trkpt lat="49.25052" lon="1.83066">
        <ele>96.5</ele>
        <time>2022-02-20T09:02:51Z</time>
      </trkpt>
      <trkpt lat="49.25051" lon="1.83057">
        <ele>96.5</ele>
        <time>2022-02-20T09:02:55Z</time>
      </trkpt>
      <trkpt lat="49.25049" lon="1.8305">
        <ele>96.3</ele>
        <time>2022-02-20T09:02:58Z</time>
      </trkpt>
      <trkpt lat="49.25049" lon="1.83042">
        <ele>95.9</ele>
        <time>2022-02-20T09:03:02Z</time>
      </trkpt>
      <trkpt lat="49.2505" lon="1.83035">
        <ele>95.2</ele>
        <time>2022-02-20T09:03:06Z</time>
      </trkpt>
      <trkpt lat="49.25051" lon="1.83027">
        <ele>94.3</ele>
        <time>2022-02-20T09:03:10Z</time>
      </trkpt>
      <trkpt lat="49.25051" lon="1.8302">
        <ele>94</ele>
        <time>2022-02-20T09:03:13Z</time>
      </trkpt>
      <trkpt lat="49.25052" lon="1.83012">
        <ele>93.7</ele>
        <time>2022-02-20T09:03:17Z</time>
      </trkpt>
      <trkpt lat="49.25052" lon="1.83004">
        <ele>93.1</ele>
        <time>2022-02-20T09:03:21Z</time>
      </trkpt>
      <trkpt lat="49.25052" lon="1.82996">
        <ele>92.4</ele>
        <time>2022-02-20T09:03:25Z</time>
      </trkpt>
      <trkpt lat="49.25053" lon="1.82988">
        <ele>92.1</ele>
        <time>2022-02-20T09:03:29Z</time>
      </trkpt>
      <trkpt lat="49.25052" lon="1.8298">
        <ele>92.2</ele>
        <time>2022-02-20T09:03:33Z</time>
      </trkpt>
      <trkpt lat="49.25048" lon="1.82973">
        <ele>92.1</ele>
        <time>2022-02-20T09:03:37Z</time>
      </trkpt>
      <trkpt lat="49.25045" lon="1.82968">
        <ele>92</ele>
        <time>2022-02-20T09:03:40Z</time>
      </trkpt>
      <trkpt lat="49.25041" lon="1.82963">
        <ele>91.6</ele>
        <time>2022-02-20T09:03:44Z</time>
      </trkpt>
      <trkpt lat="49.25037" lon="1.8296">
        <ele>91.3</ele>
        <time>2022-02-20T09:03:47Z</time>
      </trkpt>
      <trkpt lat="49.25032" lon="1.82957">
        <ele>91.2</ele>
        <time>2022-02-20T09:03:52Z</time>
      </trkpt>
      <trkpt lat="49.25028" lon="1.82954">
        <ele>91.2</ele>
        <time>2022-02-20T09:03:55Z</time>
      </trkpt>
      <trkpt lat="49.25023" lon="1.82952">
        <ele>91.3</ele>
        <time>2022-02-20T09:04:00Z</time>
      </trkpt>
      <trkpt lat="49.25017" lon="1.8295">
        <ele>91</ele>
        <time>2022-02-20T09:04:04Z</time>
      </trkpt>
      <trkpt lat="49.25012" lon="1.8295">
        <ele>90.5</ele>
        <time>2022-02-20T09:04:09Z</time>
      </trkpt>
      <trkpt lat="49.25007" lon="1.8295">
        <ele>90.3</ele>
        <time>2022-02-20T09:04:12Z</time>
      </trkpt>
      <trkpt lat="49.25001" lon="1.82951">
        <ele>90.4</ele>
        <time>2022-02-20T09:04:16Z</time>
      </trkpt>
      <trkpt lat="49.24997" lon="1.8295">
        <ele>90.4</ele>
        <time>2022-02-20T09:04:20Z</time>
      </trkpt>
      <trkpt lat="49.24992" lon="1.8295">
        <ele>90.3</ele>
        <time>2022-02-20T09:04:23Z</time>
      </trkpt>
      <trkpt lat="49.24987" lon="1.8295">
        <ele>90</ele>
        <time>2022-02-20T09:04:27Z</time>
      </trkpt>
      <trkpt lat="49.24982" lon="1.8295">
        <ele>89</ele>
        <time>2022-02-20T09:04:31Z</time>
      </trkpt>
      <trkpt lat="49.24976" lon="1.82951">
        <ele>88.5</ele>
        <time>2022-02-20T09:04:35Z</time>
      </trkpt>
      <trkpt lat="49.24971" lon="1.8295">
        <ele>88.8</ele>
        <time>2022-02-20T09:04:39Z</time>
      </trkpt>
      <trkpt lat="49.24966" lon="1.8295">
        <ele>88.9</ele>
        <time>2022-02-20T09:04:44Z</time>
      </trkpt>
      <trkpt lat="49.24961" lon="1.82949">
        <ele>88.7</ele>
        <time>2022-02-20T09:04:48Z</time>
      </trkpt>
      <trkpt lat="49.24956" lon="1.82949">
        <ele>88.9</ele>
        <time>2022-02-20T09:04:52Z</time>
      </trkpt>
      <trkpt lat="49.24951" lon="1.82948">
        <ele>88.8</ele>
        <time>2022-02-20T09:04:56Z</time>
      </trkpt>
      <trkpt lat="49.24945" lon="1.82949">
        <ele>88</ele>
        <time>2022-02-20T09:05:00Z</time>
      </trkpt>
      <trkpt lat="49.24941" lon="1.8295">
        <ele>87.3</ele>
        <time>2022-02-20T09:05:03Z</time>
      </trkpt>
      <trkpt lat="49.24935" lon="1.8295">
        <ele>86.2</ele>
        <time>2022-02-20T09:05:08Z</time>
      </trkpt>
      <trkpt lat="49.24931" lon="1.8295">
        <ele>85.6</ele>
        <time>2022-02-20T09:05:11Z</time>
      </trkpt>
      <trkpt lat="49.24925" lon="1.8295">
        <ele>84.4</ele>
        <time>2022-02-20T09:05:16Z</time>
      </trkpt>
      <trkpt lat="49.2492" lon="1.82951">
        <ele>84</ele>
        <time>2022-02-20T09:05:19Z</time>
      </trkpt>
      <trkpt lat="49.24915" lon="1.82952">
        <ele>83.7</ele>
        <time>2022-02-20T09:05:23Z</time>
      </trkpt>
      <trkpt lat="49.2491" lon="1.82954">
        <ele>83.7</ele>
        <time>2022-02-20T09:05:27Z</time>
      </trkpt>
      <trkpt lat="49.24905" lon="1.82955">
        <ele>83.6</ele>
        <time>2022-02-20T09:05:31Z</time>
      </trkpt>
      <trkpt lat="49.24899" lon="1.82953">
        <ele>83.7</ele>
        <time>2022-02-20T09:05:35Z</time>
      </trkpt>
      <trkpt lat="49.24895" lon="1.82952">
        <ele>83.9</ele>
        <time>2022-02-20T09:05:38Z</time>
      </trkpt>
      <trkpt lat="49.2489" lon="1.82954">
        <ele>84.2</ele>
        <time>2022-02-20T09:05:43Z</time>
      </trkpt>
      <trkpt lat="49.24885" lon="1.82955">
        <ele>83.5</ele>
        <time>2022-02-20T09:05:47Z</time>
      </trkpt>
      <trkpt lat="49.24879" lon="1.82956">
        <ele>82</ele>
        <time>2022-02-20T09:05:51Z</time>
      </trkpt>
      <trkpt lat="49.24874" lon="1.82957">
        <ele>80.7</ele>
        <time>2022-02-20T09:05:55Z</time>
      </trkpt>
      <trkpt lat="49.24869" lon="1.82958">
        <ele>80.2</ele>
        <time>2022-02-20T09:05:59Z</time>
      </trkpt>
      <trkpt lat="49.24864" lon="1.82959">
        <ele>79.8</ele>
        <time>2022-02-20T09:06:04Z</time>
      </trkpt>
      <trkpt lat="49.24858" lon="1.82959">
        <ele>79.2</ele>
        <time>2022-02-20T09:06:08Z</time>
      </trkpt>
      <trkpt lat="49.24853" lon="1.82959">
        <ele>78.8</ele>
        <time>2022-02-20T09:06:12Z</time>
      </trkpt>
      <trkpt lat="49.24848" lon="1.82961">
        <ele>78.8</ele>
        <time>2022-02-20T09:06:16Z</time>
      </trkpt>
      <trkpt lat="49.24843" lon="1.82963">
        <ele>78.1</ele>
        <time>2022-02-20T09:06:20Z</time>
      </trkpt>
      <trkpt lat="49.24838" lon="1.82964">
        <ele>76.4</ele>
        <time>2022-02-20T09:06:24Z</time>
      </trkpt>
      <trkpt lat="49.24833" lon="1.82963">
        <ele>74.8</ele>
        <time>2022-02-20T09:06:28Z</time>
      </trkpt>
      <trkpt lat="49.24828" lon="1.82963">
        <ele>75.1</ele>
        <time>2022-02-20T09:06:32Z</time>
      </trkpt>
      <trkpt lat="49.24822" lon="1.82962">
        <ele>77.1</ele>
        <time>2022-02-20T09:06:38Z</time>
      </trkpt>
      <trkpt lat="49.24817" lon="1.82963">
        <ele>77</ele>
        <time>2022-02-20T09:06:42Z</time>
      </trkpt>
      <trkpt lat="49.24811" lon="1.82963">
        <ele>76</ele>
        <time>2022-02-20T09:06:47Z</time>
      </trkpt>
      <trkpt lat="49.24811" lon="1.82971">
        <ele>74</ele>
        <time>2022-02-20T09:06:52Z</time>
      </trkpt>
      <trkpt lat="49.24807" lon="1.82977">
        <ele>72.6</ele>
        <time>2022-02-20T09:06:56Z</time>
      </trkpt>
      <trkpt lat="49.24803" lon="1.82982">
        <ele>72.4</ele>
        <time>2022-02-20T09:07:00Z</time>
      </trkpt>
      <trkpt lat="49.24798" lon="1.82986">
        <ele>71.8</ele>
        <time>2022-02-20T09:07:04Z</time>
      </trkpt>
      <trkpt lat="49.24794" lon="1.82992">
        <ele>71</ele>
        <time>2022-02-20T09:07:08Z</time>
      </trkpt>
      <trkpt lat="49.2479" lon="1.82995">
        <ele>70.2</ele>
        <time>2022-02-20T09:07:11Z</time>
      </trkpt>
      <trkpt lat="49.24785" lon="1.82998">
        <ele>69.7</ele>
        <time>2022-02-20T09:07:14Z</time>
      </trkpt>
      <trkpt lat="49.24781" lon="1.82999">
        <ele>70.1</ele>
        <time>2022-02-20T09:07:18Z</time>
      </trkpt>
      <trkpt lat="49.24776" lon="1.83001">
        <ele>70.8</ele>
        <time>2022-02-20T09:07:22Z</time>
      </trkpt>
      <trkpt lat="49.24771" lon="1.83005">
        <ele>71.3</ele>
        <time>2022-02-20T09:07:27Z</time>
      </trkpt>
      <trkpt lat="49.24767" lon="1.83011">
        <ele>69.4</ele>
        <time>2022-02-20T09:07:31Z</time>
      </trkpt>
      <trkpt lat="49.24765" lon="1.83018">
        <ele>67.1</ele>
        <time>2022-02-20T09:07:36Z</time>
      </trkpt>
      <trkpt lat="49.24761" lon="1.83024">
        <ele>66.2</ele>
        <time>2022-02-20T09:07:40Z</time>
      </trkpt>
      <trkpt lat="49.24756" lon="1.83028">
        <ele>65</ele>
        <time>2022-02-20T09:07:44Z</time>
      </trkpt>
      <trkpt lat="49.24752" lon="1.83032">
        <ele>64.4</ele>
        <time>2022-02-20T09:07:48Z</time>
      </trkpt>
      <trkpt lat="49.24748" lon="1.83037">
        <ele>64.3</ele>
        <time>2022-02-20T09:07:53Z</time>
      </trkpt>
      <trkpt lat="49.24744" lon="1.83043">
        <ele>62.6</ele>
        <time>2022-02-20T09:07:58Z</time>
      </trkpt>
      <trkpt lat="49.24741" lon="1.8305">
        <ele>62.1</ele>
        <time>2022-02-20T09:08:03Z</time>
      </trkpt>
      <trkpt lat="49.24744" lon="1.83058">
        <ele>64.7</ele>
        <time>2022-02-20T09:08:07Z</time>
      </trkpt>
      <trkpt lat="49.24747" lon="1.83065">
        <ele>67.9</ele>
        <time>2022-02-20T09:08:11Z</time>
      </trkpt>
      <trkpt lat="49.2475" lon="1.83072">
        <ele>69.2</ele>
        <time>2022-02-20T09:08:15Z</time>
      </trkpt>
      <trkpt lat="49.24753" lon="1.83077">
        <ele>69.5</ele>
        <time>2022-02-20T09:08:19Z</time>
      </trkpt>
      <trkpt lat="49.24755" lon="1.83085">
        <ele>68.7</ele>
        <time>2022-02-20T09:08:24Z</time>
      </trkpt>
      <trkpt lat="49.24755" lon="1.83093">
        <ele>68.1</ele>
        <time>2022-02-20T09:08:29Z</time>
      </trkpt>
      <trkpt lat="49.24755" lon="1.83101">
        <ele>68.1</ele>
        <time>2022-02-20T09:08:33Z</time>
      </trkpt>
      <trkpt lat="49.24755" lon="1.83108">
        <ele>66.2</ele>
        <time>2022-02-20T09:08:37Z</time>
      </trkpt>
      <trkpt lat="49.24756" lon="1.83115">
        <ele>64.4</ele>
        <time>2022-02-20T09:08:42Z</time>
      </trkpt>
      <trkpt lat="49.24756" lon="1.83122">
        <ele>64.1</ele>
        <time>2022-02-20T09:08:46Z</time>
      </trkpt>
      <trkpt lat="49.24757" lon="1.8313">
        <ele>62.7</ele>
        <time>2022-02-20T09:08:52Z</time>
      </trkpt>
      <trkpt lat="49.24759" lon="1.83139">
        <ele>60.1</ele>
        <time>2022-02-20T09:08:57Z</time>
      </trkpt>
      <trkpt lat="49.2476" lon="1.83146">
        <ele>58.7</ele>
        <time>2022-02-20T09:09:02Z</time>
      </trkpt>
      <trkpt lat="49.24763" lon="1.83154">
        <ele>59.1</ele>
        <time>2022-02-20T09:09:07Z</time>
      </trkpt>
      <trkpt lat="49.24765" lon="1.83163">
        <ele>59.9</ele>
        <time>2022-02-20T09:09:11Z</time>
      </trkpt>
      <trkpt lat="49.24766" lon="1.8317">
        <ele>60.3</ele>
        <time>2022-02-20T09:09:14Z</time>
      </trkpt>
      <trkpt lat="49.24767" lon="1.83177">
        <ele>60.7</ele>
        <time>2022-02-20T09:09:18Z</time>
      </trkpt>
      <trkpt lat="49.24767" lon="1.83184">
        <ele>60.9</ele>
        <time>2022-02-20T09:09:21Z</time>
      </trkpt>
      <trkpt lat="49.24767" lon="1.83191">
        <ele>60.9</ele>
        <time>2022-02-20T09:09:24Z</time>
      </trkpt>
      <trkpt lat="49.24767" lon="1.832">
        <ele>60.9</ele>
        <time>2022-02-20T09:09:28Z</time>
      </trkpt>
      <trkpt lat="49.24767" lon="1.83207">
        <ele>61.2</ele>
        <time>2022-02-20T09:09:31Z</time>
      </trkpt>
      <trkpt lat="49.24767" lon="1.83214">
        <ele>62.4</ele>
        <time>2022-02-20T09:09:35Z</time>
      </trkpt>
      <trkpt lat="49.24766" lon="1.83223">
        <ele>64</ele>
        <time>2022-02-20T09:09:39Z</time>
      </trkpt>
      <trkpt lat="49.24766" lon="1.8323">
        <ele>65.2</ele>
        <time>2022-02-20T09:09:42Z</time>
      </trkpt>
      <trkpt lat="49.24767" lon="1.83238">
        <ele>66.4</ele>
        <time>2022-02-20T09:09:46Z</time>
      </trkpt>
      <trkpt lat="49.24766" lon="1.83247">
        <ele>67.4</ele>
        <time>2022-02-20T09:09:50Z</time>
      </trkpt>
      <trkpt lat="49.24765" lon="1.83255">
        <ele>68.3</ele>
        <time>2022-02-20T09:09:55Z</time>
      </trkpt>
      <trkpt lat="49.24765" lon="1.83262">
        <ele>68.7</ele>
        <time>2022-02-20T09:09:58Z</time>
      </trkpt>
      <trkpt lat="49.24766" lon="1.83271">
        <ele>69</ele>
        <time>2022-02-20T09:10:05Z</time>
      </trkpt>
      <trkpt lat="49.24766" lon="1.83279">
        <ele>69.1</ele>
        <time>2022-02-20T09:10:08Z</time>
      </trkpt>
      <trkpt lat="49.24766" lon="1.83286">
        <ele>69.2</ele>
        <time>2022-02-20T09:10:11Z</time>
      </trkpt>
      <trkpt lat="49.24766" lon="1.83295">
        <ele>69.4</ele>
        <time>2022-02-20T09:10:15Z</time>
      </trkpt>
      <trkpt lat="49.24766" lon="1.83303">
        <ele>69.4</ele>
        <time>2022-02-20T09:10:19Z</time>
      </trkpt>
      <trkpt lat="49.24765" lon="1.83311">
        <ele>69.3</ele>
        <time>2022-02-20T09:10:22Z</time>
      </trkpt>
      <trkpt lat="49.24766" lon="1.83319">
        <ele>69.1</ele>
        <time>2022-02-20T09:10:27Z</time>
      </trkpt>
      <trkpt lat="49.24764" lon="1.83326">
        <ele>68.7</ele>
        <time>2022-02-20T09:10:31Z</time>
      </trkpt>
      <trkpt lat="49.24765" lon="1.83334">
        <ele>67.7</ele>
        <time>2022-02-20T09:10:35Z</time>
      </trkpt>
      <trkpt lat="49.24764" lon="1.83341">
        <ele>66.9</ele>
        <time>2022-02-20T09:10:38Z</time>
      </trkpt>
      <trkpt lat="49.24762" lon="1.8335">
        <ele>66.7</ele>
        <time>2022-02-20T09:10:43Z</time>
      </trkpt>
      <trkpt lat="49.2476" lon="1.83356">
        <ele>67.1</ele>
        <time>2022-02-20T09:10:46Z</time>
      </trkpt>
      <trkpt lat="49.24759" lon="1.83364">
        <ele>67.3</ele>
        <time>2022-02-20T09:10:50Z</time>
      </trkpt>
      <trkpt lat="49.24757" lon="1.83372">
        <ele>67.8</ele>
        <time>2022-02-20T09:10:54Z</time>
      </trkpt>
      <trkpt lat="49.24754" lon="1.83379">
        <ele>68.1</ele>
        <time>2022-02-20T09:10:58Z</time>
      </trkpt>
      <trkpt lat="49.24752" lon="1.83386">
        <ele>67.9</ele>
        <time>2022-02-20T09:11:02Z</time>
      </trkpt>
      <trkpt lat="49.24749" lon="1.83392">
        <ele>66.5</ele>
        <time>2022-02-20T09:11:06Z</time>
      </trkpt>
      <trkpt lat="49.24746" lon="1.83397">
        <ele>65</ele>
        <time>2022-02-20T09:11:10Z</time>
      </trkpt>
      <trkpt lat="49.24742" lon="1.83404">
        <ele>64.6</ele>
        <time>2022-02-20T09:11:15Z</time>
      </trkpt>
      <trkpt lat="49.24738" lon="1.8341">
        <ele>64.6</ele>
        <time>2022-02-20T09:11:19Z</time>
      </trkpt>
      <trkpt lat="49.24734" lon="1.83416">
        <ele>65.3</ele>
        <time>2022-02-20T09:11:23Z</time>
      </trkpt>
      <trkpt lat="49.24732" lon="1.83423">
        <ele>66.1</ele>
        <time>2022-02-20T09:11:27Z</time>
      </trkpt>
      <trkpt lat="49.24729" lon="1.83431">
        <ele>66.8</ele>
        <time>2022-02-20T09:11:31Z</time>
      </trkpt>
      <trkpt lat="49.24727" lon="1.83438">
        <ele>67.5</ele>
        <time>2022-02-20T09:11:34Z</time>
      </trkpt>
      <trkpt lat="49.24726" lon="1.83445">
        <ele>68.3</ele>
        <time>2022-02-20T09:11:38Z</time>
      </trkpt>
      <trkpt lat="49.24725" lon="1.83452">
        <ele>68.6</ele>
        <time>2022-02-20T09:11:41Z</time>
      </trkpt>
      <trkpt lat="49.24724" lon="1.8346">
        <ele>67.7</ele>
        <time>2022-02-20T09:11:45Z</time>
      </trkpt>
      <trkpt lat="49.24724" lon="1.83468">
        <ele>66.4</ele>
        <time>2022-02-20T09:11:49Z</time>
      </trkpt>
      <trkpt lat="49.24724" lon="1.83476">
        <ele>66.4</ele>
        <time>2022-02-20T09:11:53Z</time>
      </trkpt>
      <trkpt lat="49.24724" lon="1.83484">
        <ele>66.6</ele>
        <time>2022-02-20T09:11:57Z</time>
      </trkpt>
      <trkpt lat="49.24723" lon="1.83492">
        <ele>66.6</ele>
        <time>2022-02-20T09:12:02Z</time>
      </trkpt>
      <trkpt lat="49.24722" lon="1.835">
        <ele>67</ele>
        <time>2022-02-20T09:12:06Z</time>
      </trkpt>
      <trkpt lat="49.24722" lon="1.83509">
        <ele>67.6</ele>
        <time>2022-02-20T09:12:10Z</time>
      </trkpt>
      <trkpt lat="49.2472" lon="1.83516">
        <ele>67.1</ele>
        <time>2022-02-20T09:12:15Z</time>
      </trkpt>
      <trkpt lat="49.24719" lon="1.83525">
        <ele>65.9</ele>
        <time>2022-02-20T09:12:20Z</time>
      </trkpt>
      <trkpt lat="49.2472" lon="1.83533">
        <ele>65.7</ele>
        <time>2022-02-20T09:12:24Z</time>
      </trkpt>
      <trkpt lat="49.2472" lon="1.83541">
        <ele>65.8</ele>
        <time>2022-02-20T09:12:29Z</time>
      </trkpt>
      <trkpt lat="49.2472" lon="1.83549">
        <ele>65.3</ele>
        <time>2022-02-20T09:12:33Z</time>
      </trkpt>
      <trkpt lat="49.24718" lon="1.83557">
        <ele>64.7</ele>
        <time>2022-02-20T09:12:38Z</time>
      </trkpt>
      <trkpt lat="49.24716" lon="1.83565">
        <ele>64.8</ele>
        <time>2022-02-20T09:12:43Z</time>
      </trkpt>
      <trkpt lat="49.24712" lon="1.83564">
        <ele>64.4</ele>
        <time>2022-02-20T09:12:47Z</time>
      </trkpt>
      <trkpt lat="49.24707" lon="1.8356">
        <ele>62.9</ele>
        <time>2022-02-20T09:12:52Z</time>
      </trkpt>
      <trkpt lat="49.24702" lon="1.83562">
        <ele>62.5</ele>
        <time>2022-02-20T09:12:57Z</time>
      </trkpt>
      <trkpt lat="49.24703" lon="1.83555">
        <ele>66.5</ele>
        <time>2022-02-20T09:15:27Z</time>
      </trkpt>
      <trkpt lat="49.24698" lon="1.83556">
        <ele>68.4</ele>
        <time>2022-02-20T09:16:45Z</time>
      </trkpt>
      <trkpt lat="49.24695" lon="1.8355">
        <ele>68.3</ele>
        <time>2022-02-20T09:16:48Z</time>
      </trkpt>
      <trkpt lat="49.24691" lon="1.83546">
        <ele>68.5</ele>
        <time>2022-02-20T09:16:55Z</time>
      </trkpt>
      <trkpt lat="49.24689" lon="1.83539">
        <ele>68.2</ele>
        <time>2022-02-20T09:16:59Z</time>
      </trkpt>
      <trkpt lat="49.24684" lon="1.83536">
        <ele>67.2</ele>
        <time>2022-02-20T09:17:06Z</time>
      </trkpt>
      <trkpt lat="49.24679" lon="1.83534">
        <ele>65.4</ele>
        <time>2022-02-20T09:17:11Z</time>
      </trkpt>
      <trkpt lat="49.24673" lon="1.83533">
        <ele>63.6</ele>
        <time>2022-02-20T09:17:16Z</time>
      </trkpt>
      <trkpt lat="49.2467" lon="1.83528">
        <ele>62.9</ele>
        <time>2022-02-20T09:17:21Z</time>
      </trkpt>
      <trkpt lat="49.24667" lon="1.83522">
        <ele>63.3</ele>
        <time>2022-02-20T09:17:26Z</time>
      </trkpt>
      <trkpt lat="49.24663" lon="1.83517">
        <ele>64.5</ele>
        <time>2022-02-20T09:17:30Z</time>
      </trkpt>
      <trkpt lat="49.24658" lon="1.83513">
        <ele>65</ele>
        <time>2022-02-20T09:17:34Z</time>
      </trkpt>
      <trkpt lat="49.24653" lon="1.83511">
        <ele>64.1</ele>
        <time>2022-02-20T09:17:39Z</time>
      </trkpt>
      <trkpt lat="49.24648" lon="1.8351">
        <ele>63.9</ele>
        <time>2022-02-20T09:17:44Z</time>
      </trkpt>
      <trkpt lat="49.24643" lon="1.83506">
        <ele>65.4</ele>
        <time>2022-02-20T09:17:48Z</time>
      </trkpt>
      <trkpt lat="49.24638" lon="1.83506">
        <ele>67.2</ele>
        <time>2022-02-20T09:17:52Z</time>
      </trkpt>
      <trkpt lat="49.24633" lon="1.83502">
        <ele>68.1</ele>
        <time>2022-02-20T09:17:57Z</time>
      </trkpt>
      <trkpt lat="49.24629" lon="1.83498">
        <ele>69</ele>
        <time>2022-02-20T09:18:00Z</time>
      </trkpt>
      <trkpt lat="49.24624" lon="1.83493">
        <ele>71</ele>
        <time>2022-02-20T09:18:04Z</time>
      </trkpt>
      <trkpt lat="49.2462" lon="1.83489">
        <ele>71.4</ele>
        <time>2022-02-20T09:18:09Z</time>
      </trkpt>
      <trkpt lat="49.24615" lon="1.83486">
        <ele>70.4</ele>
        <time>2022-02-20T09:18:13Z</time>
      </trkpt>
      <trkpt lat="49.24611" lon="1.83482">
        <ele>69.4</ele>
        <time>2022-02-20T09:18:18Z</time>
      </trkpt>
      <trkpt lat="49.24608" lon="1.83478">
        <ele>69.4</ele>
        <time>2022-02-20T09:18:22Z</time>
      </trkpt>
      <trkpt lat="49.24603" lon="1.83476">
        <ele>70.6</ele>
        <time>2022-02-20T09:18:27Z</time>
      </trkpt>
      <trkpt lat="49.24598" lon="1.83477">
        <ele>72</ele>
        <time>2022-02-20T09:18:31Z</time>
      </trkpt>
      <trkpt lat="49.24593" lon="1.83477">
        <ele>72.8</ele>
        <time>2022-02-20T09:18:35Z</time>
      </trkpt>
      <trkpt lat="49.24591" lon="1.83484">
        <ele>73.6</ele>
        <time>2022-02-20T09:18:40Z</time>
      </trkpt>
      <trkpt lat="49.24593" lon="1.83493">
        <ele>74.1</ele>
        <time>2022-02-20T09:18:43Z</time>
      </trkpt>
      <trkpt lat="49.24595" lon="1.83499">
        <ele>73.8</ele>
        <time>2022-02-20T09:18:46Z</time>
      </trkpt>
      <trkpt lat="49.24597" lon="1.83507">
        <ele>72.7</ele>
        <time>2022-02-20T09:18:51Z</time>
      </trkpt>
      <trkpt lat="49.24595" lon="1.83515">
        <ele>71.7</ele>
        <time>2022-02-20T09:18:55Z</time>
      </trkpt>
      <trkpt lat="49.24591" lon="1.8352">
        <ele>72.2</ele>
        <time>2022-02-20T09:18:58Z</time>
      </trkpt>
      <trkpt lat="49.24586" lon="1.83525">
        <ele>73.4</ele>
        <time>2022-02-20T09:19:01Z</time>
      </trkpt>
      <trkpt lat="49.24583" lon="1.8353">
        <ele>74.7</ele>
        <time>2022-02-20T09:19:05Z</time>
      </trkpt>
      <trkpt lat="49.2458" lon="1.83537">
        <ele>75.2</ele>
        <time>2022-02-20T09:19:09Z</time>
      </trkpt>
      <trkpt lat="49.24578" lon="1.83544">
        <ele>74.8</ele>
        <time>2022-02-20T09:19:14Z</time>
      </trkpt>
      <trkpt lat="49.24575" lon="1.83551">
        <ele>74.1</ele>
        <time>2022-02-20T09:19:18Z</time>
      </trkpt>
      <trkpt lat="49.24574" lon="1.83559">
        <ele>73.7</ele>
        <time>2022-02-20T09:19:22Z</time>
      </trkpt>
      <trkpt lat="49.24573" lon="1.83566">
        <ele>73.3</ele>
        <time>2022-02-20T09:19:27Z</time>
      </trkpt>
      <trkpt lat="49.24572" lon="1.83575">
        <ele>72.8</ele>
        <time>2022-02-20T09:19:32Z</time>
      </trkpt>
      <trkpt lat="49.24569" lon="1.83583">
        <ele>73.1</ele>
        <time>2022-02-20T09:19:36Z</time>
      </trkpt>
      <trkpt lat="49.24566" lon="1.83589">
        <ele>75</ele>
        <time>2022-02-20T09:19:40Z</time>
      </trkpt>
      <trkpt lat="49.24563" lon="1.83595">
        <ele>77.4</ele>
        <time>2022-02-20T09:19:45Z</time>
      </trkpt>
      <trkpt lat="49.24561" lon="1.83602">
        <ele>79</ele>
        <time>2022-02-20T09:19:49Z</time>
      </trkpt>
      <trkpt lat="49.24559" lon="1.83608">
        <ele>80.1</ele>
        <time>2022-02-20T09:19:52Z</time>
      </trkpt>
      <trkpt lat="49.24557" lon="1.83617">
        <ele>80.9</ele>
        <time>2022-02-20T09:19:56Z</time>
      </trkpt>
      <trkpt lat="49.24555" lon="1.83624">
        <ele>81</ele>
        <time>2022-02-20T09:20:00Z</time>
      </trkpt>
      <trkpt lat="49.24553" lon="1.83632">
        <ele>79.7</ele>
        <time>2022-02-20T09:20:07Z</time>
      </trkpt>
      <trkpt lat="49.24552" lon="1.83641">
        <ele>79</ele>
        <time>2022-02-20T09:20:12Z</time>
      </trkpt>
      <trkpt lat="49.2455" lon="1.83648">
        <ele>78.5</ele>
        <time>2022-02-20T09:20:16Z</time>
      </trkpt>
      <trkpt lat="49.24548" lon="1.83655">
        <ele>78.2</ele>
        <time>2022-02-20T09:20:21Z</time>
      </trkpt>
      <trkpt lat="49.24548" lon="1.83663">
        <ele>77.4</ele>
        <time>2022-02-20T09:20:25Z</time>
      </trkpt>
      <trkpt lat="49.24547" lon="1.83671">
        <ele>76.2</ele>
        <time>2022-02-20T09:20:29Z</time>
      </trkpt>
      <trkpt lat="49.24546" lon="1.83678">
        <ele>76.3</ele>
        <time>2022-02-20T09:20:34Z</time>
      </trkpt>
      <trkpt lat="49.24546" lon="1.83685">
        <ele>75.7</ele>
        <time>2022-02-20T09:20:38Z</time>
      </trkpt>
      <trkpt lat="49.24548" lon="1.83692">
        <ele>74.8</ele>
        <time>2022-02-20T09:20:42Z</time>
      </trkpt>
      <trkpt lat="49.24548" lon="1.83701">
        <ele>74.9</ele>
        <time>2022-02-20T09:20:47Z</time>
      </trkpt>
      <trkpt lat="49.24545" lon="1.83708">
        <ele>75.2</ele>
        <time>2022-02-20T09:20:52Z</time>
      </trkpt>
      <trkpt lat="49.24543" lon="1.83714">
        <ele>75.1</ele>
        <time>2022-02-20T09:20:56Z</time>
      </trkpt>
      <trkpt lat="49.24541" lon="1.83721">
        <ele>74.9</ele>
        <time>2022-02-20T09:21:00Z</time>
      </trkpt>
      <trkpt lat="49.24538" lon="1.83727">
        <ele>74.9</ele>
        <time>2022-02-20T09:21:04Z</time>
      </trkpt>
      <trkpt lat="49.24536" lon="1.83734">
        <ele>75.5</ele>
        <time>2022-02-20T09:21:07Z</time>
      </trkpt>
      <trkpt lat="49.24535" lon="1.83742">
        <ele>76.4</ele>
        <time>2022-02-20T09:21:12Z</time>
      </trkpt>
      <trkpt lat="49.24533" lon="1.83748">
        <ele>76.7</ele>
        <time>2022-02-20T09:21:16Z</time>
      </trkpt>
      <trkpt lat="49.24532" lon="1.83755">
        <ele>76.7</ele>
        <time>2022-02-20T09:21:20Z</time>
      </trkpt>
      <trkpt lat="49.24533" lon="1.83764">
        <ele>76.7</ele>
        <time>2022-02-20T09:21:24Z</time>
      </trkpt>
      <trkpt lat="49.24534" lon="1.83771">
        <ele>77.2</ele>
        <time>2022-02-20T09:21:29Z</time>
      </trkpt>
      <trkpt lat="49.24537" lon="1.83778">
        <ele>77.4</ele>
        <time>2022-02-20T09:21:33Z</time>
      </trkpt>
      <trkpt lat="49.2454" lon="1.83786">
        <ele>77.1</ele>
        <time>2022-02-20T09:21:37Z</time>
      </trkpt>
      <trkpt lat="49.24543" lon="1.83792">
        <ele>76.7</ele>
        <time>2022-02-20T09:21:42Z</time>
      </trkpt>
      <trkpt lat="49.24545" lon="1.838">
        <ele>76.3</ele>
        <time>2022-02-20T09:21:46Z</time>
      </trkpt>
      <trkpt lat="49.24548" lon="1.83808">
        <ele>75.9</ele>
        <time>2022-02-20T09:21:51Z</time>
      </trkpt>
      <trkpt lat="49.24551" lon="1.83813">
        <ele>75</ele>
        <time>2022-02-20T09:21:55Z</time>
      </trkpt>
      <trkpt lat="49.24554" lon="1.83819">
        <ele>74.3</ele>
        <time>2022-02-20T09:22:00Z</time>
      </trkpt>
      <trkpt lat="49.24558" lon="1.83825">
        <ele>73.3</ele>
        <time>2022-02-20T09:22:04Z</time>
      </trkpt>
      <trkpt lat="49.24561" lon="1.83833">
        <ele>71.9</ele>
        <time>2022-02-20T09:22:09Z</time>
      </trkpt>
      <trkpt lat="49.24563" lon="1.83839">
        <ele>71.1</ele>
        <time>2022-02-20T09:22:13Z</time>
      </trkpt>
      <trkpt lat="49.24565" lon="1.83848">
        <ele>71.3</ele>
        <time>2022-02-20T09:22:17Z</time>
      </trkpt>
      <trkpt lat="49.24567" lon="1.83855">
        <ele>72.6</ele>
        <time>2022-02-20T09:22:22Z</time>
      </trkpt>
      <trkpt lat="49.2457" lon="1.83862">
        <ele>74.4</ele>
        <time>2022-02-20T09:22:26Z</time>
      </trkpt>
      <trkpt lat="49.24572" lon="1.83869">
        <ele>76.2</ele>
        <time>2022-02-20T09:22:30Z</time>
      </trkpt>
      <trkpt lat="49.24574" lon="1.83876">
        <ele>77.3</ele>
        <time>2022-02-20T09:22:34Z</time>
      </trkpt>
      <trkpt lat="49.24577" lon="1.83883">
        <ele>78.5</ele>
        <time>2022-02-20T09:22:39Z</time>
      </trkpt>
      <trkpt lat="49.24579" lon="1.8389">
        <ele>79.1</ele>
        <time>2022-02-20T09:22:43Z</time>
      </trkpt>
      <trkpt lat="49.24579" lon="1.83897">
        <ele>80</ele>
        <time>2022-02-20T09:22:48Z</time>
      </trkpt>
      <trkpt lat="49.24581" lon="1.83905">
        <ele>81.1</ele>
        <time>2022-02-20T09:22:52Z</time>
      </trkpt>
      <trkpt lat="49.24583" lon="1.83911">
        <ele>81.8</ele>
        <time>2022-02-20T09:22:57Z</time>
      </trkpt>
      <trkpt lat="49.24586" lon="1.83918">
        <ele>82.1</ele>
        <time>2022-02-20T09:23:01Z</time>
      </trkpt>
      <trkpt lat="49.24589" lon="1.83926">
        <ele>82.4</ele>
        <time>2022-02-20T09:23:06Z</time>
      </trkpt>
      <trkpt lat="49.2459" lon="1.83933">
        <ele>83</ele>
        <time>2022-02-20T09:23:11Z</time>
      </trkpt>
      <trkpt lat="49.24592" lon="1.83939">
        <ele>83.7</ele>
        <time>2022-02-20T09:23:16Z</time>
      </trkpt>
      <trkpt lat="49.24596" lon="1.83945">
        <ele>84.2</ele>
        <time>2022-02-20T09:23:20Z</time>
      </trkpt>
      <trkpt lat="49.24597" lon="1.83953">
        <ele>84.5</ele>
        <time>2022-02-20T09:23:26Z</time>
      </trkpt>
      <trkpt lat="49.246" lon="1.83959">
        <ele>84.8</ele>
        <time>2022-02-20T09:23:31Z</time>
      </trkpt>
      <trkpt lat="49.246" lon="1.83967">
        <ele>85.2</ele>
        <time>2022-02-20T09:23:35Z</time>
      </trkpt>
      <trkpt lat="49.24598" lon="1.83974">
        <ele>86.2</ele>
        <time>2022-02-20T09:23:40Z</time>
      </trkpt>
      <trkpt lat="49.24593" lon="1.83976">
        <ele>86.9</ele>
        <time>2022-02-20T09:23:45Z</time>
      </trkpt>
      <trkpt lat="49.24588" lon="1.83977">
        <ele>87.3</ele>
        <time>2022-02-20T09:23:50Z</time>
      </trkpt>
      <trkpt lat="49.24585" lon="1.83983">
        <ele>87.9</ele>
        <time>2022-02-20T09:23:56Z</time>
      </trkpt>
      <trkpt lat="49.24583" lon="1.83989">
        <ele>88.1</ele>
        <time>2022-02-20T09:24:01Z</time>
      </trkpt>
      <trkpt lat="49.2458" lon="1.83994">
        <ele>87.5</ele>
        <time>2022-02-20T09:24:06Z</time>
      </trkpt>
      <trkpt lat="49.24576" lon="1.83999">
        <ele>87.2</ele>
        <time>2022-02-20T09:24:11Z</time>
      </trkpt>
      <trkpt lat="49.24572" lon="1.84005">
        <ele>86.8</ele>
        <time>2022-02-20T09:24:17Z</time>
      </trkpt>
      <trkpt lat="49.24569" lon="1.84011">
        <ele>86.6</ele>
        <time>2022-02-20T09:24:21Z</time>
      </trkpt>
      <trkpt lat="49.24565" lon="1.84016">
        <ele>87</ele>
        <time>2022-02-20T09:24:26Z</time>
      </trkpt>
      <trkpt lat="49.24561" lon="1.84021">
        <ele>88</ele>
        <time>2022-02-20T09:24:30Z</time>
      </trkpt>
      <trkpt lat="49.24557" lon="1.84027">
        <ele>88.7</ele>
        <time>2022-02-20T09:24:34Z</time>
      </trkpt>
      <trkpt lat="49.24554" lon="1.84033">
        <ele>90</ele>
        <time>2022-02-20T09:24:38Z</time>
      </trkpt>
      <trkpt lat="49.24556" lon="1.8404">
        <ele>91.6</ele>
        <time>2022-02-20T09:24:46Z</time>
      </trkpt>
      <trkpt lat="49.2456" lon="1.84044">
        <ele>93.6</ele>
        <time>2022-02-20T09:24:55Z</time>
      </trkpt>
      <trkpt lat="49.24564" lon="1.84049">
        <ele>94.3</ele>
        <time>2022-02-20T09:25:01Z</time>
      </trkpt>
      <trkpt lat="49.24568" lon="1.84055">
        <ele>94</ele>
        <time>2022-02-20T09:25:06Z</time>
      </trkpt>
      <trkpt lat="49.24572" lon="1.84059">
        <ele>93.6</ele>
        <time>2022-02-20T09:25:11Z</time>
      </trkpt>
      <trkpt lat="49.24576" lon="1.84063">
        <ele>93.1</ele>
        <time>2022-02-20T09:25:14Z</time>
      </trkpt>
      <trkpt lat="49.24579" lon="1.84067">
        <ele>92.8</ele>
        <time>2022-02-20T09:25:19Z</time>
      </trkpt>
      <trkpt lat="49.24584" lon="1.84073">
        <ele>92.8</ele>
        <time>2022-02-20T09:25:24Z</time>
      </trkpt>
      <trkpt lat="49.24588" lon="1.84076">
        <ele>92.6</ele>
        <time>2022-02-20T09:25:28Z</time>
      </trkpt>
      <trkpt lat="49.24592" lon="1.84081">
        <ele>92.1</ele>
        <time>2022-02-20T09:25:32Z</time>
      </trkpt>
      <trkpt lat="49.24596" lon="1.84086">
        <ele>91.5</ele>
        <time>2022-02-20T09:25:37Z</time>
      </trkpt>
      <trkpt lat="49.24598" lon="1.84093">
        <ele>91.4</ele>
        <time>2022-02-20T09:25:41Z</time>
      </trkpt>
      <trkpt lat="49.24601" lon="1.841">
        <ele>91.5</ele>
        <time>2022-02-20T09:25:46Z</time>
      </trkpt>
      <trkpt lat="49.24603" lon="1.84107">
        <ele>91</ele>
        <time>2022-02-20T09:25:49Z</time>
      </trkpt>
      <trkpt lat="49.24606" lon="1.84114">
        <ele>91.1</ele>
        <time>2022-02-20T09:25:54Z</time>
      </trkpt>
      <trkpt lat="49.24609" lon="1.8412">
        <ele>91</ele>
        <time>2022-02-20T09:25:58Z</time>
      </trkpt>
      <trkpt lat="49.24611" lon="1.84128">
        <ele>90.7</ele>
        <time>2022-02-20T09:26:02Z</time>
      </trkpt>
      <trkpt lat="49.24611" lon="1.84135">
        <ele>90.5</ele>
        <time>2022-02-20T09:26:06Z</time>
      </trkpt>
      <trkpt lat="49.24612" lon="1.84143">
        <ele>90.6</ele>
        <time>2022-02-20T09:26:11Z</time>
      </trkpt>
      <trkpt lat="49.24614" lon="1.8415">
        <ele>90.4</ele>
        <time>2022-02-20T09:26:16Z</time>
      </trkpt>
      <trkpt lat="49.24615" lon="1.84158">
        <ele>90.4</ele>
        <time>2022-02-20T09:26:20Z</time>
      </trkpt>
      <trkpt lat="49.24615" lon="1.84166">
        <ele>91.1</ele>
        <time>2022-02-20T09:26:25Z</time>
      </trkpt>
      <trkpt lat="49.24614" lon="1.84173">
        <ele>91.3</ele>
        <time>2022-02-20T09:26:29Z</time>
      </trkpt>
      <trkpt lat="49.24614" lon="1.84181">
        <ele>90</ele>
        <time>2022-02-20T09:26:33Z</time>
      </trkpt>
      <trkpt lat="49.24615" lon="1.8419">
        <ele>88.3</ele>
        <time>2022-02-20T09:26:38Z</time>
      </trkpt>
      <trkpt lat="49.24616" lon="1.84198">
        <ele>88.4</ele>
        <time>2022-02-20T09:26:42Z</time>
      </trkpt>
      <trkpt lat="49.24616" lon="1.84206">
        <ele>90.4</ele>
        <time>2022-02-20T09:26:46Z</time>
      </trkpt>
      <trkpt lat="49.24616" lon="1.84214">
        <ele>91.8</ele>
        <time>2022-02-20T09:26:51Z</time>
      </trkpt>
      <trkpt lat="49.24616" lon="1.84222">
        <ele>91.5</ele>
        <time>2022-02-20T09:26:57Z</time>
      </trkpt>
      <trkpt lat="49.24617" lon="1.8423">
        <ele>93.1</ele>
        <time>2022-02-20T09:27:02Z</time>
      </trkpt>
      <trkpt lat="49.24617" lon="1.84238">
        <ele>94.4</ele>
        <time>2022-02-20T09:27:07Z</time>
      </trkpt>
      <trkpt lat="49.24617" lon="1.84245">
        <ele>93.6</ele>
        <time>2022-02-20T09:27:10Z</time>
      </trkpt>
      <trkpt lat="49.24618" lon="1.84253">
        <ele>91</ele>
        <time>2022-02-20T09:27:15Z</time>
      </trkpt>
      <trkpt lat="49.24618" lon="1.84261">
        <ele>89.2</ele>
        <time>2022-02-20T09:27:19Z</time>
      </trkpt>
      <trkpt lat="49.24617" lon="1.8427">
        <ele>89.9</ele>
        <time>2022-02-20T09:27:23Z</time>
      </trkpt>
      <trkpt lat="49.24616" lon="1.84277">
        <ele>91</ele>
        <time>2022-02-20T09:27:27Z</time>
      </trkpt>
      <trkpt lat="49.24615" lon="1.84285">
        <ele>90.2</ele>
        <time>2022-02-20T09:27:32Z</time>
      </trkpt>
      <trkpt lat="49.24614" lon="1.84292">
        <ele>89.1</ele>
        <time>2022-02-20T09:27:37Z</time>
      </trkpt>
      <trkpt lat="49.24613" lon="1.843">
        <ele>88.5</ele>
        <time>2022-02-20T09:27:41Z</time>
      </trkpt>
      <trkpt lat="49.24613" lon="1.84309">
        <ele>88.3</ele>
        <time>2022-02-20T09:27:45Z</time>
      </trkpt>
      <trkpt lat="49.24614" lon="1.84317">
        <ele>87.9</ele>
        <time>2022-02-20T09:27:50Z</time>
      </trkpt>
      <trkpt lat="49.24614" lon="1.84326">
        <ele>87.6</ele>
        <time>2022-02-20T09:27:54Z</time>
      </trkpt>
      <trkpt lat="49.24614" lon="1.84333">
        <ele>86.9</ele>
        <time>2022-02-20T09:27:59Z</time>
      </trkpt>
      <trkpt lat="49.24616" lon="1.84341">
        <ele>85.5</ele>
        <time>2022-02-20T09:28:04Z</time>
      </trkpt>
      <trkpt lat="49.24617" lon="1.84349">
        <ele>84.9</ele>
        <time>2022-02-20T09:28:08Z</time>
      </trkpt>
      <trkpt lat="49.24618" lon="1.84356">
        <ele>84.2</ele>
        <time>2022-02-20T09:28:13Z</time>
      </trkpt>
      <trkpt lat="49.24618" lon="1.84364">
        <ele>83.1</ele>
        <time>2022-02-20T09:28:17Z</time>
      </trkpt>
      <trkpt lat="49.2462" lon="1.84371">
        <ele>82.4</ele>
        <time>2022-02-20T09:28:21Z</time>
      </trkpt>
      <trkpt lat="49.2462" lon="1.84378">
        <ele>82.2</ele>
        <time>2022-02-20T09:28:25Z</time>
      </trkpt>
      <trkpt lat="49.24621" lon="1.84386">
        <ele>82.5</ele>
        <time>2022-02-20T09:28:29Z</time>
      </trkpt>
      <trkpt lat="49.24622" lon="1.84393">
        <ele>82.4</ele>
        <time>2022-02-20T09:28:34Z</time>
      </trkpt>
      <trkpt lat="49.24623" lon="1.844">
        <ele>81.5</ele>
        <time>2022-02-20T09:28:38Z</time>
      </trkpt>
      <trkpt lat="49.24624" lon="1.84408">
        <ele>80.6</ele>
        <time>2022-02-20T09:28:42Z</time>
      </trkpt>
      <trkpt lat="49.24625" lon="1.84417">
        <ele>80.1</ele>
        <time>2022-02-20T09:28:47Z</time>
      </trkpt>
      <trkpt lat="49.24625" lon="1.84425">
        <ele>79.7</ele>
        <time>2022-02-20T09:28:52Z</time>
      </trkpt>
      <trkpt lat="49.24625" lon="1.84432">
        <ele>79.1</ele>
        <time>2022-02-20T09:28:56Z</time>
      </trkpt>
      <trkpt lat="49.24624" lon="1.84441">
        <ele>78.3</ele>
        <time>2022-02-20T09:29:00Z</time>
      </trkpt>
      <trkpt lat="49.24623" lon="1.84448">
        <ele>77.3</ele>
        <time>2022-02-20T09:29:04Z</time>
      </trkpt>
      <trkpt lat="49.24622" lon="1.84455">
        <ele>77.2</ele>
        <time>2022-02-20T09:29:09Z</time>
      </trkpt>
      <trkpt lat="49.24621" lon="1.84464">
        <ele>77.4</ele>
        <time>2022-02-20T09:29:14Z</time>
      </trkpt>
      <trkpt lat="49.2462" lon="1.84471">
        <ele>77.9</ele>
        <time>2022-02-20T09:29:18Z</time>
      </trkpt>
      <trkpt lat="49.24619" lon="1.84478">
        <ele>78.9</ele>
        <time>2022-02-20T09:29:22Z</time>
      </trkpt>
      <trkpt lat="49.24618" lon="1.84485">
        <ele>79.4</ele>
        <time>2022-02-20T09:29:26Z</time>
      </trkpt>
      <trkpt lat="49.24616" lon="1.84492">
        <ele>79.4</ele>
        <time>2022-02-20T09:29:31Z</time>
      </trkpt>
      <trkpt lat="49.24614" lon="1.845">
        <ele>77.9</ele>
        <time>2022-02-20T09:29:36Z</time>
      </trkpt>
      <trkpt lat="49.24612" lon="1.84507">
        <ele>75.3</ele>
        <time>2022-02-20T09:29:40Z</time>
      </trkpt>
      <trkpt lat="49.2461" lon="1.84514">
        <ele>73.2</ele>
        <time>2022-02-20T09:29:45Z</time>
      </trkpt>
      <trkpt lat="49.24608" lon="1.84523">
        <ele>72.6</ele>
        <time>2022-02-20T09:29:50Z</time>
      </trkpt>
      <trkpt lat="49.24607" lon="1.84531">
        <ele>73</ele>
        <time>2022-02-20T09:29:54Z</time>
      </trkpt>
      <trkpt lat="49.24605" lon="1.84538">
        <ele>73.6</ele>
        <time>2022-02-20T09:29:59Z</time>
      </trkpt>
      <trkpt lat="49.24602" lon="1.84545">
        <ele>73.5</ele>
        <time>2022-02-20T09:30:03Z</time>
      </trkpt>
      <trkpt lat="49.24598" lon="1.84553">
        <ele>73.2</ele>
        <time>2022-02-20T09:30:08Z</time>
      </trkpt>
      <trkpt lat="49.24594" lon="1.84559">
        <ele>73.5</ele>
        <time>2022-02-20T09:30:12Z</time>
      </trkpt>
      <trkpt lat="49.24589" lon="1.84563">
        <ele>74.3</ele>
        <time>2022-02-20T09:30:16Z</time>
      </trkpt>
      <trkpt lat="49.24584" lon="1.84566">
        <ele>75.3</ele>
        <time>2022-02-20T09:30:21Z</time>
      </trkpt>
      <trkpt lat="49.24579" lon="1.84567">
        <ele>77.6</ele>
        <time>2022-02-20T09:30:25Z</time>
      </trkpt>
      <trkpt lat="49.24574" lon="1.84569">
        <ele>79.7</ele>
        <time>2022-02-20T09:30:29Z</time>
      </trkpt>
      <trkpt lat="49.24569" lon="1.8457">
        <ele>80.7</ele>
        <time>2022-02-20T09:30:33Z</time>
      </trkpt>
      <trkpt lat="49.24564" lon="1.84571">
        <ele>81.2</ele>
        <time>2022-02-20T09:30:37Z</time>
      </trkpt>
      <trkpt lat="49.24559" lon="1.8457">
        <ele>82.8</ele>
        <time>2022-02-20T09:30:41Z</time>
      </trkpt>
      <trkpt lat="49.24553" lon="1.84568">
        <ele>83.1</ele>
        <time>2022-02-20T09:30:46Z</time>
      </trkpt>
      <trkpt lat="49.24549" lon="1.84565">
        <ele>81.8</ele>
        <time>2022-02-20T09:30:50Z</time>
      </trkpt>
      <trkpt lat="49.24544" lon="1.84562">
        <ele>80.5</ele>
        <time>2022-02-20T09:30:56Z</time>
      </trkpt>
      <trkpt lat="49.2454" lon="1.84559">
        <ele>80.2</ele>
        <time>2022-02-20T09:30:59Z</time>
      </trkpt>
      <trkpt lat="49.24535" lon="1.84556">
        <ele>80.4</ele>
        <time>2022-02-20T09:31:04Z</time>
      </trkpt>
      <trkpt lat="49.2453" lon="1.84553">
        <ele>80.7</ele>
        <time>2022-02-20T09:31:08Z</time>
      </trkpt>
      <trkpt lat="49.24525" lon="1.84553">
        <ele>80.7</ele>
        <time>2022-02-20T09:31:12Z</time>
      </trkpt>
      <trkpt lat="49.2452" lon="1.84553">
        <ele>80.7</ele>
        <time>2022-02-20T09:31:16Z</time>
      </trkpt>
      <trkpt lat="49.24515" lon="1.84553">
        <ele>81.1</ele>
        <time>2022-02-20T09:31:20Z</time>
      </trkpt>
      <trkpt lat="49.24509" lon="1.84554">
        <ele>81.9</ele>
        <time>2022-02-20T09:31:26Z</time>
      </trkpt>
      <trkpt lat="49.24504" lon="1.84558">
        <ele>82.1</ele>
        <time>2022-02-20T09:31:31Z</time>
      </trkpt>
      <trkpt lat="49.245" lon="1.84561">
        <ele>80.5</ele>
        <time>2022-02-20T09:31:58Z</time>
      </trkpt>
      <trkpt lat="49.24496" lon="1.84563">
        <ele>80.8</ele>
        <time>2022-02-20T09:32:02Z</time>
      </trkpt>
      <trkpt lat="49.24491" lon="1.84565">
        <ele>80.9</ele>
        <time>2022-02-20T09:32:05Z</time>
      </trkpt>
      <trkpt lat="49.24486" lon="1.84568">
        <ele>81.1</ele>
        <time>2022-02-20T09:32:10Z</time>
      </trkpt>
      <trkpt lat="49.24482" lon="1.84572">
        <ele>81</ele>
        <time>2022-02-20T09:32:15Z</time>
      </trkpt>
      <trkpt lat="49.24477" lon="1.84576">
        <ele>80.5</ele>
        <time>2022-02-20T09:32:19Z</time>
      </trkpt>
      <trkpt lat="49.24473" lon="1.8458">
        <ele>80.4</ele>
        <time>2022-02-20T09:32:24Z</time>
      </trkpt>
      <trkpt lat="49.24468" lon="1.84582">
        <ele>80.5</ele>
        <time>2022-02-20T09:32:28Z</time>
      </trkpt>
      <trkpt lat="49.24464" lon="1.84585">
        <ele>80</ele>
        <time>2022-02-20T09:32:32Z</time>
      </trkpt>
      <trkpt lat="49.24459" lon="1.84588">
        <ele>79</ele>
        <time>2022-02-20T09:32:37Z</time>
      </trkpt>
      <trkpt lat="49.24455" lon="1.84591">
        <ele>77.5</ele>
        <time>2022-02-20T09:32:41Z</time>
      </trkpt>
      <trkpt lat="49.24449" lon="1.84593">
        <ele>76.7</ele>
        <time>2022-02-20T09:32:45Z</time>
      </trkpt>
      <trkpt lat="49.24444" lon="1.84595">
        <ele>76.3</ele>
        <time>2022-02-20T09:32:49Z</time>
      </trkpt>
      <trkpt lat="49.24443" lon="1.84602">
        <ele>76.5</ele>
        <time>2022-02-20T09:32:54Z</time>
      </trkpt>
      <trkpt lat="49.24444" lon="1.8461">
        <ele>77.8</ele>
        <time>2022-02-20T09:32:58Z</time>
      </trkpt>
      <trkpt lat="49.24448" lon="1.84603">
        <ele>77.6</ele>
        <time>2022-02-20T09:33:08Z</time>
      </trkpt>
      <trkpt lat="49.24444" lon="1.846">
        <ele>77.1</ele>
        <time>2022-02-20T09:33:20Z</time>
      </trkpt>
      <trkpt lat="49.2444" lon="1.846">
        <ele>77.5</ele>
        <time>2022-02-20T09:33:25Z</time>
      </trkpt>
      <trkpt lat="49.24435" lon="1.84602">
        <ele>77.3</ele>
        <time>2022-02-20T09:33:30Z</time>
      </trkpt>
      <trkpt lat="49.2443" lon="1.84605">
        <ele>76.1</ele>
        <time>2022-02-20T09:33:35Z</time>
      </trkpt>
      <trkpt lat="49.24425" lon="1.84608">
        <ele>74.9</ele>
        <time>2022-02-20T09:33:41Z</time>
      </trkpt>
      <trkpt lat="49.24421" lon="1.84611">
        <ele>74.8</ele>
        <time>2022-02-20T09:33:45Z</time>
      </trkpt>
      <trkpt lat="49.24416" lon="1.84615">
        <ele>75.6</ele>
        <time>2022-02-20T09:33:50Z</time>
      </trkpt>
      <trkpt lat="49.24412" lon="1.84617">
        <ele>76.5</ele>
        <time>2022-02-20T09:33:53Z</time>
      </trkpt>
      <trkpt lat="49.24407" lon="1.84619">
        <ele>77.5</ele>
        <time>2022-02-20T09:33:56Z</time>
      </trkpt>
      <trkpt lat="49.24402" lon="1.84621">
        <ele>78.9</ele>
        <time>2022-02-20T09:34:00Z</time>
      </trkpt>
      <trkpt lat="49.24398" lon="1.84625">
        <ele>79.2</ele>
        <time>2022-02-20T09:34:05Z</time>
      </trkpt>
      <trkpt lat="49.24393" lon="1.84627">
        <ele>78.8</ele>
        <time>2022-02-20T09:34:09Z</time>
      </trkpt>
      <trkpt lat="49.24389" lon="1.84629">
        <ele>78.6</ele>
        <time>2022-02-20T09:34:12Z</time>
      </trkpt>
      <trkpt lat="49.24385" lon="1.84634">
        <ele>79.3</ele>
        <time>2022-02-20T09:34:16Z</time>
      </trkpt>
      <trkpt lat="49.24382" lon="1.84639">
        <ele>80.2</ele>
        <time>2022-02-20T09:34:21Z</time>
      </trkpt>
      <trkpt lat="49.24377" lon="1.84644">
        <ele>81.5</ele>
        <time>2022-02-20T09:34:25Z</time>
      </trkpt>
      <trkpt lat="49.24372" lon="1.84649">
        <ele>82.5</ele>
        <time>2022-02-20T09:34:29Z</time>
      </trkpt>
      <trkpt lat="49.24368" lon="1.84653">
        <ele>82.2</ele>
        <time>2022-02-20T09:34:34Z</time>
      </trkpt>
      <trkpt lat="49.24363" lon="1.84656">
        <ele>81.4</ele>
        <time>2022-02-20T09:34:38Z</time>
      </trkpt>
      <trkpt lat="49.24359" lon="1.84659">
        <ele>80.5</ele>
        <time>2022-02-20T09:34:42Z</time>
      </trkpt>
      <trkpt lat="49.24355" lon="1.84662">
        <ele>79.4</ele>
        <time>2022-02-20T09:34:46Z</time>
      </trkpt>
      <trkpt lat="49.24352" lon="1.84671">
        <ele>78.1</ele>
        <time>2022-02-20T09:34:53Z</time>
      </trkpt>
      <trkpt lat="49.24351" lon="1.84677">
        <ele>77.5</ele>
        <time>2022-02-20T09:34:57Z</time>
      </trkpt>
      <trkpt lat="49.24348" lon="1.84672">
        <ele>77</ele>
        <time>2022-02-20T09:35:16Z</time>
      </trkpt>
      <trkpt lat="49.24347" lon="1.84665">
        <ele>75.9</ele>
        <time>2022-02-20T09:35:31Z</time>
      </trkpt>
      <trkpt lat="49.24345" lon="1.84658">
        <ele>75.8</ele>
        <time>2022-02-20T09:35:35Z</time>
      </trkpt>
      <trkpt lat="49.2434" lon="1.84661">
        <ele>74.2</ele>
        <time>2022-02-20T09:35:43Z</time>
      </trkpt>
      <trkpt lat="49.24344" lon="1.84666">
        <ele>75.5</ele>
        <time>2022-02-20T09:36:17Z</time>
      </trkpt>
      <trkpt lat="49.24344" lon="1.84674">
        <ele>77</ele>
        <time>2022-02-20T09:36:23Z</time>
      </trkpt>
      <trkpt lat="49.24346" lon="1.84681">
        <ele>77.7</ele>
        <time>2022-02-20T09:36:27Z</time>
      </trkpt>
      <trkpt lat="49.24346" lon="1.84689">
        <ele>77.6</ele>
        <time>2022-02-20T09:36:31Z</time>
      </trkpt>
      <trkpt lat="49.24348" lon="1.84697">
        <ele>77.1</ele>
        <time>2022-02-20T09:36:36Z</time>
      </trkpt>
      <trkpt lat="49.24349" lon="1.84704">
        <ele>76.7</ele>
        <time>2022-02-20T09:36:40Z</time>
      </trkpt>
      <trkpt lat="49.24349" lon="1.84712">
        <ele>76.5</ele>
        <time>2022-02-20T09:36:44Z</time>
      </trkpt>
      <trkpt lat="49.24349" lon="1.84719">
        <ele>76.3</ele>
        <time>2022-02-20T09:36:48Z</time>
      </trkpt>
      <trkpt lat="49.24348" lon="1.84728">
        <ele>76</ele>
        <time>2022-02-20T09:36:52Z</time>
      </trkpt>
      <trkpt lat="49.24346" lon="1.84735">
        <ele>75.6</ele>
        <time>2022-02-20T09:36:55Z</time>
      </trkpt>
      <trkpt lat="49.24342" lon="1.84739">
        <ele>75.4</ele>
        <time>2022-02-20T09:36:58Z</time>
      </trkpt>
      <trkpt lat="49.24337" lon="1.84742">
        <ele>75.2</ele>
        <time>2022-02-20T09:37:02Z</time>
      </trkpt>
      <trkpt lat="49.24333" lon="1.84746">
        <ele>75.2</ele>
        <time>2022-02-20T09:37:06Z</time>
      </trkpt>
      <trkpt lat="49.24327" lon="1.8475">
        <ele>75.1</ele>
        <time>2022-02-20T09:37:10Z</time>
      </trkpt>
      <trkpt lat="49.24322" lon="1.84752">
        <ele>75</ele>
        <time>2022-02-20T09:37:15Z</time>
      </trkpt>
      <trkpt lat="49.24317" lon="1.84755">
        <ele>74.7</ele>
        <time>2022-02-20T09:37:19Z</time>
      </trkpt>
      <trkpt lat="49.24311" lon="1.84757">
        <ele>74.4</ele>
        <time>2022-02-20T09:37:24Z</time>
      </trkpt>
      <trkpt lat="49.24306" lon="1.84758">
        <ele>74.7</ele>
        <time>2022-02-20T09:37:28Z</time>
      </trkpt>
      <trkpt lat="49.24303" lon="1.84751">
        <ele>75</ele>
        <time>2022-02-20T09:37:32Z</time>
      </trkpt>
      <trkpt lat="49.24297" lon="1.84753">
        <ele>75.1</ele>
        <time>2022-02-20T09:37:36Z</time>
      </trkpt>
      <trkpt lat="49.24292" lon="1.84754">
        <ele>75.2</ele>
        <time>2022-02-20T09:37:39Z</time>
      </trkpt>
      <trkpt lat="49.24288" lon="1.84755">
        <ele>75.5</ele>
        <time>2022-02-20T09:37:44Z</time>
      </trkpt>
      <trkpt lat="49.24282" lon="1.84755">
        <ele>76.4</ele>
        <time>2022-02-20T09:37:49Z</time>
      </trkpt>
      <trkpt lat="49.24278" lon="1.84752">
        <ele>78</ele>
        <time>2022-02-20T09:37:54Z</time>
      </trkpt>
      <trkpt lat="49.24283" lon="1.84754">
        <ele>79.4</ele>
        <time>2022-02-20T09:38:10Z</time>
      </trkpt>
      <trkpt lat="49.24289" lon="1.84757">
        <ele>79.3</ele>
        <time>2022-02-20T09:38:13Z</time>
      </trkpt>
      <trkpt lat="49.24294" lon="1.84757">
        <ele>79.1</ele>
        <time>2022-02-20T09:38:17Z</time>
      </trkpt>
      <trkpt lat="49.243" lon="1.84757">
        <ele>78</ele>
        <time>2022-02-20T09:38:21Z</time>
      </trkpt>
      <trkpt lat="49.24305" lon="1.84755">
        <ele>77.2</ele>
        <time>2022-02-20T09:38:26Z</time>
      </trkpt>
      <trkpt lat="49.24311" lon="1.84753">
        <ele>76.4</ele>
        <time>2022-02-20T09:38:32Z</time>
      </trkpt>
      <trkpt lat="49.24316" lon="1.84752">
        <ele>76</ele>
        <time>2022-02-20T09:38:35Z</time>
      </trkpt>
      <trkpt lat="49.2432" lon="1.84751">
        <ele>75.7</ele>
        <time>2022-02-20T09:38:38Z</time>
      </trkpt>
      <trkpt lat="49.24325" lon="1.8475">
        <ele>75.3</ele>
        <time>2022-02-20T09:38:42Z</time>
      </trkpt>
      <trkpt lat="49.2433" lon="1.84748">
        <ele>74.7</ele>
        <time>2022-02-20T09:38:46Z</time>
      </trkpt>
      <trkpt lat="49.24336" lon="1.84746">
        <ele>74.3</ele>
        <time>2022-02-20T09:38:51Z</time>
      </trkpt>
      <trkpt lat="49.24341" lon="1.84742">
        <ele>74.9</ele>
        <time>2022-02-20T09:38:55Z</time>
      </trkpt>
      <trkpt lat="49.24345" lon="1.84738">
        <ele>75.3</ele>
        <time>2022-02-20T09:39:00Z</time>
      </trkpt>
      <trkpt lat="49.2435" lon="1.84738">
        <ele>74.4</ele>
        <time>2022-02-20T09:39:05Z</time>
      </trkpt>
      <trkpt lat="49.24352" lon="1.84745">
        <ele>73.3</ele>
        <time>2022-02-20T09:39:12Z</time>
      </trkpt>
      <trkpt lat="49.24351" lon="1.84752">
        <ele>73.9</ele>
        <time>2022-02-20T09:39:15Z</time>
      </trkpt>
      <trkpt lat="49.2435" lon="1.8476">
        <ele>75</ele>
        <time>2022-02-20T09:39:19Z</time>
      </trkpt>
      <trkpt lat="49.2435" lon="1.84768">
        <ele>75.3</ele>
        <time>2022-02-20T09:39:23Z</time>
      </trkpt>
      <trkpt lat="49.2435" lon="1.84775">
        <ele>75.1</ele>
        <time>2022-02-20T09:39:26Z</time>
      </trkpt>
      <trkpt lat="49.2435" lon="1.84782">
        <ele>74.7</ele>
        <time>2022-02-20T09:39:31Z</time>
      </trkpt>
      <trkpt lat="49.2435" lon="1.8479">
        <ele>74.3</ele>
        <time>2022-02-20T09:39:35Z</time>
      </trkpt>
      <trkpt lat="49.2435" lon="1.84797">
        <ele>74</ele>
        <time>2022-02-20T09:39:39Z</time>
      </trkpt>
      <trkpt lat="49.2435" lon="1.84804">
        <ele>74.1</ele>
        <time>2022-02-20T09:39:42Z</time>
      </trkpt>
      <trkpt lat="49.24352" lon="1.84812">
        <ele>74.4</ele>
        <time>2022-02-20T09:39:47Z</time>
      </trkpt>
      <trkpt lat="49.24351" lon="1.8482">
        <ele>74.5</ele>
        <time>2022-02-20T09:39:50Z</time>
      </trkpt>
      <trkpt lat="49.24351" lon="1.84828">
        <ele>74.4</ele>
        <time>2022-02-20T09:39:54Z</time>
      </trkpt>
      <trkpt lat="49.24353" lon="1.84835">
        <ele>74.1</ele>
        <time>2022-02-20T09:40:00Z</time>
      </trkpt>
      <trkpt lat="49.24351" lon="1.84842">
        <ele>73.4</ele>
        <time>2022-02-20T09:40:04Z</time>
      </trkpt>
      <trkpt lat="49.24349" lon="1.8485">
        <ele>72.2</ele>
        <time>2022-02-20T09:40:08Z</time>
      </trkpt>
      <trkpt lat="49.2435" lon="1.84858">
        <ele>70.6</ele>
        <time>2022-02-20T09:40:12Z</time>
      </trkpt>
      <trkpt lat="49.2435" lon="1.84866">
        <ele>69.8</ele>
        <time>2022-02-20T09:40:17Z</time>
      </trkpt>
      <trkpt lat="49.24351" lon="1.84873">
        <ele>70.2</ele>
        <time>2022-02-20T09:40:20Z</time>
      </trkpt>
      <trkpt lat="49.24352" lon="1.8488">
        <ele>72.4</ele>
        <time>2022-02-20T09:40:24Z</time>
      </trkpt>
      <trkpt lat="49.24351" lon="1.84887">
        <ele>73.7</ele>
        <time>2022-02-20T09:40:28Z</time>
      </trkpt>
      <trkpt lat="49.24351" lon="1.84895">
        <ele>74.1</ele>
        <time>2022-02-20T09:40:32Z</time>
      </trkpt>
      <trkpt lat="49.24353" lon="1.84904">
        <ele>73.7</ele>
        <time>2022-02-20T09:40:37Z</time>
      </trkpt>
      <trkpt lat="49.24354" lon="1.84912">
        <ele>74.4</ele>
        <time>2022-02-20T09:40:41Z</time>
      </trkpt>
      <trkpt lat="49.24357" lon="1.84919">
        <ele>74.4</ele>
        <time>2022-02-20T09:40:45Z</time>
      </trkpt>
      <trkpt lat="49.24361" lon="1.84915">
        <ele>73.9</ele>
        <time>2022-02-20T09:40:52Z</time>
      </trkpt>
      <trkpt lat="49.2436" lon="1.84907">
        <ele>73.5</ele>
        <time>2022-02-20T09:40:55Z</time>
      </trkpt>
      <trkpt lat="49.24354" lon="1.8491">
        <ele>72.9</ele>
        <time>2022-02-20T09:41:03Z</time>
      </trkpt>
      <trkpt lat="49.2435" lon="1.84909">
        <ele>75</ele>
        <time>2022-02-20T09:41:12Z</time>
      </trkpt>
      <trkpt lat="49.24345" lon="1.84912">
        <ele>75.5</ele>
        <time>2022-02-20T09:41:22Z</time>
      </trkpt>
      <trkpt lat="49.24341" lon="1.84914">
        <ele>74.7</ele>
        <time>2022-02-20T09:41:26Z</time>
      </trkpt>
      <trkpt lat="49.24338" lon="1.84908">
        <ele>74.1</ele>
        <time>2022-02-20T09:41:34Z</time>
      </trkpt>
      <trkpt lat="49.24343" lon="1.84909">
        <ele>74.6</ele>
        <time>2022-02-20T09:41:45Z</time>
      </trkpt>
      <trkpt lat="49.24348" lon="1.84907">
        <ele>73.4</ele>
        <time>2022-02-20T09:41:50Z</time>
      </trkpt>
      <trkpt lat="49.24353" lon="1.84907">
        <ele>72.5</ele>
        <time>2022-02-20T09:41:55Z</time>
      </trkpt>
      <trkpt lat="49.24348" lon="1.84908">
        <ele>71.9</ele>
        <time>2022-02-20T09:42:09Z</time>
      </trkpt>
      <trkpt lat="49.24344" lon="1.84914">
        <ele>70.7</ele>
        <time>2022-02-20T09:42:13Z</time>
      </trkpt>
      <trkpt lat="49.24341" lon="1.84919">
        <ele>70</ele>
        <time>2022-02-20T09:42:18Z</time>
      </trkpt>
      <trkpt lat="49.24337" lon="1.84923">
        <ele>70.1</ele>
        <time>2022-02-20T09:42:23Z</time>
      </trkpt>
      <trkpt lat="49.24333" lon="1.84929">
        <ele>71.4</ele>
        <time>2022-02-20T09:42:37Z</time>
      </trkpt>
      <trkpt lat="49.2433" lon="1.84935">
        <ele>71.3</ele>
        <time>2022-02-20T09:42:40Z</time>
      </trkpt>
      <trkpt lat="49.24327" lon="1.84939">
        <ele>70.4</ele>
        <time>2022-02-20T09:42:47Z</time>
      </trkpt>
      <trkpt lat="49.24331" lon="1.84934">
        <ele>71.1</ele>
        <time>2022-02-20T09:43:15Z</time>
      </trkpt>
      <trkpt lat="49.24336" lon="1.84932">
        <ele>71.1</ele>
        <time>2022-02-20T09:43:28Z</time>
      </trkpt>
      <trkpt lat="49.24339" lon="1.84926">
        <ele>71.2</ele>
        <time>2022-02-20T09:43:32Z</time>
      </trkpt>
      <trkpt lat="49.24343" lon="1.84923">
        <ele>71.4</ele>
        <time>2022-02-20T09:43:37Z</time>
      </trkpt>
      <trkpt lat="49.24347" lon="1.84918">
        <ele>71.5</ele>
        <time>2022-02-20T09:43:42Z</time>
      </trkpt>
      <trkpt lat="49.24351" lon="1.84911">
        <ele>70.9</ele>
        <time>2022-02-20T09:43:47Z</time>
      </trkpt>
      <trkpt lat="49.24346" lon="1.84911">
        <ele>71.7</ele>
        <time>2022-02-20T09:44:20Z</time>
      </trkpt>
      <trkpt lat="49.24344" lon="1.84917">
        <ele>70.6</ele>
        <time>2022-02-20T09:44:56Z</time>
      </trkpt>
      <trkpt lat="49.24346" lon="1.84923">
        <ele>70.4</ele>
        <time>2022-02-20T09:45:02Z</time>
      </trkpt>
      <trkpt lat="49.2435" lon="1.84928">
        <ele>71.4</ele>
        <time>2022-02-20T09:45:15Z</time>
      </trkpt>
      <trkpt lat="49.24355" lon="1.84927">
        <ele>71.2</ele>
        <time>2022-02-20T09:45:20Z</time>
      </trkpt>
      <trkpt lat="49.2436" lon="1.84926">
        <ele>71</ele>
        <time>2022-02-20T09:45:27Z</time>
      </trkpt>
      <trkpt lat="49.24364" lon="1.84923">
        <ele>70.4</ele>
        <time>2022-02-20T09:45:34Z</time>
      </trkpt>
      <trkpt lat="49.24361" lon="1.84918">
        <ele>69.4</ele>
        <time>2022-02-20T09:45:57Z</time>
      </trkpt>
      <trkpt lat="49.24359" lon="1.84912">
        <ele>70.1</ele>
        <time>2022-02-20T09:46:01Z</time>
      </trkpt>
      <trkpt lat="49.24358" lon="1.84904">
        <ele>71.2</ele>
        <time>2022-02-20T09:46:06Z</time>
      </trkpt>
      <trkpt lat="49.24357" lon="1.84897">
        <ele>72.3</ele>
        <time>2022-02-20T09:46:10Z</time>
      </trkpt>
      <trkpt lat="49.24356" lon="1.84889">
        <ele>74</ele>
        <time>2022-02-20T09:46:17Z</time>
      </trkpt>
      <trkpt lat="49.24354" lon="1.84881">
        <ele>75.6</ele>
        <time>2022-02-20T09:46:31Z</time>
      </trkpt>
      <trkpt lat="49.24352" lon="1.84874">
        <ele>76.7</ele>
        <time>2022-02-20T09:46:36Z</time>
      </trkpt>
      <trkpt lat="49.24351" lon="1.84864">
        <ele>76.2</ele>
        <time>2022-02-20T09:46:41Z</time>
      </trkpt>
      <trkpt lat="49.24351" lon="1.84856">
        <ele>75</ele>
        <time>2022-02-20T09:46:46Z</time>
      </trkpt>
      <trkpt lat="49.2435" lon="1.84848">
        <ele>74.8</ele>
        <time>2022-02-20T09:46:51Z</time>
      </trkpt>
      <trkpt lat="49.24352" lon="1.84839">
        <ele>76.2</ele>
        <time>2022-02-20T09:46:55Z</time>
      </trkpt>
      <trkpt lat="49.24352" lon="1.84831">
        <ele>77.3</ele>
        <time>2022-02-20T09:46:59Z</time>
      </trkpt>
      <trkpt lat="49.24345" lon="1.8483">
        <ele>76.7</ele>
        <time>2022-02-20T09:47:07Z</time>
      </trkpt>
      <trkpt lat="49.24349" lon="1.84818">
        <ele>76.4</ele>
        <time>2022-02-20T09:47:11Z</time>
      </trkpt>
      <trkpt lat="49.24352" lon="1.84811">
        <ele>76.9</ele>
        <time>2022-02-20T09:47:14Z</time>
      </trkpt>
      <trkpt lat="49.24352" lon="1.84801">
        <ele>79.6</ele>
        <time>2022-02-20T09:47:22Z</time>
      </trkpt>
      <trkpt lat="49.24351" lon="1.84794">
        <ele>80.3</ele>
        <time>2022-02-20T09:47:25Z</time>
      </trkpt>
      <trkpt lat="49.2435" lon="1.84785">
        <ele>80.6</ele>
        <time>2022-02-20T09:47:31Z</time>
      </trkpt>
      <trkpt lat="49.2435" lon="1.84778">
        <ele>80.9</ele>
        <time>2022-02-20T09:47:34Z</time>
      </trkpt>
      <trkpt lat="49.24349" lon="1.8477">
        <ele>81.3</ele>
        <time>2022-02-20T09:47:36Z</time>
      </trkpt>
      <trkpt lat="49.24349" lon="1.84762">
        <ele>81.2</ele>
        <time>2022-02-20T09:47:41Z</time>
      </trkpt>
      <trkpt lat="49.24348" lon="1.84754">
        <ele>79.6</ele>
        <time>2022-02-20T09:47:47Z</time>
      </trkpt>
      <trkpt lat="49.24348" lon="1.84746">
        <ele>80.8</ele>
        <time>2022-02-20T09:47:52Z</time>
      </trkpt>
      <trkpt lat="49.24349" lon="1.84738">
        <ele>84.1</ele>
        <time>2022-02-20T09:47:57Z</time>
      </trkpt>
      <trkpt lat="49.24349" lon="1.84731">
        <ele>84.6</ele>
        <time>2022-02-20T09:48:00Z</time>
      </trkpt>
      <trkpt lat="49.24349" lon="1.84723">
        <ele>84.5</ele>
        <time>2022-02-20T09:48:04Z</time>
      </trkpt>
      <trkpt lat="49.24348" lon="1.84717">
        <ele>84.4</ele>
        <time>2022-02-20T09:48:12Z</time>
      </trkpt>
      <trkpt lat="49.24348" lon="1.84709">
        <ele>84.7</ele>
        <time>2022-02-20T09:48:21Z</time>
      </trkpt>
      <trkpt lat="49.24349" lon="1.84702">
        <ele>84.7</ele>
        <time>2022-02-20T09:48:25Z</time>
      </trkpt>
      <trkpt lat="49.24349" lon="1.84693">
        <ele>84.9</ele>
        <time>2022-02-20T09:48:28Z</time>
      </trkpt>
      <trkpt lat="49.2435" lon="1.84683">
        <ele>85.9</ele>
        <time>2022-02-20T09:48:32Z</time>
      </trkpt>
      <trkpt lat="49.24352" lon="1.84675">
        <ele>88.4</ele>
        <time>2022-02-20T09:48:35Z</time>
      </trkpt>
      <trkpt lat="49.24351" lon="1.84666">
        <ele>91.2</ele>
        <time>2022-02-20T09:48:39Z</time>
      </trkpt>
      <trkpt lat="49.24349" lon="1.84658">
        <ele>91.1</ele>
        <time>2022-02-20T09:48:42Z</time>
      </trkpt>
      <trkpt lat="49.24346" lon="1.84651">
        <ele>90.8</ele>
        <time>2022-02-20T09:48:48Z</time>
      </trkpt>
      <trkpt lat="49.24344" lon="1.84645">
        <ele>89.8</ele>
        <time>2022-02-20T09:48:52Z</time>
      </trkpt>
      <trkpt lat="49.24343" lon="1.84637">
        <ele>88.8</ele>
        <time>2022-02-20T09:48:56Z</time>
      </trkpt>
      <trkpt lat="49.24341" lon="1.84631">
        <ele>87.2</ele>
        <time>2022-02-20T09:49:00Z</time>
      </trkpt>
      <trkpt lat="49.24338" lon="1.84624">
        <ele>85</ele>
        <time>2022-02-20T09:49:05Z</time>
      </trkpt>
      <trkpt lat="49.24335" lon="1.84617">
        <ele>84.4</ele>
        <time>2022-02-20T09:49:10Z</time>
      </trkpt>
      <trkpt lat="49.24331" lon="1.84613">
        <ele>84.4</ele>
        <time>2022-02-20T09:49:14Z</time>
      </trkpt>
      <trkpt lat="49.24326" lon="1.8461">
        <ele>84.9</ele>
        <time>2022-02-20T09:49:18Z</time>
      </trkpt>
      <trkpt lat="49.24321" lon="1.84608">
        <ele>85.1</ele>
        <time>2022-02-20T09:49:22Z</time>
      </trkpt>
      <trkpt lat="49.24316" lon="1.84608">
        <ele>84.8</ele>
        <time>2022-02-20T09:49:27Z</time>
      </trkpt>
      <trkpt lat="49.24311" lon="1.84608">
        <ele>83.3</ele>
        <time>2022-02-20T09:49:31Z</time>
      </trkpt>
      <trkpt lat="49.24306" lon="1.84607">
        <ele>81.7</ele>
        <time>2022-02-20T09:49:35Z</time>
      </trkpt>
      <trkpt lat="49.24302" lon="1.84604">
        <ele>80</ele>
        <time>2022-02-20T09:49:39Z</time>
      </trkpt>
      <trkpt lat="49.24297" lon="1.84603">
        <ele>77.6</ele>
        <time>2022-02-20T09:49:43Z</time>
      </trkpt>
      <trkpt lat="49.24292" lon="1.84603">
        <ele>75.9</ele>
        <time>2022-02-20T09:49:46Z</time>
      </trkpt>
      <trkpt lat="49.24288" lon="1.84604">
        <ele>75.1</ele>
        <time>2022-02-20T09:49:50Z</time>
      </trkpt>
      <trkpt lat="49.24282" lon="1.84602">
        <ele>74.3</ele>
        <time>2022-02-20T09:49:54Z</time>
      </trkpt>
      <trkpt lat="49.24277" lon="1.84601">
        <ele>74.6</ele>
        <time>2022-02-20T09:49:59Z</time>
      </trkpt>
      <trkpt lat="49.24272" lon="1.84601">
        <ele>75.8</ele>
        <time>2022-02-20T09:50:03Z</time>
      </trkpt>
      <trkpt lat="49.24267" lon="1.84603">
        <ele>78.9</ele>
        <time>2022-02-20T09:50:08Z</time>
      </trkpt>
      <trkpt lat="49.24262" lon="1.84603">
        <ele>83.4</ele>
        <time>2022-02-20T09:50:12Z</time>
      </trkpt>
      <trkpt lat="49.24257" lon="1.84602">
        <ele>87.6</ele>
        <time>2022-02-20T09:50:17Z</time>
      </trkpt>
      <trkpt lat="49.24253" lon="1.84598">
        <ele>89.1</ele>
        <time>2022-02-20T09:50:21Z</time>
      </trkpt>
      <trkpt lat="49.24249" lon="1.84593">
        <ele>89.2</ele>
        <time>2022-02-20T09:50:24Z</time>
      </trkpt>
      <trkpt lat="49.24246" lon="1.84587">
        <ele>89.1</ele>
        <time>2022-02-20T09:50:29Z</time>
      </trkpt>
      <trkpt lat="49.24241" lon="1.84582">
        <ele>88.9</ele>
        <time>2022-02-20T09:50:34Z</time>
      </trkpt>
      <trkpt lat="49.24237" lon="1.84577">
        <ele>89.2</ele>
        <time>2022-02-20T09:50:38Z</time>
      </trkpt>
      <trkpt lat="49.24233" lon="1.84573">
        <ele>90</ele>
        <time>2022-02-20T09:50:42Z</time>
      </trkpt>
      <trkpt lat="49.24229" lon="1.84569">
        <ele>91.1</ele>
        <time>2022-02-20T09:50:47Z</time>
      </trkpt>
      <trkpt lat="49.24225" lon="1.84564">
        <ele>92.2</ele>
        <time>2022-02-20T09:50:52Z</time>
      </trkpt>
      <trkpt lat="49.24221" lon="1.84559">
        <ele>93.3</ele>
        <time>2022-02-20T09:50:56Z</time>
      </trkpt>
      <trkpt lat="49.24217" lon="1.84555">
        <ele>93.9</ele>
        <time>2022-02-20T09:51:00Z</time>
      </trkpt>
      <trkpt lat="49.24212" lon="1.8455">
        <ele>95.3</ele>
        <time>2022-02-20T09:51:04Z</time>
      </trkpt>
      <trkpt lat="49.24208" lon="1.84547">
        <ele>96.3</ele>
        <time>2022-02-20T09:51:09Z</time>
      </trkpt>
      <trkpt lat="49.24204" lon="1.84544">
        <ele>97.6</ele>
        <time>2022-02-20T09:51:13Z</time>
      </trkpt>
      <trkpt lat="49.24199" lon="1.84541">
        <ele>99.1</ele>
        <time>2022-02-20T09:51:17Z</time>
      </trkpt>
      <trkpt lat="49.24194" lon="1.84539">
        <ele>99.7</ele>
        <time>2022-02-20T09:51:20Z</time>
      </trkpt>
      <trkpt lat="49.2419" lon="1.84536">
        <ele>100.3</ele>
        <time>2022-02-20T09:51:24Z</time>
      </trkpt>
      <trkpt lat="49.24185" lon="1.84533">
        <ele>101.3</ele>
        <time>2022-02-20T09:51:28Z</time>
      </trkpt>
      <trkpt lat="49.2418" lon="1.84529">
        <ele>101.2</ele>
        <time>2022-02-20T09:51:33Z</time>
      </trkpt>
      <trkpt lat="49.24176" lon="1.84524">
        <ele>100.5</ele>
        <time>2022-02-20T09:51:37Z</time>
      </trkpt>
      <trkpt lat="49.24171" lon="1.84519">
        <ele>98.8</ele>
        <time>2022-02-20T09:51:41Z</time>
      </trkpt>
      <trkpt lat="49.24166" lon="1.84516">
        <ele>98</ele>
        <time>2022-02-20T09:51:45Z</time>
      </trkpt>
      <trkpt lat="49.24161" lon="1.84516">
        <ele>98.9</ele>
        <time>2022-02-20T09:51:51Z</time>
      </trkpt>
      <trkpt lat="49.24157" lon="1.84513">
        <ele>100.3</ele>
        <time>2022-02-20T09:51:55Z</time>
      </trkpt>
      <trkpt lat="49.24152" lon="1.84509">
        <ele>101.8</ele>
        <time>2022-02-20T09:51:59Z</time>
      </trkpt>
      <trkpt lat="49.24147" lon="1.84503">
        <ele>102.8</ele>
        <time>2022-02-20T09:52:03Z</time>
      </trkpt>
      <trkpt lat="49.24142" lon="1.84498">
        <ele>102.8</ele>
        <time>2022-02-20T09:52:08Z</time>
      </trkpt>
      <trkpt lat="49.24137" lon="1.84495">
        <ele>103.2</ele>
        <time>2022-02-20T09:52:12Z</time>
      </trkpt>
      <trkpt lat="49.24133" lon="1.84492">
        <ele>103.3</ele>
        <time>2022-02-20T09:52:16Z</time>
      </trkpt>
      <trkpt lat="49.24128" lon="1.84489">
        <ele>103.5</ele>
        <time>2022-02-20T09:52:20Z</time>
      </trkpt>
      <trkpt lat="49.24123" lon="1.84486">
        <ele>103.9</ele>
        <time>2022-02-20T09:52:25Z</time>
      </trkpt>
      <trkpt lat="49.24118" lon="1.84482">
        <ele>104.6</ele>
        <time>2022-02-20T09:52:28Z</time>
      </trkpt>
      <trkpt lat="49.24114" lon="1.84479">
        <ele>105.7</ele>
        <time>2022-02-20T09:52:31Z</time>
      </trkpt>
      <trkpt lat="49.24109" lon="1.84474">
        <ele>107</ele>
        <time>2022-02-20T09:52:36Z</time>
      </trkpt>
      <trkpt lat="49.24105" lon="1.84471">
        <ele>107.9</ele>
        <time>2022-02-20T09:52:40Z</time>
      </trkpt>
      <trkpt lat="49.241" lon="1.84467">
        <ele>108.2</ele>
        <time>2022-02-20T09:52:44Z</time>
      </trkpt>
      <trkpt lat="49.24095" lon="1.84463">
        <ele>108.2</ele>
        <time>2022-02-20T09:52:49Z</time>
      </trkpt>
      <trkpt lat="49.24091" lon="1.84459">
        <ele>108.3</ele>
        <time>2022-02-20T09:52:52Z</time>
      </trkpt>
      <trkpt lat="49.24087" lon="1.84455">
        <ele>110.1</ele>
        <time>2022-02-20T09:52:56Z</time>
      </trkpt>
      <trkpt lat="49.24082" lon="1.84452">
        <ele>112</ele>
        <time>2022-02-20T09:53:00Z</time>
      </trkpt>
      <trkpt lat="49.24077" lon="1.84448">
        <ele>112.6</ele>
        <time>2022-02-20T09:53:04Z</time>
      </trkpt>
      <trkpt lat="49.24073" lon="1.84444">
        <ele>112.7</ele>
        <time>2022-02-20T09:53:08Z</time>
      </trkpt>
      <trkpt lat="49.24069" lon="1.8444">
        <ele>112.8</ele>
        <time>2022-02-20T09:53:12Z</time>
      </trkpt>
      <trkpt lat="49.24063" lon="1.84436">
        <ele>112.7</ele>
        <time>2022-02-20T09:53:18Z</time>
      </trkpt>
      <trkpt lat="49.24058" lon="1.84433">
        <ele>112.1</ele>
        <time>2022-02-20T09:53:22Z</time>
      </trkpt>
      <trkpt lat="49.24054" lon="1.84428">
        <ele>110.3</ele>
        <time>2022-02-20T09:53:26Z</time>
      </trkpt>
      <trkpt lat="49.2405" lon="1.84424">
        <ele>109.9</ele>
        <time>2022-02-20T09:53:30Z</time>
      </trkpt>
      <trkpt lat="49.24046" lon="1.84419">
        <ele>111.1</ele>
        <time>2022-02-20T09:53:34Z</time>
      </trkpt>
      <trkpt lat="49.24042" lon="1.84414">
        <ele>112.4</ele>
        <time>2022-02-20T09:53:37Z</time>
      </trkpt>
      <trkpt lat="49.24038" lon="1.8441">
        <ele>113.3</ele>
        <time>2022-02-20T09:53:41Z</time>
      </trkpt>
      <trkpt lat="49.24033" lon="1.84405">
        <ele>113.7</ele>
        <time>2022-02-20T09:53:45Z</time>
      </trkpt>
      <trkpt lat="49.24028" lon="1.84401">
        <ele>114.3</ele>
        <time>2022-02-20T09:53:49Z</time>
      </trkpt>
      <trkpt lat="49.24024" lon="1.84398">
        <ele>114.5</ele>
        <time>2022-02-20T09:53:53Z</time>
      </trkpt>
      <trkpt lat="49.24019" lon="1.84394">
        <ele>114.1</ele>
        <time>2022-02-20T09:53:58Z</time>
      </trkpt>
      <trkpt lat="49.24014" lon="1.8439">
        <ele>113.6</ele>
        <time>2022-02-20T09:54:02Z</time>
      </trkpt>
      <trkpt lat="49.2401" lon="1.84386">
        <ele>113.6</ele>
        <time>2022-02-20T09:54:06Z</time>
      </trkpt>
      <trkpt lat="49.24006" lon="1.84392">
        <ele>114.1</ele>
        <time>2022-02-20T09:54:13Z</time>
      </trkpt>
      <trkpt lat="49.24" lon="1.84394">
        <ele>115.4</ele>
        <time>2022-02-20T09:54:16Z</time>
      </trkpt>
      <trkpt lat="49.23994" lon="1.84391">
        <ele>115.8</ele>
        <time>2022-02-20T09:54:20Z</time>
      </trkpt>
      <trkpt lat="49.2399" lon="1.84387">
        <ele>115.8</ele>
        <time>2022-02-20T09:54:23Z</time>
      </trkpt>
      <trkpt lat="49.23984" lon="1.84385">
        <ele>115</ele>
        <time>2022-02-20T09:54:28Z</time>
      </trkpt>
      <trkpt lat="49.23979" lon="1.84387">
        <ele>114.7</ele>
        <time>2022-02-20T09:54:32Z</time>
      </trkpt>
      <trkpt lat="49.23973" lon="1.84389">
        <ele>114.6</ele>
        <time>2022-02-20T09:54:36Z</time>
      </trkpt>
      <trkpt lat="49.23969" lon="1.8439">
        <ele>114.6</ele>
        <time>2022-02-20T09:54:40Z</time>
      </trkpt>
      <trkpt lat="49.23963" lon="1.84393">
        <ele>114.6</ele>
        <time>2022-02-20T09:54:44Z</time>
      </trkpt>
      <trkpt lat="49.23959" lon="1.84397">
        <ele>114.6</ele>
        <time>2022-02-20T09:54:48Z</time>
      </trkpt>
      <trkpt lat="49.23953" lon="1.84398">
        <ele>115.2</ele>
        <time>2022-02-20T09:54:53Z</time>
      </trkpt>
      <trkpt lat="49.23948" lon="1.84399">
        <ele>115.7</ele>
        <time>2022-02-20T09:54:57Z</time>
      </trkpt>
      <trkpt lat="49.23943" lon="1.84402">
        <ele>115.9</ele>
        <time>2022-02-20T09:55:01Z</time>
      </trkpt>
      <trkpt lat="49.23938" lon="1.84405">
        <ele>116.2</ele>
        <time>2022-02-20T09:55:05Z</time>
      </trkpt>
      <trkpt lat="49.23933" lon="1.84408">
        <ele>116.3</ele>
        <time>2022-02-20T09:55:09Z</time>
      </trkpt>
      <trkpt lat="49.23929" lon="1.84411">
        <ele>116</ele>
        <time>2022-02-20T09:55:13Z</time>
      </trkpt>
      <trkpt lat="49.23925" lon="1.84415">
        <ele>115.6</ele>
        <time>2022-02-20T09:55:17Z</time>
      </trkpt>
      <trkpt lat="49.2392" lon="1.84418">
        <ele>116.4</ele>
        <time>2022-02-20T09:55:21Z</time>
      </trkpt>
      <trkpt lat="49.23914" lon="1.84419">
        <ele>117.3</ele>
        <time>2022-02-20T09:55:25Z</time>
      </trkpt>
      <trkpt lat="49.23909" lon="1.8442">
        <ele>117.7</ele>
        <time>2022-02-20T09:55:29Z</time>
      </trkpt>
      <trkpt lat="49.23904" lon="1.84421">
        <ele>117.8</ele>
        <time>2022-02-20T09:55:33Z</time>
      </trkpt>
      <trkpt lat="49.23898" lon="1.84423">
        <ele>118.2</ele>
        <time>2022-02-20T09:55:37Z</time>
      </trkpt>
      <trkpt lat="49.23893" lon="1.84423">
        <ele>119.1</ele>
        <time>2022-02-20T09:55:40Z</time>
      </trkpt>
      <trkpt lat="49.23887" lon="1.84424">
        <ele>120.3</ele>
        <time>2022-02-20T09:55:45Z</time>
      </trkpt>
      <trkpt lat="49.23882" lon="1.84423">
        <ele>120.8</ele>
        <time>2022-02-20T09:55:49Z</time>
      </trkpt>
      <trkpt lat="49.23877" lon="1.84421">
        <ele>121.3</ele>
        <time>2022-02-20T09:55:52Z</time>
      </trkpt>
      <trkpt lat="49.23872" lon="1.84419">
        <ele>121.2</ele>
        <time>2022-02-20T09:55:56Z</time>
      </trkpt>
      <trkpt lat="49.23867" lon="1.84417">
        <ele>120.8</ele>
        <time>2022-02-20T09:56:00Z</time>
      </trkpt>
      <trkpt lat="49.23863" lon="1.84414">
        <ele>120.6</ele>
        <time>2022-02-20T09:56:04Z</time>
      </trkpt>
      <trkpt lat="49.23858" lon="1.84411">
        <ele>119.8</ele>
        <time>2022-02-20T09:56:08Z</time>
      </trkpt>
      <trkpt lat="49.23854" lon="1.84409">
        <ele>119.2</ele>
        <time>2022-02-20T09:56:12Z</time>
      </trkpt>
      <trkpt lat="49.2385" lon="1.84405">
        <ele>120.5</ele>
        <time>2022-02-20T09:56:16Z</time>
      </trkpt>
      <trkpt lat="49.23846" lon="1.84401">
        <ele>122</ele>
        <time>2022-02-20T09:56:20Z</time>
      </trkpt>
      <trkpt lat="49.23841" lon="1.84396">
        <ele>123.1</ele>
        <time>2022-02-20T09:56:25Z</time>
      </trkpt>
      <trkpt lat="49.23837" lon="1.84391">
        <ele>124.3</ele>
        <time>2022-02-20T09:56:28Z</time>
      </trkpt>
      <trkpt lat="49.23832" lon="1.84387">
        <ele>125</ele>
        <time>2022-02-20T09:56:32Z</time>
      </trkpt>
      <trkpt lat="49.23827" lon="1.84382">
        <ele>125.4</ele>
        <time>2022-02-20T09:56:36Z</time>
      </trkpt>
      <trkpt lat="49.23822" lon="1.84378">
        <ele>125.3</ele>
        <time>2022-02-20T09:56:40Z</time>
      </trkpt>
      <trkpt lat="49.23817" lon="1.84375">
        <ele>125</ele>
        <time>2022-02-20T09:56:45Z</time>
      </trkpt>
      <trkpt lat="49.23814" lon="1.8437">
        <ele>125.5</ele>
        <time>2022-02-20T09:56:49Z</time>
      </trkpt>
      <trkpt lat="49.2381" lon="1.84363">
        <ele>125.7</ele>
        <time>2022-02-20T09:56:53Z</time>
      </trkpt>
      <trkpt lat="49.23807" lon="1.84357">
        <ele>126.1</ele>
        <time>2022-02-20T09:56:57Z</time>
      </trkpt>
      <trkpt lat="49.23803" lon="1.84351">
        <ele>127.5</ele>
        <time>2022-02-20T09:57:01Z</time>
      </trkpt>
      <trkpt lat="49.23798" lon="1.84345">
        <ele>128.6</ele>
        <time>2022-02-20T09:57:05Z</time>
      </trkpt>
      <trkpt lat="49.23794" lon="1.84341">
        <ele>129</ele>
        <time>2022-02-20T09:57:09Z</time>
      </trkpt>
      <trkpt lat="49.23789" lon="1.84337">
        <ele>129.4</ele>
        <time>2022-02-20T09:57:13Z</time>
      </trkpt>
      <trkpt lat="49.23785" lon="1.84331">
        <ele>130</ele>
        <time>2022-02-20T09:57:17Z</time>
      </trkpt>
      <trkpt lat="49.23781" lon="1.84326">
        <ele>130.2</ele>
        <time>2022-02-20T09:57:21Z</time>
      </trkpt>
      <trkpt lat="49.23777" lon="1.84322">
        <ele>130.2</ele>
        <time>2022-02-20T09:57:25Z</time>
      </trkpt>
      <trkpt lat="49.23774" lon="1.84317">
        <ele>130.1</ele>
        <time>2022-02-20T09:57:28Z</time>
      </trkpt>
      <trkpt lat="49.2377" lon="1.84312">
        <ele>130</ele>
        <time>2022-02-20T09:57:32Z</time>
      </trkpt>
      <trkpt lat="49.23766" lon="1.84308">
        <ele>129.5</ele>
        <time>2022-02-20T09:57:36Z</time>
      </trkpt>
      <trkpt lat="49.23762" lon="1.84302">
        <ele>129</ele>
        <time>2022-02-20T09:57:40Z</time>
      </trkpt>
      <trkpt lat="49.23758" lon="1.84298">
        <ele>129</ele>
        <time>2022-02-20T09:57:43Z</time>
      </trkpt>
      <trkpt lat="49.23755" lon="1.84293">
        <ele>129</ele>
        <time>2022-02-20T09:57:47Z</time>
      </trkpt>
      <trkpt lat="49.23751" lon="1.84288">
        <ele>129</ele>
        <time>2022-02-20T09:57:51Z</time>
      </trkpt>
      <trkpt lat="49.23747" lon="1.84282">
        <ele>129.1</ele>
        <time>2022-02-20T09:57:55Z</time>
      </trkpt>
      <trkpt lat="49.23743" lon="1.84277">
        <ele>129.2</ele>
        <time>2022-02-20T09:57:59Z</time>
      </trkpt>
      <trkpt lat="49.23739" lon="1.8427">
        <ele>129.3</ele>
        <time>2022-02-20T09:58:03Z</time>
      </trkpt>
      <trkpt lat="49.23735" lon="1.84264">
        <ele>129.3</ele>
        <time>2022-02-20T09:58:07Z</time>
      </trkpt>
      <trkpt lat="49.2373" lon="1.84258">
        <ele>129.8</ele>
        <time>2022-02-20T09:58:12Z</time>
      </trkpt>
      <trkpt lat="49.23727" lon="1.84253">
        <ele>129.4</ele>
        <time>2022-02-20T09:58:16Z</time>
      </trkpt>
      <trkpt lat="49.2373" lon="1.84247">
        <ele>126.4</ele>
        <time>2022-02-20T09:58:21Z</time>
      </trkpt>
      <trkpt lat="49.23733" lon="1.84252">
        <ele>123.6</ele>
        <time>2022-02-20T09:58:28Z</time>
      </trkpt>
      <trkpt lat="49.23739" lon="1.84256">
        <ele>123.7</ele>
        <time>2022-02-20T10:02:20Z</time>
      </trkpt>
      <trkpt lat="49.23743" lon="1.84253">
        <ele>124.7</ele>
        <time>2022-02-20T10:10:59Z</time>
      </trkpt>
      <trkpt lat="49.23748" lon="1.84253">
        <ele>124.3</ele>
        <time>2022-02-20T10:11:03Z</time>
      </trkpt>
      <trkpt lat="49.23754" lon="1.84252">
        <ele>123.8</ele>
        <time>2022-02-20T10:11:08Z</time>
      </trkpt>
      <trkpt lat="49.23759" lon="1.84252">
        <ele>123.6</ele>
        <time>2022-02-20T10:11:12Z</time>
      </trkpt>
      <trkpt lat="49.23764" lon="1.84252">
        <ele>123.4</ele>
        <time>2022-02-20T10:11:17Z</time>
      </trkpt>
      <trkpt lat="49.23769" lon="1.84252">
        <ele>123.3</ele>
        <time>2022-02-20T10:11:21Z</time>
      </trkpt>
      <trkpt lat="49.23775" lon="1.84251">
        <ele>123.3</ele>
        <time>2022-02-20T10:11:26Z</time>
      </trkpt>
      <trkpt lat="49.23779" lon="1.84249">
        <ele>123.2</ele>
        <time>2022-02-20T10:11:30Z</time>
      </trkpt>
      <trkpt lat="49.23784" lon="1.84248">
        <ele>122.9</ele>
        <time>2022-02-20T10:11:34Z</time>
      </trkpt>
      <trkpt lat="49.2379" lon="1.84245">
        <ele>122.6</ele>
        <time>2022-02-20T10:11:38Z</time>
      </trkpt>
      <trkpt lat="49.23795" lon="1.84244">
        <ele>122.3</ele>
        <time>2022-02-20T10:11:43Z</time>
      </trkpt>
      <trkpt lat="49.238" lon="1.84242">
        <ele>122.3</ele>
        <time>2022-02-20T10:11:47Z</time>
      </trkpt>
      <trkpt lat="49.23805" lon="1.8424">
        <ele>122.5</ele>
        <time>2022-02-20T10:11:51Z</time>
      </trkpt>
      <trkpt lat="49.23809" lon="1.8424">
        <ele>123</ele>
        <time>2022-02-20T10:11:54Z</time>
      </trkpt>
      <trkpt lat="49.23814" lon="1.84237">
        <ele>123.5</ele>
        <time>2022-02-20T10:11:59Z</time>
      </trkpt>
      <trkpt lat="49.23819" lon="1.84235">
        <ele>123.9</ele>
        <time>2022-02-20T10:12:03Z</time>
      </trkpt>
      <trkpt lat="49.23824" lon="1.84235">
        <ele>124</ele>
        <time>2022-02-20T10:12:07Z</time>
      </trkpt>
      <trkpt lat="49.2383" lon="1.84236">
        <ele>124.7</ele>
        <time>2022-02-20T10:12:11Z</time>
      </trkpt>
      <trkpt lat="49.23835" lon="1.84239">
        <ele>125.5</ele>
        <time>2022-02-20T10:12:15Z</time>
      </trkpt>
      <trkpt lat="49.23839" lon="1.84242">
        <ele>126.1</ele>
        <time>2022-02-20T10:12:20Z</time>
      </trkpt>
      <trkpt lat="49.23844" lon="1.84245">
        <ele>126.5</ele>
        <time>2022-02-20T10:12:24Z</time>
      </trkpt>
      <trkpt lat="49.23849" lon="1.84248">
        <ele>126.4</ele>
        <time>2022-02-20T10:12:28Z</time>
      </trkpt>
      <trkpt lat="49.23853" lon="1.8425">
        <ele>126</ele>
        <time>2022-02-20T10:12:33Z</time>
      </trkpt>
      <trkpt lat="49.23858" lon="1.84252">
        <ele>125.4</ele>
        <time>2022-02-20T10:12:37Z</time>
      </trkpt>
      <trkpt lat="49.23863" lon="1.84254">
        <ele>125.4</ele>
        <time>2022-02-20T10:12:41Z</time>
      </trkpt>
      <trkpt lat="49.23868" lon="1.84256">
        <ele>125.4</ele>
        <time>2022-02-20T10:12:45Z</time>
      </trkpt>
      <trkpt lat="49.23872" lon="1.84257">
        <ele>125.1</ele>
        <time>2022-02-20T10:12:50Z</time>
      </trkpt>
      <trkpt lat="49.23877" lon="1.84259">
        <ele>124</ele>
        <time>2022-02-20T10:12:54Z</time>
      </trkpt>
      <trkpt lat="49.23883" lon="1.8426">
        <ele>122.9</ele>
        <time>2022-02-20T10:12:58Z</time>
      </trkpt>
      <trkpt lat="49.23888" lon="1.8426">
        <ele>123.1</ele>
        <time>2022-02-20T10:13:02Z</time>
      </trkpt>
      <trkpt lat="49.23893" lon="1.84261">
        <ele>123.1</ele>
        <time>2022-02-20T10:13:07Z</time>
      </trkpt>
      <trkpt lat="49.23899" lon="1.84259">
        <ele>121.9</ele>
        <time>2022-02-20T10:13:12Z</time>
      </trkpt>
      <trkpt lat="49.23904" lon="1.84258">
        <ele>121.5</ele>
        <time>2022-02-20T10:13:16Z</time>
      </trkpt>
      <trkpt lat="49.2391" lon="1.84256">
        <ele>121.3</ele>
        <time>2022-02-20T10:13:20Z</time>
      </trkpt>
      <trkpt lat="49.23915" lon="1.84255">
        <ele>120.7</ele>
        <time>2022-02-20T10:13:25Z</time>
      </trkpt>
      <trkpt lat="49.23921" lon="1.84254">
        <ele>120.2</ele>
        <time>2022-02-20T10:13:29Z</time>
      </trkpt>
      <trkpt lat="49.23926" lon="1.84254">
        <ele>119.6</ele>
        <time>2022-02-20T10:13:34Z</time>
      </trkpt>
      <trkpt lat="49.23931" lon="1.84253">
        <ele>118.8</ele>
        <time>2022-02-20T10:13:38Z</time>
      </trkpt>
      <trkpt lat="49.23937" lon="1.84253">
        <ele>118.2</ele>
        <time>2022-02-20T10:13:42Z</time>
      </trkpt>
      <trkpt lat="49.23942" lon="1.84254">
        <ele>117.5</ele>
        <time>2022-02-20T10:13:47Z</time>
      </trkpt>
      <trkpt lat="49.23948" lon="1.84252">
        <ele>117</ele>
        <time>2022-02-20T10:13:51Z</time>
      </trkpt>
      <trkpt lat="49.23953" lon="1.84252">
        <ele>116.8</ele>
        <time>2022-02-20T10:13:55Z</time>
      </trkpt>
      <trkpt lat="49.23958" lon="1.84252">
        <ele>116.7</ele>
        <time>2022-02-20T10:13:59Z</time>
      </trkpt>
      <trkpt lat="49.23963" lon="1.84251">
        <ele>116.5</ele>
        <time>2022-02-20T10:14:04Z</time>
      </trkpt>
      <trkpt lat="49.23968" lon="1.84251">
        <ele>116</ele>
        <time>2022-02-20T10:14:08Z</time>
      </trkpt>
      <trkpt lat="49.23973" lon="1.84251">
        <ele>115.2</ele>
        <time>2022-02-20T10:14:12Z</time>
      </trkpt>
      <trkpt lat="49.23978" lon="1.84249">
        <ele>114.7</ele>
        <time>2022-02-20T10:14:16Z</time>
      </trkpt>
      <trkpt lat="49.23983" lon="1.84249">
        <ele>114.4</ele>
        <time>2022-02-20T10:14:19Z</time>
      </trkpt>
      <trkpt lat="49.23988" lon="1.84249">
        <ele>114</ele>
        <time>2022-02-20T10:14:23Z</time>
      </trkpt>
      <trkpt lat="49.23993" lon="1.84248">
        <ele>113.4</ele>
        <time>2022-02-20T10:14:27Z</time>
      </trkpt>
      <trkpt lat="49.23998" lon="1.84251">
        <ele>114</ele>
        <time>2022-02-20T10:14:31Z</time>
      </trkpt>
      <trkpt lat="49.24003" lon="1.8425">
        <ele>117</ele>
        <time>2022-02-20T10:14:36Z</time>
      </trkpt>
      <trkpt lat="49.24007" lon="1.84245">
        <ele>118.6</ele>
        <time>2022-02-20T10:14:40Z</time>
      </trkpt>
      <trkpt lat="49.24011" lon="1.84239">
        <ele>118</ele>
        <time>2022-02-20T10:14:45Z</time>
      </trkpt>
      <trkpt lat="49.24017" lon="1.84236">
        <ele>118.2</ele>
        <time>2022-02-20T10:14:50Z</time>
      </trkpt>
      <trkpt lat="49.24023" lon="1.84236">
        <ele>121</ele>
        <time>2022-02-20T10:14:55Z</time>
      </trkpt>
      <trkpt lat="49.24029" lon="1.84233">
        <ele>125.3</ele>
        <time>2022-02-20T10:15:01Z</time>
      </trkpt>
      <trkpt lat="49.24033" lon="1.8423">
        <ele>126.9</ele>
        <time>2022-02-20T10:15:04Z</time>
      </trkpt>
      <trkpt lat="49.24039" lon="1.84226">
        <ele>127.6</ele>
        <time>2022-02-20T10:15:08Z</time>
      </trkpt>
      <trkpt lat="49.24043" lon="1.84224">
        <ele>126.5</ele>
        <time>2022-02-20T10:15:12Z</time>
      </trkpt>
      <trkpt lat="49.24048" lon="1.8422">
        <ele>124.2</ele>
        <time>2022-02-20T10:15:16Z</time>
      </trkpt>
      <trkpt lat="49.24052" lon="1.84216">
        <ele>123.7</ele>
        <time>2022-02-20T10:15:19Z</time>
      </trkpt>
      <trkpt lat="49.24057" lon="1.84211">
        <ele>124.4</ele>
        <time>2022-02-20T10:15:24Z</time>
      </trkpt>
      <trkpt lat="49.24061" lon="1.84207">
        <ele>125.7</ele>
        <time>2022-02-20T10:15:27Z</time>
      </trkpt>
      <trkpt lat="49.24066" lon="1.84204">
        <ele>127.3</ele>
        <time>2022-02-20T10:15:31Z</time>
      </trkpt>
      <trkpt lat="49.2407" lon="1.84203">
        <ele>127.6</ele>
        <time>2022-02-20T10:15:35Z</time>
      </trkpt>
      <trkpt lat="49.24076" lon="1.84202">
        <ele>128.2</ele>
        <time>2022-02-20T10:15:39Z</time>
      </trkpt>
      <trkpt lat="49.24081" lon="1.84197">
        <ele>128.7</ele>
        <time>2022-02-20T10:15:44Z</time>
      </trkpt>
      <trkpt lat="49.24084" lon="1.84192">
        <ele>128.4</ele>
        <time>2022-02-20T10:15:48Z</time>
      </trkpt>
      <trkpt lat="49.24088" lon="1.84188">
        <ele>128</ele>
        <time>2022-02-20T10:15:51Z</time>
      </trkpt>
      <trkpt lat="49.24093" lon="1.84185">
        <ele>129.1</ele>
        <time>2022-02-20T10:15:55Z</time>
      </trkpt>
      <trkpt lat="49.24097" lon="1.84181">
        <ele>131.1</ele>
        <time>2022-02-20T10:16:00Z</time>
      </trkpt>
      <trkpt lat="49.24102" lon="1.84178">
        <ele>131.4</ele>
        <time>2022-02-20T10:16:04Z</time>
      </trkpt>
      <trkpt lat="49.24104" lon="1.84169">
        <ele>131.2</ele>
        <time>2022-02-20T10:16:08Z</time>
      </trkpt>
      <trkpt lat="49.24106" lon="1.84163">
        <ele>131.6</ele>
        <time>2022-02-20T10:16:11Z</time>
      </trkpt>
      <trkpt lat="49.24109" lon="1.84156">
        <ele>133.2</ele>
        <time>2022-02-20T10:16:15Z</time>
      </trkpt>
      <trkpt lat="49.24112" lon="1.8415">
        <ele>133.7</ele>
        <time>2022-02-20T10:16:19Z</time>
      </trkpt>
      <trkpt lat="49.24115" lon="1.84143">
        <ele>133.5</ele>
        <time>2022-02-20T10:16:22Z</time>
      </trkpt>
      <trkpt lat="49.24119" lon="1.84137">
        <ele>133.3</ele>
        <time>2022-02-20T10:16:26Z</time>
      </trkpt>
      <trkpt lat="49.24122" lon="1.84131">
        <ele>134.2</ele>
        <time>2022-02-20T10:16:30Z</time>
      </trkpt>
      <trkpt lat="49.24125" lon="1.84124">
        <ele>135.2</ele>
        <time>2022-02-20T10:16:34Z</time>
      </trkpt>
      <trkpt lat="49.24129" lon="1.84118">
        <ele>135.8</ele>
        <time>2022-02-20T10:16:39Z</time>
      </trkpt>
      <trkpt lat="49.24133" lon="1.84112">
        <ele>137.6</ele>
        <time>2022-02-20T10:16:43Z</time>
      </trkpt>
      <trkpt lat="49.24135" lon="1.84105">
        <ele>139</ele>
        <time>2022-02-20T10:16:47Z</time>
      </trkpt>
      <trkpt lat="49.24138" lon="1.84099">
        <ele>139.6</ele>
        <time>2022-02-20T10:16:50Z</time>
      </trkpt>
      <trkpt lat="49.2414" lon="1.8409">
        <ele>140.1</ele>
        <time>2022-02-20T10:16:54Z</time>
      </trkpt>
      <trkpt lat="49.24142" lon="1.84083">
        <ele>141.3</ele>
        <time>2022-02-20T10:16:59Z</time>
      </trkpt>
      <trkpt lat="49.24145" lon="1.84075">
        <ele>142.2</ele>
        <time>2022-02-20T10:17:03Z</time>
      </trkpt>
      <trkpt lat="49.24149" lon="1.84068">
        <ele>142.2</ele>
        <time>2022-02-20T10:17:07Z</time>
      </trkpt>
      <trkpt lat="49.24152" lon="1.84061">
        <ele>141.9</ele>
        <time>2022-02-20T10:17:11Z</time>
      </trkpt>
      <trkpt lat="49.24155" lon="1.84054">
        <ele>141.3</ele>
        <time>2022-02-20T10:17:16Z</time>
      </trkpt>
      <trkpt lat="49.24159" lon="1.84049">
        <ele>141.4</ele>
        <time>2022-02-20T10:17:20Z</time>
      </trkpt>
      <trkpt lat="49.24163" lon="1.84042">
        <ele>140.2</ele>
        <time>2022-02-20T10:17:25Z</time>
      </trkpt>
      <trkpt lat="49.24165" lon="1.84035">
        <ele>138.8</ele>
        <time>2022-02-20T10:17:29Z</time>
      </trkpt>
      <trkpt lat="49.24166" lon="1.84028">
        <ele>138.7</ele>
        <time>2022-02-20T10:17:33Z</time>
      </trkpt>
      <trkpt lat="49.24167" lon="1.84021">
        <ele>139</ele>
        <time>2022-02-20T10:17:37Z</time>
      </trkpt>
      <trkpt lat="49.24168" lon="1.84013">
        <ele>140.6</ele>
        <time>2022-02-20T10:17:42Z</time>
      </trkpt>
      <trkpt lat="49.24171" lon="1.84005">
        <ele>139.6</ele>
        <time>2022-02-20T10:17:48Z</time>
      </trkpt>
      <trkpt lat="49.24173" lon="1.83999">
        <ele>137.3</ele>
        <time>2022-02-20T10:17:52Z</time>
      </trkpt>
      <trkpt lat="49.24175" lon="1.83992">
        <ele>136.6</ele>
        <time>2022-02-20T10:17:56Z</time>
      </trkpt>
      <trkpt lat="49.24179" lon="1.83988">
        <ele>135.7</ele>
        <time>2022-02-20T10:18:00Z</time>
      </trkpt>
      <trkpt lat="49.24184" lon="1.83984">
        <ele>135</ele>
        <time>2022-02-20T10:18:05Z</time>
      </trkpt>
      <trkpt lat="49.24189" lon="1.83982">
        <ele>134.4</ele>
        <time>2022-02-20T10:18:09Z</time>
      </trkpt>
      <trkpt lat="49.24194" lon="1.83979">
        <ele>134</ele>
        <time>2022-02-20T10:18:13Z</time>
      </trkpt>
      <trkpt lat="49.24199" lon="1.83978">
        <ele>133.6</ele>
        <time>2022-02-20T10:18:18Z</time>
      </trkpt>
      <trkpt lat="49.24203" lon="1.83976">
        <ele>132.9</ele>
        <time>2022-02-20T10:18:22Z</time>
      </trkpt>
      <trkpt lat="49.24208" lon="1.83972">
        <ele>132.2</ele>
        <time>2022-02-20T10:18:26Z</time>
      </trkpt>
      <trkpt lat="49.24212" lon="1.83969">
        <ele>131.6</ele>
        <time>2022-02-20T10:18:30Z</time>
      </trkpt>
      <trkpt lat="49.24216" lon="1.83965">
        <ele>131.9</ele>
        <time>2022-02-20T10:18:35Z</time>
      </trkpt>
      <trkpt lat="49.2422" lon="1.83962">
        <ele>132</ele>
        <time>2022-02-20T10:18:39Z</time>
      </trkpt>
      <trkpt lat="49.24225" lon="1.83958">
        <ele>132.3</ele>
        <time>2022-02-20T10:18:43Z</time>
      </trkpt>
      <trkpt lat="49.24229" lon="1.83952">
        <ele>131.8</ele>
        <time>2022-02-20T10:18:47Z</time>
      </trkpt>
      <trkpt lat="49.24233" lon="1.83945">
        <ele>130.7</ele>
        <time>2022-02-20T10:18:52Z</time>
      </trkpt>
      <trkpt lat="49.24236" lon="1.83939">
        <ele>129.8</ele>
        <time>2022-02-20T10:18:56Z</time>
      </trkpt>
      <trkpt lat="49.2424" lon="1.83933">
        <ele>129.6</ele>
        <time>2022-02-20T10:19:00Z</time>
      </trkpt>
      <trkpt lat="49.24243" lon="1.83926">
        <ele>129.2</ele>
        <time>2022-02-20T10:19:04Z</time>
      </trkpt>
      <trkpt lat="49.24246" lon="1.8392">
        <ele>127.5</ele>
        <time>2022-02-20T10:19:08Z</time>
      </trkpt>
      <trkpt lat="49.24248" lon="1.83914">
        <ele>125.3</ele>
        <time>2022-02-20T10:19:12Z</time>
      </trkpt>
      <trkpt lat="49.24251" lon="1.83907">
        <ele>123.7</ele>
        <time>2022-02-20T10:19:16Z</time>
      </trkpt>
      <trkpt lat="49.24254" lon="1.83901">
        <ele>122.9</ele>
        <time>2022-02-20T10:19:20Z</time>
      </trkpt>
      <trkpt lat="49.24257" lon="1.83895">
        <ele>122.2</ele>
        <time>2022-02-20T10:19:24Z</time>
      </trkpt>
      <trkpt lat="49.2426" lon="1.8389">
        <ele>121.8</ele>
        <time>2022-02-20T10:19:27Z</time>
      </trkpt>
      <trkpt lat="49.24264" lon="1.83884">
        <ele>121.9</ele>
        <time>2022-02-20T10:19:31Z</time>
      </trkpt>
      <trkpt lat="49.24268" lon="1.83877">
        <ele>122.3</ele>
        <time>2022-02-20T10:19:35Z</time>
      </trkpt>
      <trkpt lat="49.24271" lon="1.83871">
        <ele>123.4</ele>
        <time>2022-02-20T10:19:39Z</time>
      </trkpt>
      <trkpt lat="49.24275" lon="1.83865">
        <ele>123.5</ele>
        <time>2022-02-20T10:19:44Z</time>
      </trkpt>
      <trkpt lat="49.24277" lon="1.83858">
        <ele>122</ele>
        <time>2022-02-20T10:19:49Z</time>
      </trkpt>
      <trkpt lat="49.2428" lon="1.83852">
        <ele>119.9</ele>
        <time>2022-02-20T10:19:53Z</time>
      </trkpt>
      <trkpt lat="49.24283" lon="1.83844">
        <ele>118.1</ele>
        <time>2022-02-20T10:19:58Z</time>
      </trkpt>
      <trkpt lat="49.24285" lon="1.83838">
        <ele>116.5</ele>
        <time>2022-02-20T10:20:02Z</time>
      </trkpt>
      <trkpt lat="49.24286" lon="1.8383">
        <ele>114.1</ele>
        <time>2022-02-20T10:20:07Z</time>
      </trkpt>
      <trkpt lat="49.24287" lon="1.83822">
        <ele>111.8</ele>
        <time>2022-02-20T10:20:11Z</time>
      </trkpt>
      <trkpt lat="49.24289" lon="1.83814">
        <ele>110.4</ele>
        <time>2022-02-20T10:20:16Z</time>
      </trkpt>
      <trkpt lat="49.24292" lon="1.83807">
        <ele>109.7</ele>
        <time>2022-02-20T10:20:19Z</time>
      </trkpt>
      <trkpt lat="49.24295" lon="1.838">
        <ele>109.2</ele>
        <time>2022-02-20T10:20:23Z</time>
      </trkpt>
      <trkpt lat="49.24297" lon="1.83792">
        <ele>109.4</ele>
        <time>2022-02-20T10:20:27Z</time>
      </trkpt>
      <trkpt lat="49.24299" lon="1.83785">
        <ele>110.1</ele>
        <time>2022-02-20T10:20:32Z</time>
      </trkpt>
      <trkpt lat="49.24301" lon="1.83777">
        <ele>110.2</ele>
        <time>2022-02-20T10:20:36Z</time>
      </trkpt>
      <trkpt lat="49.24303" lon="1.8377">
        <ele>109.7</ele>
        <time>2022-02-20T10:20:39Z</time>
      </trkpt>
      <trkpt lat="49.24304" lon="1.83762">
        <ele>108.9</ele>
        <time>2022-02-20T10:20:44Z</time>
      </trkpt>
      <trkpt lat="49.24305" lon="1.83753">
        <ele>109.5</ele>
        <time>2022-02-20T10:20:48Z</time>
      </trkpt>
      <trkpt lat="49.24307" lon="1.83745">
        <ele>109.6</ele>
        <time>2022-02-20T10:20:53Z</time>
      </trkpt>
      <trkpt lat="49.24308" lon="1.83736">
        <ele>108.2</ele>
        <time>2022-02-20T10:20:57Z</time>
      </trkpt>
      <trkpt lat="49.2431" lon="1.8373">
        <ele>107.2</ele>
        <time>2022-02-20T10:21:01Z</time>
      </trkpt>
      <trkpt lat="49.24312" lon="1.83722">
        <ele>106.5</ele>
        <time>2022-02-20T10:21:06Z</time>
      </trkpt>
      <trkpt lat="49.24314" lon="1.83714">
        <ele>106.4</ele>
        <time>2022-02-20T10:21:11Z</time>
      </trkpt>
      <trkpt lat="49.24315" lon="1.83707">
        <ele>108.4</ele>
        <time>2022-02-20T10:21:15Z</time>
      </trkpt>
      <trkpt lat="49.24315" lon="1.83699">
        <ele>111.1</ele>
        <time>2022-02-20T10:21:19Z</time>
      </trkpt>
      <trkpt lat="49.24315" lon="1.83691">
        <ele>112.1</ele>
        <time>2022-02-20T10:21:23Z</time>
      </trkpt>
      <trkpt lat="49.24317" lon="1.83683">
        <ele>111.8</ele>
        <time>2022-02-20T10:21:27Z</time>
      </trkpt>
      <trkpt lat="49.24318" lon="1.83676">
        <ele>111.1</ele>
        <time>2022-02-20T10:21:31Z</time>
      </trkpt>
      <trkpt lat="49.2432" lon="1.83668">
        <ele>110.4</ele>
        <time>2022-02-20T10:21:35Z</time>
      </trkpt>
      <trkpt lat="49.24321" lon="1.83662">
        <ele>109.6</ele>
        <time>2022-02-20T10:21:39Z</time>
      </trkpt>
      <trkpt lat="49.24323" lon="1.83655">
        <ele>108.4</ele>
        <time>2022-02-20T10:21:43Z</time>
      </trkpt>
      <trkpt lat="49.24325" lon="1.83647">
        <ele>107</ele>
        <time>2022-02-20T10:21:47Z</time>
      </trkpt>
      <trkpt lat="49.24327" lon="1.8364">
        <ele>106.3</ele>
        <time>2022-02-20T10:21:51Z</time>
      </trkpt>
      <trkpt lat="49.24329" lon="1.83632">
        <ele>106.2</ele>
        <time>2022-02-20T10:21:55Z</time>
      </trkpt>
      <trkpt lat="49.2433" lon="1.83624">
        <ele>107</ele>
        <time>2022-02-20T10:22:00Z</time>
      </trkpt>
      <trkpt lat="49.2433" lon="1.83615">
        <ele>106.8</ele>
        <time>2022-02-20T10:22:04Z</time>
      </trkpt>
      <trkpt lat="49.24328" lon="1.83607">
        <ele>106</ele>
        <time>2022-02-20T10:22:10Z</time>
      </trkpt>
      <trkpt lat="49.24331" lon="1.83599">
        <ele>106.4</ele>
        <time>2022-02-20T10:22:18Z</time>
      </trkpt>
      <trkpt lat="49.24333" lon="1.83593">
        <ele>107.2</ele>
        <time>2022-02-20T10:22:21Z</time>
      </trkpt>
      <trkpt lat="49.24336" lon="1.83588">
        <ele>107.5</ele>
        <time>2022-02-20T10:22:24Z</time>
      </trkpt>
      <trkpt lat="49.2434" lon="1.83583">
        <ele>108.2</ele>
        <time>2022-02-20T10:22:28Z</time>
      </trkpt>
      <trkpt lat="49.24341" lon="1.83575">
        <ele>109.1</ele>
        <time>2022-02-20T10:22:33Z</time>
      </trkpt>
      <trkpt lat="49.24336" lon="1.83577">
        <ele>110</ele>
        <time>2022-02-20T10:22:52Z</time>
      </trkpt>
      <trkpt lat="49.24341" lon="1.83575">
        <ele>110.1</ele>
        <time>2022-02-20T10:23:14Z</time>
      </trkpt>
      <trkpt lat="49.24344" lon="1.83569">
        <ele>110.3</ele>
        <time>2022-02-20T10:23:19Z</time>
      </trkpt>
      <trkpt lat="49.24345" lon="1.83562">
        <ele>111.1</ele>
        <time>2022-02-20T10:23:23Z</time>
      </trkpt>
      <trkpt lat="49.24346" lon="1.83554">
        <ele>111.8</ele>
        <time>2022-02-20T10:23:28Z</time>
      </trkpt>
      <trkpt lat="49.24347" lon="1.83546">
        <ele>110.7</ele>
        <time>2022-02-20T10:23:33Z</time>
      </trkpt>
      <trkpt lat="49.24347" lon="1.83539">
        <ele>110.3</ele>
        <time>2022-02-20T10:23:37Z</time>
      </trkpt>
      <trkpt lat="49.24348" lon="1.83531">
        <ele>111</ele>
        <time>2022-02-20T10:23:44Z</time>
      </trkpt>
      <trkpt lat="49.24353" lon="1.83526">
        <ele>112.5</ele>
        <time>2022-02-20T10:23:48Z</time>
      </trkpt>
      <trkpt lat="49.24354" lon="1.83518">
        <ele>113.2</ele>
        <time>2022-02-20T10:23:51Z</time>
      </trkpt>
      <trkpt lat="49.24352" lon="1.83511">
        <ele>113.2</ele>
        <time>2022-02-20T10:23:54Z</time>
      </trkpt>
      <trkpt lat="49.24351" lon="1.83503">
        <ele>112.6</ele>
        <time>2022-02-20T10:23:58Z</time>
      </trkpt>
      <trkpt lat="49.24352" lon="1.83496">
        <ele>112.2</ele>
        <time>2022-02-20T10:24:03Z</time>
      </trkpt>
      <trkpt lat="49.24351" lon="1.83488">
        <ele>112.5</ele>
        <time>2022-02-20T10:24:08Z</time>
      </trkpt>
      <trkpt lat="49.24349" lon="1.83481">
        <ele>113.5</ele>
        <time>2022-02-20T10:24:14Z</time>
      </trkpt>
      <trkpt lat="49.24352" lon="1.83474">
        <ele>115.8</ele>
        <time>2022-02-20T10:24:17Z</time>
      </trkpt>
      <trkpt lat="49.24353" lon="1.83467">
        <ele>117</ele>
        <time>2022-02-20T10:24:20Z</time>
      </trkpt>
      <trkpt lat="49.24355" lon="1.83458">
        <ele>117.9</ele>
        <time>2022-02-20T10:24:24Z</time>
      </trkpt>
      <trkpt lat="49.24356" lon="1.83451">
        <ele>117.2</ele>
        <time>2022-02-20T10:24:27Z</time>
      </trkpt>
      <trkpt lat="49.24357" lon="1.83443">
        <ele>116.7</ele>
        <time>2022-02-20T10:24:31Z</time>
      </trkpt>
      <trkpt lat="49.24359" lon="1.83436">
        <ele>115.8</ele>
        <time>2022-02-20T10:24:35Z</time>
      </trkpt>
      <trkpt lat="49.2436" lon="1.83427">
        <ele>114.3</ele>
        <time>2022-02-20T10:24:39Z</time>
      </trkpt>
      <trkpt lat="49.2436" lon="1.8342">
        <ele>113.2</ele>
        <time>2022-02-20T10:24:44Z</time>
      </trkpt>
      <trkpt lat="49.2436" lon="1.83413">
        <ele>112.6</ele>
        <time>2022-02-20T10:24:48Z</time>
      </trkpt>
      <trkpt lat="49.24362" lon="1.83405">
        <ele>112.7</ele>
        <time>2022-02-20T10:24:52Z</time>
      </trkpt>
      <trkpt lat="49.24364" lon="1.83398">
        <ele>113.2</ele>
        <time>2022-02-20T10:24:55Z</time>
      </trkpt>
      <trkpt lat="49.24365" lon="1.8339">
        <ele>112.8</ele>
        <time>2022-02-20T10:24:59Z</time>
      </trkpt>
      <trkpt lat="49.24366" lon="1.83383">
        <ele>110.6</ele>
        <time>2022-02-20T10:25:04Z</time>
      </trkpt>
      <trkpt lat="49.24366" lon="1.83375">
        <ele>108.6</ele>
        <time>2022-02-20T10:25:07Z</time>
      </trkpt>
      <trkpt lat="49.24366" lon="1.83367">
        <ele>107.1</ele>
        <time>2022-02-20T10:25:12Z</time>
      </trkpt>
      <trkpt lat="49.24367" lon="1.8336">
        <ele>106.5</ele>
        <time>2022-02-20T10:25:16Z</time>
      </trkpt>
      <trkpt lat="49.24368" lon="1.83352">
        <ele>107.2</ele>
        <time>2022-02-20T10:25:20Z</time>
      </trkpt>
      <trkpt lat="49.2437" lon="1.83343">
        <ele>107.6</ele>
        <time>2022-02-20T10:25:25Z</time>
      </trkpt>
      <trkpt lat="49.24371" lon="1.83335">
        <ele>107.7</ele>
        <time>2022-02-20T10:25:29Z</time>
      </trkpt>
      <trkpt lat="49.24375" lon="1.83331">
        <ele>106.5</ele>
        <time>2022-02-20T10:25:34Z</time>
      </trkpt>
      <trkpt lat="49.24377" lon="1.83323">
        <ele>105.4</ele>
        <time>2022-02-20T10:25:38Z</time>
      </trkpt>
      <trkpt lat="49.24378" lon="1.83315">
        <ele>105.5</ele>
        <time>2022-02-20T10:25:42Z</time>
      </trkpt>
      <trkpt lat="49.2438" lon="1.83308">
        <ele>107.3</ele>
        <time>2022-02-20T10:25:47Z</time>
      </trkpt>
      <trkpt lat="49.24379" lon="1.833">
        <ele>108.6</ele>
        <time>2022-02-20T10:25:51Z</time>
      </trkpt>
      <trkpt lat="49.24379" lon="1.83292">
        <ele>108.6</ele>
        <time>2022-02-20T10:25:55Z</time>
      </trkpt>
      <trkpt lat="49.24381" lon="1.83284">
        <ele>107.6</ele>
        <time>2022-02-20T10:25:59Z</time>
      </trkpt>
      <trkpt lat="49.24382" lon="1.83276">
        <ele>106.4</ele>
        <time>2022-02-20T10:26:03Z</time>
      </trkpt>
      <trkpt lat="49.24382" lon="1.83268">
        <ele>106.7</ele>
        <time>2022-02-20T10:26:09Z</time>
      </trkpt>
      <trkpt lat="49.24383" lon="1.83259">
        <ele>107.3</ele>
        <time>2022-02-20T10:26:14Z</time>
      </trkpt>
      <trkpt lat="49.24384" lon="1.83252">
        <ele>106.9</ele>
        <time>2022-02-20T10:26:18Z</time>
      </trkpt>
      <trkpt lat="49.24385" lon="1.83243">
        <ele>106.5</ele>
        <time>2022-02-20T10:26:23Z</time>
      </trkpt>
      <trkpt lat="49.24386" lon="1.83235">
        <ele>106.1</ele>
        <time>2022-02-20T10:26:27Z</time>
      </trkpt>
      <trkpt lat="49.24387" lon="1.83227">
        <ele>105.4</ele>
        <time>2022-02-20T10:26:31Z</time>
      </trkpt>
      <trkpt lat="49.24388" lon="1.8322">
        <ele>103.8</ele>
        <time>2022-02-20T10:26:36Z</time>
      </trkpt>
      <trkpt lat="49.24391" lon="1.83213">
        <ele>102.5</ele>
        <time>2022-02-20T10:26:40Z</time>
      </trkpt>
      <trkpt lat="49.24393" lon="1.83206">
        <ele>101.9</ele>
        <time>2022-02-20T10:26:44Z</time>
      </trkpt>
      <trkpt lat="49.24395" lon="1.83198">
        <ele>101.6</ele>
        <time>2022-02-20T10:26:48Z</time>
      </trkpt>
      <trkpt lat="49.24396" lon="1.83191">
        <ele>101.3</ele>
        <time>2022-02-20T10:26:53Z</time>
      </trkpt>
      <trkpt lat="49.24394" lon="1.83181">
        <ele>100.6</ele>
        <time>2022-02-20T10:27:01Z</time>
      </trkpt>
      <trkpt lat="49.24395" lon="1.83172">
        <ele>99.5</ele>
        <time>2022-02-20T10:27:05Z</time>
      </trkpt>
      <trkpt lat="49.24397" lon="1.83164">
        <ele>98.4</ele>
        <time>2022-02-20T10:27:09Z</time>
      </trkpt>
      <trkpt lat="49.24401" lon="1.83159">
        <ele>97.6</ele>
        <time>2022-02-20T10:27:12Z</time>
      </trkpt>
      <trkpt lat="49.24405" lon="1.83154">
        <ele>97</ele>
        <time>2022-02-20T10:27:15Z</time>
      </trkpt>
      <trkpt lat="49.24408" lon="1.83148">
        <ele>96.2</ele>
        <time>2022-02-20T10:27:20Z</time>
      </trkpt>
      <trkpt lat="49.2441" lon="1.83141">
        <ele>95.6</ele>
        <time>2022-02-20T10:27:24Z</time>
      </trkpt>
      <trkpt lat="49.24413" lon="1.83136">
        <ele>95.4</ele>
        <time>2022-02-20T10:27:27Z</time>
      </trkpt>
      <trkpt lat="49.24416" lon="1.83129">
        <ele>95.1</ele>
        <time>2022-02-20T10:27:31Z</time>
      </trkpt>
      <trkpt lat="49.24419" lon="1.83123">
        <ele>95.3</ele>
        <time>2022-02-20T10:27:36Z</time>
      </trkpt>
      <trkpt lat="49.24422" lon="1.83116">
        <ele>95.4</ele>
        <time>2022-02-20T10:27:40Z</time>
      </trkpt>
      <trkpt lat="49.24426" lon="1.83111">
        <ele>95.5</ele>
        <time>2022-02-20T10:27:45Z</time>
      </trkpt>
      <trkpt lat="49.24429" lon="1.83106">
        <ele>95.8</ele>
        <time>2022-02-20T10:27:49Z</time>
      </trkpt>
      <trkpt lat="49.24433" lon="1.83098">
        <ele>96.2</ele>
        <time>2022-02-20T10:27:54Z</time>
      </trkpt>
      <trkpt lat="49.24436" lon="1.83092">
        <ele>96.4</ele>
        <time>2022-02-20T10:27:58Z</time>
      </trkpt>
      <trkpt lat="49.24438" lon="1.83085">
        <ele>96.5</ele>
        <time>2022-02-20T10:28:03Z</time>
      </trkpt>
      <trkpt lat="49.2444" lon="1.83077">
        <ele>97.1</ele>
        <time>2022-02-20T10:28:07Z</time>
      </trkpt>
      <trkpt lat="49.24442" lon="1.8307">
        <ele>97.3</ele>
        <time>2022-02-20T10:28:11Z</time>
      </trkpt>
      <trkpt lat="49.24444" lon="1.83064">
        <ele>97.3</ele>
        <time>2022-02-20T10:28:15Z</time>
      </trkpt>
      <trkpt lat="49.24448" lon="1.83058">
        <ele>97.5</ele>
        <time>2022-02-20T10:28:19Z</time>
      </trkpt>
      <trkpt lat="49.24453" lon="1.83056">
        <ele>97.5</ele>
        <time>2022-02-20T10:28:22Z</time>
      </trkpt>
      <trkpt lat="49.24457" lon="1.83051">
        <ele>95.6</ele>
        <time>2022-02-20T10:28:28Z</time>
      </trkpt>
      <trkpt lat="49.2446" lon="1.83044">
        <ele>93.6</ele>
        <time>2022-02-20T10:28:32Z</time>
      </trkpt>
      <trkpt lat="49.24464" lon="1.8304">
        <ele>92.2</ele>
        <time>2022-02-20T10:28:36Z</time>
      </trkpt>
      <trkpt lat="49.24469" lon="1.83039">
        <ele>91.1</ele>
        <time>2022-02-20T10:28:40Z</time>
      </trkpt>
      <trkpt lat="49.24473" lon="1.83044">
        <ele>96.2</ele>
        <time>2022-02-20T10:29:02Z</time>
      </trkpt>
      <trkpt lat="49.24477" lon="1.83041">
        <ele>94.9</ele>
        <time>2022-02-20T10:29:05Z</time>
      </trkpt>
      <trkpt lat="49.24483" lon="1.83038">
        <ele>94</ele>
        <time>2022-02-20T10:29:08Z</time>
      </trkpt>
      <trkpt lat="49.24487" lon="1.83035">
        <ele>93.4</ele>
        <time>2022-02-20T10:29:11Z</time>
      </trkpt>
      <trkpt lat="49.24492" lon="1.83031">
        <ele>93.5</ele>
        <time>2022-02-20T10:29:15Z</time>
      </trkpt>
      <trkpt lat="49.24496" lon="1.83027">
        <ele>93.6</ele>
        <time>2022-02-20T10:29:20Z</time>
      </trkpt>
      <trkpt lat="49.24501" lon="1.83022">
        <ele>93.2</ele>
        <time>2022-02-20T10:29:24Z</time>
      </trkpt>
      <trkpt lat="49.24504" lon="1.83016">
        <ele>92.4</ele>
        <time>2022-02-20T10:29:28Z</time>
      </trkpt>
      <trkpt lat="49.24508" lon="1.83009">
        <ele>90.8</ele>
        <time>2022-02-20T10:29:33Z</time>
      </trkpt>
      <trkpt lat="49.24511" lon="1.83003">
        <ele>89.3</ele>
        <time>2022-02-20T10:29:37Z</time>
      </trkpt>
      <trkpt lat="49.24513" lon="1.82997">
        <ele>88.5</ele>
        <time>2022-02-20T10:29:41Z</time>
      </trkpt>
      <trkpt lat="49.24515" lon="1.8299">
        <ele>88.9</ele>
        <time>2022-02-20T10:29:44Z</time>
      </trkpt>
      <trkpt lat="49.24515" lon="1.82981">
        <ele>89.1</ele>
        <time>2022-02-20T10:29:48Z</time>
      </trkpt>
      <trkpt lat="49.24514" lon="1.82973">
        <ele>88.7</ele>
        <time>2022-02-20T10:29:52Z</time>
      </trkpt>
      <trkpt lat="49.24511" lon="1.82967">
        <ele>88.3</ele>
        <time>2022-02-20T10:29:55Z</time>
      </trkpt>
      <trkpt lat="49.24507" lon="1.82963">
        <ele>88.1</ele>
        <time>2022-02-20T10:29:59Z</time>
      </trkpt>
      <trkpt lat="49.24504" lon="1.82956">
        <ele>88.1</ele>
        <time>2022-02-20T10:30:03Z</time>
      </trkpt>
      <trkpt lat="49.24502" lon="1.82949">
        <ele>87.3</ele>
        <time>2022-02-20T10:30:09Z</time>
      </trkpt>
      <trkpt lat="49.24501" lon="1.82941">
        <ele>83.5</ele>
        <time>2022-02-20T10:30:19Z</time>
      </trkpt>
      <trkpt lat="49.245" lon="1.82932">
        <ele>82</ele>
        <time>2022-02-20T10:30:23Z</time>
      </trkpt>
      <trkpt lat="49.24503" lon="1.82927">
        <ele>80.9</ele>
        <time>2022-02-20T10:30:29Z</time>
      </trkpt>
      <trkpt lat="49.24508" lon="1.82935">
        <ele>80</ele>
        <time>2022-02-20T10:30:33Z</time>
      </trkpt>
      <trkpt lat="49.24509" lon="1.82942">
        <ele>79.5</ele>
        <time>2022-02-20T10:30:36Z</time>
      </trkpt>
      <trkpt lat="49.24509" lon="1.82951">
        <ele>78.9</ele>
        <time>2022-02-20T10:30:39Z</time>
      </trkpt>
      <trkpt lat="49.24507" lon="1.82958">
        <ele>80.4</ele>
        <time>2022-02-20T10:30:44Z</time>
      </trkpt>
      <trkpt lat="49.24508" lon="1.82965">
        <ele>81.4</ele>
        <time>2022-02-20T10:30:48Z</time>
      </trkpt>
      <trkpt lat="49.24511" lon="1.82972">
        <ele>82.2</ele>
        <time>2022-02-20T10:30:52Z</time>
      </trkpt>
      <trkpt lat="49.24514" lon="1.82979">
        <ele>83.7</ele>
        <time>2022-02-20T10:30:56Z</time>
      </trkpt>
      <trkpt lat="49.24517" lon="1.82985">
        <ele>85.3</ele>
        <time>2022-02-20T10:31:00Z</time>
      </trkpt>
      <trkpt lat="49.24519" lon="1.82992">
        <ele>85.3</ele>
        <time>2022-02-20T10:31:04Z</time>
      </trkpt>
      <trkpt lat="49.24521" lon="1.83">
        <ele>84.4</ele>
        <time>2022-02-20T10:31:08Z</time>
      </trkpt>
      <trkpt lat="49.24523" lon="1.83008">
        <ele>85</ele>
        <time>2022-02-20T10:31:14Z</time>
      </trkpt>
      <trkpt lat="49.24525" lon="1.83014">
        <ele>85.9</ele>
        <time>2022-02-20T10:31:17Z</time>
      </trkpt>
      <trkpt lat="49.24529" lon="1.83021">
        <ele>86.7</ele>
        <time>2022-02-20T10:31:21Z</time>
      </trkpt>
      <trkpt lat="49.24532" lon="1.83025">
        <ele>85.3</ele>
        <time>2022-02-20T10:31:26Z</time>
      </trkpt>
      <trkpt lat="49.24537" lon="1.83028">
        <ele>82.7</ele>
        <time>2022-02-20T10:31:30Z</time>
      </trkpt>
      <trkpt lat="49.24542" lon="1.83029">
        <ele>81.7</ele>
        <time>2022-02-20T10:31:33Z</time>
      </trkpt>
      <trkpt lat="49.24547" lon="1.8303">
        <ele>81.3</ele>
        <time>2022-02-20T10:31:36Z</time>
      </trkpt>
      <trkpt lat="49.24552" lon="1.83029">
        <ele>80.3</ele>
        <time>2022-02-20T10:31:41Z</time>
      </trkpt>
      <trkpt lat="49.24558" lon="1.83028">
        <ele>78.4</ele>
        <time>2022-02-20T10:31:45Z</time>
      </trkpt>
      <trkpt lat="49.24563" lon="1.83026">
        <ele>78.8</ele>
        <time>2022-02-20T10:31:49Z</time>
      </trkpt>
      <trkpt lat="49.24568" lon="1.83026">
        <ele>80.6</ele>
        <time>2022-02-20T10:31:53Z</time>
      </trkpt>
      <trkpt lat="49.24573" lon="1.83028">
        <ele>80.7</ele>
        <time>2022-02-20T10:31:56Z</time>
      </trkpt>
      <trkpt lat="49.24577" lon="1.83029">
        <ele>80.2</ele>
        <time>2022-02-20T10:32:00Z</time>
      </trkpt>
      <trkpt lat="49.24582" lon="1.83032">
        <ele>80.3</ele>
        <time>2022-02-20T10:32:04Z</time>
      </trkpt>
      <trkpt lat="49.24588" lon="1.83031">
        <ele>82.1</ele>
        <time>2022-02-20T10:32:08Z</time>
      </trkpt>
      <trkpt lat="49.24594" lon="1.83028">
        <ele>82.7</ele>
        <time>2022-02-20T10:32:12Z</time>
      </trkpt>
      <trkpt lat="49.24599" lon="1.83026">
        <ele>82.5</ele>
        <time>2022-02-20T10:32:17Z</time>
      </trkpt>
      <trkpt lat="49.24605" lon="1.83027">
        <ele>81.1</ele>
        <time>2022-02-20T10:32:21Z</time>
      </trkpt>
      <trkpt lat="49.24607" lon="1.83021">
        <ele>78.2</ele>
        <time>2022-02-20T10:32:32Z</time>
      </trkpt>
      <trkpt lat="49.24612" lon="1.83021">
        <ele>78.2</ele>
        <time>2022-02-20T10:32:37Z</time>
      </trkpt>
      <trkpt lat="49.24616" lon="1.83025">
        <ele>77.8</ele>
        <time>2022-02-20T10:32:41Z</time>
      </trkpt>
      <trkpt lat="49.24621" lon="1.83031">
        <ele>76.9</ele>
        <time>2022-02-20T10:32:45Z</time>
      </trkpt>
      <trkpt lat="49.24625" lon="1.83036">
        <ele>76.5</ele>
        <time>2022-02-20T10:32:51Z</time>
      </trkpt>
      <trkpt lat="49.2463" lon="1.83039">
        <ele>76.6</ele>
        <time>2022-02-20T10:32:55Z</time>
      </trkpt>
      <trkpt lat="49.24634" lon="1.8304">
        <ele>77.1</ele>
        <time>2022-02-20T10:32:58Z</time>
      </trkpt>
      <trkpt lat="49.24639" lon="1.83042">
        <ele>77.3</ele>
        <time>2022-02-20T10:33:04Z</time>
      </trkpt>
      <trkpt lat="49.24644" lon="1.83047">
        <ele>76.8</ele>
        <time>2022-02-20T10:33:08Z</time>
      </trkpt>
      <trkpt lat="49.24649" lon="1.83044">
        <ele>75.1</ele>
        <time>2022-02-20T10:33:14Z</time>
      </trkpt>
      <trkpt lat="49.24654" lon="1.83045">
        <ele>74.1</ele>
        <time>2022-02-20T10:33:17Z</time>
      </trkpt>
      <trkpt lat="49.24659" lon="1.83047">
        <ele>71</ele>
        <time>2022-02-20T10:33:37Z</time>
      </trkpt>
      <trkpt lat="49.24663" lon="1.83049">
        <ele>71.8</ele>
        <time>2022-02-20T10:33:41Z</time>
      </trkpt>
      <trkpt lat="49.24666" lon="1.83043">
        <ele>72</ele>
        <time>2022-02-20T10:33:58Z</time>
      </trkpt>
      <trkpt lat="49.2467" lon="1.83038">
        <ele>71.7</ele>
        <time>2022-02-20T10:34:03Z</time>
      </trkpt>
      <trkpt lat="49.24674" lon="1.83036">
        <ele>70.6</ele>
        <time>2022-02-20T10:34:13Z</time>
      </trkpt>
      <trkpt lat="49.24678" lon="1.83033">
        <ele>70.3</ele>
        <time>2022-02-20T10:34:18Z</time>
      </trkpt>
      <trkpt lat="49.24683" lon="1.83031">
        <ele>70.1</ele>
        <time>2022-02-20T10:34:24Z</time>
      </trkpt>
      <trkpt lat="49.24688" lon="1.8303">
        <ele>70.7</ele>
        <time>2022-02-20T10:34:29Z</time>
      </trkpt>
      <trkpt lat="49.24687" lon="1.83024">
        <ele>73.5</ele>
        <time>2022-02-20T10:34:42Z</time>
      </trkpt>
      <trkpt lat="49.24687" lon="1.83016">
        <ele>74.4</ele>
        <time>2022-02-20T10:34:49Z</time>
      </trkpt>
      <trkpt lat="49.24689" lon="1.83009">
        <ele>75.2</ele>
        <time>2022-02-20T10:34:54Z</time>
      </trkpt>
      <trkpt lat="49.24689" lon="1.83001">
        <ele>75.3</ele>
        <time>2022-02-20T10:34:59Z</time>
      </trkpt>
      <trkpt lat="49.24689" lon="1.82992">
        <ele>69.5</ele>
        <time>2022-02-20T10:35:19Z</time>
      </trkpt>
      <trkpt lat="49.24689" lon="1.82983">
        <ele>68.8</ele>
        <time>2022-02-20T10:35:22Z</time>
      </trkpt>
      <trkpt lat="49.24689" lon="1.82976">
        <ele>67.9</ele>
        <time>2022-02-20T10:35:26Z</time>
      </trkpt>
      <trkpt lat="49.24689" lon="1.82967">
        <ele>67.4</ele>
        <time>2022-02-20T10:35:34Z</time>
      </trkpt>
      <trkpt lat="49.24685" lon="1.82962">
        <ele>67.1</ele>
        <time>2022-02-20T10:35:38Z</time>
      </trkpt>
      <trkpt lat="49.24681" lon="1.82957">
        <ele>66.8</ele>
        <time>2022-02-20T10:35:41Z</time>
      </trkpt>
      <trkpt lat="49.24679" lon="1.8295">
        <ele>66.7</ele>
        <time>2022-02-20T10:35:46Z</time>
      </trkpt>
      <trkpt lat="49.24675" lon="1.82946">
        <ele>66.6</ele>
        <time>2022-02-20T10:35:50Z</time>
      </trkpt>
      <trkpt lat="49.24671" lon="1.82941">
        <ele>66.6</ele>
        <time>2022-02-20T10:35:54Z</time>
      </trkpt>
      <trkpt lat="49.24666" lon="1.82935">
        <ele>66.6</ele>
        <time>2022-02-20T10:35:59Z</time>
      </trkpt>
      <trkpt lat="49.24662" lon="1.82931">
        <ele>66.8</ele>
        <time>2022-02-20T10:36:04Z</time>
      </trkpt>
      <trkpt lat="49.24659" lon="1.82926">
        <ele>67.3</ele>
        <time>2022-02-20T10:36:09Z</time>
      </trkpt>
      <trkpt lat="49.24655" lon="1.8292">
        <ele>67.9</ele>
        <time>2022-02-20T10:36:13Z</time>
      </trkpt>
      <trkpt lat="49.2465" lon="1.82917">
        <ele>70.3</ele>
        <time>2022-02-20T10:36:18Z</time>
      </trkpt>
      <trkpt lat="49.24646" lon="1.82913">
        <ele>72.4</ele>
        <time>2022-02-20T10:36:22Z</time>
      </trkpt>
      <trkpt lat="49.24641" lon="1.82908">
        <ele>72.4</ele>
        <time>2022-02-20T10:36:26Z</time>
      </trkpt>
      <trkpt lat="49.24637" lon="1.82902">
        <ele>72.5</ele>
        <time>2022-02-20T10:36:31Z</time>
      </trkpt>
      <trkpt lat="49.24634" lon="1.82897">
        <ele>73.1</ele>
        <time>2022-02-20T10:36:35Z</time>
      </trkpt>
      <trkpt lat="49.24635" lon="1.8289">
        <ele>72.4</ele>
        <time>2022-02-20T10:36:41Z</time>
      </trkpt>
      <trkpt lat="49.24638" lon="1.82883">
        <ele>68.6</ele>
        <time>2022-02-20T10:36:47Z</time>
      </trkpt>
      <trkpt lat="49.24639" lon="1.82876">
        <ele>67.7</ele>
        <time>2022-02-20T10:36:53Z</time>
      </trkpt>
      <trkpt lat="49.2464" lon="1.82869">
        <ele>67.6</ele>
        <time>2022-02-20T10:36:57Z</time>
      </trkpt>
      <trkpt lat="49.24642" lon="1.82862">
        <ele>67.3</ele>
        <time>2022-02-20T10:37:02Z</time>
      </trkpt>
      <trkpt lat="49.24642" lon="1.82855">
        <ele>67.6</ele>
        <time>2022-02-20T10:37:06Z</time>
      </trkpt>
      <trkpt lat="49.24642" lon="1.82847">
        <ele>68.7</ele>
        <time>2022-02-20T10:37:10Z</time>
      </trkpt>
      <trkpt lat="49.24643" lon="1.82839">
        <ele>69.8</ele>
        <time>2022-02-20T10:37:15Z</time>
      </trkpt>
      <trkpt lat="49.24643" lon="1.82831">
        <ele>70.9</ele>
        <time>2022-02-20T10:37:19Z</time>
      </trkpt>
      <trkpt lat="49.24643" lon="1.82822">
        <ele>71.8</ele>
        <time>2022-02-20T10:37:23Z</time>
      </trkpt>
      <trkpt lat="49.24644" lon="1.82814">
        <ele>72.8</ele>
        <time>2022-02-20T10:37:30Z</time>
      </trkpt>
      <trkpt lat="49.24645" lon="1.82807">
        <ele>73.3</ele>
        <time>2022-02-20T10:37:35Z</time>
      </trkpt>
      <trkpt lat="49.24645" lon="1.82799">
        <ele>73.4</ele>
        <time>2022-02-20T10:37:40Z</time>
      </trkpt>
      <trkpt lat="49.24645" lon="1.82792">
        <ele>72.6</ele>
        <time>2022-02-20T10:37:44Z</time>
      </trkpt>
      <trkpt lat="49.24645" lon="1.82783">
        <ele>72</ele>
        <time>2022-02-20T10:37:50Z</time>
      </trkpt>
      <trkpt lat="49.24646" lon="1.82776">
        <ele>71.8</ele>
        <time>2022-02-20T10:37:54Z</time>
      </trkpt>
      <trkpt lat="49.24646" lon="1.82769">
        <ele>71.8</ele>
        <time>2022-02-20T10:37:59Z</time>
      </trkpt>
      <trkpt lat="49.24646" lon="1.82761">
        <ele>72.2</ele>
        <time>2022-02-20T10:38:04Z</time>
      </trkpt>
      <trkpt lat="49.24646" lon="1.82753">
        <ele>72.5</ele>
        <time>2022-02-20T10:38:09Z</time>
      </trkpt>
      <trkpt lat="49.24646" lon="1.82745">
        <ele>72.6</ele>
        <time>2022-02-20T10:38:13Z</time>
      </trkpt>
      <trkpt lat="49.24647" lon="1.82737">
        <ele>72.6</ele>
        <time>2022-02-20T10:38:19Z</time>
      </trkpt>
      <trkpt lat="49.24648" lon="1.82729">
        <ele>72</ele>
        <time>2022-02-20T10:38:23Z</time>
      </trkpt>
      <trkpt lat="49.24648" lon="1.82722">
        <ele>72.4</ele>
        <time>2022-02-20T10:38:28Z</time>
      </trkpt>
      <trkpt lat="49.24648" lon="1.82713">
        <ele>73.8</ele>
        <time>2022-02-20T10:38:33Z</time>
      </trkpt>
      <trkpt lat="49.24649" lon="1.82706">
        <ele>74.6</ele>
        <time>2022-02-20T10:38:37Z</time>
      </trkpt>
      <trkpt lat="49.2465" lon="1.82699">
        <ele>75.3</ele>
        <time>2022-02-20T10:38:42Z</time>
      </trkpt>
      <trkpt lat="49.2465" lon="1.82692">
        <ele>75.5</ele>
        <time>2022-02-20T10:38:46Z</time>
      </trkpt>
      <trkpt lat="49.24651" lon="1.82682">
        <ele>75.1</ele>
        <time>2022-02-20T10:38:53Z</time>
      </trkpt>
      <trkpt lat="49.24651" lon="1.82674">
        <ele>75.3</ele>
        <time>2022-02-20T10:38:58Z</time>
      </trkpt>
      <trkpt lat="49.24652" lon="1.82666">
        <ele>75.8</ele>
        <time>2022-02-20T10:39:04Z</time>
      </trkpt>
      <trkpt lat="49.24652" lon="1.82657">
        <ele>76.1</ele>
        <time>2022-02-20T10:39:09Z</time>
      </trkpt>
      <trkpt lat="49.24653" lon="1.82649">
        <ele>75.5</ele>
        <time>2022-02-20T10:39:15Z</time>
      </trkpt>
      <trkpt lat="49.24655" lon="1.82643">
        <ele>74.7</ele>
        <time>2022-02-20T10:39:22Z</time>
      </trkpt>
      <trkpt lat="49.24656" lon="1.82636">
        <ele>75.3</ele>
        <time>2022-02-20T10:39:27Z</time>
      </trkpt>
      <trkpt lat="49.24656" lon="1.82628">
        <ele>75.7</ele>
        <time>2022-02-20T10:39:31Z</time>
      </trkpt>
      <trkpt lat="49.24655" lon="1.82621">
        <ele>75.3</ele>
        <time>2022-02-20T10:39:36Z</time>
      </trkpt>
      <trkpt lat="49.24654" lon="1.82613">
        <ele>74.5</ele>
        <time>2022-02-20T10:39:41Z</time>
      </trkpt>
      <trkpt lat="49.24655" lon="1.82605">
        <ele>73.9</ele>
        <time>2022-02-20T10:39:46Z</time>
      </trkpt>
      <trkpt lat="49.24655" lon="1.82598">
        <ele>73.7</ele>
        <time>2022-02-20T10:39:50Z</time>
      </trkpt>
      <trkpt lat="49.24656" lon="1.8259">
        <ele>74</ele>
        <time>2022-02-20T10:39:56Z</time>
      </trkpt>
      <trkpt lat="49.24656" lon="1.82583">
        <ele>74.4</ele>
        <time>2022-02-20T10:40:00Z</time>
      </trkpt>
      <trkpt lat="49.24657" lon="1.82576">
        <ele>74.7</ele>
        <time>2022-02-20T10:40:05Z</time>
      </trkpt>
      <trkpt lat="49.24657" lon="1.82568">
        <ele>75</ele>
        <time>2022-02-20T10:40:09Z</time>
      </trkpt>
      <trkpt lat="49.24658" lon="1.8256">
        <ele>75.7</ele>
        <time>2022-02-20T10:40:14Z</time>
      </trkpt>
      <trkpt lat="49.24658" lon="1.82553">
        <ele>76</ele>
        <time>2022-02-20T10:40:19Z</time>
      </trkpt>
      <trkpt lat="49.24661" lon="1.8256">
        <ele>77.1</ele>
        <time>2022-02-20T10:40:28Z</time>
      </trkpt>
      <trkpt lat="49.24656" lon="1.82557">
        <ele>78</ele>
        <time>2022-02-20T10:41:35Z</time>
      </trkpt>
      <trkpt lat="49.24658" lon="1.82549">
        <ele>76.6</ele>
        <time>2022-02-20T10:42:23Z</time>
      </trkpt>
      <trkpt lat="49.24658" lon="1.82542">
        <ele>78.6</ele>
        <time>2022-02-20T10:42:30Z</time>
      </trkpt>
      <trkpt lat="49.24659" lon="1.82535">
        <ele>78.8</ele>
        <time>2022-02-20T10:42:33Z</time>
      </trkpt>
      <trkpt lat="49.24664" lon="1.82531">
        <ele>79</ele>
        <time>2022-02-20T10:42:40Z</time>
      </trkpt>
      <trkpt lat="49.24664" lon="1.82524">
        <ele>79.5</ele>
        <time>2022-02-20T10:42:46Z</time>
      </trkpt>
      <trkpt lat="49.24664" lon="1.82515">
        <ele>80.3</ele>
        <time>2022-02-20T10:42:50Z</time>
      </trkpt>
      <trkpt lat="49.24665" lon="1.82507">
        <ele>81.9</ele>
        <time>2022-02-20T10:42:54Z</time>
      </trkpt>
      <trkpt lat="49.24666" lon="1.82498">
        <ele>82.3</ele>
        <time>2022-02-20T10:42:58Z</time>
      </trkpt>
      <trkpt lat="49.24667" lon="1.82489">
        <ele>81.6</ele>
        <time>2022-02-20T10:43:04Z</time>
      </trkpt>
      <trkpt lat="49.24666" lon="1.82482">
        <ele>80.9</ele>
        <time>2022-02-20T10:43:08Z</time>
      </trkpt>
      <trkpt lat="49.24664" lon="1.82476">
        <ele>80.9</ele>
        <time>2022-02-20T10:43:12Z</time>
      </trkpt>
      <trkpt lat="49.24663" lon="1.82468">
        <ele>81.8</ele>
        <time>2022-02-20T10:43:16Z</time>
      </trkpt>
      <trkpt lat="49.24661" lon="1.82461">
        <ele>84.1</ele>
        <time>2022-02-20T10:43:20Z</time>
      </trkpt>
      <trkpt lat="49.24659" lon="1.82454">
        <ele>85.1</ele>
        <time>2022-02-20T10:43:23Z</time>
      </trkpt>
      <trkpt lat="49.24657" lon="1.82446">
        <ele>86.8</ele>
        <time>2022-02-20T10:43:28Z</time>
      </trkpt>
      <trkpt lat="49.24655" lon="1.82438">
        <ele>89.7</ele>
        <time>2022-02-20T10:43:32Z</time>
      </trkpt>
      <trkpt lat="49.24654" lon="1.8243">
        <ele>92.3</ele>
        <time>2022-02-20T10:43:36Z</time>
      </trkpt>
      <trkpt lat="49.24653" lon="1.82423">
        <ele>93.2</ele>
        <time>2022-02-20T10:43:39Z</time>
      </trkpt>
      <trkpt lat="49.24651" lon="1.82416">
        <ele>93.5</ele>
        <time>2022-02-20T10:43:43Z</time>
      </trkpt>
      <trkpt lat="49.24647" lon="1.82395">
        <ele>88.1</ele>
        <time>2022-02-20T10:43:56Z</time>
      </trkpt>
      <trkpt lat="49.24645" lon="1.82388">
        <ele>87</ele>
        <time>2022-02-20T10:43:59Z</time>
      </trkpt>
      <trkpt lat="49.24643" lon="1.82381">
        <ele>85.8</ele>
        <time>2022-02-20T10:44:03Z</time>
      </trkpt>
      <trkpt lat="49.24641" lon="1.82374">
        <ele>85.7</ele>
        <time>2022-02-20T10:44:07Z</time>
      </trkpt>
      <trkpt lat="49.2464" lon="1.82366">
        <ele>86.2</ele>
        <time>2022-02-20T10:44:12Z</time>
      </trkpt>
      <trkpt lat="49.24638" lon="1.8236">
        <ele>87.2</ele>
        <time>2022-02-20T10:44:16Z</time>
      </trkpt>
      <trkpt lat="49.24635" lon="1.82354">
        <ele>88</ele>
        <time>2022-02-20T10:44:20Z</time>
      </trkpt>
      <trkpt lat="49.24631" lon="1.82348">
        <ele>87.1</ele>
        <time>2022-02-20T10:44:26Z</time>
      </trkpt>
      <trkpt lat="49.24629" lon="1.8234">
        <ele>86.5</ele>
        <time>2022-02-20T10:44:31Z</time>
      </trkpt>
      <trkpt lat="49.24628" lon="1.82332">
        <ele>86.1</ele>
        <time>2022-02-20T10:44:35Z</time>
      </trkpt>
      <trkpt lat="49.24626" lon="1.82324">
        <ele>85.5</ele>
        <time>2022-02-20T10:44:39Z</time>
      </trkpt>
      <trkpt lat="49.24624" lon="1.82317">
        <ele>84.7</ele>
        <time>2022-02-20T10:44:44Z</time>
      </trkpt>
      <trkpt lat="49.24621" lon="1.8231">
        <ele>85</ele>
        <time>2022-02-20T10:44:48Z</time>
      </trkpt>
      <trkpt lat="49.24619" lon="1.82303">
        <ele>85.2</ele>
        <time>2022-02-20T10:44:52Z</time>
      </trkpt>
      <trkpt lat="49.24617" lon="1.82296">
        <ele>85</ele>
        <time>2022-02-20T10:44:56Z</time>
      </trkpt>
      <trkpt lat="49.24615" lon="1.82289">
        <ele>84.6</ele>
        <time>2022-02-20T10:45:00Z</time>
      </trkpt>
      <trkpt lat="49.24613" lon="1.82281">
        <ele>84.8</ele>
        <time>2022-02-20T10:45:05Z</time>
      </trkpt>
      <trkpt lat="49.24613" lon="1.82273">
        <ele>85.4</ele>
        <time>2022-02-20T10:45:09Z</time>
      </trkpt>
      <trkpt lat="49.24612" lon="1.82266">
        <ele>86.2</ele>
        <time>2022-02-20T10:45:13Z</time>
      </trkpt>
      <trkpt lat="49.24609" lon="1.8226">
        <ele>86.1</ele>
        <time>2022-02-20T10:45:17Z</time>
      </trkpt>
      <trkpt lat="49.24608" lon="1.82253">
        <ele>85.5</ele>
        <time>2022-02-20T10:45:21Z</time>
      </trkpt>
      <trkpt lat="49.24606" lon="1.82245">
        <ele>85.3</ele>
        <time>2022-02-20T10:45:25Z</time>
      </trkpt>
      <trkpt lat="49.24605" lon="1.82237">
        <ele>86.1</ele>
        <time>2022-02-20T10:45:29Z</time>
      </trkpt>
      <trkpt lat="49.24604" lon="1.8223">
        <ele>86.9</ele>
        <time>2022-02-20T10:45:33Z</time>
      </trkpt>
      <trkpt lat="49.24603" lon="1.82222">
        <ele>87.1</ele>
        <time>2022-02-20T10:45:37Z</time>
      </trkpt>
      <trkpt lat="49.24601" lon="1.82213">
        <ele>87.1</ele>
        <time>2022-02-20T10:45:41Z</time>
      </trkpt>
      <trkpt lat="49.24599" lon="1.82206">
        <ele>87</ele>
        <time>2022-02-20T10:45:46Z</time>
      </trkpt>
      <trkpt lat="49.24597" lon="1.82199">
        <ele>86.2</ele>
        <time>2022-02-20T10:45:50Z</time>
      </trkpt>
      <trkpt lat="49.24595" lon="1.82191">
        <ele>85.5</ele>
        <time>2022-02-20T10:45:55Z</time>
      </trkpt>
      <trkpt lat="49.24593" lon="1.82183">
        <ele>85.3</ele>
        <time>2022-02-20T10:45:59Z</time>
      </trkpt>
      <trkpt lat="49.24591" lon="1.82176">
        <ele>85.9</ele>
        <time>2022-02-20T10:46:03Z</time>
      </trkpt>
      <trkpt lat="49.24588" lon="1.82169">
        <ele>87</ele>
        <time>2022-02-20T10:46:07Z</time>
      </trkpt>
      <trkpt lat="49.24585" lon="1.82161">
        <ele>88.5</ele>
        <time>2022-02-20T10:46:11Z</time>
      </trkpt>
      <trkpt lat="49.24583" lon="1.82154">
        <ele>89.1</ele>
        <time>2022-02-20T10:46:16Z</time>
      </trkpt>
      <trkpt lat="49.24581" lon="1.82146">
        <ele>88.8</ele>
        <time>2022-02-20T10:46:20Z</time>
      </trkpt>
      <trkpt lat="49.24579" lon="1.82139">
        <ele>88.1</ele>
        <time>2022-02-20T10:46:24Z</time>
      </trkpt>
      <trkpt lat="49.24577" lon="1.82132">
        <ele>87.7</ele>
        <time>2022-02-20T10:46:28Z</time>
      </trkpt>
      <trkpt lat="49.24575" lon="1.82124">
        <ele>87.6</ele>
        <time>2022-02-20T10:46:32Z</time>
      </trkpt>
      <trkpt lat="49.24573" lon="1.82115">
        <ele>87.4</ele>
        <time>2022-02-20T10:46:37Z</time>
      </trkpt>
      <trkpt lat="49.24571" lon="1.82107">
        <ele>87.2</ele>
        <time>2022-02-20T10:46:41Z</time>
      </trkpt>
      <trkpt lat="49.24569" lon="1.821">
        <ele>86.7</ele>
        <time>2022-02-20T10:46:45Z</time>
      </trkpt>
      <trkpt lat="49.24567" lon="1.82093">
        <ele>86.3</ele>
        <time>2022-02-20T10:46:49Z</time>
      </trkpt>
      <trkpt lat="49.24565" lon="1.82086">
        <ele>86.6</ele>
        <time>2022-02-20T10:46:53Z</time>
      </trkpt>
      <trkpt lat="49.24563" lon="1.82079">
        <ele>87.2</ele>
        <time>2022-02-20T10:46:57Z</time>
      </trkpt>
      <trkpt lat="49.24561" lon="1.82073">
        <ele>87.1</ele>
        <time>2022-02-20T10:47:01Z</time>
      </trkpt>
      <trkpt lat="49.24559" lon="1.82066">
        <ele>87.9</ele>
        <time>2022-02-20T10:47:06Z</time>
      </trkpt>
      <trkpt lat="49.24556" lon="1.82057">
        <ele>88.9</ele>
        <time>2022-02-20T10:47:10Z</time>
      </trkpt>
      <trkpt lat="49.24554" lon="1.8205">
        <ele>89</ele>
        <time>2022-02-20T10:47:14Z</time>
      </trkpt>
      <trkpt lat="49.24553" lon="1.82044">
        <ele>88.2</ele>
        <time>2022-02-20T10:47:18Z</time>
      </trkpt>
      <trkpt lat="49.24552" lon="1.82037">
        <ele>87.7</ele>
        <time>2022-02-20T10:47:22Z</time>
      </trkpt>
      <trkpt lat="49.24549" lon="1.8203">
        <ele>86.6</ele>
        <time>2022-02-20T10:47:26Z</time>
      </trkpt>
      <trkpt lat="49.24547" lon="1.82023">
        <ele>85.6</ele>
        <time>2022-02-20T10:47:30Z</time>
      </trkpt>
      <trkpt lat="49.24545" lon="1.82016">
        <ele>85.2</ele>
        <time>2022-02-20T10:47:34Z</time>
      </trkpt>
      <trkpt lat="49.24543" lon="1.82008">
        <ele>84.8</ele>
        <time>2022-02-20T10:47:38Z</time>
      </trkpt>
      <trkpt lat="49.24541" lon="1.82">
        <ele>84.6</ele>
        <time>2022-02-20T10:47:42Z</time>
      </trkpt>
      <trkpt lat="49.24539" lon="1.81992">
        <ele>84.8</ele>
        <time>2022-02-20T10:47:47Z</time>
      </trkpt>
      <trkpt lat="49.24537" lon="1.81984">
        <ele>85</ele>
        <time>2022-02-20T10:47:51Z</time>
      </trkpt>
      <trkpt lat="49.24535" lon="1.81977">
        <ele>85.3</ele>
        <time>2022-02-20T10:47:55Z</time>
      </trkpt>
      <trkpt lat="49.24532" lon="1.81968">
        <ele>85.3</ele>
        <time>2022-02-20T10:47:59Z</time>
      </trkpt>
      <trkpt lat="49.24531" lon="1.81961">
        <ele>85.6</ele>
        <time>2022-02-20T10:48:03Z</time>
      </trkpt>
      <trkpt lat="49.24529" lon="1.81955">
        <ele>85.7</ele>
        <time>2022-02-20T10:48:06Z</time>
      </trkpt>
      <trkpt lat="49.24527" lon="1.81947">
        <ele>86.2</ele>
        <time>2022-02-20T10:48:10Z</time>
      </trkpt>
      <trkpt lat="49.24524" lon="1.8194">
        <ele>86.7</ele>
        <time>2022-02-20T10:48:14Z</time>
      </trkpt>
      <trkpt lat="49.24521" lon="1.81933">
        <ele>86.7</ele>
        <time>2022-02-20T10:48:19Z</time>
      </trkpt>
      <trkpt lat="49.24519" lon="1.81926">
        <ele>86.6</ele>
        <time>2022-02-20T10:48:22Z</time>
      </trkpt>
      <trkpt lat="49.24515" lon="1.81919">
        <ele>86.7</ele>
        <time>2022-02-20T10:48:26Z</time>
      </trkpt>
      <trkpt lat="49.24511" lon="1.81913">
        <ele>87</ele>
        <time>2022-02-20T10:48:30Z</time>
      </trkpt>
      <trkpt lat="49.24508" lon="1.81907">
        <ele>86.7</ele>
        <time>2022-02-20T10:48:34Z</time>
      </trkpt>
      <trkpt lat="49.24503" lon="1.81902">
        <ele>86</ele>
        <time>2022-02-20T10:48:38Z</time>
      </trkpt>
      <trkpt lat="49.24499" lon="1.81897">
        <ele>85.8</ele>
        <time>2022-02-20T10:48:42Z</time>
      </trkpt>
      <trkpt lat="49.24494" lon="1.81891">
        <ele>86.3</ele>
        <time>2022-02-20T10:48:48Z</time>
      </trkpt>
      <trkpt lat="49.2449" lon="1.81887">
        <ele>87</ele>
        <time>2022-02-20T10:48:52Z</time>
      </trkpt>
      <trkpt lat="49.24486" lon="1.81882">
        <ele>87.1</ele>
        <time>2022-02-20T10:48:56Z</time>
      </trkpt>
      <trkpt lat="49.24482" lon="1.81876">
        <ele>86.6</ele>
        <time>2022-02-20T10:49:00Z</time>
      </trkpt>
      <trkpt lat="49.24478" lon="1.81871">
        <ele>85.9</ele>
        <time>2022-02-20T10:49:04Z</time>
      </trkpt>
      <trkpt lat="49.24474" lon="1.81867">
        <ele>85.3</ele>
        <time>2022-02-20T10:49:08Z</time>
      </trkpt>
      <trkpt lat="49.2447" lon="1.81862">
        <ele>85.3</ele>
        <time>2022-02-20T10:49:12Z</time>
      </trkpt>
      <trkpt lat="49.24466" lon="1.81858">
        <ele>85.3</ele>
        <time>2022-02-20T10:49:16Z</time>
      </trkpt>
      <trkpt lat="49.24461" lon="1.81853">
        <ele>85.4</ele>
        <time>2022-02-20T10:49:20Z</time>
      </trkpt>
      <trkpt lat="49.24457" lon="1.81849">
        <ele>85.1</ele>
        <time>2022-02-20T10:49:24Z</time>
      </trkpt>
      <trkpt lat="49.24453" lon="1.81844">
        <ele>85.1</ele>
        <time>2022-02-20T10:49:29Z</time>
      </trkpt>
      <trkpt lat="49.24449" lon="1.8184">
        <ele>85.2</ele>
        <time>2022-02-20T10:49:33Z</time>
      </trkpt>
      <trkpt lat="49.24445" lon="1.81836">
        <ele>85.3</ele>
        <time>2022-02-20T10:49:37Z</time>
      </trkpt>
      <trkpt lat="49.2444" lon="1.81833">
        <ele>85.4</ele>
        <time>2022-02-20T10:49:41Z</time>
      </trkpt>
      <trkpt lat="49.24436" lon="1.81828">
        <ele>86</ele>
        <time>2022-02-20T10:49:45Z</time>
      </trkpt>
      <trkpt lat="49.24433" lon="1.81823">
        <ele>86.4</ele>
        <time>2022-02-20T10:49:48Z</time>
      </trkpt>
      <trkpt lat="49.24429" lon="1.81819">
        <ele>86.3</ele>
        <time>2022-02-20T10:49:52Z</time>
      </trkpt>
      <trkpt lat="49.24424" lon="1.81814">
        <ele>86.2</ele>
        <time>2022-02-20T10:49:56Z</time>
      </trkpt>
      <trkpt lat="49.2442" lon="1.81809">
        <ele>86</ele>
        <time>2022-02-20T10:50:00Z</time>
      </trkpt>
      <trkpt lat="49.24415" lon="1.81806">
        <ele>85.8</ele>
        <time>2022-02-20T10:50:04Z</time>
      </trkpt>
      <trkpt lat="49.24411" lon="1.81801">
        <ele>85.9</ele>
        <time>2022-02-20T10:50:08Z</time>
      </trkpt>
      <trkpt lat="49.24407" lon="1.81796">
        <ele>86.4</ele>
        <time>2022-02-20T10:50:12Z</time>
      </trkpt>
      <trkpt lat="49.24403" lon="1.81792">
        <ele>87.6</ele>
        <time>2022-02-20T10:50:16Z</time>
      </trkpt>
      <trkpt lat="49.24398" lon="1.81787">
        <ele>89.1</ele>
        <time>2022-02-20T10:50:20Z</time>
      </trkpt>
      <trkpt lat="49.24395" lon="1.81781">
        <ele>89.9</ele>
        <time>2022-02-20T10:50:24Z</time>
      </trkpt>
      <trkpt lat="49.24391" lon="1.81776">
        <ele>90.6</ele>
        <time>2022-02-20T10:50:29Z</time>
      </trkpt>
      <trkpt lat="49.24386" lon="1.81772">
        <ele>90.9</ele>
        <time>2022-02-20T10:50:33Z</time>
      </trkpt>
      <trkpt lat="49.24382" lon="1.81768">
        <ele>91.4</ele>
        <time>2022-02-20T10:50:37Z</time>
      </trkpt>
      <trkpt lat="49.24378" lon="1.81763">
        <ele>91.7</ele>
        <time>2022-02-20T10:50:41Z</time>
      </trkpt>
      <trkpt lat="49.24374" lon="1.81759">
        <ele>91.4</ele>
        <time>2022-02-20T10:50:45Z</time>
      </trkpt>
      <trkpt lat="49.2437" lon="1.81755">
        <ele>91.2</ele>
        <time>2022-02-20T10:50:49Z</time>
      </trkpt>
      <trkpt lat="49.24365" lon="1.8175">
        <ele>91.3</ele>
        <time>2022-02-20T10:50:53Z</time>
      </trkpt>
      <trkpt lat="49.24362" lon="1.81745">
        <ele>92.1</ele>
        <time>2022-02-20T10:50:57Z</time>
      </trkpt>
      <trkpt lat="49.24358" lon="1.8174">
        <ele>92.8</ele>
        <time>2022-02-20T10:51:01Z</time>
      </trkpt>
      <trkpt lat="49.24354" lon="1.81736">
        <ele>92.7</ele>
        <time>2022-02-20T10:51:05Z</time>
      </trkpt>
      <trkpt lat="49.2435" lon="1.81731">
        <ele>92.5</ele>
        <time>2022-02-20T10:51:09Z</time>
      </trkpt>
      <trkpt lat="49.24346" lon="1.81726">
        <ele>92.8</ele>
        <time>2022-02-20T10:51:13Z</time>
      </trkpt>
      <trkpt lat="49.24342" lon="1.81721">
        <ele>93.8</ele>
        <time>2022-02-20T10:51:17Z</time>
      </trkpt>
      <trkpt lat="49.24338" lon="1.81714">
        <ele>95.1</ele>
        <time>2022-02-20T10:51:22Z</time>
      </trkpt>
      <trkpt lat="49.24335" lon="1.81708">
        <ele>95.4</ele>
        <time>2022-02-20T10:51:26Z</time>
      </trkpt>
      <trkpt lat="49.24332" lon="1.817">
        <ele>95</ele>
        <time>2022-02-20T10:51:30Z</time>
      </trkpt>
      <trkpt lat="49.2433" lon="1.81694">
        <ele>93.9</ele>
        <time>2022-02-20T10:51:34Z</time>
      </trkpt>
      <trkpt lat="49.24328" lon="1.81687">
        <ele>92.6</ele>
        <time>2022-02-20T10:51:39Z</time>
      </trkpt>
      <trkpt lat="49.24327" lon="1.8168">
        <ele>91.2</ele>
        <time>2022-02-20T10:51:44Z</time>
      </trkpt>
      <trkpt lat="49.24326" lon="1.81672">
        <ele>90.4</ele>
        <time>2022-02-20T10:51:48Z</time>
      </trkpt>
      <trkpt lat="49.24324" lon="1.81664">
        <ele>89.8</ele>
        <time>2022-02-20T10:51:52Z</time>
      </trkpt>
      <trkpt lat="49.24322" lon="1.81655">
        <ele>90.1</ele>
        <time>2022-02-20T10:51:57Z</time>
      </trkpt>
      <trkpt lat="49.24322" lon="1.81647">
        <ele>90.4</ele>
        <time>2022-02-20T10:52:01Z</time>
      </trkpt>
      <trkpt lat="49.24319" lon="1.81639">
        <ele>90.6</ele>
        <time>2022-02-20T10:52:06Z</time>
      </trkpt>
      <trkpt lat="49.24316" lon="1.81632">
        <ele>90.2</ele>
        <time>2022-02-20T10:52:10Z</time>
      </trkpt>
      <trkpt lat="49.24314" lon="1.81625">
        <ele>90.9</ele>
        <time>2022-02-20T10:52:14Z</time>
      </trkpt>
      <trkpt lat="49.24312" lon="1.81618">
        <ele>91.4</ele>
        <time>2022-02-20T10:52:18Z</time>
      </trkpt>
      <trkpt lat="49.24309" lon="1.81612">
        <ele>92</ele>
        <time>2022-02-20T10:52:22Z</time>
      </trkpt>
      <trkpt lat="49.24307" lon="1.81605">
        <ele>92</ele>
        <time>2022-02-20T10:52:26Z</time>
      </trkpt>
      <trkpt lat="49.24303" lon="1.81599">
        <ele>91.2</ele>
        <time>2022-02-20T10:52:30Z</time>
      </trkpt>
      <trkpt lat="49.24299" lon="1.81594">
        <ele>90.6</ele>
        <time>2022-02-20T10:52:34Z</time>
      </trkpt>
      <trkpt lat="49.24294" lon="1.8159">
        <ele>90.8</ele>
        <time>2022-02-20T10:52:38Z</time>
      </trkpt>
      <trkpt lat="49.24289" lon="1.81587">
        <ele>91.2</ele>
        <time>2022-02-20T10:52:42Z</time>
      </trkpt>
      <trkpt lat="49.24284" lon="1.81584">
        <ele>91.4</ele>
        <time>2022-02-20T10:52:47Z</time>
      </trkpt>
      <trkpt lat="49.24279" lon="1.8158">
        <ele>91.3</ele>
        <time>2022-02-20T10:52:51Z</time>
      </trkpt>
      <trkpt lat="49.24275" lon="1.81576">
        <ele>91.1</ele>
        <time>2022-02-20T10:52:55Z</time>
      </trkpt>
      <trkpt lat="49.24271" lon="1.81572">
        <ele>90.7</ele>
        <time>2022-02-20T10:52:59Z</time>
      </trkpt>
      <trkpt lat="49.24265" lon="1.81568">
        <ele>90.9</ele>
        <time>2022-02-20T10:53:04Z</time>
      </trkpt>
      <trkpt lat="49.2426" lon="1.81564">
        <ele>91.3</ele>
        <time>2022-02-20T10:53:08Z</time>
      </trkpt>
      <trkpt lat="49.24254" lon="1.81561">
        <ele>91.4</ele>
        <time>2022-02-20T10:53:12Z</time>
      </trkpt>
      <trkpt lat="49.24249" lon="1.81559">
        <ele>91.2</ele>
        <time>2022-02-20T10:53:16Z</time>
      </trkpt>
      <trkpt lat="49.24244" lon="1.81555">
        <ele>91.1</ele>
        <time>2022-02-20T10:53:20Z</time>
      </trkpt>
      <trkpt lat="49.24239" lon="1.81552">
        <ele>91.6</ele>
        <time>2022-02-20T10:53:24Z</time>
      </trkpt>
      <trkpt lat="49.24234" lon="1.8155">
        <ele>92.1</ele>
        <time>2022-02-20T10:53:28Z</time>
      </trkpt>
      <trkpt lat="49.2423" lon="1.81547">
        <ele>92.7</ele>
        <time>2022-02-20T10:53:32Z</time>
      </trkpt>
      <trkpt lat="49.24224" lon="1.81544">
        <ele>93</ele>
        <time>2022-02-20T10:53:37Z</time>
      </trkpt>
      <trkpt lat="49.2422" lon="1.81542">
        <ele>93.2</ele>
        <time>2022-02-20T10:53:41Z</time>
      </trkpt>
      <trkpt lat="49.24215" lon="1.81539">
        <ele>93.6</ele>
        <time>2022-02-20T10:53:45Z</time>
      </trkpt>
      <trkpt lat="49.2421" lon="1.81537">
        <ele>93.4</ele>
        <time>2022-02-20T10:53:49Z</time>
      </trkpt>
      <trkpt lat="49.24205" lon="1.81536">
        <ele>91.1</ele>
        <time>2022-02-20T10:53:54Z</time>
      </trkpt>
      <trkpt lat="49.24201" lon="1.81536">
        <ele>89.5</ele>
        <time>2022-02-20T10:53:58Z</time>
      </trkpt>
      <trkpt lat="49.24196" lon="1.81534">
        <ele>89.4</ele>
        <time>2022-02-20T10:54:02Z</time>
      </trkpt>
      <trkpt lat="49.24192" lon="1.81533">
        <ele>89.5</ele>
        <time>2022-02-20T10:54:06Z</time>
      </trkpt>
      <trkpt lat="49.24187" lon="1.81531">
        <ele>89.7</ele>
        <time>2022-02-20T10:54:10Z</time>
      </trkpt>
      <trkpt lat="49.24182" lon="1.81528">
        <ele>90.7</ele>
        <time>2022-02-20T10:54:14Z</time>
      </trkpt>
      <trkpt lat="49.24178" lon="1.81524">
        <ele>91.6</ele>
        <time>2022-02-20T10:54:18Z</time>
      </trkpt>
      <trkpt lat="49.24174" lon="1.8152">
        <ele>92.4</ele>
        <time>2022-02-20T10:54:23Z</time>
      </trkpt>
      <trkpt lat="49.24169" lon="1.81516">
        <ele>93.4</ele>
        <time>2022-02-20T10:54:27Z</time>
      </trkpt>
      <trkpt lat="49.24164" lon="1.81515">
        <ele>93.6</ele>
        <time>2022-02-20T10:54:32Z</time>
      </trkpt>
      <trkpt lat="49.24159" lon="1.81513">
        <ele>93.2</ele>
        <time>2022-02-20T10:54:36Z</time>
      </trkpt>
      <trkpt lat="49.24154" lon="1.81509">
        <ele>92.6</ele>
        <time>2022-02-20T10:54:40Z</time>
      </trkpt>
      <trkpt lat="49.2415" lon="1.81503">
        <ele>91.8</ele>
        <time>2022-02-20T10:54:45Z</time>
      </trkpt>
      <trkpt lat="49.24146" lon="1.81497">
        <ele>91.7</ele>
        <time>2022-02-20T10:54:49Z</time>
      </trkpt>
      <trkpt lat="49.24142" lon="1.81493">
        <ele>91.9</ele>
        <time>2022-02-20T10:54:53Z</time>
      </trkpt>
      <trkpt lat="49.24138" lon="1.81489">
        <ele>92.5</ele>
        <time>2022-02-20T10:55:00Z</time>
      </trkpt>
      <trkpt lat="49.24135" lon="1.81483">
        <ele>92.6</ele>
        <time>2022-02-20T10:55:04Z</time>
      </trkpt>
      <trkpt lat="49.24134" lon="1.81476">
        <ele>92.7</ele>
        <time>2022-02-20T10:55:15Z</time>
      </trkpt>
      <trkpt lat="49.24131" lon="1.81469">
        <ele>92.8</ele>
        <time>2022-02-20T10:55:21Z</time>
      </trkpt>
      <trkpt lat="49.24132" lon="1.81462">
        <ele>92.8</ele>
        <time>2022-02-20T10:55:29Z</time>
      </trkpt>
      <trkpt lat="49.24136" lon="1.81459">
        <ele>91.2</ele>
        <time>2022-02-20T10:56:57Z</time>
      </trkpt>
      <trkpt lat="49.24136" lon="1.81451">
        <ele>91.5</ele>
        <time>2022-02-20T10:57:05Z</time>
      </trkpt>
      <trkpt lat="49.24139" lon="1.81446">
        <ele>91.6</ele>
        <time>2022-02-20T10:57:09Z</time>
      </trkpt>
      <trkpt lat="49.24143" lon="1.81441">
        <ele>91.2</ele>
        <time>2022-02-20T10:57:14Z</time>
      </trkpt>
      <trkpt lat="49.24147" lon="1.81438">
        <ele>90.9</ele>
        <time>2022-02-20T10:57:18Z</time>
      </trkpt>
      <trkpt lat="49.24151" lon="1.81434">
        <ele>90.8</ele>
        <time>2022-02-20T10:57:21Z</time>
      </trkpt>
      <trkpt lat="49.24156" lon="1.81429">
        <ele>90.4</ele>
        <time>2022-02-20T10:57:26Z</time>
      </trkpt>
      <trkpt lat="49.24161" lon="1.81425">
        <ele>90.6</ele>
        <time>2022-02-20T10:57:30Z</time>
      </trkpt>
      <trkpt lat="49.24166" lon="1.8142">
        <ele>91.4</ele>
        <time>2022-02-20T10:57:34Z</time>
      </trkpt>
      <trkpt lat="49.2417" lon="1.81416">
        <ele>91.1</ele>
        <time>2022-02-20T10:57:37Z</time>
      </trkpt>
      <trkpt lat="49.24175" lon="1.81412">
        <ele>90.4</ele>
        <time>2022-02-20T10:57:41Z</time>
      </trkpt>
      <trkpt lat="49.24181" lon="1.8141">
        <ele>89.4</ele>
        <time>2022-02-20T10:57:46Z</time>
      </trkpt>
      <trkpt lat="49.24186" lon="1.8141">
        <ele>90</ele>
        <time>2022-02-20T10:57:50Z</time>
      </trkpt>
      <trkpt lat="49.24191" lon="1.81409">
        <ele>90.7</ele>
        <time>2022-02-20T10:57:53Z</time>
      </trkpt>
      <trkpt lat="49.24196" lon="1.81406">
        <ele>90.8</ele>
        <time>2022-02-20T10:57:57Z</time>
      </trkpt>
      <trkpt lat="49.24201" lon="1.81403">
        <ele>90.1</ele>
        <time>2022-02-20T10:58:01Z</time>
      </trkpt>
      <trkpt lat="49.24206" lon="1.814">
        <ele>90.1</ele>
        <time>2022-02-20T10:58:05Z</time>
      </trkpt>
      <trkpt lat="49.24212" lon="1.814">
        <ele>90.4</ele>
        <time>2022-02-20T10:58:09Z</time>
      </trkpt>
      <trkpt lat="49.24218" lon="1.814">
        <ele>90.2</ele>
        <time>2022-02-20T10:58:14Z</time>
      </trkpt>
      <trkpt lat="49.24213" lon="1.81397">
        <ele>86.7</ele>
        <time>2022-02-20T10:58:25Z</time>
      </trkpt>
      <trkpt lat="49.24219" lon="1.81393">
        <ele>87.3</ele>
        <time>2022-02-20T10:58:34Z</time>
      </trkpt>
      <trkpt lat="49.24225" lon="1.81393">
        <ele>87.1</ele>
        <time>2022-02-20T10:58:37Z</time>
      </trkpt>
      <trkpt lat="49.24231" lon="1.81395">
        <ele>86.8</ele>
        <time>2022-02-20T10:58:40Z</time>
      </trkpt>
      <trkpt lat="49.24235" lon="1.81397">
        <ele>86.9</ele>
        <time>2022-02-20T10:58:44Z</time>
      </trkpt>
      <trkpt lat="49.2424" lon="1.81399">
        <ele>86.8</ele>
        <time>2022-02-20T10:58:48Z</time>
      </trkpt>
      <trkpt lat="49.24246" lon="1.814">
        <ele>86.8</ele>
        <time>2022-02-20T10:58:52Z</time>
      </trkpt>
      <trkpt lat="49.24251" lon="1.814">
        <ele>86.4</ele>
        <time>2022-02-20T10:58:56Z</time>
      </trkpt>
      <trkpt lat="49.24256" lon="1.81402">
        <ele>85.1</ele>
        <time>2022-02-20T10:59:01Z</time>
      </trkpt>
      <trkpt lat="49.2426" lon="1.81405">
        <ele>83.8</ele>
        <time>2022-02-20T10:59:05Z</time>
      </trkpt>
      <trkpt lat="49.24264" lon="1.81408">
        <ele>83</ele>
        <time>2022-02-20T10:59:10Z</time>
      </trkpt>
      <trkpt lat="49.24269" lon="1.81412">
        <ele>82.8</ele>
        <time>2022-02-20T10:59:14Z</time>
      </trkpt>
      <trkpt lat="49.24273" lon="1.81416">
        <ele>83.1</ele>
        <time>2022-02-20T10:59:19Z</time>
      </trkpt>
      <trkpt lat="49.24278" lon="1.81421">
        <ele>83.5</ele>
        <time>2022-02-20T10:59:24Z</time>
      </trkpt>
      <trkpt lat="49.24282" lon="1.81426">
        <ele>84.8</ele>
        <time>2022-02-20T10:59:28Z</time>
      </trkpt>
      <trkpt lat="49.24287" lon="1.81429">
        <ele>86.2</ele>
        <time>2022-02-20T10:59:33Z</time>
      </trkpt>
      <trkpt lat="49.24291" lon="1.81433">
        <ele>86.4</ele>
        <time>2022-02-20T10:59:38Z</time>
      </trkpt>
      <trkpt lat="49.24296" lon="1.81434">
        <ele>86.1</ele>
        <time>2022-02-20T10:59:43Z</time>
      </trkpt>
      <trkpt lat="49.24291" lon="1.81429">
        <ele>88</ele>
        <time>2022-02-20T10:59:54Z</time>
      </trkpt>
      <trkpt lat="49.24286" lon="1.81427">
        <ele>88.1</ele>
        <time>2022-02-20T10:59:59Z</time>
      </trkpt>
      <trkpt lat="49.24284" lon="1.81421">
        <ele>87.4</ele>
        <time>2022-02-20T11:00:19Z</time>
      </trkpt>
      <trkpt lat="49.2428" lon="1.81417">
        <ele>86.2</ele>
        <time>2022-02-20T11:00:26Z</time>
      </trkpt>
      <trkpt lat="49.24275" lon="1.81412">
        <ele>84.7</ele>
        <time>2022-02-20T11:00:33Z</time>
      </trkpt>
      <trkpt lat="49.2427" lon="1.81409">
        <ele>86.2</ele>
        <time>2022-02-20T11:00:40Z</time>
      </trkpt>
      <trkpt lat="49.24266" lon="1.81406">
        <ele>89.4</ele>
        <time>2022-02-20T11:00:46Z</time>
      </trkpt>
      <trkpt lat="49.24261" lon="1.81402">
        <ele>91.5</ele>
        <time>2022-02-20T11:00:51Z</time>
      </trkpt>
      <trkpt lat="49.24263" lon="1.81396">
        <ele>92.7</ele>
        <time>2022-02-20T11:00:58Z</time>
      </trkpt>
      <trkpt lat="49.24268" lon="1.81394">
        <ele>91.8</ele>
        <time>2022-02-20T11:01:03Z</time>
      </trkpt>
      <trkpt lat="49.24273" lon="1.81394">
        <ele>90.8</ele>
        <time>2022-02-20T11:01:09Z</time>
      </trkpt>
      <trkpt lat="49.24278" lon="1.81393">
        <ele>89.9</ele>
        <time>2022-02-20T11:01:15Z</time>
      </trkpt>
      <trkpt lat="49.24282" lon="1.81393">
        <ele>89</ele>
        <time>2022-02-20T11:01:20Z</time>
      </trkpt>
      <trkpt lat="49.24287" lon="1.81393">
        <ele>89</ele>
        <time>2022-02-20T11:01:25Z</time>
      </trkpt>
      <trkpt lat="49.24292" lon="1.81394">
        <ele>89.3</ele>
        <time>2022-02-20T11:01:29Z</time>
      </trkpt>
      <trkpt lat="49.24296" lon="1.81397">
        <ele>89.7</ele>
        <time>2022-02-20T11:01:33Z</time>
      </trkpt>
      <trkpt lat="49.24301" lon="1.81399">
        <ele>89.3</ele>
        <time>2022-02-20T11:01:39Z</time>
      </trkpt>
      <trkpt lat="49.24306" lon="1.81401">
        <ele>88.7</ele>
        <time>2022-02-20T11:01:44Z</time>
      </trkpt>
      <trkpt lat="49.24311" lon="1.81402">
        <ele>88.5</ele>
        <time>2022-02-20T11:01:48Z</time>
      </trkpt>
      <trkpt lat="49.24315" lon="1.81404">
        <ele>91.8</ele>
        <time>2022-02-20T11:02:25Z</time>
      </trkpt>
      <trkpt lat="49.24311" lon="1.814">
        <ele>88.7</ele>
        <time>2022-02-20T11:03:47Z</time>
      </trkpt>
      <trkpt lat="49.24305" lon="1.81399">
        <ele>88.9</ele>
        <time>2022-02-20T11:04:02Z</time>
      </trkpt>
      <trkpt lat="49.243" lon="1.81396">
        <ele>88.8</ele>
        <time>2022-02-20T11:04:08Z</time>
      </trkpt>
      <trkpt lat="49.24298" lon="1.81389">
        <ele>91.7</ele>
        <time>2022-02-20T11:05:07Z</time>
      </trkpt>
      <trkpt lat="49.24301" lon="1.81383">
        <ele>91.9</ele>
        <time>2022-02-20T11:05:24Z</time>
      </trkpt>
      <trkpt lat="49.24306" lon="1.81381">
        <ele>91.1</ele>
        <time>2022-02-20T11:05:29Z</time>
      </trkpt>
      <trkpt lat="49.24311" lon="1.8138">
        <ele>90.3</ele>
        <time>2022-02-20T11:05:34Z</time>
      </trkpt>
      <trkpt lat="49.24316" lon="1.8138">
        <ele>89.7</ele>
        <time>2022-02-20T11:05:39Z</time>
      </trkpt>
      <trkpt lat="49.24322" lon="1.81379">
        <ele>90.2</ele>
        <time>2022-02-20T11:05:45Z</time>
      </trkpt>
      <trkpt lat="49.24327" lon="1.81377">
        <ele>91.4</ele>
        <time>2022-02-20T11:05:50Z</time>
      </trkpt>
      <trkpt lat="49.24333" lon="1.81375">
        <ele>93</ele>
        <time>2022-02-20T11:05:55Z</time>
      </trkpt>
      <trkpt lat="49.24337" lon="1.81374">
        <ele>94.3</ele>
        <time>2022-02-20T11:05:58Z</time>
      </trkpt>
      <trkpt lat="49.24342" lon="1.81372">
        <ele>95.2</ele>
        <time>2022-02-20T11:06:01Z</time>
      </trkpt>
      <trkpt lat="49.24347" lon="1.81369">
        <ele>95.3</ele>
        <time>2022-02-20T11:06:06Z</time>
      </trkpt>
      <trkpt lat="49.24349" lon="1.81361">
        <ele>95.4</ele>
        <time>2022-02-20T11:06:10Z</time>
      </trkpt>
      <trkpt lat="49.24348" lon="1.81354">
        <ele>95.1</ele>
        <time>2022-02-20T11:06:14Z</time>
      </trkpt>
      <trkpt lat="49.24344" lon="1.81347">
        <ele>95.1</ele>
        <time>2022-02-20T11:06:18Z</time>
      </trkpt>
      <trkpt lat="49.2434" lon="1.81344">
        <ele>94.6</ele>
        <time>2022-02-20T11:06:22Z</time>
      </trkpt>
      <trkpt lat="49.24335" lon="1.81341">
        <ele>94.4</ele>
        <time>2022-02-20T11:06:26Z</time>
      </trkpt>
      <trkpt lat="49.2433" lon="1.81338">
        <ele>94.2</ele>
        <time>2022-02-20T11:06:30Z</time>
      </trkpt>
      <trkpt lat="49.24324" lon="1.81336">
        <ele>93.7</ele>
        <time>2022-02-20T11:06:35Z</time>
      </trkpt>
      <trkpt lat="49.2432" lon="1.81333">
        <ele>92.8</ele>
        <time>2022-02-20T11:06:39Z</time>
      </trkpt>
      <trkpt lat="49.24315" lon="1.8133">
        <ele>91.8</ele>
        <time>2022-02-20T11:06:45Z</time>
      </trkpt>
      <trkpt lat="49.2431" lon="1.81327">
        <ele>92.3</ele>
        <time>2022-02-20T11:06:50Z</time>
      </trkpt>
      <trkpt lat="49.24304" lon="1.81324">
        <ele>94.6</ele>
        <time>2022-02-20T11:06:55Z</time>
      </trkpt>
      <trkpt lat="49.243" lon="1.81321">
        <ele>96.2</ele>
        <time>2022-02-20T11:06:59Z</time>
      </trkpt>
      <trkpt lat="49.24296" lon="1.81317">
        <ele>98.5</ele>
        <time>2022-02-20T11:07:04Z</time>
      </trkpt>
      <trkpt lat="49.24292" lon="1.81311">
        <ele>101.8</ele>
        <time>2022-02-20T11:07:08Z</time>
      </trkpt>
      <trkpt lat="49.24288" lon="1.81306">
        <ele>104.1</ele>
        <time>2022-02-20T11:07:13Z</time>
      </trkpt>
      <trkpt lat="49.24284" lon="1.813">
        <ele>105.1</ele>
        <time>2022-02-20T11:07:17Z</time>
      </trkpt>
      <trkpt lat="49.24284" lon="1.81293">
        <ele>106.1</ele>
        <time>2022-02-20T11:07:23Z</time>
      </trkpt>
      <trkpt lat="49.24283" lon="1.81285">
        <ele>107.4</ele>
        <time>2022-02-20T11:07:29Z</time>
      </trkpt>
      <trkpt lat="49.24284" lon="1.81278">
        <ele>107</ele>
        <time>2022-02-20T11:07:34Z</time>
      </trkpt>
      <trkpt lat="49.24283" lon="1.81271">
        <ele>106.6</ele>
        <time>2022-02-20T11:07:38Z</time>
      </trkpt>
      <trkpt lat="49.24282" lon="1.81263">
        <ele>105.9</ele>
        <time>2022-02-20T11:07:43Z</time>
      </trkpt>
      <trkpt lat="49.2428" lon="1.81255">
        <ele>106</ele>
        <time>2022-02-20T11:07:47Z</time>
      </trkpt>
      <trkpt lat="49.24279" lon="1.81248">
        <ele>106.6</ele>
        <time>2022-02-20T11:07:52Z</time>
      </trkpt>
      <trkpt lat="49.24277" lon="1.81241">
        <ele>107</ele>
        <time>2022-02-20T11:07:58Z</time>
      </trkpt>
      <trkpt lat="49.24275" lon="1.81233">
        <ele>107</ele>
        <time>2022-02-20T11:08:03Z</time>
      </trkpt>
      <trkpt lat="49.24276" lon="1.81226">
        <ele>109</ele>
        <time>2022-02-20T11:09:28Z</time>
      </trkpt>
      <trkpt lat="49.2427" lon="1.81228">
        <ele>105.9</ele>
        <time>2022-02-20T11:09:48Z</time>
      </trkpt>
      <trkpt lat="49.24272" lon="1.81219">
        <ele>103</ele>
        <time>2022-02-20T11:09:51Z</time>
      </trkpt>
      <trkpt lat="49.24272" lon="1.81212">
        <ele>100.1</ele>
        <time>2022-02-20T11:09:56Z</time>
      </trkpt>
      <trkpt lat="49.24274" lon="1.81204">
        <ele>100.7</ele>
        <time>2022-02-20T11:10:03Z</time>
      </trkpt>
      <trkpt lat="49.24274" lon="1.81196">
        <ele>102.6</ele>
        <time>2022-02-20T11:10:09Z</time>
      </trkpt>
      <trkpt lat="49.24275" lon="1.81189">
        <ele>103.6</ele>
        <time>2022-02-20T11:10:15Z</time>
      </trkpt>
      <trkpt lat="49.24276" lon="1.81181">
        <ele>103.4</ele>
        <time>2022-02-20T11:10:22Z</time>
      </trkpt>
      <trkpt lat="49.24277" lon="1.81173">
        <ele>102.2</ele>
        <time>2022-02-20T11:10:28Z</time>
      </trkpt>
      <trkpt lat="49.24277" lon="1.81166">
        <ele>99.8</ele>
        <time>2022-02-20T11:10:33Z</time>
      </trkpt>
      <trkpt lat="49.24277" lon="1.81159">
        <ele>98.8</ele>
        <time>2022-02-20T11:10:38Z</time>
      </trkpt>
      <trkpt lat="49.24277" lon="1.8115">
        <ele>99.4</ele>
        <time>2022-02-20T11:10:43Z</time>
      </trkpt>
      <trkpt lat="49.24277" lon="1.81142">
        <ele>101.8</ele>
        <time>2022-02-20T11:10:48Z</time>
      </trkpt>
      <trkpt lat="49.24277" lon="1.81134">
        <ele>103.1</ele>
        <time>2022-02-20T11:10:53Z</time>
      </trkpt>
      <trkpt lat="49.24277" lon="1.81126">
        <ele>104</ele>
        <time>2022-02-20T11:10:58Z</time>
      </trkpt>
      <trkpt lat="49.24278" lon="1.81117">
        <ele>105.1</ele>
        <time>2022-02-20T11:11:03Z</time>
      </trkpt>
      <trkpt lat="49.24281" lon="1.81111">
        <ele>107.5</ele>
        <time>2022-02-20T11:11:20Z</time>
      </trkpt>
      <trkpt lat="49.24281" lon="1.81104">
        <ele>108.2</ele>
        <time>2022-02-20T11:11:24Z</time>
      </trkpt>
      <trkpt lat="49.24279" lon="1.81096">
        <ele>108</ele>
        <time>2022-02-20T11:11:29Z</time>
      </trkpt>
      <trkpt lat="49.24278" lon="1.81088">
        <ele>107.1</ele>
        <time>2022-02-20T11:11:34Z</time>
      </trkpt>
      <trkpt lat="49.24278" lon="1.81081">
        <ele>106.2</ele>
        <time>2022-02-20T11:11:38Z</time>
      </trkpt>
      <trkpt lat="49.24279" lon="1.81072">
        <ele>105.4</ele>
        <time>2022-02-20T11:11:45Z</time>
      </trkpt>
      <trkpt lat="49.24278" lon="1.81064">
        <ele>105.5</ele>
        <time>2022-02-20T11:12:03Z</time>
      </trkpt>
      <trkpt lat="49.24277" lon="1.81057">
        <ele>107.5</ele>
        <time>2022-02-20T11:12:14Z</time>
      </trkpt>
      <trkpt lat="49.24275" lon="1.81049">
        <ele>108.1</ele>
        <time>2022-02-20T11:12:20Z</time>
      </trkpt>
      <trkpt lat="49.24275" lon="1.81041">
        <ele>108.3</ele>
        <time>2022-02-20T11:12:23Z</time>
      </trkpt>
      <trkpt lat="49.24275" lon="1.81034">
        <ele>108.6</ele>
        <time>2022-02-20T11:12:26Z</time>
      </trkpt>
      <trkpt lat="49.24275" lon="1.81025">
        <ele>108.6</ele>
        <time>2022-02-20T11:12:31Z</time>
      </trkpt>
      <trkpt lat="49.24274" lon="1.81018">
        <ele>108.3</ele>
        <time>2022-02-20T11:12:35Z</time>
      </trkpt>
      <trkpt lat="49.24272" lon="1.81011">
        <ele>108.3</ele>
        <time>2022-02-20T11:12:38Z</time>
      </trkpt>
      <trkpt lat="49.24271" lon="1.81003">
        <ele>109.3</ele>
        <time>2022-02-20T11:12:43Z</time>
      </trkpt>
      <trkpt lat="49.2427" lon="1.80994">
        <ele>110.7</ele>
        <time>2022-02-20T11:12:47Z</time>
      </trkpt>
      <trkpt lat="49.24267" lon="1.80989">
        <ele>110.6</ele>
        <time>2022-02-20T11:12:51Z</time>
      </trkpt>
      <trkpt lat="49.24264" lon="1.80983">
        <ele>109.5</ele>
        <time>2022-02-20T11:12:56Z</time>
      </trkpt>
      <trkpt lat="49.24263" lon="1.80976">
        <ele>108.6</ele>
        <time>2022-02-20T11:12:59Z</time>
      </trkpt>
      <trkpt lat="49.24262" lon="1.80967">
        <ele>107.6</ele>
        <time>2022-02-20T11:13:03Z</time>
      </trkpt>
      <trkpt lat="49.2426" lon="1.8096">
        <ele>109.9</ele>
        <time>2022-02-20T11:13:23Z</time>
      </trkpt>
      <trkpt lat="49.24256" lon="1.80955">
        <ele>112</ele>
        <time>2022-02-20T11:13:28Z</time>
      </trkpt>
      <trkpt lat="49.24252" lon="1.8095">
        <ele>112.6</ele>
        <time>2022-02-20T11:13:31Z</time>
      </trkpt>
      <trkpt lat="49.24247" lon="1.80945">
        <ele>112.2</ele>
        <time>2022-02-20T11:13:36Z</time>
      </trkpt>
      <trkpt lat="49.24242" lon="1.80941">
        <ele>111.9</ele>
        <time>2022-02-20T11:13:41Z</time>
      </trkpt>
      <trkpt lat="49.24237" lon="1.80939">
        <ele>111.9</ele>
        <time>2022-02-20T11:13:46Z</time>
      </trkpt>
      <trkpt lat="49.24232" lon="1.80937">
        <ele>111.6</ele>
        <time>2022-02-20T11:13:50Z</time>
      </trkpt>
      <trkpt lat="49.24227" lon="1.80936">
        <ele>111.3</ele>
        <time>2022-02-20T11:13:55Z</time>
      </trkpt>
      <trkpt lat="49.24223" lon="1.80932">
        <ele>112.4</ele>
        <time>2022-02-20T11:14:00Z</time>
      </trkpt>
      <trkpt lat="49.24218" lon="1.80929">
        <ele>112.8</ele>
        <time>2022-02-20T11:14:04Z</time>
      </trkpt>
      <trkpt lat="49.24213" lon="1.80925">
        <ele>112.8</ele>
        <time>2022-02-20T11:14:08Z</time>
      </trkpt>
      <trkpt lat="49.24209" lon="1.80922">
        <ele>112.9</ele>
        <time>2022-02-20T11:14:12Z</time>
      </trkpt>
      <trkpt lat="49.24204" lon="1.80919">
        <ele>112.9</ele>
        <time>2022-02-20T11:14:17Z</time>
      </trkpt>
      <trkpt lat="49.24199" lon="1.80917">
        <ele>112.8</ele>
        <time>2022-02-20T11:14:21Z</time>
      </trkpt>
      <trkpt lat="49.24194" lon="1.80913">
        <ele>112.7</ele>
        <time>2022-02-20T11:14:25Z</time>
      </trkpt>
      <trkpt lat="49.24189" lon="1.80911">
        <ele>112.9</ele>
        <time>2022-02-20T11:14:30Z</time>
      </trkpt>
      <trkpt lat="49.24183" lon="1.80912">
        <ele>113.1</ele>
        <time>2022-02-20T11:14:35Z</time>
      </trkpt>
      <trkpt lat="49.24188" lon="1.80914">
        <ele>115.9</ele>
        <time>2022-02-20T11:14:46Z</time>
      </trkpt>
      <trkpt lat="49.24193" lon="1.80912">
        <ele>116</ele>
        <time>2022-02-20T11:14:50Z</time>
      </trkpt>
      <trkpt lat="49.24198" lon="1.80912">
        <ele>116.6</ele>
        <time>2022-02-20T11:15:10Z</time>
      </trkpt>
      <trkpt lat="49.24202" lon="1.80914">
        <ele>116.5</ele>
        <time>2022-02-20T11:15:13Z</time>
      </trkpt>
      <trkpt lat="49.24206" lon="1.80918">
        <ele>116.4</ele>
        <time>2022-02-20T11:15:16Z</time>
      </trkpt>
      <trkpt lat="49.24212" lon="1.8092">
        <ele>115.3</ele>
        <time>2022-02-20T11:15:21Z</time>
      </trkpt>
      <trkpt lat="49.24217" lon="1.80923">
        <ele>113.6</ele>
        <time>2022-02-20T11:15:25Z</time>
      </trkpt>
      <trkpt lat="49.24221" lon="1.80925">
        <ele>113.1</ele>
        <time>2022-02-20T11:15:30Z</time>
      </trkpt>
      <trkpt lat="49.24226" lon="1.8093">
        <ele>113.7</ele>
        <time>2022-02-20T11:15:34Z</time>
      </trkpt>
      <trkpt lat="49.2423" lon="1.80934">
        <ele>114.6</ele>
        <time>2022-02-20T11:15:38Z</time>
      </trkpt>
      <trkpt lat="49.24236" lon="1.80938">
        <ele>114.8</ele>
        <time>2022-02-20T11:15:42Z</time>
      </trkpt>
      <trkpt lat="49.24241" lon="1.80941">
        <ele>114.6</ele>
        <time>2022-02-20T11:15:47Z</time>
      </trkpt>
      <trkpt lat="49.24247" lon="1.80944">
        <ele>114</ele>
        <time>2022-02-20T11:15:51Z</time>
      </trkpt>
      <trkpt lat="49.24251" lon="1.80948">
        <ele>114.1</ele>
        <time>2022-02-20T11:15:55Z</time>
      </trkpt>
      <trkpt lat="49.24256" lon="1.80951">
        <ele>114</ele>
        <time>2022-02-20T11:15:59Z</time>
      </trkpt>
      <trkpt lat="49.24261" lon="1.80952">
        <ele>114</ele>
        <time>2022-02-20T11:16:04Z</time>
      </trkpt>
      <trkpt lat="49.24264" lon="1.80957">
        <ele>114</ele>
        <time>2022-02-20T11:16:10Z</time>
      </trkpt>
      <trkpt lat="49.2427" lon="1.8096">
        <ele>113.7</ele>
        <time>2022-02-20T11:16:15Z</time>
      </trkpt>
      <trkpt lat="49.24273" lon="1.80955">
        <ele>112.7</ele>
        <time>2022-02-20T11:16:20Z</time>
      </trkpt>
      <trkpt lat="49.24274" lon="1.80946">
        <ele>112.3</ele>
        <time>2022-02-20T11:16:25Z</time>
      </trkpt>
      <trkpt lat="49.24272" lon="1.8094">
        <ele>112.9</ele>
        <time>2022-02-20T11:16:30Z</time>
      </trkpt>
      <trkpt lat="49.24269" lon="1.80933">
        <ele>113</ele>
        <time>2022-02-20T11:16:34Z</time>
      </trkpt>
      <trkpt lat="49.24266" lon="1.80928">
        <ele>112.7</ele>
        <time>2022-02-20T11:16:39Z</time>
      </trkpt>
      <trkpt lat="49.24263" lon="1.8092">
        <ele>112.8</ele>
        <time>2022-02-20T11:16:43Z</time>
      </trkpt>
      <trkpt lat="49.24261" lon="1.80912">
        <ele>112.9</ele>
        <time>2022-02-20T11:16:47Z</time>
      </trkpt>
      <trkpt lat="49.24258" lon="1.80905">
        <ele>112.6</ele>
        <time>2022-02-20T11:16:51Z</time>
      </trkpt>
      <trkpt lat="49.24255" lon="1.80898">
        <ele>112.2</ele>
        <time>2022-02-20T11:16:56Z</time>
      </trkpt>
      <trkpt lat="49.24252" lon="1.80891">
        <ele>112.2</ele>
        <time>2022-02-20T11:17:00Z</time>
      </trkpt>
      <trkpt lat="49.24249" lon="1.80884">
        <ele>112.1</ele>
        <time>2022-02-20T11:17:04Z</time>
      </trkpt>
      <trkpt lat="49.24246" lon="1.80877">
        <ele>112</ele>
        <time>2022-02-20T11:17:09Z</time>
      </trkpt>
      <trkpt lat="49.24245" lon="1.80869">
        <ele>111.2</ele>
        <time>2022-02-20T11:17:13Z</time>
      </trkpt>
      <trkpt lat="49.24244" lon="1.80861">
        <ele>110.7</ele>
        <time>2022-02-20T11:17:17Z</time>
      </trkpt>
      <trkpt lat="49.24243" lon="1.80852">
        <ele>111.4</ele>
        <time>2022-02-20T11:17:21Z</time>
      </trkpt>
      <trkpt lat="49.24245" lon="1.80844">
        <ele>112.2</ele>
        <time>2022-02-20T11:17:25Z</time>
      </trkpt>
      <trkpt lat="49.24247" lon="1.80837">
        <ele>112</ele>
        <time>2022-02-20T11:17:29Z</time>
      </trkpt>
      <trkpt lat="49.24248" lon="1.80829">
        <ele>111.6</ele>
        <time>2022-02-20T11:17:33Z</time>
      </trkpt>
      <trkpt lat="49.24249" lon="1.80822">
        <ele>111.5</ele>
        <time>2022-02-20T11:17:37Z</time>
      </trkpt>
      <trkpt lat="49.2425" lon="1.80813">
        <ele>111.8</ele>
        <time>2022-02-20T11:17:41Z</time>
      </trkpt>
      <trkpt lat="49.24252" lon="1.80806">
        <ele>111.8</ele>
        <time>2022-02-20T11:17:45Z</time>
      </trkpt>
      <trkpt lat="49.24252" lon="1.80797">
        <ele>111.7</ele>
        <time>2022-02-20T11:17:50Z</time>
      </trkpt>
      <trkpt lat="49.24252" lon="1.8079">
        <ele>111.7</ele>
        <time>2022-02-20T11:17:54Z</time>
      </trkpt>
      <trkpt lat="49.24252" lon="1.80783">
        <ele>111.4</ele>
        <time>2022-02-20T11:17:58Z</time>
      </trkpt>
      <trkpt lat="49.24251" lon="1.80774">
        <ele>110.5</ele>
        <time>2022-02-20T11:18:03Z</time>
      </trkpt>
      <trkpt lat="49.24251" lon="1.80767">
        <ele>109.3</ele>
        <time>2022-02-20T11:18:07Z</time>
      </trkpt>
      <trkpt lat="49.24253" lon="1.80759">
        <ele>109</ele>
        <time>2022-02-20T11:18:12Z</time>
      </trkpt>
      <trkpt lat="49.24255" lon="1.80752">
        <ele>109.4</ele>
        <time>2022-02-20T11:18:15Z</time>
      </trkpt>
      <trkpt lat="49.24257" lon="1.80746">
        <ele>110.4</ele>
        <time>2022-02-20T11:18:18Z</time>
      </trkpt>
      <trkpt lat="49.24259" lon="1.80738">
        <ele>111.9</ele>
        <time>2022-02-20T11:18:23Z</time>
      </trkpt>
      <trkpt lat="49.24259" lon="1.80731">
        <ele>112.8</ele>
        <time>2022-02-20T11:18:27Z</time>
      </trkpt>
      <trkpt lat="49.2426" lon="1.80723">
        <ele>112.7</ele>
        <time>2022-02-20T11:18:32Z</time>
      </trkpt>
      <trkpt lat="49.24262" lon="1.80716">
        <ele>112.4</ele>
        <time>2022-02-20T11:18:37Z</time>
      </trkpt>
      <trkpt lat="49.24262" lon="1.80708">
        <ele>112</ele>
        <time>2022-02-20T11:18:43Z</time>
      </trkpt>
      <trkpt lat="49.24262" lon="1.80701">
        <ele>110.3</ele>
        <time>2022-02-20T11:18:48Z</time>
      </trkpt>
      <trkpt lat="49.24263" lon="1.80694">
        <ele>108.3</ele>
        <time>2022-02-20T11:18:52Z</time>
      </trkpt>
      <trkpt lat="49.24265" lon="1.80686">
        <ele>107.6</ele>
        <time>2022-02-20T11:18:58Z</time>
      </trkpt>
      <trkpt lat="49.24264" lon="1.80679">
        <ele>108.5</ele>
        <time>2022-02-20T11:19:02Z</time>
      </trkpt>
      <trkpt lat="49.24266" lon="1.80671">
        <ele>109.6</ele>
        <time>2022-02-20T11:19:06Z</time>
      </trkpt>
      <trkpt lat="49.24268" lon="1.80664">
        <ele>110.2</ele>
        <time>2022-02-20T11:19:11Z</time>
      </trkpt>
      <trkpt lat="49.24268" lon="1.80657">
        <ele>110.1</ele>
        <time>2022-02-20T11:19:15Z</time>
      </trkpt>
      <trkpt lat="49.2427" lon="1.80649">
        <ele>109.9</ele>
        <time>2022-02-20T11:19:19Z</time>
      </trkpt>
      <trkpt lat="49.24272" lon="1.80642">
        <ele>109.9</ele>
        <time>2022-02-20T11:19:24Z</time>
      </trkpt>
      <trkpt lat="49.24272" lon="1.80635">
        <ele>110.3</ele>
        <time>2022-02-20T11:19:29Z</time>
      </trkpt>
      <trkpt lat="49.24273" lon="1.80625">
        <ele>111</ele>
        <time>2022-02-20T11:19:55Z</time>
      </trkpt>
      <trkpt lat="49.24275" lon="1.80618">
        <ele>111.2</ele>
        <time>2022-02-20T11:20:00Z</time>
      </trkpt>
      <trkpt lat="49.24276" lon="1.8061">
        <ele>111.5</ele>
        <time>2022-02-20T11:20:04Z</time>
      </trkpt>
      <trkpt lat="49.24277" lon="1.80603">
        <ele>112.4</ele>
        <time>2022-02-20T11:20:09Z</time>
      </trkpt>
      <trkpt lat="49.24277" lon="1.80595">
        <ele>112.5</ele>
        <time>2022-02-20T11:20:15Z</time>
      </trkpt>
      <trkpt lat="49.24277" lon="1.80587">
        <ele>112</ele>
        <time>2022-02-20T11:20:19Z</time>
      </trkpt>
      <trkpt lat="49.24278" lon="1.80579">
        <ele>111.3</ele>
        <time>2022-02-20T11:20:23Z</time>
      </trkpt>
      <trkpt lat="49.24278" lon="1.80571">
        <ele>109.9</ele>
        <time>2022-02-20T11:20:27Z</time>
      </trkpt>
      <trkpt lat="49.2428" lon="1.80563">
        <ele>108.7</ele>
        <time>2022-02-20T11:20:32Z</time>
      </trkpt>
      <trkpt lat="49.24282" lon="1.80555">
        <ele>107.9</ele>
        <time>2022-02-20T11:20:36Z</time>
      </trkpt>
      <trkpt lat="49.24283" lon="1.80549">
        <ele>107.7</ele>
        <time>2022-02-20T11:20:39Z</time>
      </trkpt>
      <trkpt lat="49.24284" lon="1.80541">
        <ele>107.5</ele>
        <time>2022-02-20T11:20:43Z</time>
      </trkpt>
      <trkpt lat="49.24285" lon="1.80534">
        <ele>107.2</ele>
        <time>2022-02-20T11:20:47Z</time>
      </trkpt>
      <trkpt lat="49.24286" lon="1.80526">
        <ele>107.4</ele>
        <time>2022-02-20T11:20:52Z</time>
      </trkpt>
      <trkpt lat="49.24286" lon="1.80519">
        <ele>108.2</ele>
        <time>2022-02-20T11:20:56Z</time>
      </trkpt>
      <trkpt lat="49.24286" lon="1.80511">
        <ele>108.7</ele>
        <time>2022-02-20T11:21:00Z</time>
      </trkpt>
      <trkpt lat="49.24287" lon="1.80504">
        <ele>108.5</ele>
        <time>2022-02-20T11:21:04Z</time>
      </trkpt>
      <trkpt lat="49.24289" lon="1.80496">
        <ele>107.9</ele>
        <time>2022-02-20T11:21:09Z</time>
      </trkpt>
      <trkpt lat="49.24289" lon="1.80488">
        <ele>107.4</ele>
        <time>2022-02-20T11:21:14Z</time>
      </trkpt>
      <trkpt lat="49.24286" lon="1.80481">
        <ele>106.8</ele>
        <time>2022-02-20T11:21:18Z</time>
      </trkpt>
      <trkpt lat="49.24285" lon="1.80473">
        <ele>106.2</ele>
        <time>2022-02-20T11:21:22Z</time>
      </trkpt>
      <trkpt lat="49.24283" lon="1.80465">
        <ele>105.6</ele>
        <time>2022-02-20T11:21:28Z</time>
      </trkpt>
      <trkpt lat="49.24282" lon="1.80458">
        <ele>104.6</ele>
        <time>2022-02-20T11:21:32Z</time>
      </trkpt>
      <trkpt lat="49.24281" lon="1.80451">
        <ele>103</ele>
        <time>2022-02-20T11:21:36Z</time>
      </trkpt>
      <trkpt lat="49.2428" lon="1.80443">
        <ele>102.6</ele>
        <time>2022-02-20T11:21:41Z</time>
      </trkpt>
      <trkpt lat="49.24278" lon="1.80435">
        <ele>102.8</ele>
        <time>2022-02-20T11:21:46Z</time>
      </trkpt>
      <trkpt lat="49.24276" lon="1.80428">
        <ele>102.8</ele>
        <time>2022-02-20T11:21:50Z</time>
      </trkpt>
      <trkpt lat="49.24274" lon="1.80421">
        <ele>102.6</ele>
        <time>2022-02-20T11:21:55Z</time>
      </trkpt>
      <trkpt lat="49.24272" lon="1.80414">
        <ele>102.3</ele>
        <time>2022-02-20T11:21:59Z</time>
      </trkpt>
      <trkpt lat="49.24269" lon="1.80408">
        <ele>101.9</ele>
        <time>2022-02-20T11:22:04Z</time>
      </trkpt>
      <trkpt lat="49.24266" lon="1.80401">
        <ele>101.6</ele>
        <time>2022-02-20T11:22:08Z</time>
      </trkpt>
      <trkpt lat="49.24262" lon="1.80395">
        <ele>101.4</ele>
        <time>2022-02-20T11:22:13Z</time>
      </trkpt>
      <trkpt lat="49.24259" lon="1.80389">
        <ele>101.5</ele>
        <time>2022-02-20T11:22:17Z</time>
      </trkpt>
      <trkpt lat="49.24257" lon="1.80383">
        <ele>102.1</ele>
        <time>2022-02-20T11:22:21Z</time>
      </trkpt>
      <trkpt lat="49.24255" lon="1.80376">
        <ele>102.2</ele>
        <time>2022-02-20T11:22:26Z</time>
      </trkpt>
      <trkpt lat="49.24252" lon="1.8037">
        <ele>101.9</ele>
        <time>2022-02-20T11:22:30Z</time>
      </trkpt>
      <trkpt lat="49.2425" lon="1.80363">
        <ele>101.1</ele>
        <time>2022-02-20T11:22:34Z</time>
      </trkpt>
      <trkpt lat="49.24247" lon="1.80358">
        <ele>100.6</ele>
        <time>2022-02-20T11:22:38Z</time>
      </trkpt>
      <trkpt lat="49.24244" lon="1.80352">
        <ele>99.9</ele>
        <time>2022-02-20T11:22:42Z</time>
      </trkpt>
      <trkpt lat="49.24241" lon="1.80344">
        <ele>99.6</ele>
        <time>2022-02-20T11:22:46Z</time>
      </trkpt>
      <trkpt lat="49.2424" lon="1.80336">
        <ele>100.2</ele>
        <time>2022-02-20T11:22:50Z</time>
      </trkpt>
      <trkpt lat="49.24239" lon="1.80329">
        <ele>100.7</ele>
        <time>2022-02-20T11:22:54Z</time>
      </trkpt>
      <trkpt lat="49.24238" lon="1.80321">
        <ele>101</ele>
        <time>2022-02-20T11:22:59Z</time>
      </trkpt>
      <trkpt lat="49.24238" lon="1.80313">
        <ele>101.2</ele>
        <time>2022-02-20T11:23:03Z</time>
      </trkpt>
      <trkpt lat="49.24239" lon="1.80305">
        <ele>102</ele>
        <time>2022-02-20T11:23:07Z</time>
      </trkpt>
      <trkpt lat="49.24241" lon="1.80296">
        <ele>103</ele>
        <time>2022-02-20T11:23:11Z</time>
      </trkpt>
      <trkpt lat="49.24242" lon="1.80289">
        <ele>103.5</ele>
        <time>2022-02-20T11:23:14Z</time>
      </trkpt>
      <trkpt lat="49.24243" lon="1.80283">
        <ele>104</ele>
        <time>2022-02-20T11:23:17Z</time>
      </trkpt>
      <trkpt lat="49.24245" lon="1.80275">
        <ele>104.3</ele>
        <time>2022-02-20T11:23:21Z</time>
      </trkpt>
      <trkpt lat="49.24247" lon="1.80267">
        <ele>104.7</ele>
        <time>2022-02-20T11:23:25Z</time>
      </trkpt>
      <trkpt lat="49.24249" lon="1.80261">
        <ele>105.7</ele>
        <time>2022-02-20T11:23:30Z</time>
      </trkpt>
      <trkpt lat="49.2425" lon="1.80253">
        <ele>107.4</ele>
        <time>2022-02-20T11:23:35Z</time>
      </trkpt>
      <trkpt lat="49.24252" lon="1.80245">
        <ele>107.1</ele>
        <time>2022-02-20T11:23:39Z</time>
      </trkpt>
      <trkpt lat="49.24254" lon="1.80239">
        <ele>106.5</ele>
        <time>2022-02-20T11:23:43Z</time>
      </trkpt>
      <trkpt lat="49.24256" lon="1.8023">
        <ele>106.5</ele>
        <time>2022-02-20T11:23:49Z</time>
      </trkpt>
      <trkpt lat="49.24259" lon="1.80224">
        <ele>106.1</ele>
        <time>2022-02-20T11:23:53Z</time>
      </trkpt>
      <trkpt lat="49.24262" lon="1.80217">
        <ele>107.2</ele>
        <time>2022-02-20T11:23:58Z</time>
      </trkpt>
      <trkpt lat="49.24265" lon="1.8021">
        <ele>109.2</ele>
        <time>2022-02-20T11:24:01Z</time>
      </trkpt>
      <trkpt lat="49.24267" lon="1.80202">
        <ele>110.6</ele>
        <time>2022-02-20T11:24:06Z</time>
      </trkpt>
      <trkpt lat="49.24269" lon="1.80195">
        <ele>110.6</ele>
        <time>2022-02-20T11:24:10Z</time>
      </trkpt>
      <trkpt lat="49.2427" lon="1.80188">
        <ele>111.1</ele>
        <time>2022-02-20T11:24:14Z</time>
      </trkpt>
      <trkpt lat="49.24271" lon="1.80179">
        <ele>111.3</ele>
        <time>2022-02-20T11:24:18Z</time>
      </trkpt>
      <trkpt lat="49.2427" lon="1.8017">
        <ele>110.5</ele>
        <time>2022-02-20T11:24:22Z</time>
      </trkpt>
      <trkpt lat="49.2427" lon="1.80162">
        <ele>110.2</ele>
        <time>2022-02-20T11:24:27Z</time>
      </trkpt>
      <trkpt lat="49.24269" lon="1.80154">
        <ele>111.4</ele>
        <time>2022-02-20T11:24:32Z</time>
      </trkpt>
      <trkpt lat="49.24269" lon="1.80146">
        <ele>112.3</ele>
        <time>2022-02-20T11:24:37Z</time>
      </trkpt>
      <trkpt lat="49.24271" lon="1.80139">
        <ele>112.8</ele>
        <time>2022-02-20T11:24:42Z</time>
      </trkpt>
      <trkpt lat="49.24274" lon="1.80132">
        <ele>113.4</ele>
        <time>2022-02-20T11:24:50Z</time>
      </trkpt>
      <trkpt lat="49.24277" lon="1.80126">
        <ele>113.3</ele>
        <time>2022-02-20T11:24:55Z</time>
      </trkpt>
      <trkpt lat="49.24277" lon="1.80119">
        <ele>113.1</ele>
        <time>2022-02-20T11:25:00Z</time>
      </trkpt>
      <trkpt lat="49.24279" lon="1.80112">
        <ele>112.7</ele>
        <time>2022-02-20T11:25:07Z</time>
      </trkpt>
      <trkpt lat="49.2428" lon="1.80105">
        <ele>112.1</ele>
        <time>2022-02-20T11:25:12Z</time>
      </trkpt>
      <trkpt lat="49.24283" lon="1.80099">
        <ele>111.5</ele>
        <time>2022-02-20T11:25:18Z</time>
      </trkpt>
      <trkpt lat="49.24288" lon="1.80099">
        <ele>110.8</ele>
        <time>2022-02-20T11:25:25Z</time>
      </trkpt>
      <trkpt lat="49.24291" lon="1.80093">
        <ele>110.2</ele>
        <time>2022-02-20T11:25:28Z</time>
      </trkpt>
      <trkpt lat="49.24294" lon="1.80087">
        <ele>109.5</ele>
        <time>2022-02-20T11:25:33Z</time>
      </trkpt>
      <trkpt lat="49.24297" lon="1.80081">
        <ele>109.2</ele>
        <time>2022-02-20T11:25:37Z</time>
      </trkpt>
      <trkpt lat="49.24301" lon="1.80077">
        <ele>108.9</ele>
        <time>2022-02-20T11:25:42Z</time>
      </trkpt>
      <trkpt lat="49.24305" lon="1.80071">
        <ele>108.8</ele>
        <time>2022-02-20T11:25:46Z</time>
      </trkpt>
      <trkpt lat="49.24308" lon="1.80065">
        <ele>110.2</ele>
        <time>2022-02-20T11:25:51Z</time>
      </trkpt>
      <trkpt lat="49.24312" lon="1.80056">
        <ele>111.2</ele>
        <time>2022-02-20T11:25:55Z</time>
      </trkpt>
      <trkpt lat="49.24315" lon="1.80051">
        <ele>110.8</ele>
        <time>2022-02-20T11:25:59Z</time>
      </trkpt>
      <trkpt lat="49.24318" lon="1.80046">
        <ele>109.3</ele>
        <time>2022-02-20T11:26:02Z</time>
      </trkpt>
      <trkpt lat="49.24321" lon="1.8004">
        <ele>108.5</ele>
        <time>2022-02-20T11:26:05Z</time>
      </trkpt>
      <trkpt lat="49.24325" lon="1.80034">
        <ele>108.6</ele>
        <time>2022-02-20T11:26:10Z</time>
      </trkpt>
      <trkpt lat="49.24328" lon="1.80028">
        <ele>108.3</ele>
        <time>2022-02-20T11:26:15Z</time>
      </trkpt>
      <trkpt lat="49.24332" lon="1.80022">
        <ele>107.1</ele>
        <time>2022-02-20T11:26:20Z</time>
      </trkpt>
      <trkpt lat="49.24336" lon="1.80016">
        <ele>109.6</ele>
        <time>2022-02-20T11:26:26Z</time>
      </trkpt>
      <trkpt lat="49.2434" lon="1.80012">
        <ele>113</ele>
        <time>2022-02-20T11:26:30Z</time>
      </trkpt>
      <trkpt lat="49.24343" lon="1.80007">
        <ele>113.6</ele>
        <time>2022-02-20T11:26:35Z</time>
      </trkpt>
      <trkpt lat="49.24347" lon="1.80003">
        <ele>112.8</ele>
        <time>2022-02-20T11:26:38Z</time>
      </trkpt>
      <trkpt lat="49.24352" lon="1.79998">
        <ele>111.1</ele>
        <time>2022-02-20T11:26:42Z</time>
      </trkpt>
      <trkpt lat="49.24355" lon="1.79992">
        <ele>108.8</ele>
        <time>2022-02-20T11:26:47Z</time>
      </trkpt>
      <trkpt lat="49.24359" lon="1.79986">
        <ele>105.5</ele>
        <time>2022-02-20T11:26:52Z</time>
      </trkpt>
      <trkpt lat="49.24362" lon="1.7998">
        <ele>103.4</ele>
        <time>2022-02-20T11:26:56Z</time>
      </trkpt>
      <trkpt lat="49.24365" lon="1.79974">
        <ele>104.1</ele>
        <time>2022-02-20T11:27:01Z</time>
      </trkpt>
      <trkpt lat="49.2437" lon="1.7997">
        <ele>106.5</ele>
        <time>2022-02-20T11:27:05Z</time>
      </trkpt>
      <trkpt lat="49.24374" lon="1.79966">
        <ele>107.2</ele>
        <time>2022-02-20T11:27:09Z</time>
      </trkpt>
      <trkpt lat="49.24378" lon="1.79961">
        <ele>106.5</ele>
        <time>2022-02-20T11:27:15Z</time>
      </trkpt>
      <trkpt lat="49.24384" lon="1.79959">
        <ele>106.7</ele>
        <time>2022-02-20T11:27:19Z</time>
      </trkpt>
      <trkpt lat="49.24387" lon="1.79965">
        <ele>105.7</ele>
        <time>2022-02-20T11:27:24Z</time>
      </trkpt>
      <trkpt lat="49.24385" lon="1.79972">
        <ele>103.2</ele>
        <time>2022-02-20T11:27:29Z</time>
      </trkpt>
      <trkpt lat="49.24382" lon="1.79977">
        <ele>101.9</ele>
        <time>2022-02-20T11:27:32Z</time>
      </trkpt>
      <trkpt lat="49.24377" lon="1.79981">
        <ele>102.1</ele>
        <time>2022-02-20T11:27:35Z</time>
      </trkpt>
      <trkpt lat="49.24373" lon="1.79986">
        <ele>102.7</ele>
        <time>2022-02-20T11:27:38Z</time>
      </trkpt>
      <trkpt lat="49.2437" lon="1.79991">
        <ele>103.1</ele>
        <time>2022-02-20T11:27:42Z</time>
      </trkpt>
      <trkpt lat="49.24366" lon="1.79998">
        <ele>102</ele>
        <time>2022-02-20T11:27:46Z</time>
      </trkpt>
      <trkpt lat="49.24364" lon="1.80005">
        <ele>100.5</ele>
        <time>2022-02-20T11:27:50Z</time>
      </trkpt>
      <trkpt lat="49.24362" lon="1.80013">
        <ele>99.6</ele>
        <time>2022-02-20T11:27:56Z</time>
      </trkpt>
      <trkpt lat="49.24367" lon="1.80008">
        <ele>98.9</ele>
        <time>2022-02-20T11:28:00Z</time>
      </trkpt>
      <trkpt lat="49.2437" lon="1.80004">
        <ele>98</ele>
        <time>2022-02-20T11:28:04Z</time>
      </trkpt>
      <trkpt lat="49.24372" lon="1.80011">
        <ele>97.9</ele>
        <time>2022-02-20T11:28:08Z</time>
      </trkpt>
      <trkpt lat="49.24369" lon="1.80017">
        <ele>98.1</ele>
        <time>2022-02-20T11:28:13Z</time>
      </trkpt>
      <trkpt lat="49.24365" lon="1.80024">
        <ele>98.1</ele>
        <time>2022-02-20T11:28:16Z</time>
      </trkpt>
      <trkpt lat="49.24362" lon="1.80031">
        <ele>98</ele>
        <time>2022-02-20T11:28:19Z</time>
      </trkpt>
      <trkpt lat="49.2436" lon="1.80038">
        <ele>97.8</ele>
        <time>2022-02-20T11:28:23Z</time>
      </trkpt>
      <trkpt lat="49.24357" lon="1.80046">
        <ele>98.1</ele>
        <time>2022-02-20T11:28:27Z</time>
      </trkpt>
      <trkpt lat="49.24354" lon="1.80052">
        <ele>99.3</ele>
        <time>2022-02-20T11:28:32Z</time>
      </trkpt>
      <trkpt lat="49.24352" lon="1.8006">
        <ele>100.7</ele>
        <time>2022-02-20T11:28:36Z</time>
      </trkpt>
      <trkpt lat="49.2435" lon="1.80067">
        <ele>101.3</ele>
        <time>2022-02-20T11:28:41Z</time>
      </trkpt>
      <trkpt lat="49.24346" lon="1.80075">
        <ele>100.6</ele>
        <time>2022-02-20T11:28:46Z</time>
      </trkpt>
      <trkpt lat="49.24351" lon="1.80076">
        <ele>96.8</ele>
        <time>2022-02-20T11:29:02Z</time>
      </trkpt>
      <trkpt lat="49.24355" lon="1.80082">
        <ele>95.4</ele>
        <time>2022-02-20T11:29:07Z</time>
      </trkpt>
      <trkpt lat="49.24359" lon="1.80088">
        <ele>93.5</ele>
        <time>2022-02-20T11:29:12Z</time>
      </trkpt>
      <trkpt lat="49.24363" lon="1.80092">
        <ele>91.5</ele>
        <time>2022-02-20T11:29:17Z</time>
      </trkpt>
      <trkpt lat="49.24368" lon="1.80096">
        <ele>88.7</ele>
        <time>2022-02-20T11:29:22Z</time>
      </trkpt>
      <trkpt lat="49.24373" lon="1.80099">
        <ele>87.6</ele>
        <time>2022-02-20T11:29:27Z</time>
      </trkpt>
      <trkpt lat="49.24377" lon="1.80101">
        <ele>86.8</ele>
        <time>2022-02-20T11:29:31Z</time>
      </trkpt>
      <trkpt lat="49.24382" lon="1.801">
        <ele>85.6</ele>
        <time>2022-02-20T11:29:36Z</time>
      </trkpt>
      <trkpt lat="49.24387" lon="1.80102">
        <ele>83.4</ele>
        <time>2022-02-20T11:29:41Z</time>
      </trkpt>
      <trkpt lat="49.24391" lon="1.80107">
        <ele>82</ele>
        <time>2022-02-20T11:29:48Z</time>
      </trkpt>
      <trkpt lat="49.24397" lon="1.80111">
        <ele>81.6</ele>
        <time>2022-02-20T11:29:52Z</time>
      </trkpt>
      <trkpt lat="49.24401" lon="1.80116">
        <ele>81.5</ele>
        <time>2022-02-20T11:29:56Z</time>
      </trkpt>
      <trkpt lat="49.24405" lon="1.80119">
        <ele>81</ele>
        <time>2022-02-20T11:30:01Z</time>
      </trkpt>
      <trkpt lat="49.2441" lon="1.80122">
        <ele>80.5</ele>
        <time>2022-02-20T11:30:05Z</time>
      </trkpt>
      <trkpt lat="49.24413" lon="1.80126">
        <ele>80.6</ele>
        <time>2022-02-20T11:30:08Z</time>
      </trkpt>
      <trkpt lat="49.24417" lon="1.80132">
        <ele>81.2</ele>
        <time>2022-02-20T11:30:13Z</time>
      </trkpt>
      <trkpt lat="49.24421" lon="1.80137">
        <ele>81.8</ele>
        <time>2022-02-20T11:30:17Z</time>
      </trkpt>
      <trkpt lat="49.24424" lon="1.80143">
        <ele>83.6</ele>
        <time>2022-02-20T11:30:21Z</time>
      </trkpt>
      <trkpt lat="49.24428" lon="1.80148">
        <ele>86.2</ele>
        <time>2022-02-20T11:30:25Z</time>
      </trkpt>
      <trkpt lat="49.24432" lon="1.80152">
        <ele>87.7</ele>
        <time>2022-02-20T11:30:29Z</time>
      </trkpt>
      <trkpt lat="49.24437" lon="1.80156">
        <ele>88.1</ele>
        <time>2022-02-20T11:30:34Z</time>
      </trkpt>
      <trkpt lat="49.24441" lon="1.8016">
        <ele>87.9</ele>
        <time>2022-02-20T11:30:38Z</time>
      </trkpt>
      <trkpt lat="49.24445" lon="1.80162">
        <ele>87.3</ele>
        <time>2022-02-20T11:30:42Z</time>
      </trkpt>
      <trkpt lat="49.2445" lon="1.80166">
        <ele>87.2</ele>
        <time>2022-02-20T11:30:46Z</time>
      </trkpt>
      <trkpt lat="49.24454" lon="1.80169">
        <ele>87.7</ele>
        <time>2022-02-20T11:30:51Z</time>
      </trkpt>
      <trkpt lat="49.24459" lon="1.80172">
        <ele>87.6</ele>
        <time>2022-02-20T11:30:55Z</time>
      </trkpt>
      <trkpt lat="49.24463" lon="1.80176">
        <ele>86.4</ele>
        <time>2022-02-20T11:31:00Z</time>
      </trkpt>
      <trkpt lat="49.24468" lon="1.8018">
        <ele>84.8</ele>
        <time>2022-02-20T11:31:04Z</time>
      </trkpt>
      <trkpt lat="49.24472" lon="1.80184">
        <ele>82.7</ele>
        <time>2022-02-20T11:31:08Z</time>
      </trkpt>
      <trkpt lat="49.24476" lon="1.80188">
        <ele>81.9</ele>
        <time>2022-02-20T11:31:13Z</time>
      </trkpt>
      <trkpt lat="49.2448" lon="1.80193">
        <ele>82.7</ele>
        <time>2022-02-20T11:31:18Z</time>
      </trkpt>
      <trkpt lat="49.24485" lon="1.80196">
        <ele>82.9</ele>
        <time>2022-02-20T11:31:22Z</time>
      </trkpt>
      <trkpt lat="49.24489" lon="1.802">
        <ele>82.2</ele>
        <time>2022-02-20T11:31:26Z</time>
      </trkpt>
      <trkpt lat="49.24493" lon="1.80203">
        <ele>81.6</ele>
        <time>2022-02-20T11:31:30Z</time>
      </trkpt>
      <trkpt lat="49.24498" lon="1.80207">
        <ele>82.3</ele>
        <time>2022-02-20T11:31:35Z</time>
      </trkpt>
      <trkpt lat="49.24501" lon="1.80213">
        <ele>83.6</ele>
        <time>2022-02-20T11:31:38Z</time>
      </trkpt>
      <trkpt lat="49.24504" lon="1.80218">
        <ele>84.1</ele>
        <time>2022-02-20T11:31:42Z</time>
      </trkpt>
      <trkpt lat="49.24509" lon="1.80221">
        <ele>82.8</ele>
        <time>2022-02-20T11:31:46Z</time>
      </trkpt>
      <trkpt lat="49.24513" lon="1.80224">
        <ele>80.3</ele>
        <time>2022-02-20T11:31:50Z</time>
      </trkpt>
      <trkpt lat="49.24517" lon="1.80228">
        <ele>79.4</ele>
        <time>2022-02-20T11:31:54Z</time>
      </trkpt>
      <trkpt lat="49.24521" lon="1.80234">
        <ele>79.7</ele>
        <time>2022-02-20T11:31:59Z</time>
      </trkpt>
      <trkpt lat="49.24525" lon="1.80238">
        <ele>79.9</ele>
        <time>2022-02-20T11:32:03Z</time>
      </trkpt>
      <trkpt lat="49.2453" lon="1.80236">
        <ele>80.2</ele>
        <time>2022-02-20T11:32:19Z</time>
      </trkpt>
      <trkpt lat="49.24534" lon="1.80242">
        <ele>81.1</ele>
        <time>2022-02-20T11:32:24Z</time>
      </trkpt>
      <trkpt lat="49.2454" lon="1.80245">
        <ele>80.2</ele>
        <time>2022-02-20T11:32:30Z</time>
      </trkpt>
      <trkpt lat="49.24544" lon="1.80248">
        <ele>77.3</ele>
        <time>2022-02-20T11:32:35Z</time>
      </trkpt>
      <trkpt lat="49.24549" lon="1.80246">
        <ele>75.6</ele>
        <time>2022-02-20T11:32:48Z</time>
      </trkpt>
      <trkpt lat="49.24549" lon="1.80253">
        <ele>75.4</ele>
        <time>2022-02-20T11:32:55Z</time>
      </trkpt>
      <trkpt lat="49.24541" lon="1.80251">
        <ele>73.1</ele>
        <time>2022-02-20T11:32:59Z</time>
      </trkpt>
      <trkpt lat="49.24537" lon="1.8025">
        <ele>68.9</ele>
        <time>2022-02-20T11:33:04Z</time>
      </trkpt>
      <trkpt lat="49.24533" lon="1.80247">
        <ele>68.6</ele>
        <time>2022-02-20T11:33:11Z</time>
      </trkpt>
      <trkpt lat="49.24528" lon="1.80243">
        <ele>71.4</ele>
        <time>2022-02-20T11:33:20Z</time>
      </trkpt>
      <trkpt lat="49.24524" lon="1.80239">
        <ele>73.8</ele>
        <time>2022-02-20T11:33:25Z</time>
      </trkpt>
      <trkpt lat="49.24521" lon="1.80233">
        <ele>74.7</ele>
        <time>2022-02-20T11:33:31Z</time>
      </trkpt>
      <trkpt lat="49.24517" lon="1.80227">
        <ele>74.5</ele>
        <time>2022-02-20T11:33:37Z</time>
      </trkpt>
      <trkpt lat="49.24514" lon="1.80222">
        <ele>72.8</ele>
        <time>2022-02-20T11:33:43Z</time>
      </trkpt>
      <trkpt lat="49.24511" lon="1.80217">
        <ele>72.2</ele>
        <time>2022-02-20T11:33:49Z</time>
      </trkpt>
      <trkpt lat="49.24506" lon="1.80212">
        <ele>76</ele>
        <time>2022-02-20T11:33:55Z</time>
      </trkpt>
      <trkpt lat="49.24503" lon="1.80208">
        <ele>78.9</ele>
        <time>2022-02-20T11:34:00Z</time>
      </trkpt>
      <trkpt lat="49.24498" lon="1.80206">
        <ele>78.6</ele>
        <time>2022-02-20T11:34:05Z</time>
      </trkpt>
      <trkpt lat="49.24493" lon="1.80204">
        <ele>78.7</ele>
        <time>2022-02-20T11:34:11Z</time>
      </trkpt>
      <trkpt lat="49.24489" lon="1.802">
        <ele>79</ele>
        <time>2022-02-20T11:34:15Z</time>
      </trkpt>
      <trkpt lat="49.24486" lon="1.80195">
        <ele>78.8</ele>
        <time>2022-02-20T11:34:21Z</time>
      </trkpt>
      <trkpt lat="49.24482" lon="1.80189">
        <ele>79.3</ele>
        <time>2022-02-20T11:34:27Z</time>
      </trkpt>
      <trkpt lat="49.24478" lon="1.80185">
        <ele>78.8</ele>
        <time>2022-02-20T11:34:33Z</time>
      </trkpt>
      <trkpt lat="49.24473" lon="1.80183">
        <ele>78.1</ele>
        <time>2022-02-20T11:34:38Z</time>
      </trkpt>
      <trkpt lat="49.24468" lon="1.80179">
        <ele>77.7</ele>
        <time>2022-02-20T11:34:43Z</time>
      </trkpt>
      <trkpt lat="49.24464" lon="1.80176">
        <ele>78.6</ele>
        <time>2022-02-20T11:34:48Z</time>
      </trkpt>
      <trkpt lat="49.2446" lon="1.80169">
        <ele>81</ele>
        <time>2022-02-20T11:34:55Z</time>
      </trkpt>
      <trkpt lat="49.24456" lon="1.80165">
        <ele>80.9</ele>
        <time>2022-02-20T11:35:01Z</time>
      </trkpt>
      <trkpt lat="49.24452" lon="1.80161">
        <ele>80.6</ele>
        <time>2022-02-20T11:35:07Z</time>
      </trkpt>
      <trkpt lat="49.24446" lon="1.8016">
        <ele>80.7</ele>
        <time>2022-02-20T11:35:12Z</time>
      </trkpt>
      <trkpt lat="49.24442" lon="1.80157">
        <ele>81.8</ele>
        <time>2022-02-20T11:35:18Z</time>
      </trkpt>
      <trkpt lat="49.24437" lon="1.80158">
        <ele>80.1</ele>
        <time>2022-02-20T11:35:23Z</time>
      </trkpt>
      <trkpt lat="49.24433" lon="1.8016">
        <ele>76.4</ele>
        <time>2022-02-20T11:35:29Z</time>
      </trkpt>
      <trkpt lat="49.24428" lon="1.80158">
        <ele>73.6</ele>
        <time>2022-02-20T11:35:33Z</time>
      </trkpt>
      <trkpt lat="49.24423" lon="1.80158">
        <ele>70.4</ele>
        <time>2022-02-20T11:35:36Z</time>
      </trkpt>
      <trkpt lat="49.24415" lon="1.80157">
        <ele>69.3</ele>
        <time>2022-02-20T11:35:43Z</time>
      </trkpt>
      <trkpt lat="49.2441" lon="1.80152">
        <ele>70.7</ele>
        <time>2022-02-20T11:35:48Z</time>
      </trkpt>
      <trkpt lat="49.24407" lon="1.80145">
        <ele>71.5</ele>
        <time>2022-02-20T11:35:54Z</time>
      </trkpt>
      <trkpt lat="49.24403" lon="1.80142">
        <ele>73.7</ele>
        <time>2022-02-20T11:36:01Z</time>
      </trkpt>
      <trkpt lat="49.24398" lon="1.80144">
        <ele>72.2</ele>
        <time>2022-02-20T11:36:06Z</time>
      </trkpt>
      <trkpt lat="49.24392" lon="1.80144">
        <ele>69.9</ele>
        <time>2022-02-20T11:36:11Z</time>
      </trkpt>
      <trkpt lat="49.24388" lon="1.80149">
        <ele>69</ele>
        <time>2022-02-20T11:36:15Z</time>
      </trkpt>
      <trkpt lat="49.24384" lon="1.80154">
        <ele>68.9</ele>
        <time>2022-02-20T11:36:19Z</time>
      </trkpt>
      <trkpt lat="49.24379" lon="1.80158">
        <ele>68.8</ele>
        <time>2022-02-20T11:36:24Z</time>
      </trkpt>
      <trkpt lat="49.24374" lon="1.8016">
        <ele>69.2</ele>
        <time>2022-02-20T11:36:30Z</time>
      </trkpt>
      <trkpt lat="49.2437" lon="1.80156">
        <ele>69.7</ele>
        <time>2022-02-20T11:36:39Z</time>
      </trkpt>
      <trkpt lat="49.24367" lon="1.8015">
        <ele>71.4</ele>
        <time>2022-02-20T11:36:44Z</time>
      </trkpt>
      <trkpt lat="49.24365" lon="1.80142">
        <ele>71.8</ele>
        <time>2022-02-20T11:36:46Z</time>
      </trkpt>
      <trkpt lat="49.24364" lon="1.80135">
        <ele>72.2</ele>
        <time>2022-02-20T11:36:49Z</time>
      </trkpt>
      <trkpt lat="49.24363" lon="1.80125">
        <ele>73.3</ele>
        <time>2022-02-20T11:36:53Z</time>
      </trkpt>
      <trkpt lat="49.24362" lon="1.80115">
        <ele>75.7</ele>
        <time>2022-02-20T11:36:57Z</time>
      </trkpt>
      <trkpt lat="49.24362" lon="1.80107">
        <ele>77.6</ele>
        <time>2022-02-20T11:36:59Z</time>
      </trkpt>
      <trkpt lat="49.24362" lon="1.801">
        <ele>80.2</ele>
        <time>2022-02-20T11:37:03Z</time>
      </trkpt>
      <trkpt lat="49.24363" lon="1.80093">
        <ele>83.7</ele>
        <time>2022-02-20T11:37:09Z</time>
      </trkpt>
      <trkpt lat="49.2436" lon="1.80087">
        <ele>84.9</ele>
        <time>2022-02-20T11:37:14Z</time>
      </trkpt>
      <trkpt lat="49.24359" lon="1.80079">
        <ele>86</ele>
        <time>2022-02-20T11:37:23Z</time>
      </trkpt>
      <trkpt lat="49.24358" lon="1.80072">
        <ele>88</ele>
        <time>2022-02-20T11:37:36Z</time>
      </trkpt>
      <trkpt lat="49.24353" lon="1.80074">
        <ele>87.8</ele>
        <time>2022-02-20T11:47:52Z</time>
      </trkpt>
      <trkpt lat="49.24356" lon="1.80068">
        <ele>87.6</ele>
        <time>2022-02-20T12:05:17Z</time>
      </trkpt>
      <trkpt lat="49.2436" lon="1.80071">
        <ele>86.3</ele>
        <time>2022-02-20T12:06:02Z</time>
      </trkpt>
      <trkpt lat="49.24358" lon="1.80077">
        <ele>89.8</ele>
        <time>2022-02-20T12:07:22Z</time>
      </trkpt>
      <trkpt lat="49.2436" lon="1.80083">
        <ele>88.9</ele>
        <time>2022-02-20T12:07:37Z</time>
      </trkpt>
      <trkpt lat="49.24361" lon="1.8009">
        <ele>89.2</ele>
        <time>2022-02-20T12:07:43Z</time>
      </trkpt>
      <trkpt lat="49.24364" lon="1.80097">
        <ele>89.1</ele>
        <time>2022-02-20T12:07:49Z</time>
      </trkpt>
      <trkpt lat="49.24368" lon="1.801">
        <ele>87.1</ele>
        <time>2022-02-20T12:07:55Z</time>
      </trkpt>
      <trkpt lat="49.24373" lon="1.80103">
        <ele>84.4</ele>
        <time>2022-02-20T12:08:01Z</time>
      </trkpt>
      <trkpt lat="49.24378" lon="1.80104">
        <ele>82.6</ele>
        <time>2022-02-20T12:08:07Z</time>
      </trkpt>
      <trkpt lat="49.24382" lon="1.80106">
        <ele>80.9</ele>
        <time>2022-02-20T12:08:13Z</time>
      </trkpt>
      <trkpt lat="49.24387" lon="1.80108">
        <ele>79.4</ele>
        <time>2022-02-20T12:08:19Z</time>
      </trkpt>
      <trkpt lat="49.24392" lon="1.80112">
        <ele>78.5</ele>
        <time>2022-02-20T12:08:25Z</time>
      </trkpt>
      <trkpt lat="49.24397" lon="1.80115">
        <ele>78.4</ele>
        <time>2022-02-20T12:08:29Z</time>
      </trkpt>
      <trkpt lat="49.24401" lon="1.8012">
        <ele>78.7</ele>
        <time>2022-02-20T12:08:33Z</time>
      </trkpt>
      <trkpt lat="49.24406" lon="1.80123">
        <ele>78.9</ele>
        <time>2022-02-20T12:08:37Z</time>
      </trkpt>
      <trkpt lat="49.2441" lon="1.80127">
        <ele>79.4</ele>
        <time>2022-02-20T12:08:40Z</time>
      </trkpt>
      <trkpt lat="49.24415" lon="1.80131">
        <ele>79.8</ele>
        <time>2022-02-20T12:08:45Z</time>
      </trkpt>
      <trkpt lat="49.24419" lon="1.80137">
        <ele>80.9</ele>
        <time>2022-02-20T12:08:49Z</time>
      </trkpt>
      <trkpt lat="49.24422" lon="1.80144">
        <ele>83</ele>
        <time>2022-02-20T12:08:53Z</time>
      </trkpt>
      <trkpt lat="49.24427" lon="1.80148">
        <ele>84.3</ele>
        <time>2022-02-20T12:08:59Z</time>
      </trkpt>
      <trkpt lat="49.24432" lon="1.80149">
        <ele>83.8</ele>
        <time>2022-02-20T12:09:03Z</time>
      </trkpt>
      <trkpt lat="49.24437" lon="1.80152">
        <ele>83</ele>
        <time>2022-02-20T12:09:07Z</time>
      </trkpt>
      <trkpt lat="49.24441" lon="1.80155">
        <ele>83.1</ele>
        <time>2022-02-20T12:09:11Z</time>
      </trkpt>
      <trkpt lat="49.24445" lon="1.80159">
        <ele>83.3</ele>
        <time>2022-02-20T12:09:16Z</time>
      </trkpt>
      <trkpt lat="49.24449" lon="1.80164">
        <ele>83.8</ele>
        <time>2022-02-20T12:09:20Z</time>
      </trkpt>
      <trkpt lat="49.24453" lon="1.80168">
        <ele>83.8</ele>
        <time>2022-02-20T12:09:24Z</time>
      </trkpt>
      <trkpt lat="49.24457" lon="1.80173">
        <ele>83.8</ele>
        <time>2022-02-20T12:09:29Z</time>
      </trkpt>
      <trkpt lat="49.2446" lon="1.80178">
        <ele>84.3</ele>
        <time>2022-02-20T12:09:33Z</time>
      </trkpt>
      <trkpt lat="49.24464" lon="1.80181">
        <ele>85.6</ele>
        <time>2022-02-20T12:09:37Z</time>
      </trkpt>
      <trkpt lat="49.24469" lon="1.80185">
        <ele>83.5</ele>
        <time>2022-02-20T12:09:43Z</time>
      </trkpt>
      <trkpt lat="49.24474" lon="1.80188">
        <ele>81.2</ele>
        <time>2022-02-20T12:09:47Z</time>
      </trkpt>
      <trkpt lat="49.24478" lon="1.80192">
        <ele>80.4</ele>
        <time>2022-02-20T12:09:50Z</time>
      </trkpt>
      <trkpt lat="49.24483" lon="1.80197">
        <ele>80</ele>
        <time>2022-02-20T12:09:56Z</time>
      </trkpt>
      <trkpt lat="49.24487" lon="1.802">
        <ele>79.3</ele>
        <time>2022-02-20T12:10:01Z</time>
      </trkpt>
      <trkpt lat="49.24491" lon="1.80204">
        <ele>78</ele>
        <time>2022-02-20T12:10:05Z</time>
      </trkpt>
      <trkpt lat="49.24496" lon="1.80207">
        <ele>76.7</ele>
        <time>2022-02-20T12:10:09Z</time>
      </trkpt>
      <trkpt lat="49.245" lon="1.80211">
        <ele>76.2</ele>
        <time>2022-02-20T12:10:14Z</time>
      </trkpt>
      <trkpt lat="49.24504" lon="1.80216">
        <ele>74.8</ele>
        <time>2022-02-20T12:10:18Z</time>
      </trkpt>
      <trkpt lat="49.24508" lon="1.8022">
        <ele>74.1</ele>
        <time>2022-02-20T12:10:22Z</time>
      </trkpt>
      <trkpt lat="49.24513" lon="1.80223">
        <ele>75.1</ele>
        <time>2022-02-20T12:10:26Z</time>
      </trkpt>
      <trkpt lat="49.24518" lon="1.80225">
        <ele>76</ele>
        <time>2022-02-20T12:10:32Z</time>
      </trkpt>
      <trkpt lat="49.24523" lon="1.80227">
        <ele>75.7</ele>
        <time>2022-02-20T12:10:37Z</time>
      </trkpt>
      <trkpt lat="49.24527" lon="1.8023">
        <ele>75</ele>
        <time>2022-02-20T12:10:41Z</time>
      </trkpt>
      <trkpt lat="49.24531" lon="1.80234">
        <ele>75</ele>
        <time>2022-02-20T12:10:45Z</time>
      </trkpt>
      <trkpt lat="49.24535" lon="1.80238">
        <ele>75.6</ele>
        <time>2022-02-20T12:10:49Z</time>
      </trkpt>
      <trkpt lat="49.24539" lon="1.80243">
        <ele>76.6</ele>
        <time>2022-02-20T12:10:55Z</time>
      </trkpt>
      <trkpt lat="49.24544" lon="1.80249">
        <ele>77.6</ele>
        <time>2022-02-20T12:10:59Z</time>
      </trkpt>
      <trkpt lat="49.24547" lon="1.80253">
        <ele>78.3</ele>
        <time>2022-02-20T12:11:02Z</time>
      </trkpt>
      <trkpt lat="49.24551" lon="1.80257">
        <ele>78.5</ele>
        <time>2022-02-20T12:11:05Z</time>
      </trkpt>
      <trkpt lat="49.24555" lon="1.80262">
        <ele>79.1</ele>
        <time>2022-02-20T12:11:09Z</time>
      </trkpt>
      <trkpt lat="49.2456" lon="1.80267">
        <ele>79.2</ele>
        <time>2022-02-20T12:11:13Z</time>
      </trkpt>
      <trkpt lat="49.24565" lon="1.8027">
        <ele>79.3</ele>
        <time>2022-02-20T12:11:18Z</time>
      </trkpt>
      <trkpt lat="49.24569" lon="1.80273">
        <ele>78.7</ele>
        <time>2022-02-20T12:11:22Z</time>
      </trkpt>
      <trkpt lat="49.24574" lon="1.80278">
        <ele>77.8</ele>
        <time>2022-02-20T12:11:26Z</time>
      </trkpt>
      <trkpt lat="49.24578" lon="1.80282">
        <ele>77.4</ele>
        <time>2022-02-20T12:11:30Z</time>
      </trkpt>
      <trkpt lat="49.24582" lon="1.80285">
        <ele>77.3</ele>
        <time>2022-02-20T12:11:34Z</time>
      </trkpt>
      <trkpt lat="49.24586" lon="1.80288">
        <ele>77.2</ele>
        <time>2022-02-20T12:11:38Z</time>
      </trkpt>
      <trkpt lat="49.2459" lon="1.80291">
        <ele>76.4</ele>
        <time>2022-02-20T12:11:43Z</time>
      </trkpt>
      <trkpt lat="49.24595" lon="1.80293">
        <ele>75.6</ele>
        <time>2022-02-20T12:11:47Z</time>
      </trkpt>
      <trkpt lat="49.246" lon="1.80297">
        <ele>75</ele>
        <time>2022-02-20T12:11:51Z</time>
      </trkpt>
      <trkpt lat="49.24604" lon="1.80302">
        <ele>75.6</ele>
        <time>2022-02-20T12:11:55Z</time>
      </trkpt>
      <trkpt lat="49.24607" lon="1.80307">
        <ele>76.3</ele>
        <time>2022-02-20T12:11:59Z</time>
      </trkpt>
      <trkpt lat="49.24612" lon="1.80313">
        <ele>76.1</ele>
        <time>2022-02-20T12:12:05Z</time>
      </trkpt>
      <trkpt lat="49.24616" lon="1.80316">
        <ele>76.3</ele>
        <time>2022-02-20T12:12:09Z</time>
      </trkpt>
      <trkpt lat="49.2462" lon="1.80319">
        <ele>77</ele>
        <time>2022-02-20T12:12:13Z</time>
      </trkpt>
      <trkpt lat="49.24625" lon="1.80324">
        <ele>77.6</ele>
        <time>2022-02-20T12:12:17Z</time>
      </trkpt>
      <trkpt lat="49.2463" lon="1.80328">
        <ele>77.2</ele>
        <time>2022-02-20T12:12:22Z</time>
      </trkpt>
      <trkpt lat="49.24634" lon="1.80331">
        <ele>76.4</ele>
        <time>2022-02-20T12:12:26Z</time>
      </trkpt>
      <trkpt lat="49.24639" lon="1.80335">
        <ele>75.5</ele>
        <time>2022-02-20T12:12:30Z</time>
      </trkpt>
      <trkpt lat="49.24643" lon="1.80338">
        <ele>75.2</ele>
        <time>2022-02-20T12:12:35Z</time>
      </trkpt>
      <trkpt lat="49.24648" lon="1.80342">
        <ele>74.9</ele>
        <time>2022-02-20T12:12:39Z</time>
      </trkpt>
      <trkpt lat="49.24652" lon="1.80346">
        <ele>73.7</ele>
        <time>2022-02-20T12:12:43Z</time>
      </trkpt>
      <trkpt lat="49.24655" lon="1.8035">
        <ele>72.7</ele>
        <time>2022-02-20T12:12:47Z</time>
      </trkpt>
      <trkpt lat="49.2466" lon="1.80353">
        <ele>72.9</ele>
        <time>2022-02-20T12:12:51Z</time>
      </trkpt>
      <trkpt lat="49.24664" lon="1.80355">
        <ele>73.2</ele>
        <time>2022-02-20T12:12:56Z</time>
      </trkpt>
      <trkpt lat="49.24669" lon="1.80359">
        <ele>72.5</ele>
        <time>2022-02-20T12:13:00Z</time>
      </trkpt>
      <trkpt lat="49.24674" lon="1.80363">
        <ele>71.7</ele>
        <time>2022-02-20T12:13:04Z</time>
      </trkpt>
      <trkpt lat="49.24678" lon="1.80368">
        <ele>70.9</ele>
        <time>2022-02-20T12:13:09Z</time>
      </trkpt>
      <trkpt lat="49.24682" lon="1.80373">
        <ele>70.7</ele>
        <time>2022-02-20T12:13:14Z</time>
      </trkpt>
      <trkpt lat="49.24686" lon="1.80377">
        <ele>70.9</ele>
        <time>2022-02-20T12:13:18Z</time>
      </trkpt>
      <trkpt lat="49.2469" lon="1.80381">
        <ele>71.2</ele>
        <time>2022-02-20T12:13:22Z</time>
      </trkpt>
      <trkpt lat="49.24693" lon="1.80385">
        <ele>70.6</ele>
        <time>2022-02-20T12:13:26Z</time>
      </trkpt>
      <trkpt lat="49.24698" lon="1.80388">
        <ele>69.5</ele>
        <time>2022-02-20T12:13:30Z</time>
      </trkpt>
      <trkpt lat="49.24702" lon="1.80391">
        <ele>69.1</ele>
        <time>2022-02-20T12:13:35Z</time>
      </trkpt>
      <trkpt lat="49.24706" lon="1.80397">
        <ele>68.1</ele>
        <time>2022-02-20T12:13:39Z</time>
      </trkpt>
      <trkpt lat="49.24709" lon="1.80403">
        <ele>66</ele>
        <time>2022-02-20T12:13:43Z</time>
      </trkpt>
      <trkpt lat="49.24713" lon="1.80407">
        <ele>64</ele>
        <time>2022-02-20T12:13:47Z</time>
      </trkpt>
      <trkpt lat="49.24717" lon="1.80411">
        <ele>63.1</ele>
        <time>2022-02-20T12:13:52Z</time>
      </trkpt>
      <trkpt lat="49.24722" lon="1.80415">
        <ele>62.7</ele>
        <time>2022-02-20T12:13:56Z</time>
      </trkpt>
      <trkpt lat="49.24727" lon="1.80417">
        <ele>62.7</ele>
        <time>2022-02-20T12:14:00Z</time>
      </trkpt>
      <trkpt lat="49.24732" lon="1.80421">
        <ele>63</ele>
        <time>2022-02-20T12:14:05Z</time>
      </trkpt>
      <trkpt lat="49.24736" lon="1.80424">
        <ele>63.3</ele>
        <time>2022-02-20T12:14:09Z</time>
      </trkpt>
      <trkpt lat="49.24741" lon="1.80428">
        <ele>63.3</ele>
        <time>2022-02-20T12:14:13Z</time>
      </trkpt>
      <trkpt lat="49.24745" lon="1.80432">
        <ele>63.3</ele>
        <time>2022-02-20T12:14:17Z</time>
      </trkpt>
      <trkpt lat="49.2475" lon="1.80436">
        <ele>63.2</ele>
        <time>2022-02-20T12:14:21Z</time>
      </trkpt>
      <trkpt lat="49.24754" lon="1.8044">
        <ele>63.1</ele>
        <time>2022-02-20T12:14:26Z</time>
      </trkpt>
      <trkpt lat="49.2476" lon="1.80444">
        <ele>62.8</ele>
        <time>2022-02-20T12:14:30Z</time>
      </trkpt>
      <trkpt lat="49.24764" lon="1.80447">
        <ele>62.4</ele>
        <time>2022-02-20T12:14:34Z</time>
      </trkpt>
      <trkpt lat="49.24768" lon="1.8045">
        <ele>61.9</ele>
        <time>2022-02-20T12:14:37Z</time>
      </trkpt>
      <trkpt lat="49.24773" lon="1.80455">
        <ele>61.5</ele>
        <time>2022-02-20T12:14:41Z</time>
      </trkpt>
      <trkpt lat="49.24777" lon="1.80459">
        <ele>61.2</ele>
        <time>2022-02-20T12:14:45Z</time>
      </trkpt>
      <trkpt lat="49.24781" lon="1.80463">
        <ele>60.9</ele>
        <time>2022-02-20T12:14:49Z</time>
      </trkpt>
      <trkpt lat="49.24786" lon="1.80467">
        <ele>60.8</ele>
        <time>2022-02-20T12:14:54Z</time>
      </trkpt>
      <trkpt lat="49.2479" lon="1.8047">
        <ele>60.6</ele>
        <time>2022-02-20T12:14:58Z</time>
      </trkpt>
      <trkpt lat="49.24795" lon="1.80474">
        <ele>60.4</ele>
        <time>2022-02-20T12:15:02Z</time>
      </trkpt>
      <trkpt lat="49.24799" lon="1.80477">
        <ele>60.5</ele>
        <time>2022-02-20T12:15:06Z</time>
      </trkpt>
      <trkpt lat="49.24804" lon="1.80481">
        <ele>60.7</ele>
        <time>2022-02-20T12:15:10Z</time>
      </trkpt>
      <trkpt lat="49.24809" lon="1.80486">
        <ele>60.8</ele>
        <time>2022-02-20T12:15:15Z</time>
      </trkpt>
      <trkpt lat="49.24813" lon="1.8049">
        <ele>60.8</ele>
        <time>2022-02-20T12:15:19Z</time>
      </trkpt>
      <trkpt lat="49.24817" lon="1.80494">
        <ele>60.9</ele>
        <time>2022-02-20T12:15:23Z</time>
      </trkpt>
      <trkpt lat="49.24822" lon="1.80499">
        <ele>60.9</ele>
        <time>2022-02-20T12:15:27Z</time>
      </trkpt>
      <trkpt lat="49.24826" lon="1.80503">
        <ele>60.7</ele>
        <time>2022-02-20T12:15:31Z</time>
      </trkpt>
      <trkpt lat="49.2483" lon="1.80507">
        <ele>60.4</ele>
        <time>2022-02-20T12:15:35Z</time>
      </trkpt>
      <trkpt lat="49.24835" lon="1.80511">
        <ele>59.9</ele>
        <time>2022-02-20T12:15:39Z</time>
      </trkpt>
      <trkpt lat="49.24839" lon="1.80516">
        <ele>59.6</ele>
        <time>2022-02-20T12:15:44Z</time>
      </trkpt>
      <trkpt lat="49.24844" lon="1.80519">
        <ele>59.5</ele>
        <time>2022-02-20T12:15:48Z</time>
      </trkpt>
      <trkpt lat="49.24849" lon="1.80523">
        <ele>59.4</ele>
        <time>2022-02-20T12:15:52Z</time>
      </trkpt>
      <trkpt lat="49.24853" lon="1.80528">
        <ele>59.2</ele>
        <time>2022-02-20T12:15:56Z</time>
      </trkpt>
      <trkpt lat="49.24857" lon="1.80532">
        <ele>59.2</ele>
        <time>2022-02-20T12:16:00Z</time>
      </trkpt>
      <trkpt lat="49.24862" lon="1.80535">
        <ele>59.2</ele>
        <time>2022-02-20T12:16:04Z</time>
      </trkpt>
      <trkpt lat="49.24867" lon="1.80539">
        <ele>58.9</ele>
        <time>2022-02-20T12:16:08Z</time>
      </trkpt>
      <trkpt lat="49.24872" lon="1.80541">
        <ele>58.4</ele>
        <time>2022-02-20T12:16:13Z</time>
      </trkpt>
      <trkpt lat="49.24878" lon="1.80544">
        <ele>58</ele>
        <time>2022-02-20T12:16:17Z</time>
      </trkpt>
      <trkpt lat="49.24882" lon="1.80549">
        <ele>57.9</ele>
        <time>2022-02-20T12:16:21Z</time>
      </trkpt>
      <trkpt lat="49.24886" lon="1.80554">
        <ele>58.2</ele>
        <time>2022-02-20T12:16:25Z</time>
      </trkpt>
      <trkpt lat="49.2489" lon="1.80558">
        <ele>58.2</ele>
        <time>2022-02-20T12:16:29Z</time>
      </trkpt>
      <trkpt lat="49.24894" lon="1.80564">
        <ele>58.3</ele>
        <time>2022-02-20T12:16:33Z</time>
      </trkpt>
      <trkpt lat="49.24898" lon="1.80568">
        <ele>58.5</ele>
        <time>2022-02-20T12:16:37Z</time>
      </trkpt>
      <trkpt lat="49.24902" lon="1.80572">
        <ele>58.8</ele>
        <time>2022-02-20T12:16:41Z</time>
      </trkpt>
      <trkpt lat="49.24906" lon="1.80576">
        <ele>58.9</ele>
        <time>2022-02-20T12:16:45Z</time>
      </trkpt>
      <trkpt lat="49.2491" lon="1.8058">
        <ele>58.6</ele>
        <time>2022-02-20T12:16:49Z</time>
      </trkpt>
      <trkpt lat="49.24914" lon="1.80583">
        <ele>58</ele>
        <time>2022-02-20T12:16:53Z</time>
      </trkpt>
      <trkpt lat="49.2492" lon="1.80588">
        <ele>57.4</ele>
        <time>2022-02-20T12:16:58Z</time>
      </trkpt>
      <trkpt lat="49.24924" lon="1.80591">
        <ele>56.8</ele>
        <time>2022-02-20T12:17:02Z</time>
      </trkpt>
      <trkpt lat="49.24928" lon="1.80595">
        <ele>56.2</ele>
        <time>2022-02-20T12:17:06Z</time>
      </trkpt>
      <trkpt lat="49.24932" lon="1.80599">
        <ele>56</ele>
        <time>2022-02-20T12:17:10Z</time>
      </trkpt>
      <trkpt lat="49.24937" lon="1.80603">
        <ele>56</ele>
        <time>2022-02-20T12:17:14Z</time>
      </trkpt>
      <trkpt lat="49.24942" lon="1.80606">
        <ele>56.3</ele>
        <time>2022-02-20T12:17:18Z</time>
      </trkpt>
      <trkpt lat="49.24946" lon="1.8061">
        <ele>56.7</ele>
        <time>2022-02-20T12:17:22Z</time>
      </trkpt>
      <trkpt lat="49.24951" lon="1.80614">
        <ele>56.8</ele>
        <time>2022-02-20T12:17:26Z</time>
      </trkpt>
      <trkpt lat="49.24955" lon="1.80618">
        <ele>56.5</ele>
        <time>2022-02-20T12:17:30Z</time>
      </trkpt>
      <trkpt lat="49.2496" lon="1.80622">
        <ele>55.9</ele>
        <time>2022-02-20T12:17:34Z</time>
      </trkpt>
      <trkpt lat="49.24964" lon="1.80626">
        <ele>55.4</ele>
        <time>2022-02-20T12:17:39Z</time>
      </trkpt>
      <trkpt lat="49.24969" lon="1.80629">
        <ele>54.8</ele>
        <time>2022-02-20T12:17:43Z</time>
      </trkpt>
      <trkpt lat="49.24973" lon="1.80632">
        <ele>54.3</ele>
        <time>2022-02-20T12:17:47Z</time>
      </trkpt>
      <trkpt lat="49.24979" lon="1.80636">
        <ele>54</ele>
        <time>2022-02-20T12:17:51Z</time>
      </trkpt>
      <trkpt lat="49.24983" lon="1.80641">
        <ele>54</ele>
        <time>2022-02-20T12:17:56Z</time>
      </trkpt>
      <trkpt lat="49.24987" lon="1.80646">
        <ele>54.4</ele>
        <time>2022-02-20T12:18:00Z</time>
      </trkpt>
      <trkpt lat="49.24992" lon="1.8065">
        <ele>54.7</ele>
        <time>2022-02-20T12:18:04Z</time>
      </trkpt>
      <trkpt lat="49.24996" lon="1.80654">
        <ele>54.7</ele>
        <time>2022-02-20T12:18:08Z</time>
      </trkpt>
      <trkpt lat="49.25" lon="1.80658">
        <ele>54.6</ele>
        <time>2022-02-20T12:18:12Z</time>
      </trkpt>
      <trkpt lat="49.25006" lon="1.80661">
        <ele>54.2</ele>
        <time>2022-02-20T12:18:17Z</time>
      </trkpt>
      <trkpt lat="49.2501" lon="1.80664">
        <ele>54</ele>
        <time>2022-02-20T12:18:21Z</time>
      </trkpt>
      <trkpt lat="49.25015" lon="1.80667">
        <ele>54</ele>
        <time>2022-02-20T12:18:26Z</time>
      </trkpt>
      <trkpt lat="49.25019" lon="1.80673">
        <ele>54.4</ele>
        <time>2022-02-20T12:18:30Z</time>
      </trkpt>
      <trkpt lat="49.25023" lon="1.80679">
        <ele>55</ele>
        <time>2022-02-20T12:18:34Z</time>
      </trkpt>
      <trkpt lat="49.25028" lon="1.80684">
        <ele>55.1</ele>
        <time>2022-02-20T12:18:38Z</time>
      </trkpt>
      <trkpt lat="49.25032" lon="1.80688">
        <ele>55</ele>
        <time>2022-02-20T12:18:41Z</time>
      </trkpt>
      <trkpt lat="49.25037" lon="1.80692">
        <ele>54.7</ele>
        <time>2022-02-20T12:18:46Z</time>
      </trkpt>
      <trkpt lat="49.25041" lon="1.80696">
        <ele>54.5</ele>
        <time>2022-02-20T12:18:50Z</time>
      </trkpt>
      <trkpt lat="49.25046" lon="1.807">
        <ele>54.3</ele>
        <time>2022-02-20T12:18:54Z</time>
      </trkpt>
      <trkpt lat="49.2505" lon="1.80703">
        <ele>54.1</ele>
        <time>2022-02-20T12:18:58Z</time>
      </trkpt>
      <trkpt lat="49.25055" lon="1.80706">
        <ele>53.9</ele>
        <time>2022-02-20T12:19:02Z</time>
      </trkpt>
      <trkpt lat="49.25059" lon="1.8071">
        <ele>53.6</ele>
        <time>2022-02-20T12:19:06Z</time>
      </trkpt>
      <trkpt lat="49.25064" lon="1.80714">
        <ele>53.4</ele>
        <time>2022-02-20T12:19:10Z</time>
      </trkpt>
      <trkpt lat="49.25068" lon="1.8072">
        <ele>53.3</ele>
        <time>2022-02-20T12:19:14Z</time>
      </trkpt>
      <trkpt lat="49.25072" lon="1.80725">
        <ele>53</ele>
        <time>2022-02-20T12:19:18Z</time>
      </trkpt>
      <trkpt lat="49.25076" lon="1.80729">
        <ele>52.9</ele>
        <time>2022-02-20T12:19:22Z</time>
      </trkpt>
      <trkpt lat="49.2508" lon="1.80734">
        <ele>53.2</ele>
        <time>2022-02-20T12:19:26Z</time>
      </trkpt>
      <trkpt lat="49.25084" lon="1.80738">
        <ele>53.4</ele>
        <time>2022-02-20T12:19:31Z</time>
      </trkpt>
      <trkpt lat="49.25089" lon="1.80743">
        <ele>54.4</ele>
        <time>2022-02-20T12:19:36Z</time>
      </trkpt>
      <trkpt lat="49.25095" lon="1.80748">
        <ele>55.7</ele>
        <time>2022-02-20T12:19:41Z</time>
      </trkpt>
      <trkpt lat="49.25101" lon="1.80752">
        <ele>56.5</ele>
        <time>2022-02-20T12:19:46Z</time>
      </trkpt>
      <trkpt lat="49.25105" lon="1.80757">
        <ele>57.5</ele>
        <time>2022-02-20T12:19:50Z</time>
      </trkpt>
      <trkpt lat="49.2511" lon="1.8076">
        <ele>57.5</ele>
        <time>2022-02-20T12:19:54Z</time>
      </trkpt>
      <trkpt lat="49.25115" lon="1.80763">
        <ele>56.4</ele>
        <time>2022-02-20T12:19:58Z</time>
      </trkpt>
      <trkpt lat="49.25119" lon="1.80766">
        <ele>55.3</ele>
        <time>2022-02-20T12:20:02Z</time>
      </trkpt>
      <trkpt lat="49.25123" lon="1.8077">
        <ele>54.9</ele>
        <time>2022-02-20T12:20:06Z</time>
      </trkpt>
      <trkpt lat="49.25127" lon="1.80775">
        <ele>54.3</ele>
        <time>2022-02-20T12:20:11Z</time>
      </trkpt>
      <trkpt lat="49.25131" lon="1.8078">
        <ele>53.5</ele>
        <time>2022-02-20T12:20:15Z</time>
      </trkpt>
      <trkpt lat="49.25134" lon="1.80785">
        <ele>52.6</ele>
        <time>2022-02-20T12:20:19Z</time>
      </trkpt>
      <trkpt lat="49.25139" lon="1.80789">
        <ele>52.3</ele>
        <time>2022-02-20T12:20:23Z</time>
      </trkpt>
      <trkpt lat="49.25143" lon="1.80793">
        <ele>52.3</ele>
        <time>2022-02-20T12:20:27Z</time>
      </trkpt>
      <trkpt lat="49.25147" lon="1.80797">
        <ele>52.5</ele>
        <time>2022-02-20T12:20:30Z</time>
      </trkpt>
      <trkpt lat="49.25152" lon="1.80802">
        <ele>52.7</ele>
        <time>2022-02-20T12:20:35Z</time>
      </trkpt>
      <trkpt lat="49.25157" lon="1.80806">
        <ele>52.8</ele>
        <time>2022-02-20T12:20:39Z</time>
      </trkpt>
      <trkpt lat="49.25161" lon="1.8081">
        <ele>52.4</ele>
        <time>2022-02-20T12:20:44Z</time>
      </trkpt>
      <trkpt lat="49.25165" lon="1.80815">
        <ele>52.4</ele>
        <time>2022-02-20T12:20:47Z</time>
      </trkpt>
      <trkpt lat="49.25169" lon="1.80819">
        <ele>53.6</ele>
        <time>2022-02-20T12:20:53Z</time>
      </trkpt>
      <trkpt lat="49.25174" lon="1.80816">
        <ele>54.9</ele>
        <time>2022-02-20T12:20:58Z</time>
      </trkpt>
      <trkpt lat="49.25176" lon="1.80809">
        <ele>54.9</ele>
        <time>2022-02-20T12:21:01Z</time>
      </trkpt>
      <trkpt lat="49.25177" lon="1.80802">
        <ele>54.8</ele>
        <time>2022-02-20T12:21:04Z</time>
      </trkpt>
      <trkpt lat="49.25179" lon="1.80794">
        <ele>54.2</ele>
        <time>2022-02-20T12:21:09Z</time>
      </trkpt>
      <trkpt lat="49.25182" lon="1.80787">
        <ele>54.1</ele>
        <time>2022-02-20T12:21:13Z</time>
      </trkpt>
      <trkpt lat="49.25186" lon="1.80781">
        <ele>53.9</ele>
        <time>2022-02-20T12:21:17Z</time>
      </trkpt>
      <trkpt lat="49.25189" lon="1.80774">
        <ele>53.1</ele>
        <time>2022-02-20T12:21:23Z</time>
      </trkpt>
      <trkpt lat="49.25192" lon="1.80769">
        <ele>52.2</ele>
        <time>2022-02-20T12:21:27Z</time>
      </trkpt>
      <trkpt lat="49.25195" lon="1.80764">
        <ele>52</ele>
        <time>2022-02-20T12:21:31Z</time>
      </trkpt>
      <trkpt lat="49.25199" lon="1.80759">
        <ele>52</ele>
        <time>2022-02-20T12:21:36Z</time>
      </trkpt>
      <trkpt lat="49.25202" lon="1.80754">
        <ele>52.4</ele>
        <time>2022-02-20T12:21:40Z</time>
      </trkpt>
      <trkpt lat="49.25206" lon="1.80748">
        <ele>52.8</ele>
        <time>2022-02-20T12:21:46Z</time>
      </trkpt>
      <trkpt lat="49.2521" lon="1.80744">
        <ele>52.5</ele>
        <time>2022-02-20T12:21:51Z</time>
      </trkpt>
      <trkpt lat="49.25214" lon="1.80739">
        <ele>52</ele>
        <time>2022-02-20T12:21:55Z</time>
      </trkpt>
      <trkpt lat="49.25218" lon="1.80733">
        <ele>51.6</ele>
        <time>2022-02-20T12:21:59Z</time>
      </trkpt>
      <trkpt lat="49.25221" lon="1.80728">
        <ele>51.2</ele>
        <time>2022-02-20T12:22:03Z</time>
      </trkpt>
      <trkpt lat="49.25224" lon="1.80724">
        <ele>50.6</ele>
        <time>2022-02-20T12:22:07Z</time>
      </trkpt>
      <trkpt lat="49.25228" lon="1.80718">
        <ele>50.3</ele>
        <time>2022-02-20T12:22:11Z</time>
      </trkpt>
      <trkpt lat="49.25231" lon="1.80713">
        <ele>50.2</ele>
        <time>2022-02-20T12:22:16Z</time>
      </trkpt>
      <trkpt lat="49.25235" lon="1.80708">
        <ele>50.3</ele>
        <time>2022-02-20T12:22:20Z</time>
      </trkpt>
      <trkpt lat="49.25238" lon="1.80703">
        <ele>50.4</ele>
        <time>2022-02-20T12:22:24Z</time>
      </trkpt>
      <trkpt lat="49.25241" lon="1.80697">
        <ele>50.5</ele>
        <time>2022-02-20T12:22:28Z</time>
      </trkpt>
      <trkpt lat="49.25246" lon="1.80692">
        <ele>50.4</ele>
        <time>2022-02-20T12:22:32Z</time>
      </trkpt>
      <trkpt lat="49.2525" lon="1.80688">
        <ele>50.3</ele>
        <time>2022-02-20T12:22:36Z</time>
      </trkpt>
      <trkpt lat="49.25254" lon="1.80683">
        <ele>50.8</ele>
        <time>2022-02-20T12:22:40Z</time>
      </trkpt>
      <trkpt lat="49.25259" lon="1.80677">
        <ele>52.1</ele>
        <time>2022-02-20T12:22:45Z</time>
      </trkpt>
      <trkpt lat="49.25264" lon="1.80671">
        <ele>53.3</ele>
        <time>2022-02-20T12:22:49Z</time>
      </trkpt>
      <trkpt lat="49.25269" lon="1.80665">
        <ele>53.9</ele>
        <time>2022-02-20T12:22:54Z</time>
      </trkpt>
      <trkpt lat="49.25273" lon="1.80661">
        <ele>54.7</ele>
        <time>2022-02-20T12:22:58Z</time>
      </trkpt>
      <trkpt lat="49.25276" lon="1.80656">
        <ele>55.2</ele>
        <time>2022-02-20T12:23:02Z</time>
      </trkpt>
      <trkpt lat="49.2528" lon="1.80651">
        <ele>55.3</ele>
        <time>2022-02-20T12:23:05Z</time>
      </trkpt>
      <trkpt lat="49.25284" lon="1.80646">
        <ele>55.2</ele>
        <time>2022-02-20T12:23:10Z</time>
      </trkpt>
      <trkpt lat="49.25288" lon="1.80641">
        <ele>55.1</ele>
        <time>2022-02-20T12:23:14Z</time>
      </trkpt>
      <trkpt lat="49.25293" lon="1.80636">
        <ele>55.1</ele>
        <time>2022-02-20T12:23:18Z</time>
      </trkpt>
      <trkpt lat="49.25297" lon="1.80633">
        <ele>55.2</ele>
        <time>2022-02-20T12:23:22Z</time>
      </trkpt>
      <trkpt lat="49.25302" lon="1.80629">
        <ele>55.6</ele>
        <time>2022-02-20T12:23:26Z</time>
      </trkpt>
      <trkpt lat="49.25306" lon="1.80625">
        <ele>56.1</ele>
        <time>2022-02-20T12:23:31Z</time>
      </trkpt>
      <trkpt lat="49.25311" lon="1.8062">
        <ele>56.1</ele>
        <time>2022-02-20T12:23:35Z</time>
      </trkpt>
      <trkpt lat="49.25315" lon="1.80616">
        <ele>55.3</ele>
        <time>2022-02-20T12:23:40Z</time>
      </trkpt>
      <trkpt lat="49.2532" lon="1.80612">
        <ele>54</ele>
        <time>2022-02-20T12:23:46Z</time>
      </trkpt>
      <trkpt lat="49.25324" lon="1.80608">
        <ele>52.9</ele>
        <time>2022-02-20T12:23:51Z</time>
      </trkpt>
      <trkpt lat="49.25328" lon="1.80604">
        <ele>52.3</ele>
        <time>2022-02-20T12:23:55Z</time>
      </trkpt>
      <trkpt lat="49.25332" lon="1.80601">
        <ele>51.7</ele>
        <time>2022-02-20T12:23:59Z</time>
      </trkpt>
      <trkpt lat="49.25337" lon="1.80598">
        <ele>51.6</ele>
        <time>2022-02-20T12:24:04Z</time>
      </trkpt>
      <trkpt lat="49.25343" lon="1.80595">
        <ele>51.9</ele>
        <time>2022-02-20T12:24:08Z</time>
      </trkpt>
      <trkpt lat="49.25348" lon="1.80592">
        <ele>52.4</ele>
        <time>2022-02-20T12:24:12Z</time>
      </trkpt>
      <trkpt lat="49.25354" lon="1.80592">
        <ele>52.7</ele>
        <time>2022-02-20T12:24:17Z</time>
      </trkpt>
      <trkpt lat="49.25358" lon="1.80589">
        <ele>53.1</ele>
        <time>2022-02-20T12:24:21Z</time>
      </trkpt>
      <trkpt lat="49.25363" lon="1.80587">
        <ele>53.5</ele>
        <time>2022-02-20T12:24:25Z</time>
      </trkpt>
      <trkpt lat="49.25367" lon="1.80583">
        <ele>53.7</ele>
        <time>2022-02-20T12:24:29Z</time>
      </trkpt>
      <trkpt lat="49.25371" lon="1.80579">
        <ele>53.7</ele>
        <time>2022-02-20T12:24:34Z</time>
      </trkpt>
      <trkpt lat="49.25375" lon="1.80575">
        <ele>53.7</ele>
        <time>2022-02-20T12:24:38Z</time>
      </trkpt>
      <trkpt lat="49.25379" lon="1.80572">
        <ele>53.6</ele>
        <time>2022-02-20T12:24:42Z</time>
      </trkpt>
      <trkpt lat="49.25384" lon="1.80569">
        <ele>53.5</ele>
        <time>2022-02-20T12:24:46Z</time>
      </trkpt>
      <trkpt lat="49.25389" lon="1.80566">
        <ele>53</ele>
        <time>2022-02-20T12:24:51Z</time>
      </trkpt>
      <trkpt lat="49.25393" lon="1.80564">
        <ele>52.6</ele>
        <time>2022-02-20T12:24:55Z</time>
      </trkpt>
      <trkpt lat="49.25398" lon="1.80561">
        <ele>52.3</ele>
        <time>2022-02-20T12:25:00Z</time>
      </trkpt>
      <trkpt lat="49.25404" lon="1.80559">
        <ele>52.5</ele>
        <time>2022-02-20T12:25:05Z</time>
      </trkpt>
      <trkpt lat="49.25408" lon="1.80556">
        <ele>52.7</ele>
        <time>2022-02-20T12:25:09Z</time>
      </trkpt>
      <trkpt lat="49.25411" lon="1.8055">
        <ele>52.7</ele>
        <time>2022-02-20T12:25:13Z</time>
      </trkpt>
      <trkpt lat="49.25415" lon="1.80546">
        <ele>52.8</ele>
        <time>2022-02-20T12:25:16Z</time>
      </trkpt>
      <trkpt lat="49.25421" lon="1.80544">
        <ele>53</ele>
        <time>2022-02-20T12:25:22Z</time>
      </trkpt>
      <trkpt lat="49.25425" lon="1.80543">
        <ele>53</ele>
        <time>2022-02-20T12:25:26Z</time>
      </trkpt>
      <trkpt lat="49.2543" lon="1.80541">
        <ele>52.7</ele>
        <time>2022-02-20T12:25:30Z</time>
      </trkpt>
      <trkpt lat="49.25436" lon="1.80538">
        <ele>52.6</ele>
        <time>2022-02-20T12:25:34Z</time>
      </trkpt>
      <trkpt lat="49.2544" lon="1.80535">
        <ele>52.7</ele>
        <time>2022-02-20T12:25:38Z</time>
      </trkpt>
      <trkpt lat="49.25444" lon="1.80531">
        <ele>52.8</ele>
        <time>2022-02-20T12:25:43Z</time>
      </trkpt>
      <trkpt lat="49.25448" lon="1.80528">
        <ele>52.8</ele>
        <time>2022-02-20T12:25:47Z</time>
      </trkpt>
      <trkpt lat="49.25453" lon="1.80525">
        <ele>52.8</ele>
        <time>2022-02-20T12:25:51Z</time>
      </trkpt>
      <trkpt lat="49.25458" lon="1.80522">
        <ele>52.8</ele>
        <time>2022-02-20T12:25:56Z</time>
      </trkpt>
      <trkpt lat="49.25463" lon="1.80519">
        <ele>52.4</ele>
        <time>2022-02-20T12:26:00Z</time>
      </trkpt>
      <trkpt lat="49.25467" lon="1.80516">
        <ele>52</ele>
        <time>2022-02-20T12:26:04Z</time>
      </trkpt>
      <trkpt lat="49.25472" lon="1.80514">
        <ele>51.9</ele>
        <time>2022-02-20T12:26:09Z</time>
      </trkpt>
      <trkpt lat="49.25477" lon="1.8051">
        <ele>51.8</ele>
        <time>2022-02-20T12:26:14Z</time>
      </trkpt>
      <trkpt lat="49.25483" lon="1.80506">
        <ele>51.9</ele>
        <time>2022-02-20T12:26:19Z</time>
      </trkpt>
      <trkpt lat="49.25487" lon="1.80503">
        <ele>52.1</ele>
        <time>2022-02-20T12:26:23Z</time>
      </trkpt>
      <trkpt lat="49.25492" lon="1.80499">
        <ele>52.1</ele>
        <time>2022-02-20T12:26:28Z</time>
      </trkpt>
      <trkpt lat="49.25497" lon="1.80496">
        <ele>52.8</ele>
        <time>2022-02-20T12:26:34Z</time>
      </trkpt>
      <trkpt lat="49.25502" lon="1.80495">
        <ele>54.1</ele>
        <time>2022-02-20T12:26:37Z</time>
      </trkpt>
      <trkpt lat="49.25508" lon="1.80492">
        <ele>55.2</ele>
        <time>2022-02-20T12:26:42Z</time>
      </trkpt>
      <trkpt lat="49.25513" lon="1.80491">
        <ele>55.8</ele>
        <time>2022-02-20T12:26:45Z</time>
      </trkpt>
      <trkpt lat="49.25518" lon="1.80489">
        <ele>56.4</ele>
        <time>2022-02-20T12:26:50Z</time>
      </trkpt>
      <trkpt lat="49.25523" lon="1.80486">
        <ele>56.6</ele>
        <time>2022-02-20T12:26:55Z</time>
      </trkpt>
      <trkpt lat="49.25527" lon="1.80486">
        <ele>56.7</ele>
        <time>2022-02-20T12:26:59Z</time>
      </trkpt>
      <trkpt lat="49.25532" lon="1.80486">
        <ele>56.7</ele>
        <time>2022-02-20T12:27:03Z</time>
      </trkpt>
      <trkpt lat="49.25536" lon="1.8049">
        <ele>56.4</ele>
        <time>2022-02-20T12:27:08Z</time>
      </trkpt>
      <trkpt lat="49.25538" lon="1.80497">
        <ele>55.9</ele>
        <time>2022-02-20T12:27:12Z</time>
      </trkpt>
      <trkpt lat="49.25541" lon="1.80504">
        <ele>55.4</ele>
        <time>2022-02-20T12:27:16Z</time>
      </trkpt>
      <trkpt lat="49.25543" lon="1.8051">
        <ele>55</ele>
        <time>2022-02-20T12:27:20Z</time>
      </trkpt>
      <trkpt lat="49.25546" lon="1.80517">
        <ele>54.8</ele>
        <time>2022-02-20T12:27:24Z</time>
      </trkpt>
      <trkpt lat="49.25548" lon="1.80523">
        <ele>54.6</ele>
        <time>2022-02-20T12:27:28Z</time>
      </trkpt>
      <trkpt lat="49.25552" lon="1.80529">
        <ele>54.1</ele>
        <time>2022-02-20T12:27:32Z</time>
      </trkpt>
      <trkpt lat="49.25555" lon="1.80535">
        <ele>53.9</ele>
        <time>2022-02-20T12:27:36Z</time>
      </trkpt>
      <trkpt lat="49.25559" lon="1.8054">
        <ele>54</ele>
        <time>2022-02-20T12:27:40Z</time>
      </trkpt>
      <trkpt lat="49.25562" lon="1.80547">
        <ele>54.6</ele>
        <time>2022-02-20T12:27:44Z</time>
      </trkpt>
      <trkpt lat="49.25565" lon="1.80554">
        <ele>55.2</ele>
        <time>2022-02-20T12:27:47Z</time>
      </trkpt>
      <trkpt lat="49.25568" lon="1.80561">
        <ele>55.6</ele>
        <time>2022-02-20T12:27:50Z</time>
      </trkpt>
      <trkpt lat="49.25571" lon="1.80568">
        <ele>56</ele>
        <time>2022-02-20T12:27:54Z</time>
      </trkpt>
      <trkpt lat="49.25575" lon="1.80574">
        <ele>56.1</ele>
        <time>2022-02-20T12:27:58Z</time>
      </trkpt>
      <trkpt lat="49.25577" lon="1.8058">
        <ele>56</ele>
        <time>2022-02-20T12:28:02Z</time>
      </trkpt>
      <trkpt lat="49.2558" lon="1.80586">
        <ele>56.1</ele>
        <time>2022-02-20T12:28:06Z</time>
      </trkpt>
      <trkpt lat="49.25582" lon="1.80594">
        <ele>56.2</ele>
        <time>2022-02-20T12:28:10Z</time>
      </trkpt>
      <trkpt lat="49.25585" lon="1.806">
        <ele>55.7</ele>
        <time>2022-02-20T12:28:14Z</time>
      </trkpt>
      <trkpt lat="49.25588" lon="1.80607">
        <ele>54.6</ele>
        <time>2022-02-20T12:28:18Z</time>
      </trkpt>
      <trkpt lat="49.25592" lon="1.80613">
        <ele>54.3</ele>
        <time>2022-02-20T12:28:22Z</time>
      </trkpt>
      <trkpt lat="49.25596" lon="1.80619">
        <ele>54.8</ele>
        <time>2022-02-20T12:28:26Z</time>
      </trkpt>
      <trkpt lat="49.25599" lon="1.80626">
        <ele>55.5</ele>
        <time>2022-02-20T12:28:30Z</time>
      </trkpt>
      <trkpt lat="49.25602" lon="1.80631">
        <ele>55.9</ele>
        <time>2022-02-20T12:28:34Z</time>
      </trkpt>
      <trkpt lat="49.25604" lon="1.80637">
        <ele>56.3</ele>
        <time>2022-02-20T12:28:37Z</time>
      </trkpt>
      <trkpt lat="49.25607" lon="1.80643">
        <ele>56.4</ele>
        <time>2022-02-20T12:28:40Z</time>
      </trkpt>
      <trkpt lat="49.2561" lon="1.80649">
        <ele>56.1</ele>
        <time>2022-02-20T12:28:44Z</time>
      </trkpt>
      <trkpt lat="49.25612" lon="1.80656">
        <ele>55.2</ele>
        <time>2022-02-20T12:28:47Z</time>
      </trkpt>
      <trkpt lat="49.25614" lon="1.80662">
        <ele>54.4</ele>
        <time>2022-02-20T12:28:50Z</time>
      </trkpt>
      <trkpt lat="49.25616" lon="1.80668">
        <ele>54.4</ele>
        <time>2022-02-20T12:28:54Z</time>
      </trkpt>
      <trkpt lat="49.25619" lon="1.80676">
        <ele>54.8</ele>
        <time>2022-02-20T12:28:58Z</time>
      </trkpt>
      <trkpt lat="49.25622" lon="1.80683">
        <ele>54.7</ele>
        <time>2022-02-20T12:29:03Z</time>
      </trkpt>
      <trkpt lat="49.25626" lon="1.80689">
        <ele>54.6</ele>
        <time>2022-02-20T12:29:07Z</time>
      </trkpt>
      <trkpt lat="49.2563" lon="1.80692">
        <ele>54.9</ele>
        <time>2022-02-20T12:29:12Z</time>
      </trkpt>
      <trkpt lat="49.25633" lon="1.80698">
        <ele>54.7</ele>
        <time>2022-02-20T12:29:16Z</time>
      </trkpt>
      <trkpt lat="49.25637" lon="1.80704">
        <ele>54.8</ele>
        <time>2022-02-20T12:29:20Z</time>
      </trkpt>
      <trkpt lat="49.2564" lon="1.8071">
        <ele>55</ele>
        <time>2022-02-20T12:29:24Z</time>
      </trkpt>
      <trkpt lat="49.25643" lon="1.80717">
        <ele>55.2</ele>
        <time>2022-02-20T12:29:28Z</time>
      </trkpt>
      <trkpt lat="49.25646" lon="1.80725">
        <ele>55.9</ele>
        <time>2022-02-20T12:29:32Z</time>
      </trkpt>
      <trkpt lat="49.25648" lon="1.80731">
        <ele>56.1</ele>
        <time>2022-02-20T12:29:36Z</time>
      </trkpt>
      <trkpt lat="49.25651" lon="1.80739">
        <ele>56.1</ele>
        <time>2022-02-20T12:29:40Z</time>
      </trkpt>
      <trkpt lat="49.25653" lon="1.80745">
        <ele>55.9</ele>
        <time>2022-02-20T12:29:44Z</time>
      </trkpt>
      <trkpt lat="49.25657" lon="1.80753">
        <ele>55.8</ele>
        <time>2022-02-20T12:29:47Z</time>
      </trkpt>
      <trkpt lat="49.2566" lon="1.8076">
        <ele>55.8</ele>
        <time>2022-02-20T12:29:51Z</time>
      </trkpt>
      <trkpt lat="49.25663" lon="1.80767">
        <ele>55.7</ele>
        <time>2022-02-20T12:29:55Z</time>
      </trkpt>
      <trkpt lat="49.25666" lon="1.80774">
        <ele>55.5</ele>
        <time>2022-02-20T12:29:59Z</time>
      </trkpt>
      <trkpt lat="49.25669" lon="1.80781">
        <ele>55.1</ele>
        <time>2022-02-20T12:30:03Z</time>
      </trkpt>
      <trkpt lat="49.25671" lon="1.80787">
        <ele>54.5</ele>
        <time>2022-02-20T12:30:07Z</time>
      </trkpt>
      <trkpt lat="49.25674" lon="1.80794">
        <ele>54.2</ele>
        <time>2022-02-20T12:30:11Z</time>
      </trkpt>
      <trkpt lat="49.25677" lon="1.80801">
        <ele>54.6</ele>
        <time>2022-02-20T12:30:15Z</time>
      </trkpt>
      <trkpt lat="49.2568" lon="1.80806">
        <ele>55.7</ele>
        <time>2022-02-20T12:30:19Z</time>
      </trkpt>
      <trkpt lat="49.25684" lon="1.80813">
        <ele>56.3</ele>
        <time>2022-02-20T12:30:23Z</time>
      </trkpt>
      <trkpt lat="49.25687" lon="1.8082">
        <ele>56.4</ele>
        <time>2022-02-20T12:30:27Z</time>
      </trkpt>
      <trkpt lat="49.2569" lon="1.80826">
        <ele>56.3</ele>
        <time>2022-02-20T12:30:31Z</time>
      </trkpt>
      <trkpt lat="49.25693" lon="1.80833">
        <ele>56.2</ele>
        <time>2022-02-20T12:30:36Z</time>
      </trkpt>
      <trkpt lat="49.25696" lon="1.8084">
        <ele>56</ele>
        <time>2022-02-20T12:30:40Z</time>
      </trkpt>
      <trkpt lat="49.25699" lon="1.80846">
        <ele>55.8</ele>
        <time>2022-02-20T12:30:43Z</time>
      </trkpt>
      <trkpt lat="49.25702" lon="1.80853">
        <ele>55.9</ele>
        <time>2022-02-20T12:30:47Z</time>
      </trkpt>
      <trkpt lat="49.25705" lon="1.8086">
        <ele>56.2</ele>
        <time>2022-02-20T12:30:52Z</time>
      </trkpt>
      <trkpt lat="49.25707" lon="1.80866">
        <ele>56.5</ele>
        <time>2022-02-20T12:30:55Z</time>
      </trkpt>
      <trkpt lat="49.25711" lon="1.80873">
        <ele>56.9</ele>
        <time>2022-02-20T12:31:00Z</time>
      </trkpt>
      <trkpt lat="49.25714" lon="1.80879">
        <ele>56.9</ele>
        <time>2022-02-20T12:31:04Z</time>
      </trkpt>
      <trkpt lat="49.25718" lon="1.80886">
        <ele>56.8</ele>
        <time>2022-02-20T12:31:08Z</time>
      </trkpt>
      <trkpt lat="49.25721" lon="1.80892">
        <ele>56.7</ele>
        <time>2022-02-20T12:31:13Z</time>
      </trkpt>
      <trkpt lat="49.25725" lon="1.80898">
        <ele>56.6</ele>
        <time>2022-02-20T12:31:17Z</time>
      </trkpt>
      <trkpt lat="49.25729" lon="1.80904">
        <ele>56.8</ele>
        <time>2022-02-20T12:31:21Z</time>
      </trkpt>
      <trkpt lat="49.25733" lon="1.8091">
        <ele>56.7</ele>
        <time>2022-02-20T12:31:24Z</time>
      </trkpt>
      <trkpt lat="49.25736" lon="1.80916">
        <ele>56.5</ele>
        <time>2022-02-20T12:31:28Z</time>
      </trkpt>
      <trkpt lat="49.25739" lon="1.80922">
        <ele>56.1</ele>
        <time>2022-02-20T12:31:32Z</time>
      </trkpt>
      <trkpt lat="49.25743" lon="1.80928">
        <ele>56.1</ele>
        <time>2022-02-20T12:31:36Z</time>
      </trkpt>
      <trkpt lat="49.25747" lon="1.80934">
        <ele>56.4</ele>
        <time>2022-02-20T12:31:40Z</time>
      </trkpt>
      <trkpt lat="49.2575" lon="1.80939">
        <ele>57.2</ele>
        <time>2022-02-20T12:31:44Z</time>
      </trkpt>
      <trkpt lat="49.25754" lon="1.80945">
        <ele>57.8</ele>
        <time>2022-02-20T12:31:48Z</time>
      </trkpt>
      <trkpt lat="49.25757" lon="1.80951">
        <ele>58.1</ele>
        <time>2022-02-20T12:31:52Z</time>
      </trkpt>
      <trkpt lat="49.25762" lon="1.80957">
        <ele>58.4</ele>
        <time>2022-02-20T12:31:57Z</time>
      </trkpt>
      <trkpt lat="49.25765" lon="1.80964">
        <ele>59</ele>
        <time>2022-02-20T12:32:01Z</time>
      </trkpt>
      <trkpt lat="49.25768" lon="1.8097">
        <ele>59.6</ele>
        <time>2022-02-20T12:32:05Z</time>
      </trkpt>
      <trkpt lat="49.25772" lon="1.80977">
        <ele>59.8</ele>
        <time>2022-02-20T12:32:10Z</time>
      </trkpt>
      <trkpt lat="49.25775" lon="1.80983">
        <ele>59.5</ele>
        <time>2022-02-20T12:32:14Z</time>
      </trkpt>
      <trkpt lat="49.25779" lon="1.80989">
        <ele>59.1</ele>
        <time>2022-02-20T12:32:18Z</time>
      </trkpt>
      <trkpt lat="49.25782" lon="1.80995">
        <ele>58.5</ele>
        <time>2022-02-20T12:32:22Z</time>
      </trkpt>
      <trkpt lat="49.25786" lon="1.81">
        <ele>58.4</ele>
        <time>2022-02-20T12:32:26Z</time>
      </trkpt>
      <trkpt lat="49.25789" lon="1.81008">
        <ele>59.3</ele>
        <time>2022-02-20T12:32:31Z</time>
      </trkpt>
      <trkpt lat="49.25791" lon="1.81014">
        <ele>60</ele>
        <time>2022-02-20T12:32:35Z</time>
      </trkpt>
      <trkpt lat="49.25795" lon="1.81021">
        <ele>60.5</ele>
        <time>2022-02-20T12:32:39Z</time>
      </trkpt>
      <trkpt lat="49.25798" lon="1.81027">
        <ele>60.9</ele>
        <time>2022-02-20T12:32:43Z</time>
      </trkpt>
      <trkpt lat="49.258" lon="1.81034">
        <ele>61.4</ele>
        <time>2022-02-20T12:32:47Z</time>
      </trkpt>
      <trkpt lat="49.25804" lon="1.8104">
        <ele>61.6</ele>
        <time>2022-02-20T12:32:51Z</time>
      </trkpt>
      <trkpt lat="49.25807" lon="1.81046">
        <ele>62.3</ele>
        <time>2022-02-20T12:32:55Z</time>
      </trkpt>
      <trkpt lat="49.25811" lon="1.81053">
        <ele>62.9</ele>
        <time>2022-02-20T12:32:59Z</time>
      </trkpt>
      <trkpt lat="49.25814" lon="1.81059">
        <ele>63.2</ele>
        <time>2022-02-20T12:33:03Z</time>
      </trkpt>
      <trkpt lat="49.25818" lon="1.81064">
        <ele>63.1</ele>
        <time>2022-02-20T12:33:07Z</time>
      </trkpt>
      <trkpt lat="49.25821" lon="1.81071">
        <ele>63.2</ele>
        <time>2022-02-20T12:33:11Z</time>
      </trkpt>
      <trkpt lat="49.25825" lon="1.81077">
        <ele>63.2</ele>
        <time>2022-02-20T12:33:15Z</time>
      </trkpt>
      <trkpt lat="49.25828" lon="1.81084">
        <ele>62.9</ele>
        <time>2022-02-20T12:33:19Z</time>
      </trkpt>
      <trkpt lat="49.25831" lon="1.8109">
        <ele>62.5</ele>
        <time>2022-02-20T12:33:23Z</time>
      </trkpt>
      <trkpt lat="49.25833" lon="1.81096">
        <ele>61.6</ele>
        <time>2022-02-20T12:33:27Z</time>
      </trkpt>
      <trkpt lat="49.25836" lon="1.81103">
        <ele>60.7</ele>
        <time>2022-02-20T12:33:31Z</time>
      </trkpt>
      <trkpt lat="49.2584" lon="1.81109">
        <ele>60.2</ele>
        <time>2022-02-20T12:33:35Z</time>
      </trkpt>
      <trkpt lat="49.25843" lon="1.81114">
        <ele>59.9</ele>
        <time>2022-02-20T12:33:39Z</time>
      </trkpt>
      <trkpt lat="49.25847" lon="1.8112">
        <ele>59.7</ele>
        <time>2022-02-20T12:33:43Z</time>
      </trkpt>
      <trkpt lat="49.2585" lon="1.81126">
        <ele>59.6</ele>
        <time>2022-02-20T12:33:47Z</time>
      </trkpt>
      <trkpt lat="49.25853" lon="1.81132">
        <ele>59.8</ele>
        <time>2022-02-20T12:33:52Z</time>
      </trkpt>
      <trkpt lat="49.25856" lon="1.81139">
        <ele>60</ele>
        <time>2022-02-20T12:33:56Z</time>
      </trkpt>
      <trkpt lat="49.25859" lon="1.81144">
        <ele>60.4</ele>
        <time>2022-02-20T12:34:00Z</time>
      </trkpt>
      <trkpt lat="49.25863" lon="1.8115">
        <ele>60.5</ele>
        <time>2022-02-20T12:34:05Z</time>
      </trkpt>
      <trkpt lat="49.25866" lon="1.81158">
        <ele>60.2</ele>
        <time>2022-02-20T12:34:10Z</time>
      </trkpt>
      <trkpt lat="49.25869" lon="1.81164">
        <ele>60</ele>
        <time>2022-02-20T12:34:14Z</time>
      </trkpt>
      <trkpt lat="49.25872" lon="1.8117">
        <ele>59.9</ele>
        <time>2022-02-20T12:34:17Z</time>
      </trkpt>
      <trkpt lat="49.25876" lon="1.81176">
        <ele>59.3</ele>
        <time>2022-02-20T12:34:22Z</time>
      </trkpt>
      <trkpt lat="49.25879" lon="1.81182">
        <ele>58.4</ele>
        <time>2022-02-20T12:34:26Z</time>
      </trkpt>
      <trkpt lat="49.25883" lon="1.81188">
        <ele>58.1</ele>
        <time>2022-02-20T12:34:30Z</time>
      </trkpt>
      <trkpt lat="49.25886" lon="1.81195">
        <ele>58</ele>
        <time>2022-02-20T12:34:34Z</time>
      </trkpt>
      <trkpt lat="49.25889" lon="1.812">
        <ele>57.9</ele>
        <time>2022-02-20T12:34:38Z</time>
      </trkpt>
      <trkpt lat="49.25892" lon="1.81207">
        <ele>57.6</ele>
        <time>2022-02-20T12:34:42Z</time>
      </trkpt>
      <trkpt lat="49.25894" lon="1.81213">
        <ele>57.6</ele>
        <time>2022-02-20T12:34:45Z</time>
      </trkpt>
      <trkpt lat="49.25898" lon="1.8122">
        <ele>57.7</ele>
        <time>2022-02-20T12:34:50Z</time>
      </trkpt>
      <trkpt lat="49.25901" lon="1.81227">
        <ele>58.2</ele>
        <time>2022-02-20T12:34:54Z</time>
      </trkpt>
      <trkpt lat="49.25905" lon="1.81234">
        <ele>58.7</ele>
        <time>2022-02-20T12:34:59Z</time>
      </trkpt>
      <trkpt lat="49.25909" lon="1.8124">
        <ele>58.6</ele>
        <time>2022-02-20T12:35:03Z</time>
      </trkpt>
      <trkpt lat="49.25913" lon="1.81246">
        <ele>58.4</ele>
        <time>2022-02-20T12:35:08Z</time>
      </trkpt>
      <trkpt lat="49.25916" lon="1.81253">
        <ele>58.1</ele>
        <time>2022-02-20T12:35:12Z</time>
      </trkpt>
      <trkpt lat="49.2592" lon="1.8126">
        <ele>57.8</ele>
        <time>2022-02-20T12:35:17Z</time>
      </trkpt>
      <trkpt lat="49.25922" lon="1.81268">
        <ele>57.5</ele>
        <time>2022-02-20T12:35:21Z</time>
      </trkpt>
      <trkpt lat="49.25926" lon="1.81275">
        <ele>57.1</ele>
        <time>2022-02-20T12:35:26Z</time>
      </trkpt>
      <trkpt lat="49.25929" lon="1.81281">
        <ele>56.5</ele>
        <time>2022-02-20T12:35:30Z</time>
      </trkpt>
      <trkpt lat="49.25932" lon="1.81289">
        <ele>55.7</ele>
        <time>2022-02-20T12:35:35Z</time>
      </trkpt>
      <trkpt lat="49.25936" lon="1.81296">
        <ele>55.3</ele>
        <time>2022-02-20T12:35:39Z</time>
      </trkpt>
      <trkpt lat="49.2594" lon="1.81302">
        <ele>55.1</ele>
        <time>2022-02-20T12:35:44Z</time>
      </trkpt>
      <trkpt lat="49.25943" lon="1.81309">
        <ele>54.9</ele>
        <time>2022-02-20T12:35:48Z</time>
      </trkpt>
      <trkpt lat="49.25947" lon="1.81316">
        <ele>54.7</ele>
        <time>2022-02-20T12:35:52Z</time>
      </trkpt>
      <trkpt lat="49.25951" lon="1.81323">
        <ele>54.5</ele>
        <time>2022-02-20T12:35:57Z</time>
      </trkpt>
      <trkpt lat="49.25953" lon="1.81329">
        <ele>54.3</ele>
        <time>2022-02-20T12:36:00Z</time>
      </trkpt>
      <trkpt lat="49.25957" lon="1.81335">
        <ele>54.3</ele>
        <time>2022-02-20T12:36:05Z</time>
      </trkpt>
      <trkpt lat="49.25961" lon="1.81341">
        <ele>54.3</ele>
        <time>2022-02-20T12:36:09Z</time>
      </trkpt>
      <trkpt lat="49.25964" lon="1.81348">
        <ele>54</ele>
        <time>2022-02-20T12:36:14Z</time>
      </trkpt>
      <trkpt lat="49.25967" lon="1.81355">
        <ele>53.7</ele>
        <time>2022-02-20T12:36:18Z</time>
      </trkpt>
      <trkpt lat="49.25972" lon="1.8136">
        <ele>53.2</ele>
        <time>2022-02-20T12:36:23Z</time>
      </trkpt>
      <trkpt lat="49.25975" lon="1.81367">
        <ele>52.8</ele>
        <time>2022-02-20T12:36:27Z</time>
      </trkpt>
      <trkpt lat="49.25978" lon="1.81372">
        <ele>52.7</ele>
        <time>2022-02-20T12:36:31Z</time>
      </trkpt>
      <trkpt lat="49.25981" lon="1.81379">
        <ele>53.1</ele>
        <time>2022-02-20T12:36:35Z</time>
      </trkpt>
      <trkpt lat="49.25984" lon="1.81386">
        <ele>53.1</ele>
        <time>2022-02-20T12:36:39Z</time>
      </trkpt>
      <trkpt lat="49.25988" lon="1.81392">
        <ele>52.4</ele>
        <time>2022-02-20T12:36:44Z</time>
      </trkpt>
      <trkpt lat="49.25988" lon="1.814">
        <ele>51.7</ele>
        <time>2022-02-20T12:36:48Z</time>
      </trkpt>
      <trkpt lat="49.25991" lon="1.81408">
        <ele>52.2</ele>
        <time>2022-02-20T12:36:53Z</time>
      </trkpt>
      <trkpt lat="49.25991" lon="1.81415">
        <ele>53.2</ele>
        <time>2022-02-20T12:36:59Z</time>
      </trkpt>
      <trkpt lat="49.25992" lon="1.81423">
        <ele>53.3</ele>
        <time>2022-02-20T12:37:03Z</time>
      </trkpt>
      <trkpt lat="49.25993" lon="1.81431">
        <ele>53.3</ele>
        <time>2022-02-20T12:37:09Z</time>
      </trkpt>
      <trkpt lat="49.25998" lon="1.81432">
        <ele>53.2</ele>
        <time>2022-02-20T12:37:15Z</time>
      </trkpt>
      <trkpt lat="49.25996" lon="1.81425">
        <ele>52.2</ele>
        <time>2022-02-20T12:38:34Z</time>
      </trkpt>
      <trkpt lat="49.26001" lon="1.81421">
        <ele>52.9</ele>
        <time>2022-02-20T12:38:40Z</time>
      </trkpt>
      <trkpt lat="49.26004" lon="1.81426">
        <ele>53.4</ele>
        <time>2022-02-20T12:38:44Z</time>
      </trkpt>
      <trkpt lat="49.26005" lon="1.81433">
        <ele>53.5</ele>
        <time>2022-02-20T12:38:47Z</time>
      </trkpt>
      <trkpt lat="49.26008" lon="1.81439">
        <ele>54.3</ele>
        <time>2022-02-20T12:39:15Z</time>
      </trkpt>
      <trkpt lat="49.26011" lon="1.81444">
        <ele>53.7</ele>
        <time>2022-02-20T12:39:19Z</time>
      </trkpt>
      <trkpt lat="49.26013" lon="1.8145">
        <ele>53.8</ele>
        <time>2022-02-20T12:39:25Z</time>
      </trkpt>
    </trkseg>
  </trk>
</gpx>